<?xml version="1.0" encoding="UTF-8" standalone="no" ?>
<gpx xmlns="http://www.topografix.com/GPX/1/1" xmlns:xsi="http://www.w3.org/2001/XMLSchema-instance" xsi:schemaLocation="http://www.topografix.com/GPX/1/1 http://www.topografix.com/GPX/1/1/gpx.xsd" version="1.1" creator="VisuGPX - https://www.visugpx.com">
  <metadata>
    <name>Pornichet 16/02/2020</name>
    <desc><![CDATA[Sortie VTT du dimanche 16 février 2020
]]></desc>
  </metadata>
  <trk>
    <name><![CDATA[Pornichet Cyclisme]]></name>
    <trkseg>
      <trkpt lat="47.26389" lon="-2.31564">
        <ele>3.7999999523163</ele>
        <time>2020-02-16T08:00:52.000Z</time>
      </trkpt>
      <trkpt lat="47.26389" lon="-2.31583">
        <ele>3.7999999523163</ele>
        <time>2020-02-16T08:00:55.000Z</time>
      </trkpt>
      <trkpt lat="47.26388" lon="-2.31588">
        <ele>3.4000000953674</ele>
        <time>2020-02-16T08:00:56.000Z</time>
      </trkpt>
      <trkpt lat="47.26389" lon="-2.31595">
        <ele>3.4000000953674</ele>
        <time>2020-02-16T08:00:57.000Z</time>
      </trkpt>
      <trkpt lat="47.2639" lon="-2.31601">
        <ele>3.4000000953674</ele>
        <time>2020-02-16T08:00:58.000Z</time>
      </trkpt>
      <trkpt lat="47.26395" lon="-2.31637">
        <ele>3.4000000953674</ele>
        <time>2020-02-16T08:01:04.000Z</time>
      </trkpt>
      <trkpt lat="47.2639" lon="-2.31648">
        <ele>3.4000000953674</ele>
        <time>2020-02-16T08:01:08.000Z</time>
      </trkpt>
      <trkpt lat="47.26378" lon="-2.31657">
        <ele>3.4000000953674</ele>
        <time>2020-02-16T08:01:13.000Z</time>
      </trkpt>
      <trkpt lat="47.26356" lon="-2.3167">
        <ele>3.4000000953674</ele>
        <time>2020-02-16T08:01:18.000Z</time>
      </trkpt>
      <trkpt lat="47.26329" lon="-2.31682">
        <ele>3</ele>
        <time>2020-02-16T08:01:24.000Z</time>
      </trkpt>
      <trkpt lat="47.26324" lon="-2.31684">
        <ele>2.5999999046326</ele>
        <time>2020-02-16T08:01:25.000Z</time>
      </trkpt>
      <trkpt lat="47.26319" lon="-2.31687">
        <ele>2.2000000476837</ele>
        <time>2020-02-16T08:01:26.000Z</time>
      </trkpt>
      <trkpt lat="47.26314" lon="-2.31689">
        <ele>1.7999999523163</ele>
        <time>2020-02-16T08:01:27.000Z</time>
      </trkpt>
      <trkpt lat="47.26309" lon="-2.31691">
        <ele>1.3999999761581</ele>
        <time>2020-02-16T08:01:28.000Z</time>
      </trkpt>
      <trkpt lat="47.26304" lon="-2.31693">
        <ele>1.3999999761581</ele>
        <time>2020-02-16T08:01:29.000Z</time>
      </trkpt>
      <trkpt lat="47.26293" lon="-2.31705">
        <ele>1.3999999761581</ele>
        <time>2020-02-16T08:01:33.000Z</time>
      </trkpt>
      <trkpt lat="47.26296" lon="-2.31725">
        <ele>1.3999999761581</ele>
        <time>2020-02-16T08:01:37.000Z</time>
      </trkpt>
      <trkpt lat="47.26296" lon="-2.3173">
        <ele>1.3999999761581</ele>
        <time>2020-02-16T08:01:38.000Z</time>
      </trkpt>
      <trkpt lat="47.26298" lon="-2.31756">
        <ele>1.3999999761581</ele>
        <time>2020-02-16T08:01:43.000Z</time>
      </trkpt>
      <trkpt lat="47.263" lon="-2.3178">
        <ele>1</ele>
        <time>2020-02-16T08:01:48.000Z</time>
      </trkpt>
      <trkpt lat="47.263" lon="-2.31786">
        <ele>0.60000002384186</ele>
        <time>2020-02-16T08:01:49.000Z</time>
      </trkpt>
      <trkpt lat="47.263" lon="-2.31791">
        <ele>0.20000000298023</ele>
        <time>2020-02-16T08:01:50.000Z</time>
      </trkpt>
      <trkpt lat="47.263" lon="-2.31797">
        <ele>-0.20000000298023</ele>
        <time>2020-02-16T08:01:51.000Z</time>
      </trkpt>
      <trkpt lat="47.263" lon="-2.31803">
        <ele>-0.60000002384186</ele>
        <time>2020-02-16T08:01:52.000Z</time>
      </trkpt>
      <trkpt lat="47.26298" lon="-2.31813">
        <ele>-0.60000002384186</ele>
        <time>2020-02-16T08:01:54.000Z</time>
      </trkpt>
      <trkpt lat="47.26296" lon="-2.31829">
        <ele>-0.60000002384186</ele>
        <time>2020-02-16T08:01:59.000Z</time>
      </trkpt>
      <trkpt lat="47.26292" lon="-2.31847">
        <ele>-0.60000002384186</ele>
        <time>2020-02-16T08:02:06.000Z</time>
      </trkpt>
      <trkpt lat="47.26289" lon="-2.3185">
        <ele>-0.60000002384186</ele>
        <time>2020-02-16T08:02:08.000Z</time>
      </trkpt>
      <trkpt lat="47.26282" lon="-2.31855">
        <ele>-0.60000002384186</ele>
        <time>2020-02-16T08:02:11.000Z</time>
      </trkpt>
      <trkpt lat="47.26269" lon="-2.31872">
        <ele>-0.60000002384186</ele>
        <time>2020-02-16T08:02:18.000Z</time>
      </trkpt>
      <trkpt lat="47.26257" lon="-2.31891">
        <ele>-0.60000002384186</ele>
        <time>2020-02-16T08:02:23.000Z</time>
      </trkpt>
      <trkpt lat="47.26247" lon="-2.31905">
        <ele>-0.60000002384186</ele>
        <time>2020-02-16T08:02:28.000Z</time>
      </trkpt>
      <trkpt lat="47.26239" lon="-2.31924">
        <ele>-0.60000002384186</ele>
        <time>2020-02-16T08:02:34.000Z</time>
      </trkpt>
      <trkpt lat="47.26237" lon="-2.31927">
        <ele>-1</ele>
        <time>2020-02-16T08:02:36.000Z</time>
      </trkpt>
      <trkpt lat="47.26235" lon="-2.31927">
        <ele>-1.3999999761581</ele>
        <time>2020-02-16T08:02:37.000Z</time>
      </trkpt>
      <trkpt lat="47.26234" lon="-2.31927">
        <ele>-1.7999999523163</ele>
        <time>2020-02-16T08:02:38.000Z</time>
      </trkpt>
      <trkpt lat="47.26233" lon="-2.31927">
        <ele>-2.2000000476837</ele>
        <time>2020-02-16T08:02:39.000Z</time>
      </trkpt>
      <trkpt lat="47.26231" lon="-2.31928">
        <ele>-2.5999999046326</ele>
        <time>2020-02-16T08:02:40.000Z</time>
      </trkpt>
      <trkpt lat="47.26226" lon="-2.31934">
        <ele>-2.5999999046326</ele>
        <time>2020-02-16T08:02:43.000Z</time>
      </trkpt>
      <trkpt lat="47.26222" lon="-2.31939">
        <ele>-2.5999999046326</ele>
        <time>2020-02-16T08:02:46.000Z</time>
      </trkpt>
      <trkpt lat="47.26218" lon="-2.31945">
        <ele>-2.5999999046326</ele>
        <time>2020-02-16T08:02:48.000Z</time>
      </trkpt>
      <trkpt lat="47.26206" lon="-2.31957">
        <ele>-2.5999999046326</ele>
        <time>2020-02-16T08:02:54.000Z</time>
      </trkpt>
      <trkpt lat="47.26206" lon="-2.31961">
        <ele>-2.5999999046326</ele>
        <time>2020-02-16T08:02:55.000Z</time>
      </trkpt>
      <trkpt lat="47.26206" lon="-2.31966">
        <ele>-2.5999999046326</ele>
        <time>2020-02-16T08:02:57.000Z</time>
      </trkpt>
      <trkpt lat="47.26204" lon="-2.31973">
        <ele>-2.5999999046326</ele>
        <time>2020-02-16T08:03:01.000Z</time>
      </trkpt>
      <trkpt lat="47.26203" lon="-2.31972">
        <ele>-2.5999999046326</ele>
        <time>2020-02-16T08:03:02.000Z</time>
      </trkpt>
      <trkpt lat="47.262" lon="-2.31972">
        <ele>-2.5999999046326</ele>
        <time>2020-02-16T08:03:04.000Z</time>
      </trkpt>
      <trkpt lat="47.26191" lon="-2.31978">
        <ele>-2.5999999046326</ele>
        <time>2020-02-16T08:03:09.000Z</time>
      </trkpt>
      <trkpt lat="47.26173" lon="-2.31989">
        <ele>-2.5999999046326</ele>
        <time>2020-02-16T08:03:15.000Z</time>
      </trkpt>
      <trkpt lat="47.26166" lon="-2.32005">
        <ele>-2.5999999046326</ele>
        <time>2020-02-16T08:03:18.000Z</time>
      </trkpt>
      <trkpt lat="47.26143" lon="-2.32039">
        <ele>-2.5999999046326</ele>
        <time>2020-02-16T08:03:25.000Z</time>
      </trkpt>
      <trkpt lat="47.26139" lon="-2.32043">
        <ele>-2.5999999046326</ele>
        <time>2020-02-16T08:03:26.000Z</time>
      </trkpt>
      <trkpt lat="47.26133" lon="-2.32059">
        <ele>-2.5999999046326</ele>
        <time>2020-02-16T08:03:29.000Z</time>
      </trkpt>
      <trkpt lat="47.26127" lon="-2.32076">
        <ele>-2.5999999046326</ele>
        <time>2020-02-16T08:03:32.000Z</time>
      </trkpt>
      <trkpt lat="47.26123" lon="-2.32087">
        <ele>-2.5999999046326</ele>
        <time>2020-02-16T08:03:34.000Z</time>
      </trkpt>
      <trkpt lat="47.2612" lon="-2.32093">
        <ele>-2.2000000476837</ele>
        <time>2020-02-16T08:03:35.000Z</time>
      </trkpt>
      <trkpt lat="47.26118" lon="-2.32098">
        <ele>-1.7999999523163</ele>
        <time>2020-02-16T08:03:36.000Z</time>
      </trkpt>
      <trkpt lat="47.26117" lon="-2.32102">
        <ele>-1.2000000476837</ele>
        <time>2020-02-16T08:03:37.000Z</time>
      </trkpt>
      <trkpt lat="47.26115" lon="-2.32107">
        <ele>-0.80000001192093</ele>
        <time>2020-02-16T08:03:38.000Z</time>
      </trkpt>
      <trkpt lat="47.26113" lon="-2.32113">
        <ele>-0.40000000596046</ele>
        <time>2020-02-16T08:03:39.000Z</time>
      </trkpt>
      <trkpt lat="47.26099" lon="-2.32141">
        <ele>-0.40000000596046</ele>
        <time>2020-02-16T08:03:44.000Z</time>
      </trkpt>
      <trkpt lat="47.26078" lon="-2.32176">
        <ele>-0.40000000596046</ele>
        <time>2020-02-16T08:03:51.000Z</time>
      </trkpt>
      <trkpt lat="47.26061" lon="-2.32198">
        <ele>-0.40000000596046</ele>
        <time>2020-02-16T08:03:56.000Z</time>
      </trkpt>
      <trkpt lat="47.26057" lon="-2.32201">
        <ele>-0.40000000596046</ele>
        <time>2020-02-16T08:03:57.000Z</time>
      </trkpt>
      <trkpt lat="47.26035" lon="-2.32226">
        <ele>-0.40000000596046</ele>
        <time>2020-02-16T08:04:03.000Z</time>
      </trkpt>
      <trkpt lat="47.26004" lon="-2.32265">
        <ele>-0.40000000596046</ele>
        <time>2020-02-16T08:04:12.000Z</time>
      </trkpt>
      <trkpt lat="47.25975" lon="-2.32306">
        <ele>-0.40000000596046</ele>
        <time>2020-02-16T08:04:21.000Z</time>
      </trkpt>
      <trkpt lat="47.25969" lon="-2.32315">
        <ele>-0.40000000596046</ele>
        <time>2020-02-16T08:04:23.000Z</time>
      </trkpt>
      <trkpt lat="47.25952" lon="-2.32337">
        <ele>-0.40000000596046</ele>
        <time>2020-02-16T08:04:28.000Z</time>
      </trkpt>
      <trkpt lat="47.25944" lon="-2.32346">
        <ele>-0.40000000596046</ele>
        <time>2020-02-16T08:04:30.000Z</time>
      </trkpt>
      <trkpt lat="47.25935" lon="-2.32361">
        <ele>-0.40000000596046</ele>
        <time>2020-02-16T08:04:33.000Z</time>
      </trkpt>
      <trkpt lat="47.25916" lon="-2.32388">
        <ele>3.2</ele>
        <time>2020-02-16T08:04:39.000Z</time>
      </trkpt>
      <trkpt lat="47.25913" lon="-2.32391">
        <ele>0.40000000596046</ele>
        <time>2020-02-16T08:04:40.000Z</time>
      </trkpt>
      <trkpt lat="47.2591" lon="-2.32396">
        <ele>1</ele>
        <time>2020-02-16T08:04:41.000Z</time>
      </trkpt>
      <trkpt lat="47.25907" lon="-2.324">
        <ele>1.3999999761581</ele>
        <time>2020-02-16T08:04:42.000Z</time>
      </trkpt>
      <trkpt lat="47.25904" lon="-2.32404">
        <ele>1.7999999523163</ele>
        <time>2020-02-16T08:04:43.000Z</time>
      </trkpt>
      <trkpt lat="47.25891" lon="-2.32424">
        <ele>1.7999999523163</ele>
        <time>2020-02-16T08:04:48.000Z</time>
      </trkpt>
      <trkpt lat="47.25869" lon="-2.32439">
        <ele>1.7999999523163</ele>
        <time>2020-02-16T08:04:54.000Z</time>
      </trkpt>
      <trkpt lat="47.25849" lon="-2.32447">
        <ele>1.7999999523163</ele>
        <time>2020-02-16T08:05:00.000Z</time>
      </trkpt>
      <trkpt lat="47.25841" lon="-2.32446">
        <ele>1.7999999523163</ele>
        <time>2020-02-16T08:05:02.000Z</time>
      </trkpt>
      <trkpt lat="47.2583" lon="-2.32442">
        <ele>1.7999999523163</ele>
        <time>2020-02-16T08:05:05.000Z</time>
      </trkpt>
      <trkpt lat="47.25819" lon="-2.32437">
        <ele>1.7999999523163</ele>
        <time>2020-02-16T08:05:08.000Z</time>
      </trkpt>
      <trkpt lat="47.25815" lon="-2.32435">
        <ele>1.2000000476837</ele>
        <time>2020-02-16T08:05:09.000Z</time>
      </trkpt>
      <trkpt lat="47.25812" lon="-2.32434">
        <ele>0.80000001192093</ele>
        <time>2020-02-16T08:05:10.000Z</time>
      </trkpt>
      <trkpt lat="47.25808" lon="-2.32433">
        <ele>-0.20000000298023</ele>
        <time>2020-02-16T08:05:11.000Z</time>
      </trkpt>
      <trkpt lat="47.25805" lon="-2.32432">
        <ele>-0.60000002384186</ele>
        <time>2020-02-16T08:05:12.000Z</time>
      </trkpt>
      <trkpt lat="47.25795" lon="-2.32437">
        <ele>-0.60000002384186</ele>
        <time>2020-02-16T08:05:15.000Z</time>
      </trkpt>
      <trkpt lat="47.25793" lon="-2.32439">
        <ele>-0.20000000298023</ele>
        <time>2020-02-16T08:05:16.000Z</time>
      </trkpt>
      <trkpt lat="47.25791" lon="-2.32438">
        <ele>0.20000000298023</ele>
        <time>2020-02-16T08:05:17.000Z</time>
      </trkpt>
      <trkpt lat="47.25788" lon="-2.32435">
        <ele>0.60000002384186</ele>
        <time>2020-02-16T08:05:18.000Z</time>
      </trkpt>
      <trkpt lat="47.25785" lon="-2.32432">
        <ele>1</ele>
        <time>2020-02-16T08:05:19.000Z</time>
      </trkpt>
      <trkpt lat="47.25782" lon="-2.32428">
        <ele>1.3999999761581</ele>
        <time>2020-02-16T08:05:20.000Z</time>
      </trkpt>
      <trkpt lat="47.2578" lon="-2.32423">
        <ele>1.3999999761581</ele>
        <time>2020-02-16T08:05:21.000Z</time>
      </trkpt>
      <trkpt lat="47.2577" lon="-2.3241">
        <ele>1.3999999761581</ele>
        <time>2020-02-16T08:05:25.000Z</time>
      </trkpt>
      <trkpt lat="47.2576" lon="-2.3241">
        <ele>2</ele>
        <time>2020-02-16T08:05:27.000Z</time>
      </trkpt>
      <trkpt lat="47.25755" lon="-2.3241">
        <ele>2.4000000953674</ele>
        <time>2020-02-16T08:05:28.000Z</time>
      </trkpt>
      <trkpt lat="47.25751" lon="-2.32411">
        <ele>2.7999999523163</ele>
        <time>2020-02-16T08:05:29.000Z</time>
      </trkpt>
      <trkpt lat="47.25746" lon="-2.32412">
        <ele>3.2000000476837</ele>
        <time>2020-02-16T08:05:30.000Z</time>
      </trkpt>
      <trkpt lat="47.25742" lon="-2.32411">
        <ele>3.5999999046326</ele>
        <time>2020-02-16T08:05:31.000Z</time>
      </trkpt>
      <trkpt lat="47.25713" lon="-2.32414">
        <ele>3.5999999046326</ele>
        <time>2020-02-16T08:05:38.000Z</time>
      </trkpt>
      <trkpt lat="47.2568" lon="-2.32412">
        <ele>3.5999999046326</ele>
        <time>2020-02-16T08:05:46.000Z</time>
      </trkpt>
      <trkpt lat="47.25666" lon="-2.32415">
        <ele>3.5999999046326</ele>
        <time>2020-02-16T08:05:50.000Z</time>
      </trkpt>
      <trkpt lat="47.25664" lon="-2.32432">
        <ele>3.5999999046326</ele>
        <time>2020-02-16T08:05:53.000Z</time>
      </trkpt>
      <trkpt lat="47.25665" lon="-2.32438">
        <ele>3.2000000476837</ele>
        <time>2020-02-16T08:05:54.000Z</time>
      </trkpt>
      <trkpt lat="47.25666" lon="-2.32443">
        <ele>2.7999999523163</ele>
        <time>2020-02-16T08:05:55.000Z</time>
      </trkpt>
      <trkpt lat="47.25668" lon="-2.32449">
        <ele>2.2000000476837</ele>
        <time>2020-02-16T08:05:56.000Z</time>
      </trkpt>
      <trkpt lat="47.25669" lon="-2.32454">
        <ele>1.7999999523163</ele>
        <time>2020-02-16T08:05:57.000Z</time>
      </trkpt>
      <trkpt lat="47.25671" lon="-2.3246">
        <ele>1.2000000476837</ele>
        <time>2020-02-16T08:05:58.000Z</time>
      </trkpt>
      <trkpt lat="47.25674" lon="-2.3247">
        <ele>1.2000000476837</ele>
        <time>2020-02-16T08:06:00.000Z</time>
      </trkpt>
      <trkpt lat="47.25677" lon="-2.3248">
        <ele>1.7999999523163</ele>
        <time>2020-02-16T08:06:02.000Z</time>
      </trkpt>
      <trkpt lat="47.2568" lon="-2.32485">
        <ele>2.2000000476837</ele>
        <time>2020-02-16T08:06:03.000Z</time>
      </trkpt>
      <trkpt lat="47.25681" lon="-2.3249">
        <ele>2.5999999046326</ele>
        <time>2020-02-16T08:06:04.000Z</time>
      </trkpt>
      <trkpt lat="47.25683" lon="-2.32495">
        <ele>3</ele>
        <time>2020-02-16T08:06:05.000Z</time>
      </trkpt>
      <trkpt lat="47.25685" lon="-2.325">
        <ele>3.4000000953674</ele>
        <time>2020-02-16T08:06:06.000Z</time>
      </trkpt>
      <trkpt lat="47.25692" lon="-2.3252">
        <ele>3.4000000953674</ele>
        <time>2020-02-16T08:06:10.000Z</time>
      </trkpt>
      <trkpt lat="47.25699" lon="-2.3254">
        <ele>3.7999999523163</ele>
        <time>2020-02-16T08:06:14.000Z</time>
      </trkpt>
      <trkpt lat="47.25701" lon="-2.32544">
        <ele>4.1999998092651</ele>
        <time>2020-02-16T08:06:15.000Z</time>
      </trkpt>
      <trkpt lat="47.25702" lon="-2.32549">
        <ele>4.5999999046326</ele>
        <time>2020-02-16T08:06:16.000Z</time>
      </trkpt>
      <trkpt lat="47.25704" lon="-2.32554">
        <ele>5</ele>
        <time>2020-02-16T08:06:17.000Z</time>
      </trkpt>
      <trkpt lat="47.25706" lon="-2.32559">
        <ele>5.4000000953674</ele>
        <time>2020-02-16T08:06:18.000Z</time>
      </trkpt>
      <trkpt lat="47.25714" lon="-2.32589">
        <ele>6</ele>
        <time>2020-02-16T08:06:24.000Z</time>
      </trkpt>
      <trkpt lat="47.25716" lon="-2.32594">
        <ele>6.8000001907349</ele>
        <time>2020-02-16T08:06:25.000Z</time>
      </trkpt>
      <trkpt lat="47.25716" lon="-2.32599">
        <ele>7.4000000953674</ele>
        <time>2020-02-16T08:06:26.000Z</time>
      </trkpt>
      <trkpt lat="47.25716" lon="-2.32604">
        <ele>7.8000001907349</ele>
        <time>2020-02-16T08:06:27.000Z</time>
      </trkpt>
      <trkpt lat="47.25712" lon="-2.32613">
        <ele>7.8000001907349</ele>
        <time>2020-02-16T08:06:29.000Z</time>
      </trkpt>
      <trkpt lat="47.257" lon="-2.32622">
        <ele>7.8000001907349</ele>
        <time>2020-02-16T08:06:33.000Z</time>
      </trkpt>
      <trkpt lat="47.25692" lon="-2.32625">
        <ele>8.1999998092651</ele>
        <time>2020-02-16T08:06:35.000Z</time>
      </trkpt>
      <trkpt lat="47.25689" lon="-2.32626">
        <ele>8.6000003814697</ele>
        <time>2020-02-16T08:06:36.000Z</time>
      </trkpt>
      <trkpt lat="47.25685" lon="-2.32628">
        <ele>9</ele>
        <time>2020-02-16T08:06:37.000Z</time>
      </trkpt>
      <trkpt lat="47.25682" lon="-2.32629">
        <ele>9.3999996185303</ele>
        <time>2020-02-16T08:06:38.000Z</time>
      </trkpt>
      <trkpt lat="47.25678" lon="-2.32631">
        <ele>9.8000001907349</ele>
        <time>2020-02-16T08:06:39.000Z</time>
      </trkpt>
      <trkpt lat="47.25675" lon="-2.32633">
        <ele>10.39999961853</ele>
        <time>2020-02-16T08:06:40.000Z</time>
      </trkpt>
      <trkpt lat="47.25672" lon="-2.32635">
        <ele>10.800000190735</ele>
        <time>2020-02-16T08:06:41.000Z</time>
      </trkpt>
      <trkpt lat="47.25669" lon="-2.32636">
        <ele>11.39999961853</ele>
        <time>2020-02-16T08:06:42.000Z</time>
      </trkpt>
      <trkpt lat="47.25665" lon="-2.32638">
        <ele>12</ele>
        <time>2020-02-16T08:06:43.000Z</time>
      </trkpt>
      <trkpt lat="47.25662" lon="-2.3264">
        <ele>12.39999961853</ele>
        <time>2020-02-16T08:06:44.000Z</time>
      </trkpt>
      <trkpt lat="47.25644" lon="-2.32649">
        <ele>12.39999961853</ele>
        <time>2020-02-16T08:06:49.000Z</time>
      </trkpt>
      <trkpt lat="47.25616" lon="-2.32661">
        <ele>12.39999961853</ele>
        <time>2020-02-16T08:06:57.000Z</time>
      </trkpt>
      <trkpt lat="47.25591" lon="-2.32671">
        <ele>12.39999961853</ele>
        <time>2020-02-16T08:07:04.000Z</time>
      </trkpt>
      <trkpt lat="47.25584" lon="-2.32673">
        <ele>12.800000190735</ele>
        <time>2020-02-16T08:07:06.000Z</time>
      </trkpt>
      <trkpt lat="47.25581" lon="-2.32675">
        <ele>13.199999809265</ele>
        <time>2020-02-16T08:07:07.000Z</time>
      </trkpt>
      <trkpt lat="47.25577" lon="-2.32676">
        <ele>13.60000038147</ele>
        <time>2020-02-16T08:07:08.000Z</time>
      </trkpt>
      <trkpt lat="47.25573" lon="-2.32677">
        <ele>14.199999809265</ele>
        <time>2020-02-16T08:07:09.000Z</time>
      </trkpt>
      <trkpt lat="47.2557" lon="-2.32679">
        <ele>14.60000038147</ele>
        <time>2020-02-16T08:07:10.000Z</time>
      </trkpt>
      <trkpt lat="47.25563" lon="-2.32682">
        <ele>14.60000038147</ele>
        <time>2020-02-16T08:07:12.000Z</time>
      </trkpt>
      <trkpt lat="47.25541" lon="-2.32693">
        <ele>14.60000038147</ele>
        <time>2020-02-16T08:07:18.000Z</time>
      </trkpt>
      <trkpt lat="47.25518" lon="-2.327">
        <ele>14.60000038147</ele>
        <time>2020-02-16T08:07:24.000Z</time>
      </trkpt>
      <trkpt lat="47.25499" lon="-2.327">
        <ele>14.60000038147</ele>
        <time>2020-02-16T08:07:29.000Z</time>
      </trkpt>
      <trkpt lat="47.25495" lon="-2.32701">
        <ele>14.60000038147</ele>
        <time>2020-02-16T08:07:30.000Z</time>
      </trkpt>
      <trkpt lat="47.25476" lon="-2.32715">
        <ele>14.60000038147</ele>
        <time>2020-02-16T08:07:35.000Z</time>
      </trkpt>
      <trkpt lat="47.25455" lon="-2.32743">
        <ele>14.60000038147</ele>
        <time>2020-02-16T08:07:42.000Z</time>
      </trkpt>
      <trkpt lat="47.25439" lon="-2.32769">
        <ele>14.60000038147</ele>
        <time>2020-02-16T08:07:48.000Z</time>
      </trkpt>
      <trkpt lat="47.25435" lon="-2.3278">
        <ele>14.60000038147</ele>
        <time>2020-02-16T08:07:50.000Z</time>
      </trkpt>
      <trkpt lat="47.25432" lon="-2.32784">
        <ele>14.199999809265</ele>
        <time>2020-02-16T08:07:51.000Z</time>
      </trkpt>
      <trkpt lat="47.25429" lon="-2.32788">
        <ele>13.60000038147</ele>
        <time>2020-02-16T08:07:52.000Z</time>
      </trkpt>
      <trkpt lat="47.25425" lon="-2.32793">
        <ele>13.199999809265</ele>
        <time>2020-02-16T08:07:53.000Z</time>
      </trkpt>
      <trkpt lat="47.25422" lon="-2.32798">
        <ele>12.800000190735</ele>
        <time>2020-02-16T08:07:54.000Z</time>
      </trkpt>
      <trkpt lat="47.25419" lon="-2.32803">
        <ele>12.39999961853</ele>
        <time>2020-02-16T08:07:55.000Z</time>
      </trkpt>
      <trkpt lat="47.25402" lon="-2.32828">
        <ele>12.39999961853</ele>
        <time>2020-02-16T08:08:00.000Z</time>
      </trkpt>
      <trkpt lat="47.25379" lon="-2.32856">
        <ele>12.39999961853</ele>
        <time>2020-02-16T08:08:07.000Z</time>
      </trkpt>
      <trkpt lat="47.25361" lon="-2.32874">
        <ele>12.39999961853</ele>
        <time>2020-02-16T08:08:12.000Z</time>
      </trkpt>
      <trkpt lat="47.25351" lon="-2.32885">
        <ele>12.39999961853</ele>
        <time>2020-02-16T08:08:15.000Z</time>
      </trkpt>
      <trkpt lat="47.25321" lon="-2.32914">
        <ele>12.39999961853</ele>
        <time>2020-02-16T08:08:24.000Z</time>
      </trkpt>
      <trkpt lat="47.25309" lon="-2.32935">
        <ele>12.39999961853</ele>
        <time>2020-02-16T08:08:29.000Z</time>
      </trkpt>
      <trkpt lat="47.25313" lon="-2.32957">
        <ele>12.39999961853</ele>
        <time>2020-02-16T08:08:33.000Z</time>
      </trkpt>
      <trkpt lat="47.25323" lon="-2.32985">
        <ele>12.39999961853</ele>
        <time>2020-02-16T08:08:38.000Z</time>
      </trkpt>
      <trkpt lat="47.25326" lon="-2.32991">
        <ele>12.39999961853</ele>
        <time>2020-02-16T08:08:39.000Z</time>
      </trkpt>
      <trkpt lat="47.2534" lon="-2.33025">
        <ele>12.39999961853</ele>
        <time>2020-02-16T08:08:45.000Z</time>
      </trkpt>
      <trkpt lat="47.25353" lon="-2.33064">
        <ele>12.39999961853</ele>
        <time>2020-02-16T08:08:52.000Z</time>
      </trkpt>
      <trkpt lat="47.25367" lon="-2.33105">
        <ele>12.39999961853</ele>
        <time>2020-02-16T08:09:00.000Z</time>
      </trkpt>
      <trkpt lat="47.25372" lon="-2.33119">
        <ele>12</ele>
        <time>2020-02-16T08:09:04.000Z</time>
      </trkpt>
      <trkpt lat="47.25372" lon="-2.33121">
        <ele>11.60000038147</ele>
        <time>2020-02-16T08:09:05.000Z</time>
      </trkpt>
      <trkpt lat="47.25372" lon="-2.33122">
        <ele>11.199999809265</ele>
        <time>2020-02-16T08:09:06.000Z</time>
      </trkpt>
      <trkpt lat="47.25372" lon="-2.33122">
        <ele>10.800000190735</ele>
        <time>2020-02-16T08:09:07.000Z</time>
      </trkpt>
      <trkpt lat="47.25374" lon="-2.33124">
        <ele>12.39999961853</ele>
        <time>2020-02-16T08:09:59.000Z</time>
      </trkpt>
      <trkpt lat="47.25377" lon="-2.33127">
        <ele>12.39999961853</ele>
        <time>2020-02-16T08:10:01.000Z</time>
      </trkpt>
      <trkpt lat="47.25386" lon="-2.33144">
        <ele>12.39999961853</ele>
        <time>2020-02-16T08:10:08.000Z</time>
      </trkpt>
      <trkpt lat="47.25397" lon="-2.33166">
        <ele>12.39999961853</ele>
        <time>2020-02-16T08:10:15.000Z</time>
      </trkpt>
      <trkpt lat="47.25409" lon="-2.33189">
        <ele>12.800000190735</ele>
        <time>2020-02-16T08:10:21.000Z</time>
      </trkpt>
      <trkpt lat="47.25411" lon="-2.33194">
        <ele>13.39999961853</ele>
        <time>2020-02-16T08:10:22.000Z</time>
      </trkpt>
      <trkpt lat="47.25413" lon="-2.33199">
        <ele>13.800000190735</ele>
        <time>2020-02-16T08:10:23.000Z</time>
      </trkpt>
      <trkpt lat="47.25415" lon="-2.33204">
        <ele>14.199999809265</ele>
        <time>2020-02-16T08:10:24.000Z</time>
      </trkpt>
      <trkpt lat="47.25417" lon="-2.33209">
        <ele>14.60000038147</ele>
        <time>2020-02-16T08:10:25.000Z</time>
      </trkpt>
      <trkpt lat="47.25425" lon="-2.33229">
        <ele>14.60000038147</ele>
        <time>2020-02-16T08:10:29.000Z</time>
      </trkpt>
      <trkpt lat="47.25429" lon="-2.33238">
        <ele>15</ele>
        <time>2020-02-16T08:10:31.000Z</time>
      </trkpt>
      <trkpt lat="47.25431" lon="-2.33243">
        <ele>15.800000190735</ele>
        <time>2020-02-16T08:10:32.000Z</time>
      </trkpt>
      <trkpt lat="47.25433" lon="-2.33248">
        <ele>16.39999961853</ele>
        <time>2020-02-16T08:10:33.000Z</time>
      </trkpt>
      <trkpt lat="47.25435" lon="-2.33253">
        <ele>16.799999237061</ele>
        <time>2020-02-16T08:10:34.000Z</time>
      </trkpt>
      <trkpt lat="47.25437" lon="-2.33258">
        <ele>16.799999237061</ele>
        <time>2020-02-16T08:10:35.000Z</time>
      </trkpt>
      <trkpt lat="47.25449" lon="-2.33288">
        <ele>16.799999237061</ele>
        <time>2020-02-16T08:10:41.000Z</time>
      </trkpt>
      <trkpt lat="47.25449" lon="-2.33294">
        <ele>16.799999237061</ele>
        <time>2020-02-16T08:10:42.000Z</time>
      </trkpt>
      <trkpt lat="47.25445" lon="-2.33311">
        <ele>16.799999237061</ele>
        <time>2020-02-16T08:10:45.000Z</time>
      </trkpt>
      <trkpt lat="47.25443" lon="-2.33316">
        <ele>16.799999237061</ele>
        <time>2020-02-16T08:10:46.000Z</time>
      </trkpt>
      <trkpt lat="47.25434" lon="-2.33343">
        <ele>16.799999237061</ele>
        <time>2020-02-16T08:10:51.000Z</time>
      </trkpt>
      <trkpt lat="47.25431" lon="-2.33372">
        <ele>16.799999237061</ele>
        <time>2020-02-16T08:10:56.000Z</time>
      </trkpt>
      <trkpt lat="47.25432" lon="-2.33419">
        <ele>16.799999237061</ele>
        <time>2020-02-16T08:11:04.000Z</time>
      </trkpt>
      <trkpt lat="47.25433" lon="-2.33459">
        <ele>16.799999237061</ele>
        <time>2020-02-16T08:11:11.000Z</time>
      </trkpt>
      <trkpt lat="47.2544" lon="-2.33488">
        <ele>16.799999237061</ele>
        <time>2020-02-16T08:11:17.000Z</time>
      </trkpt>
      <trkpt lat="47.25447" lon="-2.33513">
        <ele>16.799999237061</ele>
        <time>2020-02-16T08:11:22.000Z</time>
      </trkpt>
      <trkpt lat="47.25453" lon="-2.33549">
        <ele>16.799999237061</ele>
        <time>2020-02-16T08:11:29.000Z</time>
      </trkpt>
      <trkpt lat="47.25458" lon="-2.33575">
        <ele>16.799999237061</ele>
        <time>2020-02-16T08:11:34.000Z</time>
      </trkpt>
      <trkpt lat="47.25458" lon="-2.33578">
        <ele>16.799999237061</ele>
        <time>2020-02-16T08:11:35.000Z</time>
      </trkpt>
      <trkpt lat="47.25453" lon="-2.3358">
        <ele>16.799999237061</ele>
        <time>2020-02-16T08:11:37.000Z</time>
      </trkpt>
      <trkpt lat="47.25444" lon="-2.33586">
        <ele>16.799999237061</ele>
        <time>2020-02-16T08:11:40.000Z</time>
      </trkpt>
      <trkpt lat="47.25442" lon="-2.3359">
        <ele>16.799999237061</ele>
        <time>2020-02-16T08:11:41.000Z</time>
      </trkpt>
      <trkpt lat="47.25442" lon="-2.33618">
        <ele>16.799999237061</ele>
        <time>2020-02-16T08:11:47.000Z</time>
      </trkpt>
      <trkpt lat="47.25447" lon="-2.33655">
        <ele>16.799999237061</ele>
        <time>2020-02-16T08:11:54.000Z</time>
      </trkpt>
      <trkpt lat="47.25452" lon="-2.33692">
        <ele>16.799999237061</ele>
        <time>2020-02-16T08:12:00.000Z</time>
      </trkpt>
      <trkpt lat="47.25453" lon="-2.33699">
        <ele>16.799999237061</ele>
        <time>2020-02-16T08:12:01.000Z</time>
      </trkpt>
      <trkpt lat="47.25454" lon="-2.33712">
        <ele>16.799999237061</ele>
        <time>2020-02-16T08:12:03.000Z</time>
      </trkpt>
      <trkpt lat="47.25455" lon="-2.33726">
        <ele>16.799999237061</ele>
        <time>2020-02-16T08:12:05.000Z</time>
      </trkpt>
      <trkpt lat="47.25459" lon="-2.33737">
        <ele>16.799999237061</ele>
        <time>2020-02-16T08:12:07.000Z</time>
      </trkpt>
      <trkpt lat="47.25463" lon="-2.33741">
        <ele>17.200000762939</ele>
        <time>2020-02-16T08:12:08.000Z</time>
      </trkpt>
      <trkpt lat="47.25466" lon="-2.33743">
        <ele>17.60000038147</ele>
        <time>2020-02-16T08:12:09.000Z</time>
      </trkpt>
      <trkpt lat="47.25471" lon="-2.33745">
        <ele>18.200000762939</ele>
        <time>2020-02-16T08:12:10.000Z</time>
      </trkpt>
      <trkpt lat="47.25475" lon="-2.33747">
        <ele>19</ele>
        <time>2020-02-16T08:12:11.000Z</time>
      </trkpt>
      <trkpt lat="47.25489" lon="-2.33751">
        <ele>19</ele>
        <time>2020-02-16T08:12:14.000Z</time>
      </trkpt>
      <trkpt lat="47.25498" lon="-2.33752">
        <ele>19</ele>
        <time>2020-02-16T08:12:16.000Z</time>
      </trkpt>
      <trkpt lat="47.25531" lon="-2.33755">
        <ele>19</ele>
        <time>2020-02-16T08:12:23.000Z</time>
      </trkpt>
      <trkpt lat="47.25556" lon="-2.33754">
        <ele>19</ele>
        <time>2020-02-16T08:12:29.000Z</time>
      </trkpt>
      <trkpt lat="47.25575" lon="-2.33753">
        <ele>19.39999961853</ele>
        <time>2020-02-16T08:12:33.000Z</time>
      </trkpt>
      <trkpt lat="47.2558" lon="-2.33753">
        <ele>19.799999237061</ele>
        <time>2020-02-16T08:12:34.000Z</time>
      </trkpt>
      <trkpt lat="47.25584" lon="-2.33753">
        <ele>20.200000762939</ele>
        <time>2020-02-16T08:12:35.000Z</time>
      </trkpt>
      <trkpt lat="47.25589" lon="-2.33753">
        <ele>21</ele>
        <time>2020-02-16T08:12:36.000Z</time>
      </trkpt>
      <trkpt lat="47.25594" lon="-2.33754">
        <ele>21</ele>
        <time>2020-02-16T08:12:37.000Z</time>
      </trkpt>
      <trkpt lat="47.25629" lon="-2.33764">
        <ele>21</ele>
        <time>2020-02-16T08:12:45.000Z</time>
      </trkpt>
      <trkpt lat="47.25634" lon="-2.33767">
        <ele>21</ele>
        <time>2020-02-16T08:12:46.000Z</time>
      </trkpt>
      <trkpt lat="47.25647" lon="-2.33784">
        <ele>21</ele>
        <time>2020-02-16T08:12:50.000Z</time>
      </trkpt>
      <trkpt lat="47.25651" lon="-2.33816">
        <ele>21</ele>
        <time>2020-02-16T08:12:54.000Z</time>
      </trkpt>
      <trkpt lat="47.25652" lon="-2.33832">
        <ele>21</ele>
        <time>2020-02-16T08:12:56.000Z</time>
      </trkpt>
      <trkpt lat="47.25659" lon="-2.33882">
        <ele>21</ele>
        <time>2020-02-16T08:13:03.000Z</time>
      </trkpt>
      <trkpt lat="47.25665" lon="-2.33931">
        <ele>21</ele>
        <time>2020-02-16T08:13:10.000Z</time>
      </trkpt>
      <trkpt lat="47.25667" lon="-2.33951">
        <ele>21</ele>
        <time>2020-02-16T08:13:13.000Z</time>
      </trkpt>
      <trkpt lat="47.25666" lon="-2.33963">
        <ele>21</ele>
        <time>2020-02-16T08:13:15.000Z</time>
      </trkpt>
      <trkpt lat="47.25662" lon="-2.33982">
        <ele>21.39999961853</ele>
        <time>2020-02-16T08:13:18.000Z</time>
      </trkpt>
      <trkpt lat="47.25661" lon="-2.33989">
        <ele>21.799999237061</ele>
        <time>2020-02-16T08:13:19.000Z</time>
      </trkpt>
      <trkpt lat="47.2566" lon="-2.33995">
        <ele>22.200000762939</ele>
        <time>2020-02-16T08:13:20.000Z</time>
      </trkpt>
      <trkpt lat="47.25658" lon="-2.34">
        <ele>22.60000038147</ele>
        <time>2020-02-16T08:13:21.000Z</time>
      </trkpt>
      <trkpt lat="47.25657" lon="-2.34006">
        <ele>23</ele>
        <time>2020-02-16T08:13:22.000Z</time>
      </trkpt>
      <trkpt lat="47.25651" lon="-2.34034">
        <ele>23</ele>
        <time>2020-02-16T08:13:27.000Z</time>
      </trkpt>
      <trkpt lat="47.25646" lon="-2.34073">
        <ele>23</ele>
        <time>2020-02-16T08:13:34.000Z</time>
      </trkpt>
      <trkpt lat="47.25645" lon="-2.3409">
        <ele>22.60000038147</ele>
        <time>2020-02-16T08:13:37.000Z</time>
      </trkpt>
      <trkpt lat="47.25645" lon="-2.34096">
        <ele>22.200000762939</ele>
        <time>2020-02-16T08:13:38.000Z</time>
      </trkpt>
      <trkpt lat="47.25645" lon="-2.34103">
        <ele>21.60000038147</ele>
        <time>2020-02-16T08:13:39.000Z</time>
      </trkpt>
      <trkpt lat="47.25646" lon="-2.34109">
        <ele>21.200000762939</ele>
        <time>2020-02-16T08:13:40.000Z</time>
      </trkpt>
      <trkpt lat="47.25646" lon="-2.34116">
        <ele>20.60000038147</ele>
        <time>2020-02-16T08:13:41.000Z</time>
      </trkpt>
      <trkpt lat="47.2565" lon="-2.34135">
        <ele>20.60000038147</ele>
        <time>2020-02-16T08:13:44.000Z</time>
      </trkpt>
      <trkpt lat="47.25651" lon="-2.34141">
        <ele>20.60000038147</ele>
        <time>2020-02-16T08:13:45.000Z</time>
      </trkpt>
      <trkpt lat="47.25654" lon="-2.34148">
        <ele>20.200000762939</ele>
        <time>2020-02-16T08:13:46.000Z</time>
      </trkpt>
      <trkpt lat="47.25656" lon="-2.34154">
        <ele>19.799999237061</ele>
        <time>2020-02-16T08:13:47.000Z</time>
      </trkpt>
      <trkpt lat="47.25658" lon="-2.34159">
        <ele>19.39999961853</ele>
        <time>2020-02-16T08:13:48.000Z</time>
      </trkpt>
      <trkpt lat="47.25661" lon="-2.34165">
        <ele>19</ele>
        <time>2020-02-16T08:13:49.000Z</time>
      </trkpt>
      <trkpt lat="47.25664" lon="-2.3417">
        <ele>18.60000038147</ele>
        <time>2020-02-16T08:13:50.000Z</time>
      </trkpt>
      <trkpt lat="47.25669" lon="-2.34181">
        <ele>18.60000038147</ele>
        <time>2020-02-16T08:13:52.000Z</time>
      </trkpt>
      <trkpt lat="47.2568" lon="-2.34192">
        <ele>19</ele>
        <time>2020-02-16T08:13:55.000Z</time>
      </trkpt>
      <trkpt lat="47.25685" lon="-2.34193">
        <ele>19.39999961853</ele>
        <time>2020-02-16T08:13:56.000Z</time>
      </trkpt>
      <trkpt lat="47.25691" lon="-2.34193">
        <ele>19.799999237061</ele>
        <time>2020-02-16T08:13:57.000Z</time>
      </trkpt>
      <trkpt lat="47.25697" lon="-2.34192">
        <ele>20.200000762939</ele>
        <time>2020-02-16T08:13:58.000Z</time>
      </trkpt>
      <trkpt lat="47.25702" lon="-2.34191">
        <ele>20.60000038147</ele>
        <time>2020-02-16T08:13:59.000Z</time>
      </trkpt>
      <trkpt lat="47.25738" lon="-2.34183">
        <ele>20.60000038147</ele>
        <time>2020-02-16T08:14:05.000Z</time>
      </trkpt>
      <trkpt lat="47.25744" lon="-2.34182">
        <ele>20.200000762939</ele>
        <time>2020-02-16T08:14:06.000Z</time>
      </trkpt>
      <trkpt lat="47.2575" lon="-2.34181">
        <ele>19.799999237061</ele>
        <time>2020-02-16T08:14:07.000Z</time>
      </trkpt>
      <trkpt lat="47.25755" lon="-2.34179">
        <ele>19.39999961853</ele>
        <time>2020-02-16T08:14:08.000Z</time>
      </trkpt>
      <trkpt lat="47.2576" lon="-2.34178">
        <ele>19</ele>
        <time>2020-02-16T08:14:09.000Z</time>
      </trkpt>
      <trkpt lat="47.25766" lon="-2.34177">
        <ele>18.60000038147</ele>
        <time>2020-02-16T08:14:10.000Z</time>
      </trkpt>
      <trkpt lat="47.2577" lon="-2.34176">
        <ele>18.60000038147</ele>
        <time>2020-02-16T08:14:11.000Z</time>
      </trkpt>
      <trkpt lat="47.25795" lon="-2.34175">
        <ele>18.60000038147</ele>
        <time>2020-02-16T08:14:17.000Z</time>
      </trkpt>
      <trkpt lat="47.25824" lon="-2.34178">
        <ele>18.60000038147</ele>
        <time>2020-02-16T08:14:24.000Z</time>
      </trkpt>
      <trkpt lat="47.25828" lon="-2.34177">
        <ele>18.60000038147</ele>
        <time>2020-02-16T08:14:25.000Z</time>
      </trkpt>
      <trkpt lat="47.25835" lon="-2.34166">
        <ele>18.60000038147</ele>
        <time>2020-02-16T08:14:28.000Z</time>
      </trkpt>
      <trkpt lat="47.25843" lon="-2.34156">
        <ele>18.60000038147</ele>
        <time>2020-02-16T08:14:32.000Z</time>
      </trkpt>
      <trkpt lat="47.25853" lon="-2.34159">
        <ele>18.60000038147</ele>
        <time>2020-02-16T08:14:35.000Z</time>
      </trkpt>
      <trkpt lat="47.2586" lon="-2.34162">
        <ele>18.60000038147</ele>
        <time>2020-02-16T08:14:37.000Z</time>
      </trkpt>
      <trkpt lat="47.25872" lon="-2.34164">
        <ele>18.60000038147</ele>
        <time>2020-02-16T08:14:41.000Z</time>
      </trkpt>
      <trkpt lat="47.25874" lon="-2.34162">
        <ele>18.60000038147</ele>
        <time>2020-02-16T08:14:42.000Z</time>
      </trkpt>
      <trkpt lat="47.25879" lon="-2.34153">
        <ele>18.60000038147</ele>
        <time>2020-02-16T08:14:45.000Z</time>
      </trkpt>
      <trkpt lat="47.25884" lon="-2.34147">
        <ele>18.60000038147</ele>
        <time>2020-02-16T08:14:47.000Z</time>
      </trkpt>
      <trkpt lat="47.25897" lon="-2.34144">
        <ele>18.60000038147</ele>
        <time>2020-02-16T08:14:51.000Z</time>
      </trkpt>
      <trkpt lat="47.25923" lon="-2.34133">
        <ele>18.60000038147</ele>
        <time>2020-02-16T08:14:57.000Z</time>
      </trkpt>
      <trkpt lat="47.25949" lon="-2.34114">
        <ele>18.60000038147</ele>
        <time>2020-02-16T08:15:03.000Z</time>
      </trkpt>
      <trkpt lat="47.25958" lon="-2.3411">
        <ele>18.60000038147</ele>
        <time>2020-02-16T08:15:05.000Z</time>
      </trkpt>
      <trkpt lat="47.25973" lon="-2.3411">
        <ele>18.60000038147</ele>
        <time>2020-02-16T08:15:08.000Z</time>
      </trkpt>
      <trkpt lat="47.26017" lon="-2.34122">
        <ele>18.60000038147</ele>
        <time>2020-02-16T08:15:16.000Z</time>
      </trkpt>
      <trkpt lat="47.26051" lon="-2.3414">
        <ele>18.60000038147</ele>
        <time>2020-02-16T08:15:23.000Z</time>
      </trkpt>
      <trkpt lat="47.2609" lon="-2.3416">
        <ele>18.60000038147</ele>
        <time>2020-02-16T08:15:31.000Z</time>
      </trkpt>
      <trkpt lat="47.26113" lon="-2.34172">
        <ele>18.60000038147</ele>
        <time>2020-02-16T08:15:37.000Z</time>
      </trkpt>
      <trkpt lat="47.26115" lon="-2.34171">
        <ele>18.60000038147</ele>
        <time>2020-02-16T08:15:38.000Z</time>
      </trkpt>
      <trkpt lat="47.26119" lon="-2.34162">
        <ele>18.60000038147</ele>
        <time>2020-02-16T08:15:41.000Z</time>
      </trkpt>
      <trkpt lat="47.2612" lon="-2.34154">
        <ele>18.60000038147</ele>
        <time>2020-02-16T08:15:43.000Z</time>
      </trkpt>
      <trkpt lat="47.26122" lon="-2.34151">
        <ele>18.60000038147</ele>
        <time>2020-02-16T08:15:44.000Z</time>
      </trkpt>
      <trkpt lat="47.26124" lon="-2.3415">
        <ele>18.60000038147</ele>
        <time>2020-02-16T08:15:45.000Z</time>
      </trkpt>
      <trkpt lat="47.26135" lon="-2.34152">
        <ele>19</ele>
        <time>2020-02-16T08:15:48.000Z</time>
      </trkpt>
      <trkpt lat="47.2614" lon="-2.34154">
        <ele>19.39999961853</ele>
        <time>2020-02-16T08:15:49.000Z</time>
      </trkpt>
      <trkpt lat="47.26144" lon="-2.34157">
        <ele>19.799999237061</ele>
        <time>2020-02-16T08:15:50.000Z</time>
      </trkpt>
      <trkpt lat="47.26148" lon="-2.34161">
        <ele>20.200000762939</ele>
        <time>2020-02-16T08:15:51.000Z</time>
      </trkpt>
      <trkpt lat="47.26152" lon="-2.34165">
        <ele>20.799999237061</ele>
        <time>2020-02-16T08:15:52.000Z</time>
      </trkpt>
      <trkpt lat="47.26157" lon="-2.3417">
        <ele>20.799999237061</ele>
        <time>2020-02-16T08:15:53.000Z</time>
      </trkpt>
      <trkpt lat="47.26197" lon="-2.34211">
        <ele>20.799999237061</ele>
        <time>2020-02-16T08:16:02.000Z</time>
      </trkpt>
      <trkpt lat="47.26238" lon="-2.34255">
        <ele>20.799999237061</ele>
        <time>2020-02-16T08:16:11.000Z</time>
      </trkpt>
      <trkpt lat="47.26272" lon="-2.34289">
        <ele>20.799999237061</ele>
        <time>2020-02-16T08:16:18.000Z</time>
      </trkpt>
      <trkpt lat="47.26303" lon="-2.34321">
        <ele>20.799999237061</ele>
        <time>2020-02-16T08:16:25.000Z</time>
      </trkpt>
      <trkpt lat="47.26316" lon="-2.34335">
        <ele>20.799999237061</ele>
        <time>2020-02-16T08:16:28.000Z</time>
      </trkpt>
      <trkpt lat="47.26325" lon="-2.34344">
        <ele>20.799999237061</ele>
        <time>2020-02-16T08:16:30.000Z</time>
      </trkpt>
      <trkpt lat="47.2633" lon="-2.34347">
        <ele>20.799999237061</ele>
        <time>2020-02-16T08:16:31.000Z</time>
      </trkpt>
      <trkpt lat="47.26344" lon="-2.34359">
        <ele>20.799999237061</ele>
        <time>2020-02-16T08:16:34.000Z</time>
      </trkpt>
      <trkpt lat="47.26353" lon="-2.3437">
        <ele>20.799999237061</ele>
        <time>2020-02-16T08:16:36.000Z</time>
      </trkpt>
      <trkpt lat="47.26383" lon="-2.34393">
        <ele>20.799999237061</ele>
        <time>2020-02-16T08:16:42.000Z</time>
      </trkpt>
      <trkpt lat="47.26421" lon="-2.34422">
        <ele>20.799999237061</ele>
        <time>2020-02-16T08:16:50.000Z</time>
      </trkpt>
      <trkpt lat="47.2645" lon="-2.34445">
        <ele>20.799999237061</ele>
        <time>2020-02-16T08:16:56.000Z</time>
      </trkpt>
      <trkpt lat="47.26493" lon="-2.34479">
        <ele>20.799999237061</ele>
        <time>2020-02-16T08:17:05.000Z</time>
      </trkpt>
      <trkpt lat="47.26522" lon="-2.345">
        <ele>20.799999237061</ele>
        <time>2020-02-16T08:17:11.000Z</time>
      </trkpt>
      <trkpt lat="47.26552" lon="-2.34527">
        <ele>20.799999237061</ele>
        <time>2020-02-16T08:17:17.000Z</time>
      </trkpt>
      <trkpt lat="47.26592" lon="-2.3457">
        <ele>20.799999237061</ele>
        <time>2020-02-16T08:17:25.000Z</time>
      </trkpt>
      <trkpt lat="47.26624" lon="-2.34608">
        <ele>21.200000762939</ele>
        <time>2020-02-16T08:17:32.000Z</time>
      </trkpt>
      <trkpt lat="47.26629" lon="-2.34614">
        <ele>21.60000038147</ele>
        <time>2020-02-16T08:17:33.000Z</time>
      </trkpt>
      <trkpt lat="47.26633" lon="-2.34619">
        <ele>22</ele>
        <time>2020-02-16T08:17:34.000Z</time>
      </trkpt>
      <trkpt lat="47.26638" lon="-2.34625">
        <ele>22.39999961853</ele>
        <time>2020-02-16T08:17:35.000Z</time>
      </trkpt>
      <trkpt lat="47.26642" lon="-2.3463">
        <ele>22.799999237061</ele>
        <time>2020-02-16T08:17:36.000Z</time>
      </trkpt>
      <trkpt lat="47.26661" lon="-2.34651">
        <ele>22.39999961853</ele>
        <time>2020-02-16T08:17:40.000Z</time>
      </trkpt>
      <trkpt lat="47.26666" lon="-2.34657">
        <ele>21.799999237061</ele>
        <time>2020-02-16T08:17:41.000Z</time>
      </trkpt>
      <trkpt lat="47.26671" lon="-2.34663">
        <ele>21.39999961853</ele>
        <time>2020-02-16T08:17:42.000Z</time>
      </trkpt>
      <trkpt lat="47.26676" lon="-2.34669">
        <ele>20.799999237061</ele>
        <time>2020-02-16T08:17:43.000Z</time>
      </trkpt>
      <trkpt lat="47.2668" lon="-2.34675">
        <ele>20.39999961853</ele>
        <time>2020-02-16T08:17:44.000Z</time>
      </trkpt>
      <trkpt lat="47.26704" lon="-2.34704">
        <ele>20.39999961853</ele>
        <time>2020-02-16T08:17:49.000Z</time>
      </trkpt>
      <trkpt lat="47.26736" lon="-2.34743">
        <ele>20.39999961853</ele>
        <time>2020-02-16T08:17:56.000Z</time>
      </trkpt>
      <trkpt lat="47.26741" lon="-2.34749">
        <ele>21.200000762939</ele>
        <time>2020-02-16T08:17:57.000Z</time>
      </trkpt>
      <trkpt lat="47.26746" lon="-2.34755">
        <ele>21.60000038147</ele>
        <time>2020-02-16T08:17:58.000Z</time>
      </trkpt>
      <trkpt lat="47.26751" lon="-2.34761">
        <ele>22</ele>
        <time>2020-02-16T08:17:59.000Z</time>
      </trkpt>
      <trkpt lat="47.26755" lon="-2.34767">
        <ele>22.39999961853</ele>
        <time>2020-02-16T08:18:00.000Z</time>
      </trkpt>
      <trkpt lat="47.26769" lon="-2.34784">
        <ele>22.39999961853</ele>
        <time>2020-02-16T08:18:03.000Z</time>
      </trkpt>
      <trkpt lat="47.26787" lon="-2.34808">
        <ele>23</ele>
        <time>2020-02-16T08:18:07.000Z</time>
      </trkpt>
      <trkpt lat="47.26791" lon="-2.34814">
        <ele>23.60000038147</ele>
        <time>2020-02-16T08:18:08.000Z</time>
      </trkpt>
      <trkpt lat="47.26795" lon="-2.34819">
        <ele>24</ele>
        <time>2020-02-16T08:18:09.000Z</time>
      </trkpt>
      <trkpt lat="47.26799" lon="-2.34825">
        <ele>24.60000038147</ele>
        <time>2020-02-16T08:18:10.000Z</time>
      </trkpt>
      <trkpt lat="47.26803" lon="-2.34832">
        <ele>24.200000762939</ele>
        <time>2020-02-16T08:18:11.000Z</time>
      </trkpt>
      <trkpt lat="47.26807" lon="-2.34838">
        <ele>23.799999237061</ele>
        <time>2020-02-16T08:18:12.000Z</time>
      </trkpt>
      <trkpt lat="47.26811" lon="-2.34845">
        <ele>23.39999961853</ele>
        <time>2020-02-16T08:18:13.000Z</time>
      </trkpt>
      <trkpt lat="47.26815" lon="-2.34851">
        <ele>23</ele>
        <time>2020-02-16T08:18:14.000Z</time>
      </trkpt>
      <trkpt lat="47.26819" lon="-2.34857">
        <ele>22.60000038147</ele>
        <time>2020-02-16T08:18:15.000Z</time>
      </trkpt>
      <trkpt lat="47.26832" lon="-2.34876">
        <ele>22.60000038147</ele>
        <time>2020-02-16T08:18:18.000Z</time>
      </trkpt>
      <trkpt lat="47.26858" lon="-2.34915">
        <ele>23</ele>
        <time>2020-02-16T08:18:24.000Z</time>
      </trkpt>
      <trkpt lat="47.26861" lon="-2.34921">
        <ele>23.39999961853</ele>
        <time>2020-02-16T08:18:25.000Z</time>
      </trkpt>
      <trkpt lat="47.26865" lon="-2.34927">
        <ele>23.799999237061</ele>
        <time>2020-02-16T08:18:26.000Z</time>
      </trkpt>
      <trkpt lat="47.26869" lon="-2.34932">
        <ele>24.39999961853</ele>
        <time>2020-02-16T08:18:27.000Z</time>
      </trkpt>
      <trkpt lat="47.26873" lon="-2.34938">
        <ele>24.799999237061</ele>
        <time>2020-02-16T08:18:28.000Z</time>
      </trkpt>
      <trkpt lat="47.26886" lon="-2.34955">
        <ele>24.39999961853</ele>
        <time>2020-02-16T08:18:31.000Z</time>
      </trkpt>
      <trkpt lat="47.2689" lon="-2.34962">
        <ele>24</ele>
        <time>2020-02-16T08:18:32.000Z</time>
      </trkpt>
      <trkpt lat="47.26894" lon="-2.34968">
        <ele>23.60000038147</ele>
        <time>2020-02-16T08:18:33.000Z</time>
      </trkpt>
      <trkpt lat="47.26899" lon="-2.34975">
        <ele>23</ele>
        <time>2020-02-16T08:18:34.000Z</time>
      </trkpt>
      <trkpt lat="47.26903" lon="-2.34981">
        <ele>22.60000038147</ele>
        <time>2020-02-16T08:18:35.000Z</time>
      </trkpt>
      <trkpt lat="47.26907" lon="-2.34987">
        <ele>22.60000038147</ele>
        <time>2020-02-16T08:18:36.000Z</time>
      </trkpt>
      <trkpt lat="47.26919" lon="-2.35005">
        <ele>23.200000762939</ele>
        <time>2020-02-16T08:18:39.000Z</time>
      </trkpt>
      <trkpt lat="47.26923" lon="-2.35011">
        <ele>23.60000038147</ele>
        <time>2020-02-16T08:18:40.000Z</time>
      </trkpt>
      <trkpt lat="47.26927" lon="-2.35017">
        <ele>24</ele>
        <time>2020-02-16T08:18:41.000Z</time>
      </trkpt>
      <trkpt lat="47.26932" lon="-2.35024">
        <ele>24.39999961853</ele>
        <time>2020-02-16T08:18:42.000Z</time>
      </trkpt>
      <trkpt lat="47.26936" lon="-2.3503">
        <ele>24.799999237061</ele>
        <time>2020-02-16T08:18:43.000Z</time>
      </trkpt>
      <trkpt lat="47.26967" lon="-2.35079">
        <ele>24.799999237061</ele>
        <time>2020-02-16T08:18:51.000Z</time>
      </trkpt>
      <trkpt lat="47.26994" lon="-2.35122">
        <ele>24.799999237061</ele>
        <time>2020-02-16T08:18:58.000Z</time>
      </trkpt>
      <trkpt lat="47.27028" lon="-2.35173">
        <ele>24.799999237061</ele>
        <time>2020-02-16T08:19:06.000Z</time>
      </trkpt>
      <trkpt lat="47.27049" lon="-2.35206">
        <ele>25.799999237061</ele>
        <time>2020-02-16T08:19:11.000Z</time>
      </trkpt>
      <trkpt lat="47.27053" lon="-2.35211">
        <ele>26.200000762939</ele>
        <time>2020-02-16T08:19:12.000Z</time>
      </trkpt>
      <trkpt lat="47.27057" lon="-2.35216">
        <ele>26.60000038147</ele>
        <time>2020-02-16T08:19:13.000Z</time>
      </trkpt>
      <trkpt lat="47.2706" lon="-2.35222">
        <ele>27</ele>
        <time>2020-02-16T08:19:14.000Z</time>
      </trkpt>
      <trkpt lat="47.27064" lon="-2.35228">
        <ele>26.39999961853</ele>
        <time>2020-02-16T08:19:15.000Z</time>
      </trkpt>
      <trkpt lat="47.27068" lon="-2.35234">
        <ele>25.799999237061</ele>
        <time>2020-02-16T08:19:16.000Z</time>
      </trkpt>
      <trkpt lat="47.27072" lon="-2.3524">
        <ele>25.39999961853</ele>
        <time>2020-02-16T08:19:17.000Z</time>
      </trkpt>
      <trkpt lat="47.27076" lon="-2.35246">
        <ele>24.799999237061</ele>
        <time>2020-02-16T08:19:18.000Z</time>
      </trkpt>
      <trkpt lat="47.2708" lon="-2.35252">
        <ele>24.200000762939</ele>
        <time>2020-02-16T08:19:19.000Z</time>
      </trkpt>
      <trkpt lat="47.27092" lon="-2.35271">
        <ele>24.200000762939</ele>
        <time>2020-02-16T08:19:22.000Z</time>
      </trkpt>
      <trkpt lat="47.27108" lon="-2.35297">
        <ele>24.60000038147</ele>
        <time>2020-02-16T08:19:26.000Z</time>
      </trkpt>
      <trkpt lat="47.27111" lon="-2.35303">
        <ele>25</ele>
        <time>2020-02-16T08:19:27.000Z</time>
      </trkpt>
      <trkpt lat="47.27115" lon="-2.35309">
        <ele>25.39999961853</ele>
        <time>2020-02-16T08:19:28.000Z</time>
      </trkpt>
      <trkpt lat="47.27119" lon="-2.35316">
        <ele>25.799999237061</ele>
        <time>2020-02-16T08:19:29.000Z</time>
      </trkpt>
      <trkpt lat="47.27123" lon="-2.35322">
        <ele>26.200000762939</ele>
        <time>2020-02-16T08:19:30.000Z</time>
      </trkpt>
      <trkpt lat="47.27149" lon="-2.35366">
        <ele>26.60000038147</ele>
        <time>2020-02-16T08:19:37.000Z</time>
      </trkpt>
      <trkpt lat="47.27153" lon="-2.35373">
        <ele>27</ele>
        <time>2020-02-16T08:19:38.000Z</time>
      </trkpt>
      <trkpt lat="47.27156" lon="-2.35379">
        <ele>27.60000038147</ele>
        <time>2020-02-16T08:19:39.000Z</time>
      </trkpt>
      <trkpt lat="47.2716" lon="-2.35385">
        <ele>28</ele>
        <time>2020-02-16T08:19:40.000Z</time>
      </trkpt>
      <trkpt lat="47.27163" lon="-2.35391">
        <ele>28.39999961853</ele>
        <time>2020-02-16T08:19:41.000Z</time>
      </trkpt>
      <trkpt lat="47.27173" lon="-2.3541">
        <ele>28.799999237061</ele>
        <time>2020-02-16T08:19:44.000Z</time>
      </trkpt>
      <trkpt lat="47.27177" lon="-2.35416">
        <ele>29.200000762939</ele>
        <time>2020-02-16T08:19:45.000Z</time>
      </trkpt>
      <trkpt lat="47.2718" lon="-2.35422">
        <ele>29.60000038147</ele>
        <time>2020-02-16T08:19:46.000Z</time>
      </trkpt>
      <trkpt lat="47.27184" lon="-2.35428">
        <ele>30</ele>
        <time>2020-02-16T08:19:47.000Z</time>
      </trkpt>
      <trkpt lat="47.27187" lon="-2.35435">
        <ele>30.60000038147</ele>
        <time>2020-02-16T08:19:48.000Z</time>
      </trkpt>
      <trkpt lat="47.27191" lon="-2.35441">
        <ele>30</ele>
        <time>2020-02-16T08:19:49.000Z</time>
      </trkpt>
      <trkpt lat="47.27194" lon="-2.35448">
        <ele>29.200000762939</ele>
        <time>2020-02-16T08:19:50.000Z</time>
      </trkpt>
      <trkpt lat="47.27198" lon="-2.35454">
        <ele>28.60000038147</ele>
        <time>2020-02-16T08:19:51.000Z</time>
      </trkpt>
      <trkpt lat="47.27202" lon="-2.35461">
        <ele>28</ele>
        <time>2020-02-16T08:19:52.000Z</time>
      </trkpt>
      <trkpt lat="47.27205" lon="-2.35468">
        <ele>27.39999961853</ele>
        <time>2020-02-16T08:19:53.000Z</time>
      </trkpt>
      <trkpt lat="47.27209" lon="-2.35475">
        <ele>27.39999961853</ele>
        <time>2020-02-16T08:19:54.000Z</time>
      </trkpt>
      <trkpt lat="47.2724" lon="-2.35539">
        <ele>27.39999961853</ele>
        <time>2020-02-16T08:20:03.000Z</time>
      </trkpt>
      <trkpt lat="47.27266" lon="-2.35599">
        <ele>27.39999961853</ele>
        <time>2020-02-16T08:20:11.000Z</time>
      </trkpt>
      <trkpt lat="47.2729" lon="-2.35656">
        <ele>27.39999961853</ele>
        <time>2020-02-16T08:20:19.000Z</time>
      </trkpt>
      <trkpt lat="47.27311" lon="-2.35699">
        <ele>27</ele>
        <time>2020-02-16T08:20:25.000Z</time>
      </trkpt>
      <trkpt lat="47.27314" lon="-2.35707">
        <ele>26.200000762939</ele>
        <time>2020-02-16T08:20:26.000Z</time>
      </trkpt>
      <trkpt lat="47.27318" lon="-2.35715">
        <ele>25.799999237061</ele>
        <time>2020-02-16T08:20:27.000Z</time>
      </trkpt>
      <trkpt lat="47.27321" lon="-2.35723">
        <ele>25.39999961853</ele>
        <time>2020-02-16T08:20:28.000Z</time>
      </trkpt>
      <trkpt lat="47.27329" lon="-2.3574">
        <ele>25.799999237061</ele>
        <time>2020-02-16T08:20:30.000Z</time>
      </trkpt>
      <trkpt lat="47.27332" lon="-2.35748">
        <ele>26.39999961853</ele>
        <time>2020-02-16T08:20:31.000Z</time>
      </trkpt>
      <trkpt lat="47.27335" lon="-2.35755">
        <ele>27.200000762939</ele>
        <time>2020-02-16T08:20:32.000Z</time>
      </trkpt>
      <trkpt lat="47.27337" lon="-2.35762">
        <ele>28.200000762939</ele>
        <time>2020-02-16T08:20:33.000Z</time>
      </trkpt>
      <trkpt lat="47.2734" lon="-2.35769">
        <ele>29</ele>
        <time>2020-02-16T08:20:34.000Z</time>
      </trkpt>
      <trkpt lat="47.27342" lon="-2.35776">
        <ele>28.799999237061</ele>
        <time>2020-02-16T08:20:35.000Z</time>
      </trkpt>
      <trkpt lat="47.27345" lon="-2.35783">
        <ele>28.799999237061</ele>
        <time>2020-02-16T08:20:36.000Z</time>
      </trkpt>
      <trkpt lat="47.27347" lon="-2.35791">
        <ele>28.200000762939</ele>
        <time>2020-02-16T08:20:37.000Z</time>
      </trkpt>
      <trkpt lat="47.2735" lon="-2.35799">
        <ele>27.799999237061</ele>
        <time>2020-02-16T08:20:38.000Z</time>
      </trkpt>
      <trkpt lat="47.27353" lon="-2.35806">
        <ele>27.200000762939</ele>
        <time>2020-02-16T08:20:39.000Z</time>
      </trkpt>
      <trkpt lat="47.27355" lon="-2.35813">
        <ele>26.799999237061</ele>
        <time>2020-02-16T08:20:40.000Z</time>
      </trkpt>
      <trkpt lat="47.27358" lon="-2.35819">
        <ele>26.39999961853</ele>
        <time>2020-02-16T08:20:41.000Z</time>
      </trkpt>
      <trkpt lat="47.2736" lon="-2.35825">
        <ele>26.799999237061</ele>
        <time>2020-02-16T08:20:42.000Z</time>
      </trkpt>
      <trkpt lat="47.27362" lon="-2.35831">
        <ele>27.200000762939</ele>
        <time>2020-02-16T08:20:43.000Z</time>
      </trkpt>
      <trkpt lat="47.27365" lon="-2.35838">
        <ele>27.60000038147</ele>
        <time>2020-02-16T08:20:44.000Z</time>
      </trkpt>
      <trkpt lat="47.27368" lon="-2.35844">
        <ele>28.200000762939</ele>
        <time>2020-02-16T08:20:45.000Z</time>
      </trkpt>
      <trkpt lat="47.2737" lon="-2.35851">
        <ele>28.60000038147</ele>
        <time>2020-02-16T08:20:46.000Z</time>
      </trkpt>
      <trkpt lat="47.27373" lon="-2.35858">
        <ele>28</ele>
        <time>2020-02-16T08:20:47.000Z</time>
      </trkpt>
      <trkpt lat="47.27376" lon="-2.35865">
        <ele>27.60000038147</ele>
        <time>2020-02-16T08:20:48.000Z</time>
      </trkpt>
      <trkpt lat="47.27379" lon="-2.35872">
        <ele>27</ele>
        <time>2020-02-16T08:20:49.000Z</time>
      </trkpt>
      <trkpt lat="47.27382" lon="-2.35879">
        <ele>26</ele>
        <time>2020-02-16T08:20:50.000Z</time>
      </trkpt>
      <trkpt lat="47.27388" lon="-2.35893">
        <ele>26</ele>
        <time>2020-02-16T08:20:52.000Z</time>
      </trkpt>
      <trkpt lat="47.27409" lon="-2.35945">
        <ele>26</ele>
        <time>2020-02-16T08:21:00.000Z</time>
      </trkpt>
      <trkpt lat="47.27431" lon="-2.36">
        <ele>26</ele>
        <time>2020-02-16T08:21:08.000Z</time>
      </trkpt>
      <trkpt lat="47.27443" lon="-2.36028">
        <ele>26.60000038147</ele>
        <time>2020-02-16T08:21:12.000Z</time>
      </trkpt>
      <trkpt lat="47.27446" lon="-2.36034">
        <ele>27</ele>
        <time>2020-02-16T08:21:13.000Z</time>
      </trkpt>
      <trkpt lat="47.2745" lon="-2.36041">
        <ele>27.39999961853</ele>
        <time>2020-02-16T08:21:14.000Z</time>
      </trkpt>
      <trkpt lat="47.27453" lon="-2.36048">
        <ele>28.39999961853</ele>
        <time>2020-02-16T08:21:15.000Z</time>
      </trkpt>
      <trkpt lat="47.27456" lon="-2.36055">
        <ele>28.39999961853</ele>
        <time>2020-02-16T08:21:16.000Z</time>
      </trkpt>
      <trkpt lat="47.27459" lon="-2.36063">
        <ele>28.799999237061</ele>
        <time>2020-02-16T08:21:17.000Z</time>
      </trkpt>
      <trkpt lat="47.27462" lon="-2.3607">
        <ele>29.39999961853</ele>
        <time>2020-02-16T08:21:18.000Z</time>
      </trkpt>
      <trkpt lat="47.27465" lon="-2.36077">
        <ele>29.799999237061</ele>
        <time>2020-02-16T08:21:19.000Z</time>
      </trkpt>
      <trkpt lat="47.27468" lon="-2.36085">
        <ele>30.39999961853</ele>
        <time>2020-02-16T08:21:20.000Z</time>
      </trkpt>
      <trkpt lat="47.27471" lon="-2.36092">
        <ele>31</ele>
        <time>2020-02-16T08:21:21.000Z</time>
      </trkpt>
      <trkpt lat="47.27473" lon="-2.361">
        <ele>31.60000038147</ele>
        <time>2020-02-16T08:21:22.000Z</time>
      </trkpt>
      <trkpt lat="47.27475" lon="-2.36107">
        <ele>32.400001525879</ele>
        <time>2020-02-16T08:21:23.000Z</time>
      </trkpt>
      <trkpt lat="47.27478" lon="-2.36113">
        <ele>33</ele>
        <time>2020-02-16T08:21:24.000Z</time>
      </trkpt>
      <trkpt lat="47.27485" lon="-2.36132">
        <ele>32.400001525879</ele>
        <time>2020-02-16T08:21:27.000Z</time>
      </trkpt>
      <trkpt lat="47.27487" lon="-2.36138">
        <ele>32</ele>
        <time>2020-02-16T08:21:28.000Z</time>
      </trkpt>
      <trkpt lat="47.2749" lon="-2.36144">
        <ele>31.60000038147</ele>
        <time>2020-02-16T08:21:29.000Z</time>
      </trkpt>
      <trkpt lat="47.27492" lon="-2.3615">
        <ele>31.200000762939</ele>
        <time>2020-02-16T08:21:30.000Z</time>
      </trkpt>
      <trkpt lat="47.27494" lon="-2.36157">
        <ele>30.60000038147</ele>
        <time>2020-02-16T08:21:31.000Z</time>
      </trkpt>
      <trkpt lat="47.27511" lon="-2.362">
        <ele>30.60000038147</ele>
        <time>2020-02-16T08:21:38.000Z</time>
      </trkpt>
      <trkpt lat="47.27522" lon="-2.36226">
        <ele>30.200000762939</ele>
        <time>2020-02-16T08:21:42.000Z</time>
      </trkpt>
      <trkpt lat="47.27525" lon="-2.36233">
        <ele>29.799999237061</ele>
        <time>2020-02-16T08:21:43.000Z</time>
      </trkpt>
      <trkpt lat="47.27527" lon="-2.36239">
        <ele>29.39999961853</ele>
        <time>2020-02-16T08:21:44.000Z</time>
      </trkpt>
      <trkpt lat="47.2753" lon="-2.36246">
        <ele>29</ele>
        <time>2020-02-16T08:21:45.000Z</time>
      </trkpt>
      <trkpt lat="47.27532" lon="-2.36253">
        <ele>28.60000038147</ele>
        <time>2020-02-16T08:21:46.000Z</time>
      </trkpt>
      <trkpt lat="47.27535" lon="-2.3626">
        <ele>28.60000038147</ele>
        <time>2020-02-16T08:21:47.000Z</time>
      </trkpt>
      <trkpt lat="47.27541" lon="-2.36274">
        <ele>29</ele>
        <time>2020-02-16T08:21:49.000Z</time>
      </trkpt>
      <trkpt lat="47.27544" lon="-2.36281">
        <ele>29.39999961853</ele>
        <time>2020-02-16T08:21:50.000Z</time>
      </trkpt>
      <trkpt lat="47.27546" lon="-2.36288">
        <ele>29.799999237061</ele>
        <time>2020-02-16T08:21:51.000Z</time>
      </trkpt>
      <trkpt lat="47.27549" lon="-2.36296">
        <ele>30.200000762939</ele>
        <time>2020-02-16T08:21:52.000Z</time>
      </trkpt>
      <trkpt lat="47.27552" lon="-2.36303">
        <ele>30.799999237061</ele>
        <time>2020-02-16T08:21:53.000Z</time>
      </trkpt>
      <trkpt lat="47.27565" lon="-2.36339">
        <ele>30.799999237061</ele>
        <time>2020-02-16T08:21:58.000Z</time>
      </trkpt>
      <trkpt lat="47.27588" lon="-2.36402">
        <ele>30.799999237061</ele>
        <time>2020-02-16T08:22:07.000Z</time>
      </trkpt>
      <trkpt lat="47.27593" lon="-2.36415">
        <ele>31.200000762939</ele>
        <time>2020-02-16T08:22:09.000Z</time>
      </trkpt>
      <trkpt lat="47.27595" lon="-2.36421">
        <ele>31.799999237061</ele>
        <time>2020-02-16T08:22:10.000Z</time>
      </trkpt>
      <trkpt lat="47.27597" lon="-2.36427">
        <ele>32.200000762939</ele>
        <time>2020-02-16T08:22:11.000Z</time>
      </trkpt>
      <trkpt lat="47.27599" lon="-2.36433">
        <ele>32.799999237061</ele>
        <time>2020-02-16T08:22:12.000Z</time>
      </trkpt>
      <trkpt lat="47.27601" lon="-2.3644">
        <ele>33.200000762939</ele>
        <time>2020-02-16T08:22:13.000Z</time>
      </trkpt>
      <trkpt lat="47.27603" lon="-2.36447">
        <ele>33.200000762939</ele>
        <time>2020-02-16T08:22:14.000Z</time>
      </trkpt>
      <trkpt lat="47.27606" lon="-2.36453">
        <ele>32.799999237061</ele>
        <time>2020-02-16T08:22:15.000Z</time>
      </trkpt>
      <trkpt lat="47.27609" lon="-2.3646">
        <ele>32.400001525879</ele>
        <time>2020-02-16T08:22:16.000Z</time>
      </trkpt>
      <trkpt lat="47.27611" lon="-2.36467">
        <ele>31.799999237061</ele>
        <time>2020-02-16T08:22:17.000Z</time>
      </trkpt>
      <trkpt lat="47.27614" lon="-2.36474">
        <ele>31.39999961853</ele>
        <time>2020-02-16T08:22:18.000Z</time>
      </trkpt>
      <trkpt lat="47.27617" lon="-2.36481">
        <ele>30.799999237061</ele>
        <time>2020-02-16T08:22:19.000Z</time>
      </trkpt>
      <trkpt lat="47.27627" lon="-2.36509">
        <ele>30.799999237061</ele>
        <time>2020-02-16T08:22:23.000Z</time>
      </trkpt>
      <trkpt lat="47.27644" lon="-2.36558">
        <ele>31.39999961853</ele>
        <time>2020-02-16T08:22:30.000Z</time>
      </trkpt>
      <trkpt lat="47.27646" lon="-2.36565">
        <ele>31.799999237061</ele>
        <time>2020-02-16T08:22:31.000Z</time>
      </trkpt>
      <trkpt lat="47.27648" lon="-2.36572">
        <ele>32.400001525879</ele>
        <time>2020-02-16T08:22:32.000Z</time>
      </trkpt>
      <trkpt lat="47.27651" lon="-2.36579">
        <ele>32.799999237061</ele>
        <time>2020-02-16T08:22:33.000Z</time>
      </trkpt>
      <trkpt lat="47.27653" lon="-2.36587">
        <ele>32.400001525879</ele>
        <time>2020-02-16T08:22:34.000Z</time>
      </trkpt>
      <trkpt lat="47.27655" lon="-2.36594">
        <ele>32.200000762939</ele>
        <time>2020-02-16T08:22:35.000Z</time>
      </trkpt>
      <trkpt lat="47.27658" lon="-2.36601">
        <ele>31.799999237061</ele>
        <time>2020-02-16T08:22:36.000Z</time>
      </trkpt>
      <trkpt lat="47.2766" lon="-2.36609">
        <ele>31.39999961853</ele>
        <time>2020-02-16T08:22:37.000Z</time>
      </trkpt>
      <trkpt lat="47.27663" lon="-2.36616">
        <ele>31</ele>
        <time>2020-02-16T08:22:38.000Z</time>
      </trkpt>
      <trkpt lat="47.27666" lon="-2.36624">
        <ele>31</ele>
        <time>2020-02-16T08:22:39.000Z</time>
      </trkpt>
      <trkpt lat="47.27674" lon="-2.36648">
        <ele>31.60000038147</ele>
        <time>2020-02-16T08:22:42.000Z</time>
      </trkpt>
      <trkpt lat="47.27676" lon="-2.36656">
        <ele>32</ele>
        <time>2020-02-16T08:22:43.000Z</time>
      </trkpt>
      <trkpt lat="47.27679" lon="-2.36663">
        <ele>32.400001525879</ele>
        <time>2020-02-16T08:22:44.000Z</time>
      </trkpt>
      <trkpt lat="47.27681" lon="-2.3667">
        <ele>33</ele>
        <time>2020-02-16T08:22:45.000Z</time>
      </trkpt>
      <trkpt lat="47.27684" lon="-2.36677">
        <ele>33.599998474121</ele>
        <time>2020-02-16T08:22:46.000Z</time>
      </trkpt>
      <trkpt lat="47.27686" lon="-2.36685">
        <ele>34.200000762939</ele>
        <time>2020-02-16T08:22:47.000Z</time>
      </trkpt>
      <trkpt lat="47.27688" lon="-2.36692">
        <ele>34.799999237061</ele>
        <time>2020-02-16T08:22:48.000Z</time>
      </trkpt>
      <trkpt lat="47.27691" lon="-2.36699">
        <ele>35.400001525879</ele>
        <time>2020-02-16T08:22:49.000Z</time>
      </trkpt>
      <trkpt lat="47.27701" lon="-2.36728">
        <ele>34.799999237061</ele>
        <time>2020-02-16T08:22:53.000Z</time>
      </trkpt>
      <trkpt lat="47.27703" lon="-2.36735">
        <ele>33.799999237061</ele>
        <time>2020-02-16T08:22:54.000Z</time>
      </trkpt>
      <trkpt lat="47.27706" lon="-2.36743">
        <ele>33.200000762939</ele>
        <time>2020-02-16T08:22:55.000Z</time>
      </trkpt>
      <trkpt lat="47.27708" lon="-2.36751">
        <ele>32.599998474121</ele>
        <time>2020-02-16T08:22:56.000Z</time>
      </trkpt>
      <trkpt lat="47.27722" lon="-2.36794">
        <ele>33.200000762939</ele>
        <time>2020-02-16T08:23:02.000Z</time>
      </trkpt>
      <trkpt lat="47.27724" lon="-2.368">
        <ele>33.599998474121</ele>
        <time>2020-02-16T08:23:03.000Z</time>
      </trkpt>
      <trkpt lat="47.27725" lon="-2.36807">
        <ele>34.200000762939</ele>
        <time>2020-02-16T08:23:04.000Z</time>
      </trkpt>
      <trkpt lat="47.27727" lon="-2.36813">
        <ele>34.599998474121</ele>
        <time>2020-02-16T08:23:05.000Z</time>
      </trkpt>
      <trkpt lat="47.27729" lon="-2.3682">
        <ele>35</ele>
        <time>2020-02-16T08:23:06.000Z</time>
      </trkpt>
      <trkpt lat="47.27734" lon="-2.36834">
        <ele>34.599998474121</ele>
        <time>2020-02-16T08:23:08.000Z</time>
      </trkpt>
      <trkpt lat="47.27736" lon="-2.36841">
        <ele>34</ele>
        <time>2020-02-16T08:23:09.000Z</time>
      </trkpt>
      <trkpt lat="47.27739" lon="-2.36849">
        <ele>33.400001525879</ele>
        <time>2020-02-16T08:23:10.000Z</time>
      </trkpt>
      <trkpt lat="47.27741" lon="-2.36857">
        <ele>33</ele>
        <time>2020-02-16T08:23:11.000Z</time>
      </trkpt>
      <trkpt lat="47.27744" lon="-2.36864">
        <ele>32.400001525879</ele>
        <time>2020-02-16T08:23:12.000Z</time>
      </trkpt>
      <trkpt lat="47.27749" lon="-2.36879">
        <ele>32.400001525879</ele>
        <time>2020-02-16T08:23:14.000Z</time>
      </trkpt>
      <trkpt lat="47.27769" lon="-2.36947">
        <ele>32.400001525879</ele>
        <time>2020-02-16T08:23:23.000Z</time>
      </trkpt>
      <trkpt lat="47.27786" lon="-2.37008">
        <ele>33</ele>
        <time>2020-02-16T08:23:31.000Z</time>
      </trkpt>
      <trkpt lat="47.27788" lon="-2.37016">
        <ele>33.599998474121</ele>
        <time>2020-02-16T08:23:32.000Z</time>
      </trkpt>
      <trkpt lat="47.2779" lon="-2.37023">
        <ele>34</ele>
        <time>2020-02-16T08:23:33.000Z</time>
      </trkpt>
      <trkpt lat="47.27793" lon="-2.37031">
        <ele>33.799999237061</ele>
        <time>2020-02-16T08:23:34.000Z</time>
      </trkpt>
      <trkpt lat="47.27795" lon="-2.37039">
        <ele>33.599998474121</ele>
        <time>2020-02-16T08:23:35.000Z</time>
      </trkpt>
      <trkpt lat="47.27797" lon="-2.37047">
        <ele>33.400001525879</ele>
        <time>2020-02-16T08:23:36.000Z</time>
      </trkpt>
      <trkpt lat="47.27799" lon="-2.37055">
        <ele>33.200000762939</ele>
        <time>2020-02-16T08:23:37.000Z</time>
      </trkpt>
      <trkpt lat="47.27801" lon="-2.37063">
        <ele>33</ele>
        <time>2020-02-16T08:23:38.000Z</time>
      </trkpt>
      <trkpt lat="47.27803" lon="-2.37071">
        <ele>33</ele>
        <time>2020-02-16T08:23:39.000Z</time>
      </trkpt>
      <trkpt lat="47.27817" lon="-2.37121">
        <ele>33</ele>
        <time>2020-02-16T08:23:46.000Z</time>
      </trkpt>
      <trkpt lat="47.27831" lon="-2.37165">
        <ele>33</ele>
        <time>2020-02-16T08:23:52.000Z</time>
      </trkpt>
      <trkpt lat="47.27836" lon="-2.37178">
        <ele>33.599998474121</ele>
        <time>2020-02-16T08:23:54.000Z</time>
      </trkpt>
      <trkpt lat="47.27838" lon="-2.37185">
        <ele>34</ele>
        <time>2020-02-16T08:23:55.000Z</time>
      </trkpt>
      <trkpt lat="47.27839" lon="-2.37193">
        <ele>35</ele>
        <time>2020-02-16T08:23:56.000Z</time>
      </trkpt>
      <trkpt lat="47.27839" lon="-2.372">
        <ele>36.200000762939</ele>
        <time>2020-02-16T08:23:57.000Z</time>
      </trkpt>
      <trkpt lat="47.27839" lon="-2.37207">
        <ele>37.200000762939</ele>
        <time>2020-02-16T08:23:58.000Z</time>
      </trkpt>
      <trkpt lat="47.2784" lon="-2.37214">
        <ele>38.200000762939</ele>
        <time>2020-02-16T08:23:59.000Z</time>
      </trkpt>
      <trkpt lat="47.27842" lon="-2.3722">
        <ele>39.400001525879</ele>
        <time>2020-02-16T08:24:00.000Z</time>
      </trkpt>
      <trkpt lat="47.27845" lon="-2.37233">
        <ele>38.599998474121</ele>
        <time>2020-02-16T08:24:02.000Z</time>
      </trkpt>
      <trkpt lat="47.27847" lon="-2.3724">
        <ele>38</ele>
        <time>2020-02-16T08:24:03.000Z</time>
      </trkpt>
      <trkpt lat="47.27849" lon="-2.37246">
        <ele>37.200000762939</ele>
        <time>2020-02-16T08:24:04.000Z</time>
      </trkpt>
      <trkpt lat="47.2785" lon="-2.37253">
        <ele>36.200000762939</ele>
        <time>2020-02-16T08:24:05.000Z</time>
      </trkpt>
      <trkpt lat="47.27852" lon="-2.3726">
        <ele>35.200000762939</ele>
        <time>2020-02-16T08:24:06.000Z</time>
      </trkpt>
      <trkpt lat="47.27854" lon="-2.37267">
        <ele>34.400001525879</ele>
        <time>2020-02-16T08:24:07.000Z</time>
      </trkpt>
      <trkpt lat="47.27856" lon="-2.37274">
        <ele>33.400001525879</ele>
        <time>2020-02-16T08:24:08.000Z</time>
      </trkpt>
      <trkpt lat="47.2786" lon="-2.37288">
        <ele>33.400001525879</ele>
        <time>2020-02-16T08:24:10.000Z</time>
      </trkpt>
      <trkpt lat="47.27877" lon="-2.37345">
        <ele>33.400001525879</ele>
        <time>2020-02-16T08:24:18.000Z</time>
      </trkpt>
      <trkpt lat="47.27883" lon="-2.37373">
        <ele>33.799999237061</ele>
        <time>2020-02-16T08:24:22.000Z</time>
      </trkpt>
      <trkpt lat="47.27885" lon="-2.3738">
        <ele>34.200000762939</ele>
        <time>2020-02-16T08:24:23.000Z</time>
      </trkpt>
      <trkpt lat="47.27887" lon="-2.37386">
        <ele>34.799999237061</ele>
        <time>2020-02-16T08:24:24.000Z</time>
      </trkpt>
      <trkpt lat="47.27889" lon="-2.37393">
        <ele>35.200000762939</ele>
        <time>2020-02-16T08:24:25.000Z</time>
      </trkpt>
      <trkpt lat="47.27891" lon="-2.374">
        <ele>35.599998474121</ele>
        <time>2020-02-16T08:24:26.000Z</time>
      </trkpt>
      <trkpt lat="47.279" lon="-2.37443">
        <ele>35.599998474121</ele>
        <time>2020-02-16T08:24:32.000Z</time>
      </trkpt>
      <trkpt lat="47.27906" lon="-2.37465">
        <ele>35.599998474121</ele>
        <time>2020-02-16T08:24:37.000Z</time>
      </trkpt>
      <trkpt lat="47.27908" lon="-2.37471">
        <ele>35.200000762939</ele>
        <time>2020-02-16T08:24:39.000Z</time>
      </trkpt>
      <trkpt lat="47.27909" lon="-2.37474">
        <ele>34.799999237061</ele>
        <time>2020-02-16T08:24:40.000Z</time>
      </trkpt>
      <trkpt lat="47.2791" lon="-2.37478">
        <ele>34.400001525879</ele>
        <time>2020-02-16T08:24:41.000Z</time>
      </trkpt>
      <trkpt lat="47.27911" lon="-2.37481">
        <ele>34</ele>
        <time>2020-02-16T08:24:42.000Z</time>
      </trkpt>
      <trkpt lat="47.27912" lon="-2.37485">
        <ele>34.400001525879</ele>
        <time>2020-02-16T08:24:43.000Z</time>
      </trkpt>
      <trkpt lat="47.27914" lon="-2.37489">
        <ele>34.599998474121</ele>
        <time>2020-02-16T08:24:44.000Z</time>
      </trkpt>
      <trkpt lat="47.27915" lon="-2.37494">
        <ele>35</ele>
        <time>2020-02-16T08:24:45.000Z</time>
      </trkpt>
      <trkpt lat="47.27916" lon="-2.375">
        <ele>35.200000762939</ele>
        <time>2020-02-16T08:24:46.000Z</time>
      </trkpt>
      <trkpt lat="47.27917" lon="-2.37506">
        <ele>35.599998474121</ele>
        <time>2020-02-16T08:24:47.000Z</time>
      </trkpt>
      <trkpt lat="47.27919" lon="-2.37518">
        <ele>36.200000762939</ele>
        <time>2020-02-16T08:24:49.000Z</time>
      </trkpt>
      <trkpt lat="47.27921" lon="-2.37524">
        <ele>37</ele>
        <time>2020-02-16T08:24:50.000Z</time>
      </trkpt>
      <trkpt lat="47.27922" lon="-2.3753">
        <ele>37.599998474121</ele>
        <time>2020-02-16T08:24:51.000Z</time>
      </trkpt>
      <trkpt lat="47.27923" lon="-2.37536">
        <ele>38.200000762939</ele>
        <time>2020-02-16T08:24:52.000Z</time>
      </trkpt>
      <trkpt lat="47.27924" lon="-2.37542">
        <ele>39</ele>
        <time>2020-02-16T08:24:53.000Z</time>
      </trkpt>
      <trkpt lat="47.2793" lon="-2.37567">
        <ele>38.400001525879</ele>
        <time>2020-02-16T08:24:57.000Z</time>
      </trkpt>
      <trkpt lat="47.27931" lon="-2.37573">
        <ele>37.200000762939</ele>
        <time>2020-02-16T08:24:58.000Z</time>
      </trkpt>
      <trkpt lat="47.27933" lon="-2.37578">
        <ele>36.599998474121</ele>
        <time>2020-02-16T08:24:59.000Z</time>
      </trkpt>
      <trkpt lat="47.27934" lon="-2.37584">
        <ele>36</ele>
        <time>2020-02-16T08:25:00.000Z</time>
      </trkpt>
      <trkpt lat="47.27939" lon="-2.37601">
        <ele>35.400001525879</ele>
        <time>2020-02-16T08:25:03.000Z</time>
      </trkpt>
      <trkpt lat="47.27941" lon="-2.37608">
        <ele>35</ele>
        <time>2020-02-16T08:25:04.000Z</time>
      </trkpt>
      <trkpt lat="47.27942" lon="-2.37614">
        <ele>34.599998474121</ele>
        <time>2020-02-16T08:25:05.000Z</time>
      </trkpt>
      <trkpt lat="47.27943" lon="-2.3762">
        <ele>34.200000762939</ele>
        <time>2020-02-16T08:25:06.000Z</time>
      </trkpt>
      <trkpt lat="47.27944" lon="-2.37626">
        <ele>33.599998474121</ele>
        <time>2020-02-16T08:25:07.000Z</time>
      </trkpt>
      <trkpt lat="47.27949" lon="-2.37645">
        <ele>33.599998474121</ele>
        <time>2020-02-16T08:25:10.000Z</time>
      </trkpt>
      <trkpt lat="47.27955" lon="-2.37654">
        <ele>33.599998474121</ele>
        <time>2020-02-16T08:25:12.000Z</time>
      </trkpt>
      <trkpt lat="47.27963" lon="-2.3766">
        <ele>34.200000762939</ele>
        <time>2020-02-16T08:25:14.000Z</time>
      </trkpt>
      <trkpt lat="47.27966" lon="-2.37664">
        <ele>34.599998474121</ele>
        <time>2020-02-16T08:25:15.000Z</time>
      </trkpt>
      <trkpt lat="47.2797" lon="-2.37668">
        <ele>35</ele>
        <time>2020-02-16T08:25:16.000Z</time>
      </trkpt>
      <trkpt lat="47.27973" lon="-2.37672">
        <ele>35.400001525879</ele>
        <time>2020-02-16T08:25:17.000Z</time>
      </trkpt>
      <trkpt lat="47.27975" lon="-2.37677">
        <ele>35.799999237061</ele>
        <time>2020-02-16T08:25:18.000Z</time>
      </trkpt>
      <trkpt lat="47.27984" lon="-2.37692">
        <ele>35.799999237061</ele>
        <time>2020-02-16T08:25:21.000Z</time>
      </trkpt>
      <trkpt lat="47.27987" lon="-2.37698">
        <ele>36.400001525879</ele>
        <time>2020-02-16T08:25:22.000Z</time>
      </trkpt>
      <trkpt lat="47.27991" lon="-2.37704">
        <ele>37.400001525879</ele>
        <time>2020-02-16T08:25:23.000Z</time>
      </trkpt>
      <trkpt lat="47.27994" lon="-2.37711">
        <ele>38.599998474121</ele>
        <time>2020-02-16T08:25:24.000Z</time>
      </trkpt>
      <trkpt lat="47.27997" lon="-2.37717">
        <ele>40.200000762939</ele>
        <time>2020-02-16T08:25:25.000Z</time>
      </trkpt>
      <trkpt lat="47.28001" lon="-2.37723">
        <ele>41.599998474121</ele>
        <time>2020-02-16T08:25:26.000Z</time>
      </trkpt>
      <trkpt lat="47.28005" lon="-2.37728">
        <ele>43.200000762939</ele>
        <time>2020-02-16T08:25:27.000Z</time>
      </trkpt>
      <trkpt lat="47.28008" lon="-2.37735">
        <ele>44.599998474121</ele>
        <time>2020-02-16T08:25:28.000Z</time>
      </trkpt>
      <trkpt lat="47.28011" lon="-2.3774">
        <ele>44.400001525879</ele>
        <time>2020-02-16T08:25:29.000Z</time>
      </trkpt>
      <trkpt lat="47.28015" lon="-2.37745">
        <ele>44</ele>
        <time>2020-02-16T08:25:30.000Z</time>
      </trkpt>
      <trkpt lat="47.28018" lon="-2.37749">
        <ele>43.599998474121</ele>
        <time>2020-02-16T08:25:31.000Z</time>
      </trkpt>
      <trkpt lat="47.28021" lon="-2.37753">
        <ele>43.200000762939</ele>
        <time>2020-02-16T08:25:32.000Z</time>
      </trkpt>
      <trkpt lat="47.28023" lon="-2.37757">
        <ele>42.799999237061</ele>
        <time>2020-02-16T08:25:33.000Z</time>
      </trkpt>
      <trkpt lat="47.28025" lon="-2.37762">
        <ele>42.200000762939</ele>
        <time>2020-02-16T08:25:34.000Z</time>
      </trkpt>
      <trkpt lat="47.28027" lon="-2.37767">
        <ele>41.799999237061</ele>
        <time>2020-02-16T08:25:35.000Z</time>
      </trkpt>
      <trkpt lat="47.28029" lon="-2.37772">
        <ele>41.200000762939</ele>
        <time>2020-02-16T08:25:36.000Z</time>
      </trkpt>
      <trkpt lat="47.28032" lon="-2.37777">
        <ele>40.799999237061</ele>
        <time>2020-02-16T08:25:37.000Z</time>
      </trkpt>
      <trkpt lat="47.28037" lon="-2.37786">
        <ele>40.799999237061</ele>
        <time>2020-02-16T08:25:39.000Z</time>
      </trkpt>
      <trkpt lat="47.2804" lon="-2.37791">
        <ele>40.799999237061</ele>
        <time>2020-02-16T08:25:40.000Z</time>
      </trkpt>
      <trkpt lat="47.28054" lon="-2.37814">
        <ele>40.799999237061</ele>
        <time>2020-02-16T08:25:44.000Z</time>
      </trkpt>
      <trkpt lat="47.28076" lon="-2.3785">
        <ele>40.799999237061</ele>
        <time>2020-02-16T08:25:50.000Z</time>
      </trkpt>
      <trkpt lat="47.28096" lon="-2.37882">
        <ele>40.799999237061</ele>
        <time>2020-02-16T08:25:56.000Z</time>
      </trkpt>
      <trkpt lat="47.28121" lon="-2.37921">
        <ele>40.799999237061</ele>
        <time>2020-02-16T08:26:03.000Z</time>
      </trkpt>
      <trkpt lat="47.28143" lon="-2.37955">
        <ele>40.799999237061</ele>
        <time>2020-02-16T08:26:10.000Z</time>
      </trkpt>
      <trkpt lat="47.28156" lon="-2.37972">
        <ele>40.799999237061</ele>
        <time>2020-02-16T08:26:15.000Z</time>
      </trkpt>
      <trkpt lat="47.28161" lon="-2.37993">
        <ele>40.799999237061</ele>
        <time>2020-02-16T08:26:19.000Z</time>
      </trkpt>
      <trkpt lat="47.28165" lon="-2.38026">
        <ele>40.799999237061</ele>
        <time>2020-02-16T08:26:25.000Z</time>
      </trkpt>
      <trkpt lat="47.28173" lon="-2.38061">
        <ele>40.799999237061</ele>
        <time>2020-02-16T08:26:31.000Z</time>
      </trkpt>
      <trkpt lat="47.28189" lon="-2.38114">
        <ele>40.799999237061</ele>
        <time>2020-02-16T08:26:38.000Z</time>
      </trkpt>
      <trkpt lat="47.28193" lon="-2.38151">
        <ele>40.799999237061</ele>
        <time>2020-02-16T08:26:43.000Z</time>
      </trkpt>
      <trkpt lat="47.28192" lon="-2.38178">
        <ele>40.799999237061</ele>
        <time>2020-02-16T08:26:48.000Z</time>
      </trkpt>
      <trkpt lat="47.28187" lon="-2.38204">
        <ele>40.799999237061</ele>
        <time>2020-02-16T08:26:53.000Z</time>
      </trkpt>
      <trkpt lat="47.28184" lon="-2.38221">
        <ele>40.799999237061</ele>
        <time>2020-02-16T08:26:56.000Z</time>
      </trkpt>
      <trkpt lat="47.28184" lon="-2.38236">
        <ele>40.799999237061</ele>
        <time>2020-02-16T08:26:59.000Z</time>
      </trkpt>
      <trkpt lat="47.28191" lon="-2.38275">
        <ele>40.799999237061</ele>
        <time>2020-02-16T08:27:06.000Z</time>
      </trkpt>
      <trkpt lat="47.28193" lon="-2.38281">
        <ele>40.799999237061</ele>
        <time>2020-02-16T08:27:07.000Z</time>
      </trkpt>
      <trkpt lat="47.28201" lon="-2.38308">
        <ele>40.799999237061</ele>
        <time>2020-02-16T08:27:12.000Z</time>
      </trkpt>
      <trkpt lat="47.28217" lon="-2.38349">
        <ele>40.799999237061</ele>
        <time>2020-02-16T08:27:20.000Z</time>
      </trkpt>
      <trkpt lat="47.28228" lon="-2.3838">
        <ele>41.200000762939</ele>
        <time>2020-02-16T08:27:25.000Z</time>
      </trkpt>
      <trkpt lat="47.28231" lon="-2.38386">
        <ele>42</ele>
        <time>2020-02-16T08:27:26.000Z</time>
      </trkpt>
      <trkpt lat="47.28233" lon="-2.38391">
        <ele>42.400001525879</ele>
        <time>2020-02-16T08:27:27.000Z</time>
      </trkpt>
      <trkpt lat="47.28235" lon="-2.38397">
        <ele>42.799999237061</ele>
        <time>2020-02-16T08:27:28.000Z</time>
      </trkpt>
      <trkpt lat="47.28242" lon="-2.38418">
        <ele>42.799999237061</ele>
        <time>2020-02-16T08:27:32.000Z</time>
      </trkpt>
      <trkpt lat="47.28253" lon="-2.3845">
        <ele>42.799999237061</ele>
        <time>2020-02-16T08:27:38.000Z</time>
      </trkpt>
      <trkpt lat="47.28262" lon="-2.38481">
        <ele>42.799999237061</ele>
        <time>2020-02-16T08:27:43.000Z</time>
      </trkpt>
      <trkpt lat="47.28272" lon="-2.38519">
        <ele>42.799999237061</ele>
        <time>2020-02-16T08:27:48.000Z</time>
      </trkpt>
      <trkpt lat="47.28273" lon="-2.38526">
        <ele>42.799999237061</ele>
        <time>2020-02-16T08:27:49.000Z</time>
      </trkpt>
      <trkpt lat="47.28276" lon="-2.38567">
        <ele>42.799999237061</ele>
        <time>2020-02-16T08:27:55.000Z</time>
      </trkpt>
      <trkpt lat="47.28278" lon="-2.38613">
        <ele>42.799999237061</ele>
        <time>2020-02-16T08:28:02.000Z</time>
      </trkpt>
      <trkpt lat="47.28279" lon="-2.38655">
        <ele>42.799999237061</ele>
        <time>2020-02-16T08:28:09.000Z</time>
      </trkpt>
      <trkpt lat="47.28278" lon="-2.38684">
        <ele>42.799999237061</ele>
        <time>2020-02-16T08:28:15.000Z</time>
      </trkpt>
      <trkpt lat="47.28288" lon="-2.38706">
        <ele>42.799999237061</ele>
        <time>2020-02-16T08:28:20.000Z</time>
      </trkpt>
      <trkpt lat="47.28297" lon="-2.38726">
        <ele>42.799999237061</ele>
        <time>2020-02-16T08:28:23.000Z</time>
      </trkpt>
      <trkpt lat="47.28299" lon="-2.38735">
        <ele>42.799999237061</ele>
        <time>2020-02-16T08:28:24.000Z</time>
      </trkpt>
      <trkpt lat="47.28305" lon="-2.38779">
        <ele>42.799999237061</ele>
        <time>2020-02-16T08:28:29.000Z</time>
      </trkpt>
      <trkpt lat="47.28306" lon="-2.38789">
        <ele>42.799999237061</ele>
        <time>2020-02-16T08:28:30.000Z</time>
      </trkpt>
      <trkpt lat="47.28306" lon="-2.38798">
        <ele>42.400001525879</ele>
        <time>2020-02-16T08:28:31.000Z</time>
      </trkpt>
      <trkpt lat="47.28306" lon="-2.38807">
        <ele>42</ele>
        <time>2020-02-16T08:28:32.000Z</time>
      </trkpt>
      <trkpt lat="47.28307" lon="-2.38816">
        <ele>41.599998474121</ele>
        <time>2020-02-16T08:28:33.000Z</time>
      </trkpt>
      <trkpt lat="47.28306" lon="-2.38826">
        <ele>41</ele>
        <time>2020-02-16T08:28:34.000Z</time>
      </trkpt>
      <trkpt lat="47.28307" lon="-2.38835">
        <ele>40.599998474121</ele>
        <time>2020-02-16T08:28:35.000Z</time>
      </trkpt>
      <trkpt lat="47.28307" lon="-2.38843">
        <ele>40.599998474121</ele>
        <time>2020-02-16T08:28:36.000Z</time>
      </trkpt>
      <trkpt lat="47.28308" lon="-2.3885">
        <ele>40.599998474121</ele>
        <time>2020-02-16T08:28:37.000Z</time>
      </trkpt>
      <trkpt lat="47.2831" lon="-2.38878">
        <ele>40.599998474121</ele>
        <time>2020-02-16T08:28:41.000Z</time>
      </trkpt>
      <trkpt lat="47.28315" lon="-2.38914">
        <ele>40.599998474121</ele>
        <time>2020-02-16T08:28:46.000Z</time>
      </trkpt>
      <trkpt lat="47.28321" lon="-2.38982">
        <ele>40.599998474121</ele>
        <time>2020-02-16T08:28:54.000Z</time>
      </trkpt>
      <trkpt lat="47.28322" lon="-2.38996">
        <ele>40.599998474121</ele>
        <time>2020-02-16T08:28:56.000Z</time>
      </trkpt>
      <trkpt lat="47.28324" lon="-2.39019">
        <ele>40.599998474121</ele>
        <time>2020-02-16T08:28:59.000Z</time>
      </trkpt>
      <trkpt lat="47.28328" lon="-2.3905">
        <ele>40.599998474121</ele>
        <time>2020-02-16T08:29:04.000Z</time>
      </trkpt>
      <trkpt lat="47.28332" lon="-2.39074">
        <ele>40.599998474121</ele>
        <time>2020-02-16T08:29:10.000Z</time>
      </trkpt>
      <trkpt lat="47.28334" lon="-2.39095">
        <ele>41</ele>
        <time>2020-02-16T08:29:14.000Z</time>
      </trkpt>
      <trkpt lat="47.28335" lon="-2.39101">
        <ele>41.599998474121</ele>
        <time>2020-02-16T08:29:15.000Z</time>
      </trkpt>
      <trkpt lat="47.28335" lon="-2.39107">
        <ele>42</ele>
        <time>2020-02-16T08:29:16.000Z</time>
      </trkpt>
      <trkpt lat="47.28336" lon="-2.39113">
        <ele>42.400001525879</ele>
        <time>2020-02-16T08:29:17.000Z</time>
      </trkpt>
      <trkpt lat="47.28336" lon="-2.39119">
        <ele>42.799999237061</ele>
        <time>2020-02-16T08:29:18.000Z</time>
      </trkpt>
      <trkpt lat="47.28337" lon="-2.39138">
        <ele>42.799999237061</ele>
        <time>2020-02-16T08:29:21.000Z</time>
      </trkpt>
      <trkpt lat="47.28339" lon="-2.39177">
        <ele>42.799999237061</ele>
        <time>2020-02-16T08:29:28.000Z</time>
      </trkpt>
      <trkpt lat="47.28343" lon="-2.39207">
        <ele>42.799999237061</ele>
        <time>2020-02-16T08:29:35.000Z</time>
      </trkpt>
      <trkpt lat="47.28346" lon="-2.3923">
        <ele>42.799999237061</ele>
        <time>2020-02-16T08:29:40.000Z</time>
      </trkpt>
      <trkpt lat="47.28347" lon="-2.39241">
        <ele>43.200000762939</ele>
        <time>2020-02-16T08:29:42.000Z</time>
      </trkpt>
      <trkpt lat="47.28347" lon="-2.39246">
        <ele>43.599998474121</ele>
        <time>2020-02-16T08:29:43.000Z</time>
      </trkpt>
      <trkpt lat="47.28348" lon="-2.39252">
        <ele>44</ele>
        <time>2020-02-16T08:29:44.000Z</time>
      </trkpt>
      <trkpt lat="47.2835" lon="-2.39256">
        <ele>44.400001525879</ele>
        <time>2020-02-16T08:29:45.000Z</time>
      </trkpt>
      <trkpt lat="47.28352" lon="-2.3926">
        <ele>44.799999237061</ele>
        <time>2020-02-16T08:29:46.000Z</time>
      </trkpt>
      <trkpt lat="47.28359" lon="-2.39264">
        <ele>45.200000762939</ele>
        <time>2020-02-16T08:29:48.000Z</time>
      </trkpt>
      <trkpt lat="47.28363" lon="-2.39265">
        <ele>45.599998474121</ele>
        <time>2020-02-16T08:29:49.000Z</time>
      </trkpt>
      <trkpt lat="47.28368" lon="-2.39267">
        <ele>46</ele>
        <time>2020-02-16T08:29:50.000Z</time>
      </trkpt>
      <trkpt lat="47.28372" lon="-2.39268">
        <ele>46.400001525879</ele>
        <time>2020-02-16T08:29:51.000Z</time>
      </trkpt>
      <trkpt lat="47.28377" lon="-2.39269">
        <ele>46.799999237061</ele>
        <time>2020-02-16T08:29:52.000Z</time>
      </trkpt>
      <trkpt lat="47.28385" lon="-2.39272">
        <ele>46</ele>
        <time>2020-02-16T08:29:54.000Z</time>
      </trkpt>
      <trkpt lat="47.2839" lon="-2.39274">
        <ele>45.599998474121</ele>
        <time>2020-02-16T08:29:55.000Z</time>
      </trkpt>
      <trkpt lat="47.28394" lon="-2.39275">
        <ele>45.200000762939</ele>
        <time>2020-02-16T08:29:56.000Z</time>
      </trkpt>
      <trkpt lat="47.28398" lon="-2.39276">
        <ele>44.799999237061</ele>
        <time>2020-02-16T08:29:57.000Z</time>
      </trkpt>
      <trkpt lat="47.2842" lon="-2.39287">
        <ele>44.799999237061</ele>
        <time>2020-02-16T08:30:02.000Z</time>
      </trkpt>
      <trkpt lat="47.28438" lon="-2.39296">
        <ele>44.799999237061</ele>
        <time>2020-02-16T08:30:07.000Z</time>
      </trkpt>
      <trkpt lat="47.28448" lon="-2.39303">
        <ele>45.200000762939</ele>
        <time>2020-02-16T08:30:10.000Z</time>
      </trkpt>
      <trkpt lat="47.28452" lon="-2.39306">
        <ele>45.799999237061</ele>
        <time>2020-02-16T08:30:11.000Z</time>
      </trkpt>
      <trkpt lat="47.28455" lon="-2.3931">
        <ele>46.200000762939</ele>
        <time>2020-02-16T08:30:12.000Z</time>
      </trkpt>
      <trkpt lat="47.28458" lon="-2.39314">
        <ele>46.599998474121</ele>
        <time>2020-02-16T08:30:13.000Z</time>
      </trkpt>
      <trkpt lat="47.28461" lon="-2.39319">
        <ele>47.200000762939</ele>
        <time>2020-02-16T08:30:14.000Z</time>
      </trkpt>
      <trkpt lat="47.28464" lon="-2.39324">
        <ele>47.200000762939</ele>
        <time>2020-02-16T08:30:15.000Z</time>
      </trkpt>
      <trkpt lat="47.28466" lon="-2.3933">
        <ele>46.599998474121</ele>
        <time>2020-02-16T08:30:16.000Z</time>
      </trkpt>
      <trkpt lat="47.28469" lon="-2.39336">
        <ele>46.200000762939</ele>
        <time>2020-02-16T08:30:17.000Z</time>
      </trkpt>
      <trkpt lat="47.28471" lon="-2.39342">
        <ele>45.799999237061</ele>
        <time>2020-02-16T08:30:18.000Z</time>
      </trkpt>
      <trkpt lat="47.28473" lon="-2.39347">
        <ele>44.799999237061</ele>
        <time>2020-02-16T08:30:19.000Z</time>
      </trkpt>
      <trkpt lat="47.28476" lon="-2.39353">
        <ele>44.799999237061</ele>
        <time>2020-02-16T08:30:20.000Z</time>
      </trkpt>
      <trkpt lat="47.28479" lon="-2.3936">
        <ele>44.799999237061</ele>
        <time>2020-02-16T08:30:22.000Z</time>
      </trkpt>
      <trkpt lat="47.28486" lon="-2.39368">
        <ele>44.799999237061</ele>
        <time>2020-02-16T08:30:26.000Z</time>
      </trkpt>
      <trkpt lat="47.28496" lon="-2.39367">
        <ele>44.799999237061</ele>
        <time>2020-02-16T08:30:29.000Z</time>
      </trkpt>
      <trkpt lat="47.28507" lon="-2.39366">
        <ele>44.799999237061</ele>
        <time>2020-02-16T08:30:32.000Z</time>
      </trkpt>
      <trkpt lat="47.28529" lon="-2.39364">
        <ele>44.799999237061</ele>
        <time>2020-02-16T08:30:38.000Z</time>
      </trkpt>
      <trkpt lat="47.28553" lon="-2.39358">
        <ele>44.400001525879</ele>
        <time>2020-02-16T08:30:43.000Z</time>
      </trkpt>
      <trkpt lat="47.28558" lon="-2.3936">
        <ele>44</ele>
        <time>2020-02-16T08:30:44.000Z</time>
      </trkpt>
      <trkpt lat="47.28561" lon="-2.39362">
        <ele>43.599998474121</ele>
        <time>2020-02-16T08:30:45.000Z</time>
      </trkpt>
      <trkpt lat="47.28561" lon="-2.39366">
        <ele>43.200000762939</ele>
        <time>2020-02-16T08:30:46.000Z</time>
      </trkpt>
      <trkpt lat="47.28562" lon="-2.3937">
        <ele>42.799999237061</ele>
        <time>2020-02-16T08:30:47.000Z</time>
      </trkpt>
      <trkpt lat="47.28562" lon="-2.39373">
        <ele>42.799999237061</ele>
        <time>2020-02-16T08:30:48.000Z</time>
      </trkpt>
      <trkpt lat="47.28563" lon="-2.39389">
        <ele>42.799999237061</ele>
        <time>2020-02-16T08:30:51.000Z</time>
      </trkpt>
      <trkpt lat="47.28563" lon="-2.39416">
        <ele>42.799999237061</ele>
        <time>2020-02-16T08:30:55.000Z</time>
      </trkpt>
      <trkpt lat="47.28562" lon="-2.39434">
        <ele>42.799999237061</ele>
        <time>2020-02-16T08:30:58.000Z</time>
      </trkpt>
      <trkpt lat="47.28551" lon="-2.39468">
        <ele>42.799999237061</ele>
        <time>2020-02-16T08:31:04.000Z</time>
      </trkpt>
      <trkpt lat="47.28545" lon="-2.39484">
        <ele>42.799999237061</ele>
        <time>2020-02-16T08:31:08.000Z</time>
      </trkpt>
      <trkpt lat="47.2855" lon="-2.39489">
        <ele>42.799999237061</ele>
        <time>2020-02-16T08:31:10.000Z</time>
      </trkpt>
      <trkpt lat="47.28556" lon="-2.39494">
        <ele>42.799999237061</ele>
        <time>2020-02-16T08:31:12.000Z</time>
      </trkpt>
      <trkpt lat="47.28567" lon="-2.39501">
        <ele>42.799999237061</ele>
        <time>2020-02-16T08:31:16.000Z</time>
      </trkpt>
      <trkpt lat="47.28587" lon="-2.39502">
        <ele>42.799999237061</ele>
        <time>2020-02-16T08:31:21.000Z</time>
      </trkpt>
      <trkpt lat="47.28605" lon="-2.39508">
        <ele>42.799999237061</ele>
        <time>2020-02-16T08:31:26.000Z</time>
      </trkpt>
      <trkpt lat="47.28612" lon="-2.39519">
        <ele>42.799999237061</ele>
        <time>2020-02-16T08:31:30.000Z</time>
      </trkpt>
      <trkpt lat="47.28612" lon="-2.39523">
        <ele>42.799999237061</ele>
        <time>2020-02-16T08:31:31.000Z</time>
      </trkpt>
      <trkpt lat="47.28609" lon="-2.39539">
        <ele>42.799999237061</ele>
        <time>2020-02-16T08:31:34.000Z</time>
      </trkpt>
      <trkpt lat="47.28609" lon="-2.39544">
        <ele>42.799999237061</ele>
        <time>2020-02-16T08:31:35.000Z</time>
      </trkpt>
      <trkpt lat="47.28609" lon="-2.39561">
        <ele>42.799999237061</ele>
        <time>2020-02-16T08:31:40.000Z</time>
      </trkpt>
      <trkpt lat="47.28612" lon="-2.39569">
        <ele>42.799999237061</ele>
        <time>2020-02-16T08:31:43.000Z</time>
      </trkpt>
      <trkpt lat="47.2862" lon="-2.39572">
        <ele>42.799999237061</ele>
        <time>2020-02-16T08:31:45.000Z</time>
      </trkpt>
      <trkpt lat="47.28662" lon="-2.39582">
        <ele>42.799999237061</ele>
        <time>2020-02-16T08:31:52.000Z</time>
      </trkpt>
      <trkpt lat="47.28684" lon="-2.39593">
        <ele>42.799999237061</ele>
        <time>2020-02-16T08:31:58.000Z</time>
      </trkpt>
      <trkpt lat="47.28687" lon="-2.39597">
        <ele>42.799999237061</ele>
        <time>2020-02-16T08:31:59.000Z</time>
      </trkpt>
      <trkpt lat="47.2869" lon="-2.39606">
        <ele>42.799999237061</ele>
        <time>2020-02-16T08:32:01.000Z</time>
      </trkpt>
      <trkpt lat="47.28689" lon="-2.39617">
        <ele>42.799999237061</ele>
        <time>2020-02-16T08:32:03.000Z</time>
      </trkpt>
      <trkpt lat="47.28687" lon="-2.39629">
        <ele>42.799999237061</ele>
        <time>2020-02-16T08:32:05.000Z</time>
      </trkpt>
      <trkpt lat="47.28675" lon="-2.39678">
        <ele>42.799999237061</ele>
        <time>2020-02-16T08:32:13.000Z</time>
      </trkpt>
      <trkpt lat="47.28665" lon="-2.3972">
        <ele>42.799999237061</ele>
        <time>2020-02-16T08:32:20.000Z</time>
      </trkpt>
      <trkpt lat="47.28655" lon="-2.3976">
        <ele>42.799999237061</ele>
        <time>2020-02-16T08:32:27.000Z</time>
      </trkpt>
      <trkpt lat="47.28648" lon="-2.39787">
        <ele>43.200000762939</ele>
        <time>2020-02-16T08:32:32.000Z</time>
      </trkpt>
      <trkpt lat="47.28648" lon="-2.39793">
        <ele>43.599998474121</ele>
        <time>2020-02-16T08:32:33.000Z</time>
      </trkpt>
      <trkpt lat="47.28646" lon="-2.39799">
        <ele>44.400001525879</ele>
        <time>2020-02-16T08:32:34.000Z</time>
      </trkpt>
      <trkpt lat="47.28645" lon="-2.39805">
        <ele>45.200000762939</ele>
        <time>2020-02-16T08:32:35.000Z</time>
      </trkpt>
      <trkpt lat="47.28643" lon="-2.39811">
        <ele>46</ele>
        <time>2020-02-16T08:32:36.000Z</time>
      </trkpt>
      <trkpt lat="47.28642" lon="-2.39817">
        <ele>46.799999237061</ele>
        <time>2020-02-16T08:32:37.000Z</time>
      </trkpt>
      <trkpt lat="47.2864" lon="-2.39824">
        <ele>46.400001525879</ele>
        <time>2020-02-16T08:32:38.000Z</time>
      </trkpt>
      <trkpt lat="47.28638" lon="-2.3983">
        <ele>46.200000762939</ele>
        <time>2020-02-16T08:32:39.000Z</time>
      </trkpt>
      <trkpt lat="47.28636" lon="-2.39835">
        <ele>45.400001525879</ele>
        <time>2020-02-16T08:32:40.000Z</time>
      </trkpt>
      <trkpt lat="47.28635" lon="-2.39841">
        <ele>45.200000762939</ele>
        <time>2020-02-16T08:32:41.000Z</time>
      </trkpt>
      <trkpt lat="47.28629" lon="-2.39864">
        <ele>44.599998474121</ele>
        <time>2020-02-16T08:32:45.000Z</time>
      </trkpt>
      <trkpt lat="47.28627" lon="-2.39869">
        <ele>44.200000762939</ele>
        <time>2020-02-16T08:32:46.000Z</time>
      </trkpt>
      <trkpt lat="47.28624" lon="-2.39875">
        <ele>43.799999237061</ele>
        <time>2020-02-16T08:32:47.000Z</time>
      </trkpt>
      <trkpt lat="47.28622" lon="-2.39881">
        <ele>43.400001525879</ele>
        <time>2020-02-16T08:32:48.000Z</time>
      </trkpt>
      <trkpt lat="47.28619" lon="-2.39887">
        <ele>43</ele>
        <time>2020-02-16T08:32:49.000Z</time>
      </trkpt>
      <trkpt lat="47.28609" lon="-2.39912">
        <ele>43</ele>
        <time>2020-02-16T08:32:53.000Z</time>
      </trkpt>
      <trkpt lat="47.28607" lon="-2.39918">
        <ele>43</ele>
        <time>2020-02-16T08:32:54.000Z</time>
      </trkpt>
      <trkpt lat="47.28597" lon="-2.39943">
        <ele>43</ele>
        <time>2020-02-16T08:32:58.000Z</time>
      </trkpt>
      <trkpt lat="47.28582" lon="-2.39988">
        <ele>43</ele>
        <time>2020-02-16T08:33:05.000Z</time>
      </trkpt>
      <trkpt lat="47.28572" lon="-2.4001">
        <ele>43</ele>
        <time>2020-02-16T08:33:10.000Z</time>
      </trkpt>
      <trkpt lat="47.28571" lon="-2.40011">
        <ele>43</ele>
        <time>2020-02-16T08:33:12.000Z</time>
      </trkpt>
      <trkpt lat="47.28571" lon="-2.40014">
        <ele>43</ele>
        <time>2020-02-16T08:33:23.000Z</time>
      </trkpt>
      <trkpt lat="47.2857" lon="-2.40016">
        <ele>43</ele>
        <time>2020-02-16T08:33:24.000Z</time>
      </trkpt>
      <trkpt lat="47.28563" lon="-2.40036">
        <ele>43</ele>
        <time>2020-02-16T08:33:29.000Z</time>
      </trkpt>
      <trkpt lat="47.28558" lon="-2.4005">
        <ele>43</ele>
        <time>2020-02-16T08:33:32.000Z</time>
      </trkpt>
      <trkpt lat="47.28557" lon="-2.40063">
        <ele>43</ele>
        <time>2020-02-16T08:33:34.000Z</time>
      </trkpt>
      <trkpt lat="47.28552" lon="-2.40111">
        <ele>43</ele>
        <time>2020-02-16T08:33:41.000Z</time>
      </trkpt>
      <trkpt lat="47.2855" lon="-2.40154">
        <ele>43</ele>
        <time>2020-02-16T08:33:47.000Z</time>
      </trkpt>
      <trkpt lat="47.28546" lon="-2.40203">
        <ele>43</ele>
        <time>2020-02-16T08:33:54.000Z</time>
      </trkpt>
      <trkpt lat="47.28542" lon="-2.40245">
        <ele>43.400001525879</ele>
        <time>2020-02-16T08:34:00.000Z</time>
      </trkpt>
      <trkpt lat="47.28541" lon="-2.40252">
        <ele>43.799999237061</ele>
        <time>2020-02-16T08:34:01.000Z</time>
      </trkpt>
      <trkpt lat="47.2854" lon="-2.40259">
        <ele>44.400001525879</ele>
        <time>2020-02-16T08:34:02.000Z</time>
      </trkpt>
      <trkpt lat="47.2854" lon="-2.40266">
        <ele>44.799999237061</ele>
        <time>2020-02-16T08:34:03.000Z</time>
      </trkpt>
      <trkpt lat="47.28539" lon="-2.40274">
        <ele>45.200000762939</ele>
        <time>2020-02-16T08:34:04.000Z</time>
      </trkpt>
      <trkpt lat="47.28535" lon="-2.4032">
        <ele>45.200000762939</ele>
        <time>2020-02-16T08:34:10.000Z</time>
      </trkpt>
      <trkpt lat="47.28531" lon="-2.40373">
        <ele>45.200000762939</ele>
        <time>2020-02-16T08:34:17.000Z</time>
      </trkpt>
      <trkpt lat="47.28528" lon="-2.40412">
        <ele>45.200000762939</ele>
        <time>2020-02-16T08:34:23.000Z</time>
      </trkpt>
      <trkpt lat="47.28529" lon="-2.40417">
        <ele>45.200000762939</ele>
        <time>2020-02-16T08:34:24.000Z</time>
      </trkpt>
      <trkpt lat="47.28535" lon="-2.40425">
        <ele>45.200000762939</ele>
        <time>2020-02-16T08:34:26.000Z</time>
      </trkpt>
      <trkpt lat="47.28538" lon="-2.40428">
        <ele>44.799999237061</ele>
        <time>2020-02-16T08:34:27.000Z</time>
      </trkpt>
      <trkpt lat="47.28542" lon="-2.40431">
        <ele>44.400001525879</ele>
        <time>2020-02-16T08:34:28.000Z</time>
      </trkpt>
      <trkpt lat="47.28545" lon="-2.40434">
        <ele>44</ele>
        <time>2020-02-16T08:34:29.000Z</time>
      </trkpt>
      <trkpt lat="47.28549" lon="-2.40437">
        <ele>43.599998474121</ele>
        <time>2020-02-16T08:34:30.000Z</time>
      </trkpt>
      <trkpt lat="47.28553" lon="-2.4044">
        <ele>43.200000762939</ele>
        <time>2020-02-16T08:34:31.000Z</time>
      </trkpt>
      <trkpt lat="47.28558" lon="-2.40443">
        <ele>43.200000762939</ele>
        <time>2020-02-16T08:34:32.000Z</time>
      </trkpt>
      <trkpt lat="47.28574" lon="-2.40457">
        <ele>43.200000762939</ele>
        <time>2020-02-16T08:34:37.000Z</time>
      </trkpt>
      <trkpt lat="47.28588" lon="-2.40473">
        <ele>43.200000762939</ele>
        <time>2020-02-16T08:34:42.000Z</time>
      </trkpt>
      <trkpt lat="47.28614" lon="-2.40505">
        <ele>43.200000762939</ele>
        <time>2020-02-16T08:34:49.000Z</time>
      </trkpt>
      <trkpt lat="47.28634" lon="-2.40533">
        <ele>43.200000762939</ele>
        <time>2020-02-16T08:34:56.000Z</time>
      </trkpt>
      <trkpt lat="47.28644" lon="-2.40546">
        <ele>43.200000762939</ele>
        <time>2020-02-16T08:34:59.000Z</time>
      </trkpt>
      <trkpt lat="47.28652" lon="-2.4056">
        <ele>43.200000762939</ele>
        <time>2020-02-16T08:35:02.000Z</time>
      </trkpt>
      <trkpt lat="47.28654" lon="-2.40571">
        <ele>43.200000762939</ele>
        <time>2020-02-16T08:35:04.000Z</time>
      </trkpt>
      <trkpt lat="47.28654" lon="-2.40576">
        <ele>43.200000762939</ele>
        <time>2020-02-16T08:35:05.000Z</time>
      </trkpt>
      <trkpt lat="47.28653" lon="-2.40582">
        <ele>43.200000762939</ele>
        <time>2020-02-16T08:35:06.000Z</time>
      </trkpt>
      <trkpt lat="47.28651" lon="-2.40587">
        <ele>43.799999237061</ele>
        <time>2020-02-16T08:35:07.000Z</time>
      </trkpt>
      <trkpt lat="47.28649" lon="-2.40592">
        <ele>44.200000762939</ele>
        <time>2020-02-16T08:35:08.000Z</time>
      </trkpt>
      <trkpt lat="47.28645" lon="-2.40596">
        <ele>45</ele>
        <time>2020-02-16T08:35:09.000Z</time>
      </trkpt>
      <trkpt lat="47.28642" lon="-2.40601">
        <ele>45.599998474121</ele>
        <time>2020-02-16T08:35:10.000Z</time>
      </trkpt>
      <trkpt lat="47.28631" lon="-2.40614">
        <ele>45.599998474121</ele>
        <time>2020-02-16T08:35:13.000Z</time>
      </trkpt>
      <trkpt lat="47.28622" lon="-2.40629">
        <ele>45.599998474121</ele>
        <time>2020-02-16T08:35:16.000Z</time>
      </trkpt>
      <trkpt lat="47.28619" lon="-2.40633">
        <ele>45.599998474121</ele>
        <time>2020-02-16T08:35:17.000Z</time>
      </trkpt>
      <trkpt lat="47.28607" lon="-2.40653">
        <ele>45.599998474121</ele>
        <time>2020-02-16T08:35:21.000Z</time>
      </trkpt>
      <trkpt lat="47.28605" lon="-2.40658">
        <ele>45.599998474121</ele>
        <time>2020-02-16T08:35:22.000Z</time>
      </trkpt>
      <trkpt lat="47.28594" lon="-2.40674">
        <ele>45.599998474121</ele>
        <time>2020-02-16T08:35:26.000Z</time>
      </trkpt>
      <trkpt lat="47.28591" lon="-2.40678">
        <ele>45.599998474121</ele>
        <time>2020-02-16T08:35:27.000Z</time>
      </trkpt>
      <trkpt lat="47.28588" lon="-2.40682">
        <ele>45.599998474121</ele>
        <time>2020-02-16T08:35:28.000Z</time>
      </trkpt>
      <trkpt lat="47.28574" lon="-2.40704">
        <ele>45.599998474121</ele>
        <time>2020-02-16T08:35:32.000Z</time>
      </trkpt>
      <trkpt lat="47.28546" lon="-2.40746">
        <ele>45.599998474121</ele>
        <time>2020-02-16T08:35:39.000Z</time>
      </trkpt>
      <trkpt lat="47.28507" lon="-2.40802">
        <ele>45.599998474121</ele>
        <time>2020-02-16T08:35:49.000Z</time>
      </trkpt>
      <trkpt lat="47.28478" lon="-2.40845">
        <ele>45.599998474121</ele>
        <time>2020-02-16T08:35:57.000Z</time>
      </trkpt>
      <trkpt lat="47.28458" lon="-2.40874">
        <ele>45.599998474121</ele>
        <time>2020-02-16T08:36:03.000Z</time>
      </trkpt>
      <trkpt lat="47.28439" lon="-2.40902">
        <ele>45.599998474121</ele>
        <time>2020-02-16T08:36:09.000Z</time>
      </trkpt>
      <trkpt lat="47.28429" lon="-2.40922">
        <ele>45.599998474121</ele>
        <time>2020-02-16T08:36:13.000Z</time>
      </trkpt>
      <trkpt lat="47.28428" lon="-2.40928">
        <ele>45.599998474121</ele>
        <time>2020-02-16T08:36:14.000Z</time>
      </trkpt>
      <trkpt lat="47.28422" lon="-2.40963">
        <ele>45.599998474121</ele>
        <time>2020-02-16T08:36:19.000Z</time>
      </trkpt>
      <trkpt lat="47.28415" lon="-2.40992">
        <ele>46</ele>
        <time>2020-02-16T08:36:23.000Z</time>
      </trkpt>
      <trkpt lat="47.28414" lon="-2.40999">
        <ele>46.599998474121</ele>
        <time>2020-02-16T08:36:24.000Z</time>
      </trkpt>
      <trkpt lat="47.28412" lon="-2.41005">
        <ele>47.200000762939</ele>
        <time>2020-02-16T08:36:25.000Z</time>
      </trkpt>
      <trkpt lat="47.28411" lon="-2.41012">
        <ele>47.599998474121</ele>
        <time>2020-02-16T08:36:26.000Z</time>
      </trkpt>
      <trkpt lat="47.28409" lon="-2.41019">
        <ele>48.200000762939</ele>
        <time>2020-02-16T08:36:27.000Z</time>
      </trkpt>
      <trkpt lat="47.28405" lon="-2.41034">
        <ele>47.799999237061</ele>
        <time>2020-02-16T08:36:29.000Z</time>
      </trkpt>
      <trkpt lat="47.28404" lon="-2.4104">
        <ele>47.400001525879</ele>
        <time>2020-02-16T08:36:30.000Z</time>
      </trkpt>
      <trkpt lat="47.28403" lon="-2.41047">
        <ele>47</ele>
        <time>2020-02-16T08:36:31.000Z</time>
      </trkpt>
      <trkpt lat="47.28402" lon="-2.41054">
        <ele>46.400001525879</ele>
        <time>2020-02-16T08:36:32.000Z</time>
      </trkpt>
      <trkpt lat="47.284" lon="-2.41061">
        <ele>46</ele>
        <time>2020-02-16T08:36:33.000Z</time>
      </trkpt>
      <trkpt lat="47.2839" lon="-2.41096">
        <ele>46</ele>
        <time>2020-02-16T08:36:38.000Z</time>
      </trkpt>
      <trkpt lat="47.28379" lon="-2.41143">
        <ele>46</ele>
        <time>2020-02-16T08:36:45.000Z</time>
      </trkpt>
      <trkpt lat="47.28369" lon="-2.41181">
        <ele>46</ele>
        <time>2020-02-16T08:36:51.000Z</time>
      </trkpt>
      <trkpt lat="47.28362" lon="-2.41203">
        <ele>46</ele>
        <time>2020-02-16T08:36:56.000Z</time>
      </trkpt>
      <trkpt lat="47.28362" lon="-2.41207">
        <ele>46</ele>
        <time>2020-02-16T08:36:57.000Z</time>
      </trkpt>
      <trkpt lat="47.28365" lon="-2.4123">
        <ele>46</ele>
        <time>2020-02-16T08:37:03.000Z</time>
      </trkpt>
      <trkpt lat="47.28375" lon="-2.41234">
        <ele>46</ele>
        <time>2020-02-16T08:37:06.000Z</time>
      </trkpt>
      <trkpt lat="47.28383" lon="-2.41237">
        <ele>46</ele>
        <time>2020-02-16T08:37:08.000Z</time>
      </trkpt>
      <trkpt lat="47.28394" lon="-2.41241">
        <ele>46</ele>
        <time>2020-02-16T08:37:11.000Z</time>
      </trkpt>
      <trkpt lat="47.28426" lon="-2.41257">
        <ele>46</ele>
        <time>2020-02-16T08:37:18.000Z</time>
      </trkpt>
      <trkpt lat="47.28449" lon="-2.41268">
        <ele>46</ele>
        <time>2020-02-16T08:37:23.000Z</time>
      </trkpt>
      <trkpt lat="47.28452" lon="-2.41272">
        <ele>46</ele>
        <time>2020-02-16T08:37:24.000Z</time>
      </trkpt>
      <trkpt lat="47.28457" lon="-2.41284">
        <ele>46.599998474121</ele>
        <time>2020-02-16T08:37:26.000Z</time>
      </trkpt>
      <trkpt lat="47.28457" lon="-2.41291">
        <ele>47</ele>
        <time>2020-02-16T08:37:27.000Z</time>
      </trkpt>
      <trkpt lat="47.28457" lon="-2.41298">
        <ele>47.400001525879</ele>
        <time>2020-02-16T08:37:28.000Z</time>
      </trkpt>
      <trkpt lat="47.28456" lon="-2.41305">
        <ele>47.799999237061</ele>
        <time>2020-02-16T08:37:29.000Z</time>
      </trkpt>
      <trkpt lat="47.28455" lon="-2.41311">
        <ele>48.200000762939</ele>
        <time>2020-02-16T08:37:30.000Z</time>
      </trkpt>
      <trkpt lat="47.28453" lon="-2.41325">
        <ele>48.200000762939</ele>
        <time>2020-02-16T08:37:32.000Z</time>
      </trkpt>
      <trkpt lat="47.2845" lon="-2.41338">
        <ele>48.799999237061</ele>
        <time>2020-02-16T08:37:34.000Z</time>
      </trkpt>
      <trkpt lat="47.28448" lon="-2.41345">
        <ele>49.200000762939</ele>
        <time>2020-02-16T08:37:35.000Z</time>
      </trkpt>
      <trkpt lat="47.28447" lon="-2.41353">
        <ele>49.599998474121</ele>
        <time>2020-02-16T08:37:36.000Z</time>
      </trkpt>
      <trkpt lat="47.28445" lon="-2.4136">
        <ele>50.599998474121</ele>
        <time>2020-02-16T08:37:37.000Z</time>
      </trkpt>
      <trkpt lat="47.28442" lon="-2.41372">
        <ele>50.599998474121</ele>
        <time>2020-02-16T08:37:39.000Z</time>
      </trkpt>
      <trkpt lat="47.28435" lon="-2.41393">
        <ele>50.599998474121</ele>
        <time>2020-02-16T08:37:42.000Z</time>
      </trkpt>
      <trkpt lat="47.28427" lon="-2.41415">
        <ele>50.599998474121</ele>
        <time>2020-02-16T08:37:45.000Z</time>
      </trkpt>
      <trkpt lat="47.28417" lon="-2.41467">
        <ele>50.599998474121</ele>
        <time>2020-02-16T08:37:52.000Z</time>
      </trkpt>
      <trkpt lat="47.28412" lon="-2.41522">
        <ele>50.599998474121</ele>
        <time>2020-02-16T08:38:00.000Z</time>
      </trkpt>
      <trkpt lat="47.28403" lon="-2.41587">
        <ele>50.599998474121</ele>
        <time>2020-02-16T08:38:09.000Z</time>
      </trkpt>
      <trkpt lat="47.28401" lon="-2.4161">
        <ele>50.200000762939</ele>
        <time>2020-02-16T08:38:12.000Z</time>
      </trkpt>
      <trkpt lat="47.284" lon="-2.41617">
        <ele>49.799999237061</ele>
        <time>2020-02-16T08:38:13.000Z</time>
      </trkpt>
      <trkpt lat="47.284" lon="-2.41624">
        <ele>49.400001525879</ele>
        <time>2020-02-16T08:38:14.000Z</time>
      </trkpt>
      <trkpt lat="47.28399" lon="-2.41631">
        <ele>49</ele>
        <time>2020-02-16T08:38:15.000Z</time>
      </trkpt>
      <trkpt lat="47.28398" lon="-2.41638">
        <ele>48.599998474121</ele>
        <time>2020-02-16T08:38:16.000Z</time>
      </trkpt>
      <trkpt lat="47.28397" lon="-2.41651">
        <ele>48.599998474121</ele>
        <time>2020-02-16T08:38:18.000Z</time>
      </trkpt>
      <trkpt lat="47.28396" lon="-2.41665">
        <ele>48.599998474121</ele>
        <time>2020-02-16T08:38:20.000Z</time>
      </trkpt>
      <trkpt lat="47.28394" lon="-2.41672">
        <ele>48.599998474121</ele>
        <time>2020-02-16T08:38:21.000Z</time>
      </trkpt>
      <trkpt lat="47.28383" lon="-2.41715">
        <ele>48.599998474121</ele>
        <time>2020-02-16T08:38:27.000Z</time>
      </trkpt>
      <trkpt lat="47.28368" lon="-2.41781">
        <ele>48.599998474121</ele>
        <time>2020-02-16T08:38:36.000Z</time>
      </trkpt>
      <trkpt lat="47.28354" lon="-2.41839">
        <ele>48.599998474121</ele>
        <time>2020-02-16T08:38:44.000Z</time>
      </trkpt>
      <trkpt lat="47.28339" lon="-2.41905">
        <ele>48.599998474121</ele>
        <time>2020-02-16T08:38:53.000Z</time>
      </trkpt>
      <trkpt lat="47.28334" lon="-2.41926">
        <ele>49</ele>
        <time>2020-02-16T08:38:56.000Z</time>
      </trkpt>
      <trkpt lat="47.28332" lon="-2.41932">
        <ele>49.400001525879</ele>
        <time>2020-02-16T08:38:57.000Z</time>
      </trkpt>
      <trkpt lat="47.28331" lon="-2.41939">
        <ele>49.799999237061</ele>
        <time>2020-02-16T08:38:58.000Z</time>
      </trkpt>
      <trkpt lat="47.28329" lon="-2.41947">
        <ele>50.200000762939</ele>
        <time>2020-02-16T08:38:59.000Z</time>
      </trkpt>
      <trkpt lat="47.28327" lon="-2.41954">
        <ele>50.599998474121</ele>
        <time>2020-02-16T08:39:00.000Z</time>
      </trkpt>
      <trkpt lat="47.28313" lon="-2.42003">
        <ele>50.599998474121</ele>
        <time>2020-02-16T08:39:07.000Z</time>
      </trkpt>
      <trkpt lat="47.28306" lon="-2.42037">
        <ele>50.599998474121</ele>
        <time>2020-02-16T08:39:12.000Z</time>
      </trkpt>
      <trkpt lat="47.28305" lon="-2.42044">
        <ele>50.599998474121</ele>
        <time>2020-02-16T08:39:13.000Z</time>
      </trkpt>
      <trkpt lat="47.28299" lon="-2.42084">
        <ele>50.599998474121</ele>
        <time>2020-02-16T08:39:19.000Z</time>
      </trkpt>
      <trkpt lat="47.28293" lon="-2.42139">
        <ele>50.599998474121</ele>
        <time>2020-02-16T08:39:27.000Z</time>
      </trkpt>
      <trkpt lat="47.28287" lon="-2.42175">
        <ele>50.599998474121</ele>
        <time>2020-02-16T08:39:32.000Z</time>
      </trkpt>
      <trkpt lat="47.28285" lon="-2.42189">
        <ele>50.599998474121</ele>
        <time>2020-02-16T08:39:34.000Z</time>
      </trkpt>
      <trkpt lat="47.28277" lon="-2.42237">
        <ele>50.599998474121</ele>
        <time>2020-02-16T08:39:41.000Z</time>
      </trkpt>
      <trkpt lat="47.2827" lon="-2.4229">
        <ele>50.599998474121</ele>
        <time>2020-02-16T08:39:49.000Z</time>
      </trkpt>
      <trkpt lat="47.28263" lon="-2.42342">
        <ele>50.599998474121</ele>
        <time>2020-02-16T08:39:57.000Z</time>
      </trkpt>
      <trkpt lat="47.28255" lon="-2.4238">
        <ele>51</ele>
        <time>2020-02-16T08:40:03.000Z</time>
      </trkpt>
      <trkpt lat="47.28254" lon="-2.42387">
        <ele>51.599998474121</ele>
        <time>2020-02-16T08:40:04.000Z</time>
      </trkpt>
      <trkpt lat="47.28253" lon="-2.42393">
        <ele>52.400001525879</ele>
        <time>2020-02-16T08:40:05.000Z</time>
      </trkpt>
      <trkpt lat="47.28251" lon="-2.42399">
        <ele>52.799999237061</ele>
        <time>2020-02-16T08:40:06.000Z</time>
      </trkpt>
      <trkpt lat="47.28241" lon="-2.42436">
        <ele>52.799999237061</ele>
        <time>2020-02-16T08:40:12.000Z</time>
      </trkpt>
      <trkpt lat="47.28227" lon="-2.4247">
        <ele>52.799999237061</ele>
        <time>2020-02-16T08:40:18.000Z</time>
      </trkpt>
      <trkpt lat="47.28216" lon="-2.42491">
        <ele>52.799999237061</ele>
        <time>2020-02-16T08:40:22.000Z</time>
      </trkpt>
      <trkpt lat="47.28207" lon="-2.42504">
        <ele>52.799999237061</ele>
        <time>2020-02-16T08:40:25.000Z</time>
      </trkpt>
      <trkpt lat="47.28187" lon="-2.42521">
        <ele>52.799999237061</ele>
        <time>2020-02-16T08:40:31.000Z</time>
      </trkpt>
      <trkpt lat="47.28175" lon="-2.42525">
        <ele>52.400001525879</ele>
        <time>2020-02-16T08:40:34.000Z</time>
      </trkpt>
      <trkpt lat="47.28171" lon="-2.42526">
        <ele>52</ele>
        <time>2020-02-16T08:40:35.000Z</time>
      </trkpt>
      <trkpt lat="47.28167" lon="-2.42527">
        <ele>51.400001525879</ele>
        <time>2020-02-16T08:40:36.000Z</time>
      </trkpt>
      <trkpt lat="47.28163" lon="-2.42528">
        <ele>51</ele>
        <time>2020-02-16T08:40:37.000Z</time>
      </trkpt>
      <trkpt lat="47.28159" lon="-2.42529">
        <ele>50.599998474121</ele>
        <time>2020-02-16T08:40:38.000Z</time>
      </trkpt>
      <trkpt lat="47.28134" lon="-2.42536">
        <ele>50.599998474121</ele>
        <time>2020-02-16T08:40:44.000Z</time>
      </trkpt>
      <trkpt lat="47.2813" lon="-2.42537">
        <ele>51</ele>
        <time>2020-02-16T08:40:45.000Z</time>
      </trkpt>
      <trkpt lat="47.28126" lon="-2.42538">
        <ele>51.400001525879</ele>
        <time>2020-02-16T08:40:46.000Z</time>
      </trkpt>
      <trkpt lat="47.28122" lon="-2.42539">
        <ele>51.799999237061</ele>
        <time>2020-02-16T08:40:47.000Z</time>
      </trkpt>
      <trkpt lat="47.28118" lon="-2.4254">
        <ele>52.200000762939</ele>
        <time>2020-02-16T08:40:48.000Z</time>
      </trkpt>
      <trkpt lat="47.28115" lon="-2.42541">
        <ele>52.799999237061</ele>
        <time>2020-02-16T08:40:49.000Z</time>
      </trkpt>
      <trkpt lat="47.28105" lon="-2.42543">
        <ele>52.799999237061</ele>
        <time>2020-02-16T08:40:52.000Z</time>
      </trkpt>
      <trkpt lat="47.28098" lon="-2.42552">
        <ele>52.799999237061</ele>
        <time>2020-02-16T08:40:55.000Z</time>
      </trkpt>
      <trkpt lat="47.28097" lon="-2.42556">
        <ele>52.799999237061</ele>
        <time>2020-02-16T08:40:56.000Z</time>
      </trkpt>
      <trkpt lat="47.28103" lon="-2.42577">
        <ele>52.799999237061</ele>
        <time>2020-02-16T08:41:00.000Z</time>
      </trkpt>
      <trkpt lat="47.28105" lon="-2.42582">
        <ele>52.799999237061</ele>
        <time>2020-02-16T08:41:01.000Z</time>
      </trkpt>
      <trkpt lat="47.28109" lon="-2.42587">
        <ele>52.799999237061</ele>
        <time>2020-02-16T08:41:02.000Z</time>
      </trkpt>
      <trkpt lat="47.2812" lon="-2.42607">
        <ele>52.799999237061</ele>
        <time>2020-02-16T08:41:06.000Z</time>
      </trkpt>
      <trkpt lat="47.28142" lon="-2.42639">
        <ele>53.200000762939</ele>
        <time>2020-02-16T08:41:13.000Z</time>
      </trkpt>
      <trkpt lat="47.28145" lon="-2.42643">
        <ele>53.799999237061</ele>
        <time>2020-02-16T08:41:14.000Z</time>
      </trkpt>
      <trkpt lat="47.28147" lon="-2.42648">
        <ele>54.200000762939</ele>
        <time>2020-02-16T08:41:15.000Z</time>
      </trkpt>
      <trkpt lat="47.2815" lon="-2.42653">
        <ele>54.599998474121</ele>
        <time>2020-02-16T08:41:16.000Z</time>
      </trkpt>
      <trkpt lat="47.28153" lon="-2.42658">
        <ele>55.200000762939</ele>
        <time>2020-02-16T08:41:17.000Z</time>
      </trkpt>
      <trkpt lat="47.28168" lon="-2.42683">
        <ele>55.200000762939</ele>
        <time>2020-02-16T08:41:22.000Z</time>
      </trkpt>
      <trkpt lat="47.28186" lon="-2.4271">
        <ele>55.200000762939</ele>
        <time>2020-02-16T08:41:28.000Z</time>
      </trkpt>
      <trkpt lat="47.28189" lon="-2.4271">
        <ele>54.799999237061</ele>
        <time>2020-02-16T08:41:29.000Z</time>
      </trkpt>
      <trkpt lat="47.28192" lon="-2.42707">
        <ele>54.400001525879</ele>
        <time>2020-02-16T08:41:30.000Z</time>
      </trkpt>
      <trkpt lat="47.28195" lon="-2.42703">
        <ele>54</ele>
        <time>2020-02-16T08:41:31.000Z</time>
      </trkpt>
      <trkpt lat="47.28197" lon="-2.42698">
        <ele>53.599998474121</ele>
        <time>2020-02-16T08:41:32.000Z</time>
      </trkpt>
      <trkpt lat="47.28198" lon="-2.42692">
        <ele>53</ele>
        <time>2020-02-16T08:41:33.000Z</time>
      </trkpt>
      <trkpt lat="47.28199" lon="-2.42687">
        <ele>53</ele>
        <time>2020-02-16T08:41:34.000Z</time>
      </trkpt>
      <trkpt lat="47.28205" lon="-2.42665">
        <ele>53</ele>
        <time>2020-02-16T08:41:38.000Z</time>
      </trkpt>
      <trkpt lat="47.28208" lon="-2.4266">
        <ele>53</ele>
        <time>2020-02-16T08:41:39.000Z</time>
      </trkpt>
      <trkpt lat="47.28222" lon="-2.42644">
        <ele>53</ele>
        <time>2020-02-16T08:41:43.000Z</time>
      </trkpt>
      <trkpt lat="47.28245" lon="-2.42621">
        <ele>52.599998474121</ele>
        <time>2020-02-16T08:41:49.000Z</time>
      </trkpt>
      <trkpt lat="47.28249" lon="-2.42617">
        <ele>52.200000762939</ele>
        <time>2020-02-16T08:41:50.000Z</time>
      </trkpt>
      <trkpt lat="47.28254" lon="-2.42613">
        <ele>51.799999237061</ele>
        <time>2020-02-16T08:41:51.000Z</time>
      </trkpt>
      <trkpt lat="47.28258" lon="-2.42609">
        <ele>51.400001525879</ele>
        <time>2020-02-16T08:41:52.000Z</time>
      </trkpt>
      <trkpt lat="47.28261" lon="-2.42604">
        <ele>51</ele>
        <time>2020-02-16T08:41:53.000Z</time>
      </trkpt>
      <trkpt lat="47.28273" lon="-2.4259">
        <ele>51</ele>
        <time>2020-02-16T08:41:56.000Z</time>
      </trkpt>
      <trkpt lat="47.28285" lon="-2.42578">
        <ele>51</ele>
        <time>2020-02-16T08:41:59.000Z</time>
      </trkpt>
      <trkpt lat="47.28297" lon="-2.42569">
        <ele>51</ele>
        <time>2020-02-16T08:42:02.000Z</time>
      </trkpt>
      <trkpt lat="47.28301" lon="-2.42567">
        <ele>51</ele>
        <time>2020-02-16T08:42:03.000Z</time>
      </trkpt>
      <trkpt lat="47.28313" lon="-2.42561">
        <ele>51</ele>
        <time>2020-02-16T08:42:06.000Z</time>
      </trkpt>
      <trkpt lat="47.28324" lon="-2.42549">
        <ele>51</ele>
        <time>2020-02-16T08:42:09.000Z</time>
      </trkpt>
      <trkpt lat="47.28329" lon="-2.42534">
        <ele>51.599998474121</ele>
        <time>2020-02-16T08:42:12.000Z</time>
      </trkpt>
      <trkpt lat="47.28329" lon="-2.42528">
        <ele>52</ele>
        <time>2020-02-16T08:42:13.000Z</time>
      </trkpt>
      <trkpt lat="47.2833" lon="-2.42522">
        <ele>52.799999237061</ele>
        <time>2020-02-16T08:42:14.000Z</time>
      </trkpt>
      <trkpt lat="47.28331" lon="-2.42517">
        <ele>53.599998474121</ele>
        <time>2020-02-16T08:42:15.000Z</time>
      </trkpt>
      <trkpt lat="47.28333" lon="-2.42511">
        <ele>54.200000762939</ele>
        <time>2020-02-16T08:42:16.000Z</time>
      </trkpt>
      <trkpt lat="47.28335" lon="-2.42506">
        <ele>55</ele>
        <time>2020-02-16T08:42:17.000Z</time>
      </trkpt>
      <trkpt lat="47.28337" lon="-2.425">
        <ele>55.599998474121</ele>
        <time>2020-02-16T08:42:18.000Z</time>
      </trkpt>
      <trkpt lat="47.28342" lon="-2.42489">
        <ele>55.200000762939</ele>
        <time>2020-02-16T08:42:20.000Z</time>
      </trkpt>
      <trkpt lat="47.28344" lon="-2.42484">
        <ele>54.799999237061</ele>
        <time>2020-02-16T08:42:21.000Z</time>
      </trkpt>
      <trkpt lat="47.28346" lon="-2.42479">
        <ele>54.400001525879</ele>
        <time>2020-02-16T08:42:22.000Z</time>
      </trkpt>
      <trkpt lat="47.28349" lon="-2.42473">
        <ele>54</ele>
        <time>2020-02-16T08:42:23.000Z</time>
      </trkpt>
      <trkpt lat="47.28351" lon="-2.42468">
        <ele>53.599998474121</ele>
        <time>2020-02-16T08:42:24.000Z</time>
      </trkpt>
      <trkpt lat="47.28353" lon="-2.42463">
        <ele>53.599998474121</ele>
        <time>2020-02-16T08:42:25.000Z</time>
      </trkpt>
      <trkpt lat="47.28356" lon="-2.42459">
        <ele>53.599998474121</ele>
        <time>2020-02-16T08:42:26.000Z</time>
      </trkpt>
      <trkpt lat="47.28367" lon="-2.4243">
        <ele>53.599998474121</ele>
        <time>2020-02-16T08:42:32.000Z</time>
      </trkpt>
      <trkpt lat="47.28385" lon="-2.42388">
        <ele>53.599998474121</ele>
        <time>2020-02-16T08:42:40.000Z</time>
      </trkpt>
      <trkpt lat="47.2839" lon="-2.42361">
        <ele>53.599998474121</ele>
        <time>2020-02-16T08:42:45.000Z</time>
      </trkpt>
      <trkpt lat="47.28388" lon="-2.42336">
        <ele>53.599998474121</ele>
        <time>2020-02-16T08:42:49.000Z</time>
      </trkpt>
      <trkpt lat="47.28386" lon="-2.42325">
        <ele>53.599998474121</ele>
        <time>2020-02-16T08:42:51.000Z</time>
      </trkpt>
      <trkpt lat="47.28382" lon="-2.42293">
        <ele>53.599998474121</ele>
        <time>2020-02-16T08:42:57.000Z</time>
      </trkpt>
      <trkpt lat="47.28382" lon="-2.42288">
        <ele>54</ele>
        <time>2020-02-16T08:42:58.000Z</time>
      </trkpt>
      <trkpt lat="47.28383" lon="-2.42283">
        <ele>55</ele>
        <time>2020-02-16T08:42:59.000Z</time>
      </trkpt>
      <trkpt lat="47.28383" lon="-2.42278">
        <ele>55.400001525879</ele>
        <time>2020-02-16T08:43:00.000Z</time>
      </trkpt>
      <trkpt lat="47.28384" lon="-2.42273">
        <ele>55.799999237061</ele>
        <time>2020-02-16T08:43:01.000Z</time>
      </trkpt>
      <trkpt lat="47.28386" lon="-2.42263">
        <ele>55.799999237061</ele>
        <time>2020-02-16T08:43:03.000Z</time>
      </trkpt>
      <trkpt lat="47.28391" lon="-2.4223">
        <ele>55.799999237061</ele>
        <time>2020-02-16T08:43:09.000Z</time>
      </trkpt>
      <trkpt lat="47.284" lon="-2.42192">
        <ele>55.799999237061</ele>
        <time>2020-02-16T08:43:16.000Z</time>
      </trkpt>
      <trkpt lat="47.2841" lon="-2.42152">
        <ele>55.799999237061</ele>
        <time>2020-02-16T08:43:23.000Z</time>
      </trkpt>
      <trkpt lat="47.28419" lon="-2.42105">
        <ele>55.799999237061</ele>
        <time>2020-02-16T08:43:31.000Z</time>
      </trkpt>
      <trkpt lat="47.28423" lon="-2.42089">
        <ele>55.799999237061</ele>
        <time>2020-02-16T08:43:34.000Z</time>
      </trkpt>
      <trkpt lat="47.28426" lon="-2.42072">
        <ele>55.799999237061</ele>
        <time>2020-02-16T08:43:37.000Z</time>
      </trkpt>
      <trkpt lat="47.28434" lon="-2.42032">
        <ele>55.799999237061</ele>
        <time>2020-02-16T08:43:44.000Z</time>
      </trkpt>
      <trkpt lat="47.28442" lon="-2.41994">
        <ele>55.799999237061</ele>
        <time>2020-02-16T08:43:51.000Z</time>
      </trkpt>
      <trkpt lat="47.28451" lon="-2.41949">
        <ele>55.799999237061</ele>
        <time>2020-02-16T08:43:59.000Z</time>
      </trkpt>
      <trkpt lat="47.28454" lon="-2.41941">
        <ele>55.799999237061</ele>
        <time>2020-02-16T08:44:02.000Z</time>
      </trkpt>
      <trkpt lat="47.28455" lon="-2.41941">
        <ele>55.799999237061</ele>
        <time>2020-02-16T08:44:03.000Z</time>
      </trkpt>
      <trkpt lat="47.28459" lon="-2.41942">
        <ele>55.799999237061</ele>
        <time>2020-02-16T08:44:05.000Z</time>
      </trkpt>
      <trkpt lat="47.28469" lon="-2.41943">
        <ele>55.799999237061</ele>
        <time>2020-02-16T08:44:08.000Z</time>
      </trkpt>
      <trkpt lat="47.28473" lon="-2.41944">
        <ele>55.200000762939</ele>
        <time>2020-02-16T08:44:09.000Z</time>
      </trkpt>
      <trkpt lat="47.28477" lon="-2.41944">
        <ele>54.599998474121</ele>
        <time>2020-02-16T08:44:10.000Z</time>
      </trkpt>
      <trkpt lat="47.2848" lon="-2.41942">
        <ele>54</ele>
        <time>2020-02-16T08:44:11.000Z</time>
      </trkpt>
      <trkpt lat="47.28482" lon="-2.41941">
        <ele>53.200000762939</ele>
        <time>2020-02-16T08:44:12.000Z</time>
      </trkpt>
      <trkpt lat="47.28484" lon="-2.41941">
        <ele>51.799999237061</ele>
        <time>2020-02-16T08:44:13.000Z</time>
      </trkpt>
      <trkpt lat="47.28487" lon="-2.41942">
        <ele>51</ele>
        <time>2020-02-16T08:44:14.000Z</time>
      </trkpt>
      <trkpt lat="47.28492" lon="-2.41942">
        <ele>51</ele>
        <time>2020-02-16T08:44:16.000Z</time>
      </trkpt>
      <trkpt lat="47.28501" lon="-2.41938">
        <ele>51.400001525879</ele>
        <time>2020-02-16T08:44:20.000Z</time>
      </trkpt>
      <trkpt lat="47.28503" lon="-2.41937">
        <ele>51.799999237061</ele>
        <time>2020-02-16T08:44:21.000Z</time>
      </trkpt>
      <trkpt lat="47.28504" lon="-2.41935">
        <ele>52.200000762939</ele>
        <time>2020-02-16T08:44:22.000Z</time>
      </trkpt>
      <trkpt lat="47.28504" lon="-2.41934">
        <ele>52.599998474121</ele>
        <time>2020-02-16T08:44:23.000Z</time>
      </trkpt>
      <trkpt lat="47.28503" lon="-2.41932">
        <ele>53</ele>
        <time>2020-02-16T08:44:24.000Z</time>
      </trkpt>
      <trkpt lat="47.285" lon="-2.4193">
        <ele>53</ele>
        <time>2020-02-16T08:44:26.000Z</time>
      </trkpt>
      <trkpt lat="47.28499" lon="-2.41912">
        <ele>53</ele>
        <time>2020-02-16T08:44:29.000Z</time>
      </trkpt>
      <trkpt lat="47.28504" lon="-2.41887">
        <ele>53</ele>
        <time>2020-02-16T08:44:33.000Z</time>
      </trkpt>
      <trkpt lat="47.28505" lon="-2.41882">
        <ele>53</ele>
        <time>2020-02-16T08:44:34.000Z</time>
      </trkpt>
      <trkpt lat="47.28511" lon="-2.41844">
        <ele>53</ele>
        <time>2020-02-16T08:44:41.000Z</time>
      </trkpt>
      <trkpt lat="47.28517" lon="-2.41812">
        <ele>53</ele>
        <time>2020-02-16T08:44:47.000Z</time>
      </trkpt>
      <trkpt lat="47.28522" lon="-2.41789">
        <ele>53</ele>
        <time>2020-02-16T08:44:51.000Z</time>
      </trkpt>
      <trkpt lat="47.28524" lon="-2.41778">
        <ele>53</ele>
        <time>2020-02-16T08:44:53.000Z</time>
      </trkpt>
      <trkpt lat="47.28526" lon="-2.41751">
        <ele>53</ele>
        <time>2020-02-16T08:44:59.000Z</time>
      </trkpt>
      <trkpt lat="47.28527" lon="-2.41747">
        <ele>53</ele>
        <time>2020-02-16T08:45:00.000Z</time>
      </trkpt>
      <trkpt lat="47.28532" lon="-2.41738">
        <ele>53</ele>
        <time>2020-02-16T08:45:02.000Z</time>
      </trkpt>
      <trkpt lat="47.28546" lon="-2.41729">
        <ele>53</ele>
        <time>2020-02-16T08:45:06.000Z</time>
      </trkpt>
      <trkpt lat="47.28558" lon="-2.41729">
        <ele>53</ele>
        <time>2020-02-16T08:45:09.000Z</time>
      </trkpt>
      <trkpt lat="47.28562" lon="-2.4173">
        <ele>53</ele>
        <time>2020-02-16T08:45:10.000Z</time>
      </trkpt>
      <trkpt lat="47.28585" lon="-2.41738">
        <ele>53</ele>
        <time>2020-02-16T08:45:15.000Z</time>
      </trkpt>
      <trkpt lat="47.28593" lon="-2.41744">
        <ele>53</ele>
        <time>2020-02-16T08:45:17.000Z</time>
      </trkpt>
      <trkpt lat="47.28621" lon="-2.41773">
        <ele>53</ele>
        <time>2020-02-16T08:45:24.000Z</time>
      </trkpt>
      <trkpt lat="47.28647" lon="-2.418">
        <ele>53</ele>
        <time>2020-02-16T08:45:31.000Z</time>
      </trkpt>
      <trkpt lat="47.28675" lon="-2.41821">
        <ele>53</ele>
        <time>2020-02-16T08:45:38.000Z</time>
      </trkpt>
      <trkpt lat="47.28695" lon="-2.41839">
        <ele>53</ele>
        <time>2020-02-16T08:45:43.000Z</time>
      </trkpt>
      <trkpt lat="47.28717" lon="-2.41857">
        <ele>53</ele>
        <time>2020-02-16T08:45:49.000Z</time>
      </trkpt>
      <trkpt lat="47.28744" lon="-2.41874">
        <ele>53</ele>
        <time>2020-02-16T08:45:56.000Z</time>
      </trkpt>
      <trkpt lat="47.28764" lon="-2.41884">
        <ele>53</ele>
        <time>2020-02-16T08:46:01.000Z</time>
      </trkpt>
      <trkpt lat="47.28768" lon="-2.41887">
        <ele>53</ele>
        <time>2020-02-16T08:46:02.000Z</time>
      </trkpt>
      <trkpt lat="47.28782" lon="-2.41899">
        <ele>53</ele>
        <time>2020-02-16T08:46:05.000Z</time>
      </trkpt>
      <trkpt lat="47.28786" lon="-2.41904">
        <ele>53</ele>
        <time>2020-02-16T08:46:06.000Z</time>
      </trkpt>
      <trkpt lat="47.28789" lon="-2.4191">
        <ele>53</ele>
        <time>2020-02-16T08:46:07.000Z</time>
      </trkpt>
      <trkpt lat="47.28795" lon="-2.41935">
        <ele>53.400001525879</ele>
        <time>2020-02-16T08:46:11.000Z</time>
      </trkpt>
      <trkpt lat="47.28795" lon="-2.41941">
        <ele>53.799999237061</ele>
        <time>2020-02-16T08:46:12.000Z</time>
      </trkpt>
      <trkpt lat="47.28795" lon="-2.41947">
        <ele>54.200000762939</ele>
        <time>2020-02-16T08:46:13.000Z</time>
      </trkpt>
      <trkpt lat="47.28795" lon="-2.41952">
        <ele>54.799999237061</ele>
        <time>2020-02-16T08:46:14.000Z</time>
      </trkpt>
      <trkpt lat="47.28796" lon="-2.41959">
        <ele>55.200000762939</ele>
        <time>2020-02-16T08:46:15.000Z</time>
      </trkpt>
      <trkpt lat="47.28797" lon="-2.41966">
        <ele>55.200000762939</ele>
        <time>2020-02-16T08:46:16.000Z</time>
      </trkpt>
      <trkpt lat="47.28801" lon="-2.42004">
        <ele>55.200000762939</ele>
        <time>2020-02-16T08:46:21.000Z</time>
      </trkpt>
      <trkpt lat="47.28807" lon="-2.42039">
        <ele>55.200000762939</ele>
        <time>2020-02-16T08:46:26.000Z</time>
      </trkpt>
      <trkpt lat="47.28808" lon="-2.42045">
        <ele>55.200000762939</ele>
        <time>2020-02-16T08:46:27.000Z</time>
      </trkpt>
      <trkpt lat="47.2881" lon="-2.42075">
        <ele>55.200000762939</ele>
        <time>2020-02-16T08:46:32.000Z</time>
      </trkpt>
      <trkpt lat="47.28807" lon="-2.42089">
        <ele>55.200000762939</ele>
        <time>2020-02-16T08:46:34.000Z</time>
      </trkpt>
      <trkpt lat="47.28802" lon="-2.4211">
        <ele>55.200000762939</ele>
        <time>2020-02-16T08:46:37.000Z</time>
      </trkpt>
      <trkpt lat="47.288" lon="-2.42116">
        <ele>55.200000762939</ele>
        <time>2020-02-16T08:46:38.000Z</time>
      </trkpt>
      <trkpt lat="47.2879" lon="-2.4213">
        <ele>55.200000762939</ele>
        <time>2020-02-16T08:46:41.000Z</time>
      </trkpt>
      <trkpt lat="47.28778" lon="-2.42139">
        <ele>55.200000762939</ele>
        <time>2020-02-16T08:46:44.000Z</time>
      </trkpt>
      <trkpt lat="47.28769" lon="-2.42145">
        <ele>55.200000762939</ele>
        <time>2020-02-16T08:46:46.000Z</time>
      </trkpt>
      <trkpt lat="47.28751" lon="-2.42157">
        <ele>55.200000762939</ele>
        <time>2020-02-16T08:46:50.000Z</time>
      </trkpt>
      <trkpt lat="47.28747" lon="-2.42161">
        <ele>55.200000762939</ele>
        <time>2020-02-16T08:46:51.000Z</time>
      </trkpt>
      <trkpt lat="47.2872" lon="-2.42185">
        <ele>55.200000762939</ele>
        <time>2020-02-16T08:46:57.000Z</time>
      </trkpt>
      <trkpt lat="47.28705" lon="-2.42203">
        <ele>55.200000762939</ele>
        <time>2020-02-16T08:47:02.000Z</time>
      </trkpt>
      <trkpt lat="47.28699" lon="-2.42223">
        <ele>55.200000762939</ele>
        <time>2020-02-16T08:47:06.000Z</time>
      </trkpt>
      <trkpt lat="47.28688" lon="-2.4226">
        <ele>55.200000762939</ele>
        <time>2020-02-16T08:47:13.000Z</time>
      </trkpt>
      <trkpt lat="47.28686" lon="-2.4227">
        <ele>55.599998474121</ele>
        <time>2020-02-16T08:47:15.000Z</time>
      </trkpt>
      <trkpt lat="47.28684" lon="-2.42276">
        <ele>56</ele>
        <time>2020-02-16T08:47:16.000Z</time>
      </trkpt>
      <trkpt lat="47.28683" lon="-2.42281">
        <ele>56.599998474121</ele>
        <time>2020-02-16T08:47:17.000Z</time>
      </trkpt>
      <trkpt lat="47.28682" lon="-2.42287">
        <ele>57</ele>
        <time>2020-02-16T08:47:18.000Z</time>
      </trkpt>
      <trkpt lat="47.28681" lon="-2.42293">
        <ele>57.400001525879</ele>
        <time>2020-02-16T08:47:19.000Z</time>
      </trkpt>
      <trkpt lat="47.28674" lon="-2.42338">
        <ele>57.400001525879</ele>
        <time>2020-02-16T08:47:26.000Z</time>
      </trkpt>
      <trkpt lat="47.28669" lon="-2.42382">
        <ele>57.799999237061</ele>
        <time>2020-02-16T08:47:33.000Z</time>
      </trkpt>
      <trkpt lat="47.28667" lon="-2.42387">
        <ele>58.400001525879</ele>
        <time>2020-02-16T08:47:34.000Z</time>
      </trkpt>
      <trkpt lat="47.28665" lon="-2.42392">
        <ele>58.799999237061</ele>
        <time>2020-02-16T08:47:35.000Z</time>
      </trkpt>
      <trkpt lat="47.28661" lon="-2.42396">
        <ele>58.400001525879</ele>
        <time>2020-02-16T08:47:36.000Z</time>
      </trkpt>
      <trkpt lat="47.28658" lon="-2.42401">
        <ele>58.200000762939</ele>
        <time>2020-02-16T08:47:37.000Z</time>
      </trkpt>
      <trkpt lat="47.28655" lon="-2.42405">
        <ele>58</ele>
        <time>2020-02-16T08:47:38.000Z</time>
      </trkpt>
      <trkpt lat="47.28652" lon="-2.42409">
        <ele>57.799999237061</ele>
        <time>2020-02-16T08:47:39.000Z</time>
      </trkpt>
      <trkpt lat="47.28649" lon="-2.42413">
        <ele>57.400001525879</ele>
        <time>2020-02-16T08:47:40.000Z</time>
      </trkpt>
      <trkpt lat="47.28638" lon="-2.42424">
        <ele>57.400001525879</ele>
        <time>2020-02-16T08:47:43.000Z</time>
      </trkpt>
      <trkpt lat="47.28628" lon="-2.42435">
        <ele>57.400001525879</ele>
        <time>2020-02-16T08:47:46.000Z</time>
      </trkpt>
      <trkpt lat="47.28612" lon="-2.42447">
        <ele>57.400001525879</ele>
        <time>2020-02-16T08:47:50.000Z</time>
      </trkpt>
      <trkpt lat="47.28584" lon="-2.4248">
        <ele>57.400001525879</ele>
        <time>2020-02-16T08:47:58.000Z</time>
      </trkpt>
      <trkpt lat="47.28579" lon="-2.4249">
        <ele>57.400001525879</ele>
        <time>2020-02-16T08:48:00.000Z</time>
      </trkpt>
      <trkpt lat="47.2857" lon="-2.42511">
        <ele>57.400001525879</ele>
        <time>2020-02-16T08:48:04.000Z</time>
      </trkpt>
      <trkpt lat="47.28566" lon="-2.42535">
        <ele>57.400001525879</ele>
        <time>2020-02-16T08:48:08.000Z</time>
      </trkpt>
      <trkpt lat="47.28565" lon="-2.42547">
        <ele>57.400001525879</ele>
        <time>2020-02-16T08:48:10.000Z</time>
      </trkpt>
      <trkpt lat="47.28567" lon="-2.42558">
        <ele>57.400001525879</ele>
        <time>2020-02-16T08:48:12.000Z</time>
      </trkpt>
      <trkpt lat="47.28572" lon="-2.42576">
        <ele>57.400001525879</ele>
        <time>2020-02-16T08:48:15.000Z</time>
      </trkpt>
      <trkpt lat="47.28574" lon="-2.42582">
        <ele>57.400001525879</ele>
        <time>2020-02-16T08:48:16.000Z</time>
      </trkpt>
      <trkpt lat="47.28587" lon="-2.42603">
        <ele>57.400001525879</ele>
        <time>2020-02-16T08:48:20.000Z</time>
      </trkpt>
      <trkpt lat="47.28613" lon="-2.42628">
        <ele>57.400001525879</ele>
        <time>2020-02-16T08:48:27.000Z</time>
      </trkpt>
      <trkpt lat="47.28636" lon="-2.42645">
        <ele>57.400001525879</ele>
        <time>2020-02-16T08:48:32.000Z</time>
      </trkpt>
      <trkpt lat="47.28649" lon="-2.42651">
        <ele>57.400001525879</ele>
        <time>2020-02-16T08:48:35.000Z</time>
      </trkpt>
      <trkpt lat="47.28658" lon="-2.42653">
        <ele>57.400001525879</ele>
        <time>2020-02-16T08:48:37.000Z</time>
      </trkpt>
      <trkpt lat="47.28683" lon="-2.42657">
        <ele>57.400001525879</ele>
        <time>2020-02-16T08:48:43.000Z</time>
      </trkpt>
      <trkpt lat="47.28708" lon="-2.42665">
        <ele>57.400001525879</ele>
        <time>2020-02-16T08:48:49.000Z</time>
      </trkpt>
      <trkpt lat="47.28712" lon="-2.42668">
        <ele>57.400001525879</ele>
        <time>2020-02-16T08:48:50.000Z</time>
      </trkpt>
      <trkpt lat="47.28718" lon="-2.42675">
        <ele>57.400001525879</ele>
        <time>2020-02-16T08:48:52.000Z</time>
      </trkpt>
      <trkpt lat="47.28722" lon="-2.42686">
        <ele>57.400001525879</ele>
        <time>2020-02-16T08:48:54.000Z</time>
      </trkpt>
      <trkpt lat="47.28722" lon="-2.42692">
        <ele>58</ele>
        <time>2020-02-16T08:48:55.000Z</time>
      </trkpt>
      <trkpt lat="47.28722" lon="-2.42698">
        <ele>58.400001525879</ele>
        <time>2020-02-16T08:48:56.000Z</time>
      </trkpt>
      <trkpt lat="47.28722" lon="-2.42704">
        <ele>59</ele>
        <time>2020-02-16T08:48:57.000Z</time>
      </trkpt>
      <trkpt lat="47.28721" lon="-2.4271">
        <ele>59.599998474121</ele>
        <time>2020-02-16T08:48:58.000Z</time>
      </trkpt>
      <trkpt lat="47.28721" lon="-2.42716">
        <ele>60</ele>
        <time>2020-02-16T08:48:59.000Z</time>
      </trkpt>
      <trkpt lat="47.28718" lon="-2.42745">
        <ele>60</ele>
        <time>2020-02-16T08:49:05.000Z</time>
      </trkpt>
      <trkpt lat="47.28707" lon="-2.4278">
        <ele>60</ele>
        <time>2020-02-16T08:49:13.000Z</time>
      </trkpt>
      <trkpt lat="47.28693" lon="-2.42808">
        <ele>60</ele>
        <time>2020-02-16T08:49:20.000Z</time>
      </trkpt>
      <trkpt lat="47.28677" lon="-2.42842">
        <ele>60</ele>
        <time>2020-02-16T08:49:28.000Z</time>
      </trkpt>
      <trkpt lat="47.28671" lon="-2.42877">
        <ele>60</ele>
        <time>2020-02-16T08:49:35.000Z</time>
      </trkpt>
      <trkpt lat="47.28667" lon="-2.42912">
        <ele>60</ele>
        <time>2020-02-16T08:49:42.000Z</time>
      </trkpt>
      <trkpt lat="47.28663" lon="-2.42947">
        <ele>60</ele>
        <time>2020-02-16T08:49:49.000Z</time>
      </trkpt>
      <trkpt lat="47.28655" lon="-2.42998">
        <ele>60</ele>
        <time>2020-02-16T08:49:58.000Z</time>
      </trkpt>
      <trkpt lat="47.28647" lon="-2.43041">
        <ele>60</ele>
        <time>2020-02-16T08:50:06.000Z</time>
      </trkpt>
      <trkpt lat="47.28636" lon="-2.43087">
        <ele>60</ele>
        <time>2020-02-16T08:50:14.000Z</time>
      </trkpt>
      <trkpt lat="47.2863" lon="-2.43108">
        <ele>60</ele>
        <time>2020-02-16T08:50:17.000Z</time>
      </trkpt>
      <trkpt lat="47.28627" lon="-2.43129">
        <ele>60</ele>
        <time>2020-02-16T08:50:20.000Z</time>
      </trkpt>
      <trkpt lat="47.28625" lon="-2.4316">
        <ele>59.599998474121</ele>
        <time>2020-02-16T08:50:25.000Z</time>
      </trkpt>
      <trkpt lat="47.28626" lon="-2.43165">
        <ele>59.200000762939</ele>
        <time>2020-02-16T08:50:26.000Z</time>
      </trkpt>
      <trkpt lat="47.28627" lon="-2.43171">
        <ele>58.799999237061</ele>
        <time>2020-02-16T08:50:27.000Z</time>
      </trkpt>
      <trkpt lat="47.28627" lon="-2.43176">
        <ele>58.400001525879</ele>
        <time>2020-02-16T08:50:28.000Z</time>
      </trkpt>
      <trkpt lat="47.28628" lon="-2.43181">
        <ele>58</ele>
        <time>2020-02-16T08:50:29.000Z</time>
      </trkpt>
      <trkpt lat="47.28631" lon="-2.43191">
        <ele>58</ele>
        <time>2020-02-16T08:50:31.000Z</time>
      </trkpt>
      <trkpt lat="47.28641" lon="-2.43217">
        <ele>58</ele>
        <time>2020-02-16T08:50:37.000Z</time>
      </trkpt>
      <trkpt lat="47.2865" lon="-2.43238">
        <ele>58</ele>
        <time>2020-02-16T08:50:42.000Z</time>
      </trkpt>
      <trkpt lat="47.28649" lon="-2.43241">
        <ele>58</ele>
        <time>2020-02-16T08:50:43.000Z</time>
      </trkpt>
      <trkpt lat="47.28645" lon="-2.43245">
        <ele>58.599998474121</ele>
        <time>2020-02-16T08:50:45.000Z</time>
      </trkpt>
      <trkpt lat="47.28642" lon="-2.43247">
        <ele>59</ele>
        <time>2020-02-16T08:50:46.000Z</time>
      </trkpt>
      <trkpt lat="47.28639" lon="-2.43249">
        <ele>59.599998474121</ele>
        <time>2020-02-16T08:50:47.000Z</time>
      </trkpt>
      <trkpt lat="47.28636" lon="-2.4325">
        <ele>60.200000762939</ele>
        <time>2020-02-16T08:50:48.000Z</time>
      </trkpt>
      <trkpt lat="47.28633" lon="-2.43251">
        <ele>60.799999237061</ele>
        <time>2020-02-16T08:50:49.000Z</time>
      </trkpt>
      <trkpt lat="47.28631" lon="-2.43252">
        <ele>60.799999237061</ele>
        <time>2020-02-16T08:50:50.000Z</time>
      </trkpt>
      <trkpt lat="47.28621" lon="-2.43255">
        <ele>60.799999237061</ele>
        <time>2020-02-16T08:50:53.000Z</time>
      </trkpt>
      <trkpt lat="47.28604" lon="-2.43256">
        <ele>60.200000762939</ele>
        <time>2020-02-16T08:50:59.000Z</time>
      </trkpt>
      <trkpt lat="47.28602" lon="-2.43253">
        <ele>59.799999237061</ele>
        <time>2020-02-16T08:51:00.000Z</time>
      </trkpt>
      <trkpt lat="47.28601" lon="-2.43249">
        <ele>59.200000762939</ele>
        <time>2020-02-16T08:51:01.000Z</time>
      </trkpt>
      <trkpt lat="47.28599" lon="-2.43244">
        <ele>58.400001525879</ele>
        <time>2020-02-16T08:51:02.000Z</time>
      </trkpt>
      <trkpt lat="47.28599" lon="-2.4324">
        <ele>57.599998474121</ele>
        <time>2020-02-16T08:51:03.000Z</time>
      </trkpt>
      <trkpt lat="47.28598" lon="-2.43235">
        <ele>57</ele>
        <time>2020-02-16T08:51:04.000Z</time>
      </trkpt>
      <trkpt lat="47.28599" lon="-2.4323">
        <ele>56.200000762939</ele>
        <time>2020-02-16T08:51:05.000Z</time>
      </trkpt>
      <trkpt lat="47.28599" lon="-2.43226">
        <ele>56.200000762939</ele>
        <time>2020-02-16T08:51:06.000Z</time>
      </trkpt>
      <trkpt lat="47.286" lon="-2.43213">
        <ele>56.200000762939</ele>
        <time>2020-02-16T08:51:09.000Z</time>
      </trkpt>
      <trkpt lat="47.28601" lon="-2.43184">
        <ele>56.200000762939</ele>
        <time>2020-02-16T08:51:14.000Z</time>
      </trkpt>
      <trkpt lat="47.28599" lon="-2.43155">
        <ele>56.200000762939</ele>
        <time>2020-02-16T08:51:20.000Z</time>
      </trkpt>
      <trkpt lat="47.28595" lon="-2.4314">
        <ele>55.799999237061</ele>
        <time>2020-02-16T08:51:23.000Z</time>
      </trkpt>
      <trkpt lat="47.28595" lon="-2.43135">
        <ele>55.400001525879</ele>
        <time>2020-02-16T08:51:24.000Z</time>
      </trkpt>
      <trkpt lat="47.28594" lon="-2.4313">
        <ele>55</ele>
        <time>2020-02-16T08:51:25.000Z</time>
      </trkpt>
      <trkpt lat="47.28592" lon="-2.43124">
        <ele>54.400001525879</ele>
        <time>2020-02-16T08:51:26.000Z</time>
      </trkpt>
      <trkpt lat="47.2859" lon="-2.43119">
        <ele>54</ele>
        <time>2020-02-16T08:51:27.000Z</time>
      </trkpt>
      <trkpt lat="47.28581" lon="-2.431">
        <ele>54</ele>
        <time>2020-02-16T08:51:31.000Z</time>
      </trkpt>
      <trkpt lat="47.28578" lon="-2.43096">
        <ele>54.400001525879</ele>
        <time>2020-02-16T08:51:32.000Z</time>
      </trkpt>
      <trkpt lat="47.28575" lon="-2.43092">
        <ele>54.799999237061</ele>
        <time>2020-02-16T08:51:33.000Z</time>
      </trkpt>
      <trkpt lat="47.28572" lon="-2.43088">
        <ele>55.200000762939</ele>
        <time>2020-02-16T08:51:34.000Z</time>
      </trkpt>
      <trkpt lat="47.28569" lon="-2.43084">
        <ele>55.799999237061</ele>
        <time>2020-02-16T08:51:35.000Z</time>
      </trkpt>
      <trkpt lat="47.28566" lon="-2.4308">
        <ele>56.200000762939</ele>
        <time>2020-02-16T08:51:36.000Z</time>
      </trkpt>
      <trkpt lat="47.28561" lon="-2.43072">
        <ele>57</ele>
        <time>2020-02-16T08:51:38.000Z</time>
      </trkpt>
      <trkpt lat="47.28558" lon="-2.43068">
        <ele>57.400001525879</ele>
        <time>2020-02-16T08:51:39.000Z</time>
      </trkpt>
      <trkpt lat="47.28555" lon="-2.43064">
        <ele>57.799999237061</ele>
        <time>2020-02-16T08:51:40.000Z</time>
      </trkpt>
      <trkpt lat="47.28553" lon="-2.43061">
        <ele>58.400001525879</ele>
        <time>2020-02-16T08:51:41.000Z</time>
      </trkpt>
      <trkpt lat="47.28539" lon="-2.43045">
        <ele>58.400001525879</ele>
        <time>2020-02-16T08:51:46.000Z</time>
      </trkpt>
      <trkpt lat="47.28521" lon="-2.43034">
        <ele>58.400001525879</ele>
        <time>2020-02-16T08:51:51.000Z</time>
      </trkpt>
      <trkpt lat="47.28517" lon="-2.43032">
        <ele>58.400001525879</ele>
        <time>2020-02-16T08:51:52.000Z</time>
      </trkpt>
      <trkpt lat="47.28498" lon="-2.43021">
        <ele>58.400001525879</ele>
        <time>2020-02-16T08:51:58.000Z</time>
      </trkpt>
      <trkpt lat="47.28487" lon="-2.43004">
        <ele>58.400001525879</ele>
        <time>2020-02-16T08:52:03.000Z</time>
      </trkpt>
      <trkpt lat="47.28474" lon="-2.43005">
        <ele>58.400001525879</ele>
        <time>2020-02-16T08:52:07.000Z</time>
      </trkpt>
      <trkpt lat="47.28454" lon="-2.4301">
        <ele>58.400001525879</ele>
        <time>2020-02-16T08:52:14.000Z</time>
      </trkpt>
      <trkpt lat="47.2844" lon="-2.43017">
        <ele>58.400001525879</ele>
        <time>2020-02-16T08:52:21.000Z</time>
      </trkpt>
      <trkpt lat="47.28427" lon="-2.43022">
        <ele>58.400001525879</ele>
        <time>2020-02-16T08:52:27.000Z</time>
      </trkpt>
      <trkpt lat="47.28416" lon="-2.43023">
        <ele>58.400001525879</ele>
        <time>2020-02-16T08:52:33.000Z</time>
      </trkpt>
      <trkpt lat="47.28405" lon="-2.43024">
        <ele>58.400001525879</ele>
        <time>2020-02-16T08:52:39.000Z</time>
      </trkpt>
      <trkpt lat="47.28392" lon="-2.43042">
        <ele>58.400001525879</ele>
        <time>2020-02-16T08:52:47.000Z</time>
      </trkpt>
      <trkpt lat="47.28382" lon="-2.43059">
        <ele>58.400001525879</ele>
        <time>2020-02-16T08:52:53.000Z</time>
      </trkpt>
      <trkpt lat="47.28374" lon="-2.43072">
        <ele>58.799999237061</ele>
        <time>2020-02-16T08:52:58.000Z</time>
      </trkpt>
      <trkpt lat="47.28372" lon="-2.43075">
        <ele>59.200000762939</ele>
        <time>2020-02-16T08:52:59.000Z</time>
      </trkpt>
      <trkpt lat="47.28371" lon="-2.43077">
        <ele>59.799999237061</ele>
        <time>2020-02-16T08:53:00.000Z</time>
      </trkpt>
      <trkpt lat="47.28369" lon="-2.4308">
        <ele>60.200000762939</ele>
        <time>2020-02-16T08:53:01.000Z</time>
      </trkpt>
      <trkpt lat="47.28367" lon="-2.43081">
        <ele>60.799999237061</ele>
        <time>2020-02-16T08:53:02.000Z</time>
      </trkpt>
      <trkpt lat="47.28361" lon="-2.43084">
        <ele>60.799999237061</ele>
        <time>2020-02-16T08:53:05.000Z</time>
      </trkpt>
      <trkpt lat="47.28351" lon="-2.43097">
        <ele>60.799999237061</ele>
        <time>2020-02-16T08:53:10.000Z</time>
      </trkpt>
      <trkpt lat="47.28336" lon="-2.43106">
        <ele>60.799999237061</ele>
        <time>2020-02-16T08:53:16.000Z</time>
      </trkpt>
      <trkpt lat="47.28334" lon="-2.43105">
        <ele>60.200000762939</ele>
        <time>2020-02-16T08:53:17.000Z</time>
      </trkpt>
      <trkpt lat="47.28333" lon="-2.43104">
        <ele>59.599998474121</ele>
        <time>2020-02-16T08:53:18.000Z</time>
      </trkpt>
      <trkpt lat="47.28332" lon="-2.43103">
        <ele>59.200000762939</ele>
        <time>2020-02-16T08:53:19.000Z</time>
      </trkpt>
      <trkpt lat="47.28331" lon="-2.43102">
        <ele>58.599998474121</ele>
        <time>2020-02-16T08:53:20.000Z</time>
      </trkpt>
      <trkpt lat="47.28329" lon="-2.43101">
        <ele>58.200000762939</ele>
        <time>2020-02-16T08:53:21.000Z</time>
      </trkpt>
      <trkpt lat="47.28323" lon="-2.431">
        <ele>58.200000762939</ele>
        <time>2020-02-16T08:53:24.000Z</time>
      </trkpt>
      <trkpt lat="47.28319" lon="-2.43101">
        <ele>58.200000762939</ele>
        <time>2020-02-16T08:53:26.000Z</time>
      </trkpt>
      <trkpt lat="47.28312" lon="-2.43112">
        <ele>58.200000762939</ele>
        <time>2020-02-16T08:53:31.000Z</time>
      </trkpt>
      <trkpt lat="47.28312" lon="-2.43114">
        <ele>58.200000762939</ele>
        <time>2020-02-16T08:53:32.000Z</time>
      </trkpt>
      <trkpt lat="47.28309" lon="-2.43128">
        <ele>58.200000762939</ele>
        <time>2020-02-16T08:53:36.000Z</time>
      </trkpt>
      <trkpt lat="47.28302" lon="-2.43164">
        <ele>58.200000762939</ele>
        <time>2020-02-16T08:53:43.000Z</time>
      </trkpt>
      <trkpt lat="47.28297" lon="-2.43192">
        <ele>58.200000762939</ele>
        <time>2020-02-16T08:53:49.000Z</time>
      </trkpt>
      <trkpt lat="47.28291" lon="-2.43232">
        <ele>58.200000762939</ele>
        <time>2020-02-16T08:53:56.000Z</time>
      </trkpt>
      <trkpt lat="47.28288" lon="-2.43251">
        <ele>58.599998474121</ele>
        <time>2020-02-16T08:53:59.000Z</time>
      </trkpt>
      <trkpt lat="47.28287" lon="-2.43257">
        <ele>59</ele>
        <time>2020-02-16T08:54:00.000Z</time>
      </trkpt>
      <trkpt lat="47.28286" lon="-2.43263">
        <ele>59.400001525879</ele>
        <time>2020-02-16T08:54:01.000Z</time>
      </trkpt>
      <trkpt lat="47.28286" lon="-2.43268">
        <ele>59.799999237061</ele>
        <time>2020-02-16T08:54:02.000Z</time>
      </trkpt>
      <trkpt lat="47.28285" lon="-2.43273">
        <ele>60.200000762939</ele>
        <time>2020-02-16T08:54:03.000Z</time>
      </trkpt>
      <trkpt lat="47.28283" lon="-2.43283">
        <ele>60.200000762939</ele>
        <time>2020-02-16T08:54:05.000Z</time>
      </trkpt>
      <trkpt lat="47.28279" lon="-2.43308">
        <ele>60.200000762939</ele>
        <time>2020-02-16T08:54:11.000Z</time>
      </trkpt>
      <trkpt lat="47.28273" lon="-2.43345">
        <ele>60.200000762939</ele>
        <time>2020-02-16T08:54:19.000Z</time>
      </trkpt>
      <trkpt lat="47.2827" lon="-2.43365">
        <ele>60.200000762939</ele>
        <time>2020-02-16T08:54:25.000Z</time>
      </trkpt>
      <trkpt lat="47.28269" lon="-2.43367">
        <ele>60.200000762939</ele>
        <time>2020-02-16T08:54:28.000Z</time>
      </trkpt>
      <trkpt lat="47.28269" lon="-2.43371">
        <ele>60.200000762939</ele>
        <time>2020-02-16T08:54:36.000Z</time>
      </trkpt>
      <trkpt lat="47.28268" lon="-2.43374">
        <ele>60.200000762939</ele>
        <time>2020-02-16T08:54:37.000Z</time>
      </trkpt>
      <trkpt lat="47.28261" lon="-2.43383">
        <ele>60.200000762939</ele>
        <time>2020-02-16T08:54:41.000Z</time>
      </trkpt>
      <trkpt lat="47.28244" lon="-2.43376">
        <ele>60.200000762939</ele>
        <time>2020-02-16T08:54:45.000Z</time>
      </trkpt>
      <trkpt lat="47.28236" lon="-2.43369">
        <ele>60.200000762939</ele>
        <time>2020-02-16T08:54:47.000Z</time>
      </trkpt>
      <trkpt lat="47.28228" lon="-2.4336">
        <ele>60.200000762939</ele>
        <time>2020-02-16T08:54:49.000Z</time>
      </trkpt>
      <trkpt lat="47.28222" lon="-2.43351">
        <ele>60.200000762939</ele>
        <time>2020-02-16T08:54:51.000Z</time>
      </trkpt>
      <trkpt lat="47.28211" lon="-2.43331">
        <ele>60.200000762939</ele>
        <time>2020-02-16T08:54:55.000Z</time>
      </trkpt>
      <trkpt lat="47.28207" lon="-2.43329">
        <ele>60.200000762939</ele>
        <time>2020-02-16T08:54:56.000Z</time>
      </trkpt>
      <trkpt lat="47.28192" lon="-2.43331">
        <ele>60.200000762939</ele>
        <time>2020-02-16T08:55:00.000Z</time>
      </trkpt>
      <trkpt lat="47.28183" lon="-2.43334">
        <ele>60.200000762939</ele>
        <time>2020-02-16T08:55:04.000Z</time>
      </trkpt>
      <trkpt lat="47.28178" lon="-2.43319">
        <ele>60.200000762939</ele>
        <time>2020-02-16T08:55:07.000Z</time>
      </trkpt>
      <trkpt lat="47.28175" lon="-2.43309">
        <ele>60.200000762939</ele>
        <time>2020-02-16T08:55:09.000Z</time>
      </trkpt>
      <trkpt lat="47.28173" lon="-2.43286">
        <ele>60.200000762939</ele>
        <time>2020-02-16T08:55:13.000Z</time>
      </trkpt>
      <trkpt lat="47.28172" lon="-2.43273">
        <ele>60.200000762939</ele>
        <time>2020-02-16T08:55:15.000Z</time>
      </trkpt>
      <trkpt lat="47.28165" lon="-2.43254">
        <ele>60.200000762939</ele>
        <time>2020-02-16T08:55:18.000Z</time>
      </trkpt>
      <trkpt lat="47.28147" lon="-2.43218">
        <ele>60.200000762939</ele>
        <time>2020-02-16T08:55:24.000Z</time>
      </trkpt>
      <trkpt lat="47.28137" lon="-2.43203">
        <ele>60.799999237061</ele>
        <time>2020-02-16T08:55:27.000Z</time>
      </trkpt>
      <trkpt lat="47.28134" lon="-2.43198">
        <ele>61.400001525879</ele>
        <time>2020-02-16T08:55:28.000Z</time>
      </trkpt>
      <trkpt lat="47.28131" lon="-2.43193">
        <ele>62.200000762939</ele>
        <time>2020-02-16T08:55:29.000Z</time>
      </trkpt>
      <trkpt lat="47.28128" lon="-2.43189">
        <ele>62.799999237061</ele>
        <time>2020-02-16T08:55:30.000Z</time>
      </trkpt>
      <trkpt lat="47.28125" lon="-2.43184">
        <ele>63.400001525879</ele>
        <time>2020-02-16T08:55:31.000Z</time>
      </trkpt>
      <trkpt lat="47.28113" lon="-2.43168">
        <ele>63</ele>
        <time>2020-02-16T08:55:35.000Z</time>
      </trkpt>
      <trkpt lat="47.28111" lon="-2.43163">
        <ele>62.599998474121</ele>
        <time>2020-02-16T08:55:36.000Z</time>
      </trkpt>
      <trkpt lat="47.28108" lon="-2.43159">
        <ele>62</ele>
        <time>2020-02-16T08:55:37.000Z</time>
      </trkpt>
      <trkpt lat="47.28105" lon="-2.43155">
        <ele>61.200000762939</ele>
        <time>2020-02-16T08:55:38.000Z</time>
      </trkpt>
      <trkpt lat="47.28103" lon="-2.4315">
        <ele>60.599998474121</ele>
        <time>2020-02-16T08:55:39.000Z</time>
      </trkpt>
      <trkpt lat="47.281" lon="-2.43147">
        <ele>59.799999237061</ele>
        <time>2020-02-16T08:55:40.000Z</time>
      </trkpt>
      <trkpt lat="47.28098" lon="-2.43143">
        <ele>59.200000762939</ele>
        <time>2020-02-16T08:55:41.000Z</time>
      </trkpt>
      <trkpt lat="47.28086" lon="-2.43123">
        <ele>59.200000762939</ele>
        <time>2020-02-16T08:55:46.000Z</time>
      </trkpt>
      <trkpt lat="47.28071" lon="-2.43097">
        <ele>59.200000762939</ele>
        <time>2020-02-16T08:55:52.000Z</time>
      </trkpt>
      <trkpt lat="47.28056" lon="-2.43087">
        <ele>59.200000762939</ele>
        <time>2020-02-16T08:55:56.000Z</time>
      </trkpt>
      <trkpt lat="47.28052" lon="-2.43087">
        <ele>59.200000762939</ele>
        <time>2020-02-16T08:55:57.000Z</time>
      </trkpt>
      <trkpt lat="47.28026" lon="-2.43082">
        <ele>59.200000762939</ele>
        <time>2020-02-16T08:56:03.000Z</time>
      </trkpt>
      <trkpt lat="47.28017" lon="-2.43081">
        <ele>59.200000762939</ele>
        <time>2020-02-16T08:56:05.000Z</time>
      </trkpt>
      <trkpt lat="47.28001" lon="-2.4308">
        <ele>59.200000762939</ele>
        <time>2020-02-16T08:56:09.000Z</time>
      </trkpt>
      <trkpt lat="47.2797" lon="-2.43077">
        <ele>59.200000762939</ele>
        <time>2020-02-16T08:56:16.000Z</time>
      </trkpt>
      <trkpt lat="47.27949" lon="-2.43069">
        <ele>59.200000762939</ele>
        <time>2020-02-16T08:56:21.000Z</time>
      </trkpt>
      <trkpt lat="47.27936" lon="-2.43065">
        <ele>59.200000762939</ele>
        <time>2020-02-16T08:56:25.000Z</time>
      </trkpt>
      <trkpt lat="47.27911" lon="-2.4306">
        <ele>59.200000762939</ele>
        <time>2020-02-16T08:56:32.000Z</time>
      </trkpt>
      <trkpt lat="47.27888" lon="-2.43058">
        <ele>59.200000762939</ele>
        <time>2020-02-16T08:56:38.000Z</time>
      </trkpt>
      <trkpt lat="47.2788" lon="-2.43057">
        <ele>59.599998474121</ele>
        <time>2020-02-16T08:56:40.000Z</time>
      </trkpt>
      <trkpt lat="47.27876" lon="-2.43057">
        <ele>60.200000762939</ele>
        <time>2020-02-16T08:56:41.000Z</time>
      </trkpt>
      <trkpt lat="47.27873" lon="-2.43056">
        <ele>60.599998474121</ele>
        <time>2020-02-16T08:56:42.000Z</time>
      </trkpt>
      <trkpt lat="47.27869" lon="-2.43056">
        <ele>61</ele>
        <time>2020-02-16T08:56:43.000Z</time>
      </trkpt>
      <trkpt lat="47.27865" lon="-2.43056">
        <ele>61.599998474121</ele>
        <time>2020-02-16T08:56:44.000Z</time>
      </trkpt>
      <trkpt lat="47.27846" lon="-2.43047">
        <ele>61.599998474121</ele>
        <time>2020-02-16T08:56:49.000Z</time>
      </trkpt>
      <trkpt lat="47.27843" lon="-2.43045">
        <ele>61.200000762939</ele>
        <time>2020-02-16T08:56:50.000Z</time>
      </trkpt>
      <trkpt lat="47.27842" lon="-2.43043">
        <ele>60.799999237061</ele>
        <time>2020-02-16T08:56:51.000Z</time>
      </trkpt>
      <trkpt lat="47.27841" lon="-2.43038">
        <ele>60.200000762939</ele>
        <time>2020-02-16T08:56:52.000Z</time>
      </trkpt>
      <trkpt lat="47.27841" lon="-2.43034">
        <ele>59.799999237061</ele>
        <time>2020-02-16T08:56:53.000Z</time>
      </trkpt>
      <trkpt lat="47.27842" lon="-2.43029">
        <ele>59.400001525879</ele>
        <time>2020-02-16T08:56:54.000Z</time>
      </trkpt>
      <trkpt lat="47.27839" lon="-2.43004">
        <ele>59.400001525879</ele>
        <time>2020-02-16T08:57:00.000Z</time>
      </trkpt>
      <trkpt lat="47.27837" lon="-2.42975">
        <ele>59.400001525879</ele>
        <time>2020-02-16T08:57:06.000Z</time>
      </trkpt>
      <trkpt lat="47.27836" lon="-2.42953">
        <ele>59.400001525879</ele>
        <time>2020-02-16T08:57:12.000Z</time>
      </trkpt>
      <trkpt lat="47.27839" lon="-2.42935">
        <ele>59.400001525879</ele>
        <time>2020-02-16T08:57:18.000Z</time>
      </trkpt>
      <trkpt lat="47.27837" lon="-2.42924">
        <ele>59.400001525879</ele>
        <time>2020-02-16T08:57:24.000Z</time>
      </trkpt>
      <trkpt lat="47.27835" lon="-2.42901">
        <ele>59.400001525879</ele>
        <time>2020-02-16T08:57:29.000Z</time>
      </trkpt>
      <trkpt lat="47.27836" lon="-2.42892">
        <ele>59.400001525879</ele>
        <time>2020-02-16T08:57:34.000Z</time>
      </trkpt>
      <trkpt lat="47.27836" lon="-2.42891">
        <ele>59.400001525879</ele>
        <time>2020-02-16T08:57:35.000Z</time>
      </trkpt>
      <trkpt lat="47.27833" lon="-2.42887">
        <ele>59.400001525879</ele>
        <time>2020-02-16T08:57:40.000Z</time>
      </trkpt>
      <trkpt lat="47.27827" lon="-2.42887">
        <ele>59.400001525879</ele>
        <time>2020-02-16T08:57:42.000Z</time>
      </trkpt>
      <trkpt lat="47.27805" lon="-2.42895">
        <ele>59.400001525879</ele>
        <time>2020-02-16T08:57:50.000Z</time>
      </trkpt>
      <trkpt lat="47.27799" lon="-2.42888">
        <ele>59.400001525879</ele>
        <time>2020-02-16T08:57:54.000Z</time>
      </trkpt>
      <trkpt lat="47.27799" lon="-2.42872">
        <ele>59.400001525879</ele>
        <time>2020-02-16T08:57:59.000Z</time>
      </trkpt>
      <trkpt lat="47.27802" lon="-2.42847">
        <ele>59.400001525879</ele>
        <time>2020-02-16T08:58:04.000Z</time>
      </trkpt>
      <trkpt lat="47.27803" lon="-2.42842">
        <ele>59.799999237061</ele>
        <time>2020-02-16T08:58:05.000Z</time>
      </trkpt>
      <trkpt lat="47.27802" lon="-2.42836">
        <ele>60.200000762939</ele>
        <time>2020-02-16T08:58:06.000Z</time>
      </trkpt>
      <trkpt lat="47.27801" lon="-2.42833">
        <ele>60.599998474121</ele>
        <time>2020-02-16T08:58:07.000Z</time>
      </trkpt>
      <trkpt lat="47.278" lon="-2.4283">
        <ele>61.200000762939</ele>
        <time>2020-02-16T08:58:08.000Z</time>
      </trkpt>
      <trkpt lat="47.278" lon="-2.42827">
        <ele>61.599998474121</ele>
        <time>2020-02-16T08:58:09.000Z</time>
      </trkpt>
      <trkpt lat="47.27798" lon="-2.42824">
        <ele>61.599998474121</ele>
        <time>2020-02-16T08:58:11.000Z</time>
      </trkpt>
      <trkpt lat="47.27794" lon="-2.42823">
        <ele>61.599998474121</ele>
        <time>2020-02-16T08:58:13.000Z</time>
      </trkpt>
      <trkpt lat="47.27774" lon="-2.42819">
        <ele>61.599998474121</ele>
        <time>2020-02-16T08:58:18.000Z</time>
      </trkpt>
      <trkpt lat="47.27748" lon="-2.42813">
        <ele>61.599998474121</ele>
        <time>2020-02-16T08:58:24.000Z</time>
      </trkpt>
      <trkpt lat="47.27715" lon="-2.42802">
        <ele>61.599998474121</ele>
        <time>2020-02-16T08:58:30.000Z</time>
      </trkpt>
      <trkpt lat="47.2768" lon="-2.42785">
        <ele>62</ele>
        <time>2020-02-16T08:58:36.000Z</time>
      </trkpt>
      <trkpt lat="47.27674" lon="-2.42781">
        <ele>62.400001525879</ele>
        <time>2020-02-16T08:58:37.000Z</time>
      </trkpt>
      <trkpt lat="47.27668" lon="-2.42777">
        <ele>62.799999237061</ele>
        <time>2020-02-16T08:58:38.000Z</time>
      </trkpt>
      <trkpt lat="47.27663" lon="-2.42774">
        <ele>63.599998474121</ele>
        <time>2020-02-16T08:58:39.000Z</time>
      </trkpt>
      <trkpt lat="47.27639" lon="-2.42751">
        <ele>63.599998474121</ele>
        <time>2020-02-16T08:58:44.000Z</time>
      </trkpt>
      <trkpt lat="47.27618" lon="-2.42725">
        <ele>63.599998474121</ele>
        <time>2020-02-16T08:58:49.000Z</time>
      </trkpt>
      <trkpt lat="47.27616" lon="-2.42719">
        <ele>63.599998474121</ele>
        <time>2020-02-16T08:58:50.000Z</time>
      </trkpt>
      <trkpt lat="47.27609" lon="-2.42708">
        <ele>63.599998474121</ele>
        <time>2020-02-16T08:58:52.000Z</time>
      </trkpt>
      <trkpt lat="47.27598" lon="-2.42693">
        <ele>63.599998474121</ele>
        <time>2020-02-16T08:58:55.000Z</time>
      </trkpt>
      <trkpt lat="47.27594" lon="-2.42689">
        <ele>63.599998474121</ele>
        <time>2020-02-16T08:58:56.000Z</time>
      </trkpt>
      <trkpt lat="47.27582" lon="-2.42673">
        <ele>63.599998474121</ele>
        <time>2020-02-16T08:59:00.000Z</time>
      </trkpt>
      <trkpt lat="47.27579" lon="-2.42666">
        <ele>63.599998474121</ele>
        <time>2020-02-16T08:59:02.000Z</time>
      </trkpt>
      <trkpt lat="47.27578" lon="-2.4265">
        <ele>63.599998474121</ele>
        <time>2020-02-16T08:59:05.000Z</time>
      </trkpt>
      <trkpt lat="47.27577" lon="-2.42645">
        <ele>63.599998474121</ele>
        <time>2020-02-16T08:59:06.000Z</time>
      </trkpt>
      <trkpt lat="47.27567" lon="-2.42632">
        <ele>63.599998474121</ele>
        <time>2020-02-16T08:59:10.000Z</time>
      </trkpt>
      <trkpt lat="47.27554" lon="-2.42618">
        <ele>63.599998474121</ele>
        <time>2020-02-16T08:59:15.000Z</time>
      </trkpt>
      <trkpt lat="47.27534" lon="-2.42589">
        <ele>63.599998474121</ele>
        <time>2020-02-16T08:59:22.000Z</time>
      </trkpt>
      <trkpt lat="47.2752" lon="-2.42577">
        <ele>63.599998474121</ele>
        <time>2020-02-16T08:59:27.000Z</time>
      </trkpt>
      <trkpt lat="47.27505" lon="-2.42562">
        <ele>63.599998474121</ele>
        <time>2020-02-16T08:59:32.000Z</time>
      </trkpt>
      <trkpt lat="47.27486" lon="-2.42541">
        <ele>63.599998474121</ele>
        <time>2020-02-16T08:59:38.000Z</time>
      </trkpt>
      <trkpt lat="47.2746" lon="-2.4251">
        <ele>63.599998474121</ele>
        <time>2020-02-16T08:59:46.000Z</time>
      </trkpt>
      <trkpt lat="47.27456" lon="-2.42506">
        <ele>63.599998474121</ele>
        <time>2020-02-16T08:59:47.000Z</time>
      </trkpt>
      <trkpt lat="47.27437" lon="-2.42486">
        <ele>63.599998474121</ele>
        <time>2020-02-16T08:59:53.000Z</time>
      </trkpt>
      <trkpt lat="47.27433" lon="-2.42482">
        <ele>63.599998474121</ele>
        <time>2020-02-16T08:59:54.000Z</time>
      </trkpt>
      <trkpt lat="47.27404" lon="-2.42451">
        <ele>63.599998474121</ele>
        <time>2020-02-16T09:00:03.000Z</time>
      </trkpt>
      <trkpt lat="47.27386" lon="-2.42431">
        <ele>63.599998474121</ele>
        <time>2020-02-16T09:00:10.000Z</time>
      </trkpt>
      <trkpt lat="47.27372" lon="-2.42418">
        <ele>63.599998474121</ele>
        <time>2020-02-16T09:00:16.000Z</time>
      </trkpt>
      <trkpt lat="47.2737" lon="-2.42419">
        <ele>63.599998474121</ele>
        <time>2020-02-16T09:00:17.000Z</time>
      </trkpt>
      <trkpt lat="47.27367" lon="-2.42421">
        <ele>63.599998474121</ele>
        <time>2020-02-16T09:00:20.000Z</time>
      </trkpt>
      <trkpt lat="47.27365" lon="-2.42424">
        <ele>63.599998474121</ele>
        <time>2020-02-16T09:00:22.000Z</time>
      </trkpt>
      <trkpt lat="47.27361" lon="-2.42434">
        <ele>63.599998474121</ele>
        <time>2020-02-16T09:00:26.000Z</time>
      </trkpt>
      <trkpt lat="47.2736" lon="-2.42437">
        <ele>63.599998474121</ele>
        <time>2020-02-16T09:00:27.000Z</time>
      </trkpt>
      <trkpt lat="47.27355" lon="-2.42459">
        <ele>63.599998474121</ele>
        <time>2020-02-16T09:00:32.000Z</time>
      </trkpt>
      <trkpt lat="47.27351" lon="-2.42477">
        <ele>63.599998474121</ele>
        <time>2020-02-16T09:00:37.000Z</time>
      </trkpt>
      <trkpt lat="47.27346" lon="-2.42484">
        <ele>63.599998474121</ele>
        <time>2020-02-16T09:00:43.000Z</time>
      </trkpt>
      <trkpt lat="47.27343" lon="-2.42484">
        <ele>63.599998474121</ele>
        <time>2020-02-16T09:00:46.000Z</time>
      </trkpt>
      <trkpt lat="47.27338" lon="-2.42489">
        <ele>63.599998474121</ele>
        <time>2020-02-16T09:00:49.000Z</time>
      </trkpt>
      <trkpt lat="47.27336" lon="-2.42492">
        <ele>63.599998474121</ele>
        <time>2020-02-16T09:00:50.000Z</time>
      </trkpt>
      <trkpt lat="47.27322" lon="-2.42498">
        <ele>63.599998474121</ele>
        <time>2020-02-16T09:00:55.000Z</time>
      </trkpt>
      <trkpt lat="47.27296" lon="-2.42508">
        <ele>63.599998474121</ele>
        <time>2020-02-16T09:01:02.000Z</time>
      </trkpt>
      <trkpt lat="47.27264" lon="-2.42517">
        <ele>63.599998474121</ele>
        <time>2020-02-16T09:01:10.000Z</time>
      </trkpt>
      <trkpt lat="47.27235" lon="-2.42525">
        <ele>63.599998474121</ele>
        <time>2020-02-16T09:01:17.000Z</time>
      </trkpt>
      <trkpt lat="47.27207" lon="-2.4253">
        <ele>63.599998474121</ele>
        <time>2020-02-16T09:01:24.000Z</time>
      </trkpt>
      <trkpt lat="47.27193" lon="-2.42528">
        <ele>63.599998474121</ele>
        <time>2020-02-16T09:01:28.000Z</time>
      </trkpt>
      <trkpt lat="47.27177" lon="-2.42529">
        <ele>64.599998474121</ele>
        <time>2020-02-16T09:01:32.000Z</time>
      </trkpt>
      <trkpt lat="47.27172" lon="-2.42529">
        <ele>65</ele>
        <time>2020-02-16T09:01:33.000Z</time>
      </trkpt>
      <trkpt lat="47.27168" lon="-2.42529">
        <ele>65.599998474121</ele>
        <time>2020-02-16T09:01:34.000Z</time>
      </trkpt>
      <trkpt lat="47.27164" lon="-2.42529">
        <ele>66</ele>
        <time>2020-02-16T09:01:35.000Z</time>
      </trkpt>
      <trkpt lat="47.2716" lon="-2.4253">
        <ele>66</ele>
        <time>2020-02-16T09:01:36.000Z</time>
      </trkpt>
      <trkpt lat="47.27132" lon="-2.42528">
        <ele>66</ele>
        <time>2020-02-16T09:01:43.000Z</time>
      </trkpt>
      <trkpt lat="47.27106" lon="-2.42525">
        <ele>66</ele>
        <time>2020-02-16T09:01:50.000Z</time>
      </trkpt>
      <trkpt lat="47.27078" lon="-2.42511">
        <ele>66</ele>
        <time>2020-02-16T09:01:57.000Z</time>
      </trkpt>
      <trkpt lat="47.27049" lon="-2.42495">
        <ele>66</ele>
        <time>2020-02-16T09:02:04.000Z</time>
      </trkpt>
      <trkpt lat="47.27036" lon="-2.42473">
        <ele>66</ele>
        <time>2020-02-16T09:02:09.000Z</time>
      </trkpt>
      <trkpt lat="47.27023" lon="-2.42462">
        <ele>66</ele>
        <time>2020-02-16T09:02:13.000Z</time>
      </trkpt>
      <trkpt lat="47.27012" lon="-2.42439">
        <ele>66</ele>
        <time>2020-02-16T09:02:18.000Z</time>
      </trkpt>
      <trkpt lat="47.26996" lon="-2.42409">
        <ele>66</ele>
        <time>2020-02-16T09:02:25.000Z</time>
      </trkpt>
      <trkpt lat="47.26986" lon="-2.42402">
        <ele>66</ele>
        <time>2020-02-16T09:02:29.000Z</time>
      </trkpt>
      <trkpt lat="47.26981" lon="-2.42402">
        <ele>66</ele>
        <time>2020-02-16T09:02:31.000Z</time>
      </trkpt>
      <trkpt lat="47.26976" lon="-2.42408">
        <ele>66</ele>
        <time>2020-02-16T09:02:33.000Z</time>
      </trkpt>
      <trkpt lat="47.26974" lon="-2.42413">
        <ele>66</ele>
        <time>2020-02-16T09:02:34.000Z</time>
      </trkpt>
      <trkpt lat="47.26969" lon="-2.4242">
        <ele>66</ele>
        <time>2020-02-16T09:02:37.000Z</time>
      </trkpt>
      <trkpt lat="47.26956" lon="-2.42433">
        <ele>66</ele>
        <time>2020-02-16T09:02:43.000Z</time>
      </trkpt>
      <trkpt lat="47.26955" lon="-2.42436">
        <ele>66</ele>
        <time>2020-02-16T09:02:44.000Z</time>
      </trkpt>
      <trkpt lat="47.26952" lon="-2.42449">
        <ele>66</ele>
        <time>2020-02-16T09:02:47.000Z</time>
      </trkpt>
      <trkpt lat="47.26946" lon="-2.42476">
        <ele>66</ele>
        <time>2020-02-16T09:02:54.000Z</time>
      </trkpt>
      <trkpt lat="47.26938" lon="-2.42481">
        <ele>66</ele>
        <time>2020-02-16T09:02:58.000Z</time>
      </trkpt>
      <trkpt lat="47.2692" lon="-2.42478">
        <ele>66</ele>
        <time>2020-02-16T09:03:04.000Z</time>
      </trkpt>
      <trkpt lat="47.26916" lon="-2.42476">
        <ele>66.599998474121</ele>
        <time>2020-02-16T09:03:05.000Z</time>
      </trkpt>
      <trkpt lat="47.26914" lon="-2.42476">
        <ele>67</ele>
        <time>2020-02-16T09:03:06.000Z</time>
      </trkpt>
      <trkpt lat="47.26911" lon="-2.42475">
        <ele>67.599998474121</ele>
        <time>2020-02-16T09:03:07.000Z</time>
      </trkpt>
      <trkpt lat="47.26908" lon="-2.42473">
        <ele>68</ele>
        <time>2020-02-16T09:03:08.000Z</time>
      </trkpt>
      <trkpt lat="47.26905" lon="-2.42472">
        <ele>68.400001525879</ele>
        <time>2020-02-16T09:03:09.000Z</time>
      </trkpt>
      <trkpt lat="47.26901" lon="-2.42471">
        <ele>68.400001525879</ele>
        <time>2020-02-16T09:03:10.000Z</time>
      </trkpt>
      <trkpt lat="47.26875" lon="-2.42469">
        <ele>68.400001525879</ele>
        <time>2020-02-16T09:03:17.000Z</time>
      </trkpt>
      <trkpt lat="47.26846" lon="-2.42466">
        <ele>68.400001525879</ele>
        <time>2020-02-16T09:03:24.000Z</time>
      </trkpt>
      <trkpt lat="47.26826" lon="-2.42454">
        <ele>68.400001525879</ele>
        <time>2020-02-16T09:03:29.000Z</time>
      </trkpt>
      <trkpt lat="47.26802" lon="-2.42419">
        <ele>68.400001525879</ele>
        <time>2020-02-16T09:03:36.000Z</time>
      </trkpt>
      <trkpt lat="47.26773" lon="-2.42367">
        <ele>68.400001525879</ele>
        <time>2020-02-16T09:03:45.000Z</time>
      </trkpt>
      <trkpt lat="47.26761" lon="-2.42352">
        <ele>68.400001525879</ele>
        <time>2020-02-16T09:03:48.000Z</time>
      </trkpt>
      <trkpt lat="47.26751" lon="-2.42345">
        <ele>68.400001525879</ele>
        <time>2020-02-16T09:03:50.000Z</time>
      </trkpt>
      <trkpt lat="47.26732" lon="-2.4233">
        <ele>68.400001525879</ele>
        <time>2020-02-16T09:03:54.000Z</time>
      </trkpt>
      <trkpt lat="47.26717" lon="-2.42321">
        <ele>68.400001525879</ele>
        <time>2020-02-16T09:03:57.000Z</time>
      </trkpt>
      <trkpt lat="47.26684" lon="-2.42299">
        <ele>68.400001525879</ele>
        <time>2020-02-16T09:04:04.000Z</time>
      </trkpt>
      <trkpt lat="47.26657" lon="-2.42268">
        <ele>68</ele>
        <time>2020-02-16T09:04:10.000Z</time>
      </trkpt>
      <trkpt lat="47.26652" lon="-2.42262">
        <ele>67.599998474121</ele>
        <time>2020-02-16T09:04:11.000Z</time>
      </trkpt>
      <trkpt lat="47.26648" lon="-2.42256">
        <ele>67.199996948242</ele>
        <time>2020-02-16T09:04:12.000Z</time>
      </trkpt>
      <trkpt lat="47.26644" lon="-2.42249">
        <ele>66.800003051758</ele>
        <time>2020-02-16T09:04:13.000Z</time>
      </trkpt>
      <trkpt lat="47.26639" lon="-2.42242">
        <ele>66.400001525879</ele>
        <time>2020-02-16T09:04:14.000Z</time>
      </trkpt>
      <trkpt lat="47.26626" lon="-2.42224">
        <ele>66.400001525879</ele>
        <time>2020-02-16T09:04:17.000Z</time>
      </trkpt>
      <trkpt lat="47.2661" lon="-2.42209">
        <ele>66.400001525879</ele>
        <time>2020-02-16T09:04:20.000Z</time>
      </trkpt>
      <trkpt lat="47.26594" lon="-2.42197">
        <ele>66.400001525879</ele>
        <time>2020-02-16T09:04:23.000Z</time>
      </trkpt>
      <trkpt lat="47.2657" lon="-2.42176">
        <ele>66.400001525879</ele>
        <time>2020-02-16T09:04:28.000Z</time>
      </trkpt>
      <trkpt lat="47.2656" lon="-2.42169">
        <ele>66.400001525879</ele>
        <time>2020-02-16T09:04:30.000Z</time>
      </trkpt>
      <trkpt lat="47.26541" lon="-2.42157">
        <ele>66.400001525879</ele>
        <time>2020-02-16T09:04:34.000Z</time>
      </trkpt>
      <trkpt lat="47.26511" lon="-2.42127">
        <ele>66.400001525879</ele>
        <time>2020-02-16T09:04:41.000Z</time>
      </trkpt>
      <trkpt lat="47.26486" lon="-2.42099">
        <ele>66.400001525879</ele>
        <time>2020-02-16T09:04:48.000Z</time>
      </trkpt>
      <trkpt lat="47.26475" lon="-2.42087">
        <ele>66.800003051758</ele>
        <time>2020-02-16T09:04:51.000Z</time>
      </trkpt>
      <trkpt lat="47.26471" lon="-2.42084">
        <ele>67.199996948242</ele>
        <time>2020-02-16T09:04:52.000Z</time>
      </trkpt>
      <trkpt lat="47.26467" lon="-2.4208">
        <ele>67.599998474121</ele>
        <time>2020-02-16T09:04:53.000Z</time>
      </trkpt>
      <trkpt lat="47.26463" lon="-2.42076">
        <ele>68</ele>
        <time>2020-02-16T09:04:54.000Z</time>
      </trkpt>
      <trkpt lat="47.26459" lon="-2.42072">
        <ele>68.400001525879</ele>
        <time>2020-02-16T09:04:55.000Z</time>
      </trkpt>
      <trkpt lat="47.26451" lon="-2.42064">
        <ele>68.400001525879</ele>
        <time>2020-02-16T09:04:57.000Z</time>
      </trkpt>
      <trkpt lat="47.26443" lon="-2.42055">
        <ele>68.400001525879</ele>
        <time>2020-02-16T09:04:59.000Z</time>
      </trkpt>
      <trkpt lat="47.26423" lon="-2.42033">
        <ele>68.400001525879</ele>
        <time>2020-02-16T09:05:04.000Z</time>
      </trkpt>
      <trkpt lat="47.26411" lon="-2.42021">
        <ele>68.400001525879</ele>
        <time>2020-02-16T09:05:07.000Z</time>
      </trkpt>
      <trkpt lat="47.26398" lon="-2.42008">
        <ele>68.400001525879</ele>
        <time>2020-02-16T09:05:10.000Z</time>
      </trkpt>
      <trkpt lat="47.26362" lon="-2.41985">
        <ele>68.400001525879</ele>
        <time>2020-02-16T09:05:17.000Z</time>
      </trkpt>
      <trkpt lat="47.26327" lon="-2.41959">
        <ele>68.400001525879</ele>
        <time>2020-02-16T09:05:24.000Z</time>
      </trkpt>
      <trkpt lat="47.26314" lon="-2.41951">
        <ele>68</ele>
        <time>2020-02-16T09:05:27.000Z</time>
      </trkpt>
      <trkpt lat="47.2631" lon="-2.41949">
        <ele>67.599998474121</ele>
        <time>2020-02-16T09:05:28.000Z</time>
      </trkpt>
      <trkpt lat="47.26306" lon="-2.41946">
        <ele>67.199996948242</ele>
        <time>2020-02-16T09:05:29.000Z</time>
      </trkpt>
      <trkpt lat="47.26302" lon="-2.41943">
        <ele>66.800003051758</ele>
        <time>2020-02-16T09:05:30.000Z</time>
      </trkpt>
      <trkpt lat="47.26298" lon="-2.4194">
        <ele>66.400001525879</ele>
        <time>2020-02-16T09:05:31.000Z</time>
      </trkpt>
      <trkpt lat="47.26285" lon="-2.41935">
        <ele>66.800003051758</ele>
        <time>2020-02-16T09:05:34.000Z</time>
      </trkpt>
      <trkpt lat="47.26281" lon="-2.41935">
        <ele>67.199996948242</ele>
        <time>2020-02-16T09:05:35.000Z</time>
      </trkpt>
      <trkpt lat="47.26276" lon="-2.41936">
        <ele>67.599998474121</ele>
        <time>2020-02-16T09:05:36.000Z</time>
      </trkpt>
      <trkpt lat="47.26272" lon="-2.41939">
        <ele>68</ele>
        <time>2020-02-16T09:05:37.000Z</time>
      </trkpt>
      <trkpt lat="47.26269" lon="-2.41942">
        <ele>68.400001525879</ele>
        <time>2020-02-16T09:05:38.000Z</time>
      </trkpt>
      <trkpt lat="47.26265" lon="-2.41945">
        <ele>68.400001525879</ele>
        <time>2020-02-16T09:05:39.000Z</time>
      </trkpt>
      <trkpt lat="47.26263" lon="-2.41948">
        <ele>68.400001525879</ele>
        <time>2020-02-16T09:05:40.000Z</time>
      </trkpt>
      <trkpt lat="47.26249" lon="-2.41966">
        <ele>68.400001525879</ele>
        <time>2020-02-16T09:05:46.000Z</time>
      </trkpt>
      <trkpt lat="47.26234" lon="-2.41985">
        <ele>68.400001525879</ele>
        <time>2020-02-16T09:05:52.000Z</time>
      </trkpt>
      <trkpt lat="47.26214" lon="-2.42006">
        <ele>68.400001525879</ele>
        <time>2020-02-16T09:05:59.000Z</time>
      </trkpt>
      <trkpt lat="47.26204" lon="-2.42018">
        <ele>68.400001525879</ele>
        <time>2020-02-16T09:06:04.000Z</time>
      </trkpt>
      <trkpt lat="47.26201" lon="-2.42017">
        <ele>68.400001525879</ele>
        <time>2020-02-16T09:06:06.000Z</time>
      </trkpt>
      <trkpt lat="47.26198" lon="-2.42015">
        <ele>68.400001525879</ele>
        <time>2020-02-16T09:06:08.000Z</time>
      </trkpt>
      <trkpt lat="47.26195" lon="-2.42014">
        <ele>68.400001525879</ele>
        <time>2020-02-16T09:06:10.000Z</time>
      </trkpt>
      <trkpt lat="47.26193" lon="-2.42014">
        <ele>68.400001525879</ele>
        <time>2020-02-16T09:06:14.000Z</time>
      </trkpt>
      <trkpt lat="47.262" lon="-2.42016">
        <ele>68.400001525879</ele>
        <time>2020-02-16T09:06:28.000Z</time>
      </trkpt>
      <trkpt lat="47.26202" lon="-2.42013">
        <ele>68.400001525879</ele>
        <time>2020-02-16T09:06:29.000Z</time>
      </trkpt>
      <trkpt lat="47.26205" lon="-2.42007">
        <ele>68.400001525879</ele>
        <time>2020-02-16T09:06:36.000Z</time>
      </trkpt>
      <trkpt lat="47.26206" lon="-2.42005">
        <ele>68.400001525879</ele>
        <time>2020-02-16T09:06:37.000Z</time>
      </trkpt>
      <trkpt lat="47.26223" lon="-2.41991">
        <ele>68.400001525879</ele>
        <time>2020-02-16T09:06:42.000Z</time>
      </trkpt>
      <trkpt lat="47.26242" lon="-2.41974">
        <ele>68.400001525879</ele>
        <time>2020-02-16T09:06:48.000Z</time>
      </trkpt>
      <trkpt lat="47.26251" lon="-2.41968">
        <ele>68.400001525879</ele>
        <time>2020-02-16T09:06:53.000Z</time>
      </trkpt>
      <trkpt lat="47.26261" lon="-2.41955">
        <ele>68.400001525879</ele>
        <time>2020-02-16T09:07:00.000Z</time>
      </trkpt>
      <trkpt lat="47.26271" lon="-2.41943">
        <ele>68.400001525879</ele>
        <time>2020-02-16T09:07:05.000Z</time>
      </trkpt>
      <trkpt lat="47.26276" lon="-2.41936">
        <ele>68.400001525879</ele>
        <time>2020-02-16T09:07:07.000Z</time>
      </trkpt>
      <trkpt lat="47.26276" lon="-2.41928">
        <ele>68.400001525879</ele>
        <time>2020-02-16T09:07:09.000Z</time>
      </trkpt>
      <trkpt lat="47.26274" lon="-2.41926">
        <ele>68.400001525879</ele>
        <time>2020-02-16T09:07:10.000Z</time>
      </trkpt>
      <trkpt lat="47.26269" lon="-2.41922">
        <ele>68.400001525879</ele>
        <time>2020-02-16T09:07:12.000Z</time>
      </trkpt>
      <trkpt lat="47.26255" lon="-2.41915">
        <ele>68.400001525879</ele>
        <time>2020-02-16T09:07:16.000Z</time>
      </trkpt>
      <trkpt lat="47.26228" lon="-2.41896">
        <ele>68.400001525879</ele>
        <time>2020-02-16T09:07:23.000Z</time>
      </trkpt>
      <trkpt lat="47.26206" lon="-2.41876">
        <ele>68.400001525879</ele>
        <time>2020-02-16T09:07:30.000Z</time>
      </trkpt>
      <trkpt lat="47.262" lon="-2.4187">
        <ele>68.800003051758</ele>
        <time>2020-02-16T09:07:32.000Z</time>
      </trkpt>
      <trkpt lat="47.26198" lon="-2.41867">
        <ele>69.199996948242</ele>
        <time>2020-02-16T09:07:33.000Z</time>
      </trkpt>
      <trkpt lat="47.26195" lon="-2.41864">
        <ele>69.800003051758</ele>
        <time>2020-02-16T09:07:34.000Z</time>
      </trkpt>
      <trkpt lat="47.26192" lon="-2.41861">
        <ele>70.199996948242</ele>
        <time>2020-02-16T09:07:35.000Z</time>
      </trkpt>
      <trkpt lat="47.2619" lon="-2.41858">
        <ele>70.599998474121</ele>
        <time>2020-02-16T09:07:36.000Z</time>
      </trkpt>
      <trkpt lat="47.26185" lon="-2.41851">
        <ele>70.599998474121</ele>
        <time>2020-02-16T09:07:38.000Z</time>
      </trkpt>
      <trkpt lat="47.26166" lon="-2.41828">
        <ele>70.599998474121</ele>
        <time>2020-02-16T09:07:45.000Z</time>
      </trkpt>
      <trkpt lat="47.26145" lon="-2.41813">
        <ele>70.599998474121</ele>
        <time>2020-02-16T09:07:51.000Z</time>
      </trkpt>
      <trkpt lat="47.26133" lon="-2.41807">
        <ele>70.599998474121</ele>
        <time>2020-02-16T09:07:54.000Z</time>
      </trkpt>
      <trkpt lat="47.26125" lon="-2.41809">
        <ele>70.599998474121</ele>
        <time>2020-02-16T09:07:56.000Z</time>
      </trkpt>
      <trkpt lat="47.26114" lon="-2.41826">
        <ele>70.599998474121</ele>
        <time>2020-02-16T09:08:00.000Z</time>
      </trkpt>
      <trkpt lat="47.26111" lon="-2.41831">
        <ele>70.599998474121</ele>
        <time>2020-02-16T09:08:01.000Z</time>
      </trkpt>
      <trkpt lat="47.2609" lon="-2.4186">
        <ele>71</ele>
        <time>2020-02-16T09:08:08.000Z</time>
      </trkpt>
      <trkpt lat="47.26087" lon="-2.41864">
        <ele>71.400001525879</ele>
        <time>2020-02-16T09:08:09.000Z</time>
      </trkpt>
      <trkpt lat="47.26084" lon="-2.41868">
        <ele>71.800003051758</ele>
        <time>2020-02-16T09:08:10.000Z</time>
      </trkpt>
      <trkpt lat="47.26081" lon="-2.41872">
        <ele>72.199996948242</ele>
        <time>2020-02-16T09:08:11.000Z</time>
      </trkpt>
      <trkpt lat="47.26078" lon="-2.41876">
        <ele>72.599998474121</ele>
        <time>2020-02-16T09:08:12.000Z</time>
      </trkpt>
      <trkpt lat="47.26063" lon="-2.41897">
        <ele>72.599998474121</ele>
        <time>2020-02-16T09:08:17.000Z</time>
      </trkpt>
      <trkpt lat="47.26045" lon="-2.41922">
        <ele>73</ele>
        <time>2020-02-16T09:08:23.000Z</time>
      </trkpt>
      <trkpt lat="47.26043" lon="-2.41925">
        <ele>73.599998474121</ele>
        <time>2020-02-16T09:08:24.000Z</time>
      </trkpt>
      <trkpt lat="47.2604" lon="-2.41929">
        <ele>74</ele>
        <time>2020-02-16T09:08:25.000Z</time>
      </trkpt>
      <trkpt lat="47.26037" lon="-2.41933">
        <ele>74.400001525879</ele>
        <time>2020-02-16T09:08:26.000Z</time>
      </trkpt>
      <trkpt lat="47.26034" lon="-2.41937">
        <ele>74.800003051758</ele>
        <time>2020-02-16T09:08:27.000Z</time>
      </trkpt>
      <trkpt lat="47.26028" lon="-2.41945">
        <ele>74.800003051758</ele>
        <time>2020-02-16T09:08:29.000Z</time>
      </trkpt>
      <trkpt lat="47.2602" lon="-2.41959">
        <ele>74.800003051758</ele>
        <time>2020-02-16T09:08:32.000Z</time>
      </trkpt>
      <trkpt lat="47.26007" lon="-2.41982">
        <ele>74.800003051758</ele>
        <time>2020-02-16T09:08:38.000Z</time>
      </trkpt>
      <trkpt lat="47.25998" lon="-2.42006">
        <ele>74.800003051758</ele>
        <time>2020-02-16T09:08:43.000Z</time>
      </trkpt>
      <trkpt lat="47.26002" lon="-2.42024">
        <ele>74.800003051758</ele>
        <time>2020-02-16T09:08:47.000Z</time>
      </trkpt>
      <trkpt lat="47.26009" lon="-2.4204">
        <ele>74.800003051758</ele>
        <time>2020-02-16T09:08:50.000Z</time>
      </trkpt>
      <trkpt lat="47.2601" lon="-2.42046">
        <ele>75.199996948242</ele>
        <time>2020-02-16T09:08:51.000Z</time>
      </trkpt>
      <trkpt lat="47.26012" lon="-2.42053">
        <ele>75.800003051758</ele>
        <time>2020-02-16T09:08:52.000Z</time>
      </trkpt>
      <trkpt lat="47.26015" lon="-2.42059">
        <ele>76.199996948242</ele>
        <time>2020-02-16T09:08:53.000Z</time>
      </trkpt>
      <trkpt lat="47.26017" lon="-2.42065">
        <ele>76.800003051758</ele>
        <time>2020-02-16T09:08:54.000Z</time>
      </trkpt>
      <trkpt lat="47.26019" lon="-2.4207">
        <ele>77.199996948242</ele>
        <time>2020-02-16T09:08:55.000Z</time>
      </trkpt>
      <trkpt lat="47.26021" lon="-2.42078">
        <ele>76.199996948242</ele>
        <time>2020-02-16T09:08:57.000Z</time>
      </trkpt>
      <trkpt lat="47.26022" lon="-2.42081">
        <ele>75.800003051758</ele>
        <time>2020-02-16T09:08:58.000Z</time>
      </trkpt>
      <trkpt lat="47.26023" lon="-2.42084">
        <ele>75.199996948242</ele>
        <time>2020-02-16T09:08:59.000Z</time>
      </trkpt>
      <trkpt lat="47.26025" lon="-2.42084">
        <ele>74.800003051758</ele>
        <time>2020-02-16T09:09:00.000Z</time>
      </trkpt>
      <trkpt lat="47.26027" lon="-2.42082">
        <ele>74.800003051758</ele>
        <time>2020-02-16T09:09:01.000Z</time>
      </trkpt>
      <trkpt lat="47.26037" lon="-2.4207">
        <ele>74.800003051758</ele>
        <time>2020-02-16T09:09:05.000Z</time>
      </trkpt>
      <trkpt lat="47.26041" lon="-2.42066">
        <ele>74.800003051758</ele>
        <time>2020-02-16T09:09:06.000Z</time>
      </trkpt>
      <trkpt lat="47.2606" lon="-2.42042">
        <ele>74.800003051758</ele>
        <time>2020-02-16T09:09:12.000Z</time>
      </trkpt>
      <trkpt lat="47.26073" lon="-2.42027">
        <ele>74.800003051758</ele>
        <time>2020-02-16T09:09:17.000Z</time>
      </trkpt>
      <trkpt lat="47.26082" lon="-2.42018">
        <ele>74.400001525879</ele>
        <time>2020-02-16T09:09:21.000Z</time>
      </trkpt>
      <trkpt lat="47.26085" lon="-2.42018">
        <ele>74</ele>
        <time>2020-02-16T09:09:22.000Z</time>
      </trkpt>
      <trkpt lat="47.26087" lon="-2.4202">
        <ele>73.599998474121</ele>
        <time>2020-02-16T09:09:23.000Z</time>
      </trkpt>
      <trkpt lat="47.26089" lon="-2.42022">
        <ele>73</ele>
        <time>2020-02-16T09:09:24.000Z</time>
      </trkpt>
      <trkpt lat="47.26091" lon="-2.42024">
        <ele>72.599998474121</ele>
        <time>2020-02-16T09:09:25.000Z</time>
      </trkpt>
      <trkpt lat="47.26099" lon="-2.42031">
        <ele>72.599998474121</ele>
        <time>2020-02-16T09:09:28.000Z</time>
      </trkpt>
      <trkpt lat="47.26122" lon="-2.42043">
        <ele>72.599998474121</ele>
        <time>2020-02-16T09:09:34.000Z</time>
      </trkpt>
      <trkpt lat="47.26124" lon="-2.42045">
        <ele>72.599998474121</ele>
        <time>2020-02-16T09:09:35.000Z</time>
      </trkpt>
      <trkpt lat="47.26128" lon="-2.42052">
        <ele>72.599998474121</ele>
        <time>2020-02-16T09:09:37.000Z</time>
      </trkpt>
      <trkpt lat="47.26128" lon="-2.42068">
        <ele>72.599998474121</ele>
        <time>2020-02-16T09:09:40.000Z</time>
      </trkpt>
      <trkpt lat="47.26127" lon="-2.42075">
        <ele>72.599998474121</ele>
        <time>2020-02-16T09:09:41.000Z</time>
      </trkpt>
      <trkpt lat="47.2613" lon="-2.42104">
        <ele>72.599998474121</ele>
        <time>2020-02-16T09:09:45.000Z</time>
      </trkpt>
      <trkpt lat="47.26137" lon="-2.4213">
        <ele>72.599998474121</ele>
        <time>2020-02-16T09:09:49.000Z</time>
      </trkpt>
      <trkpt lat="47.26139" lon="-2.42144">
        <ele>72.599998474121</ele>
        <time>2020-02-16T09:09:51.000Z</time>
      </trkpt>
      <trkpt lat="47.26137" lon="-2.42166">
        <ele>72.599998474121</ele>
        <time>2020-02-16T09:09:54.000Z</time>
      </trkpt>
      <trkpt lat="47.26135" lon="-2.42173">
        <ele>72.599998474121</ele>
        <time>2020-02-16T09:09:55.000Z</time>
      </trkpt>
      <trkpt lat="47.26133" lon="-2.42179">
        <ele>72.599998474121</ele>
        <time>2020-02-16T09:09:56.000Z</time>
      </trkpt>
      <trkpt lat="47.26131" lon="-2.42185">
        <ele>72.599998474121</ele>
        <time>2020-02-16T09:09:57.000Z</time>
      </trkpt>
      <trkpt lat="47.26127" lon="-2.42211">
        <ele>72.599998474121</ele>
        <time>2020-02-16T09:10:01.000Z</time>
      </trkpt>
      <trkpt lat="47.26128" lon="-2.42225">
        <ele>72.599998474121</ele>
        <time>2020-02-16T09:10:03.000Z</time>
      </trkpt>
      <trkpt lat="47.26131" lon="-2.42239">
        <ele>72.599998474121</ele>
        <time>2020-02-16T09:10:05.000Z</time>
      </trkpt>
      <trkpt lat="47.26141" lon="-2.42287">
        <ele>72.599998474121</ele>
        <time>2020-02-16T09:10:12.000Z</time>
      </trkpt>
      <trkpt lat="47.26142" lon="-2.42293">
        <ele>72.599998474121</ele>
        <time>2020-02-16T09:10:13.000Z</time>
      </trkpt>
      <trkpt lat="47.26141" lon="-2.42334">
        <ele>72.599998474121</ele>
        <time>2020-02-16T09:10:19.000Z</time>
      </trkpt>
      <trkpt lat="47.26141" lon="-2.42341">
        <ele>72.599998474121</ele>
        <time>2020-02-16T09:10:20.000Z</time>
      </trkpt>
      <trkpt lat="47.26141" lon="-2.42347">
        <ele>72.599998474121</ele>
        <time>2020-02-16T09:10:21.000Z</time>
      </trkpt>
      <trkpt lat="47.26139" lon="-2.42369">
        <ele>72.599998474121</ele>
        <time>2020-02-16T09:10:25.000Z</time>
      </trkpt>
      <trkpt lat="47.26133" lon="-2.42377">
        <ele>72.599998474121</ele>
        <time>2020-02-16T09:10:28.000Z</time>
      </trkpt>
      <trkpt lat="47.26131" lon="-2.4238">
        <ele>73</ele>
        <time>2020-02-16T09:10:29.000Z</time>
      </trkpt>
      <trkpt lat="47.26127" lon="-2.42383">
        <ele>73.599998474121</ele>
        <time>2020-02-16T09:10:30.000Z</time>
      </trkpt>
      <trkpt lat="47.26124" lon="-2.42387">
        <ele>74</ele>
        <time>2020-02-16T09:10:31.000Z</time>
      </trkpt>
      <trkpt lat="47.26121" lon="-2.42392">
        <ele>74.400001525879</ele>
        <time>2020-02-16T09:10:32.000Z</time>
      </trkpt>
      <trkpt lat="47.26119" lon="-2.42397">
        <ele>74</ele>
        <time>2020-02-16T09:10:33.000Z</time>
      </trkpt>
      <trkpt lat="47.26119" lon="-2.42404">
        <ele>73.599998474121</ele>
        <time>2020-02-16T09:10:34.000Z</time>
      </trkpt>
      <trkpt lat="47.26118" lon="-2.4241">
        <ele>73.400001525879</ele>
        <time>2020-02-16T09:10:35.000Z</time>
      </trkpt>
      <trkpt lat="47.26119" lon="-2.42417">
        <ele>72.599998474121</ele>
        <time>2020-02-16T09:10:36.000Z</time>
      </trkpt>
      <trkpt lat="47.2612" lon="-2.42424">
        <ele>72.599998474121</ele>
        <time>2020-02-16T09:10:37.000Z</time>
      </trkpt>
      <trkpt lat="47.26126" lon="-2.42485">
        <ele>72.599998474121</ele>
        <time>2020-02-16T09:10:45.000Z</time>
      </trkpt>
      <trkpt lat="47.26134" lon="-2.42536">
        <ele>73</ele>
        <time>2020-02-16T09:10:52.000Z</time>
      </trkpt>
      <trkpt lat="47.26135" lon="-2.42543">
        <ele>73.400001525879</ele>
        <time>2020-02-16T09:10:53.000Z</time>
      </trkpt>
      <trkpt lat="47.26136" lon="-2.42551">
        <ele>73.800003051758</ele>
        <time>2020-02-16T09:10:54.000Z</time>
      </trkpt>
      <trkpt lat="47.26138" lon="-2.42558">
        <ele>74.199996948242</ele>
        <time>2020-02-16T09:10:55.000Z</time>
      </trkpt>
      <trkpt lat="47.26139" lon="-2.42565">
        <ele>74.599998474121</ele>
        <time>2020-02-16T09:10:56.000Z</time>
      </trkpt>
      <trkpt lat="47.26141" lon="-2.4258">
        <ele>74.599998474121</ele>
        <time>2020-02-16T09:10:58.000Z</time>
      </trkpt>
      <trkpt lat="47.26149" lon="-2.4263">
        <ele>74.599998474121</ele>
        <time>2020-02-16T09:11:05.000Z</time>
      </trkpt>
      <trkpt lat="47.2616" lon="-2.42701">
        <ele>74.599998474121</ele>
        <time>2020-02-16T09:11:15.000Z</time>
      </trkpt>
      <trkpt lat="47.26161" lon="-2.42718">
        <ele>74.199996948242</ele>
        <time>2020-02-16T09:11:18.000Z</time>
      </trkpt>
      <trkpt lat="47.2616" lon="-2.42722">
        <ele>73.800003051758</ele>
        <time>2020-02-16T09:11:19.000Z</time>
      </trkpt>
      <trkpt lat="47.26158" lon="-2.42726">
        <ele>73.199996948242</ele>
        <time>2020-02-16T09:11:20.000Z</time>
      </trkpt>
      <trkpt lat="47.26155" lon="-2.4273">
        <ele>72.800003051758</ele>
        <time>2020-02-16T09:11:21.000Z</time>
      </trkpt>
      <trkpt lat="47.26152" lon="-2.42733">
        <ele>72.199996948242</ele>
        <time>2020-02-16T09:11:22.000Z</time>
      </trkpt>
      <trkpt lat="47.26144" lon="-2.42737">
        <ele>72.800003051758</ele>
        <time>2020-02-16T09:11:24.000Z</time>
      </trkpt>
      <trkpt lat="47.2614" lon="-2.42739">
        <ele>73.800003051758</ele>
        <time>2020-02-16T09:11:25.000Z</time>
      </trkpt>
      <trkpt lat="47.26136" lon="-2.42741">
        <ele>74.400001525879</ele>
        <time>2020-02-16T09:11:26.000Z</time>
      </trkpt>
      <trkpt lat="47.26133" lon="-2.42743">
        <ele>74.800003051758</ele>
        <time>2020-02-16T09:11:27.000Z</time>
      </trkpt>
      <trkpt lat="47.26129" lon="-2.42745">
        <ele>74.800003051758</ele>
        <time>2020-02-16T09:11:28.000Z</time>
      </trkpt>
      <trkpt lat="47.26107" lon="-2.42759">
        <ele>74.800003051758</ele>
        <time>2020-02-16T09:11:34.000Z</time>
      </trkpt>
      <trkpt lat="47.26087" lon="-2.42773">
        <ele>75.400001525879</ele>
        <time>2020-02-16T09:11:39.000Z</time>
      </trkpt>
      <trkpt lat="47.26083" lon="-2.42776">
        <ele>75.800003051758</ele>
        <time>2020-02-16T09:11:40.000Z</time>
      </trkpt>
      <trkpt lat="47.2608" lon="-2.42778">
        <ele>76.199996948242</ele>
        <time>2020-02-16T09:11:41.000Z</time>
      </trkpt>
      <trkpt lat="47.26076" lon="-2.42781">
        <ele>76.800003051758</ele>
        <time>2020-02-16T09:11:42.000Z</time>
      </trkpt>
      <trkpt lat="47.26072" lon="-2.42783">
        <ele>77.199996948242</ele>
        <time>2020-02-16T09:11:43.000Z</time>
      </trkpt>
      <trkpt lat="47.26054" lon="-2.42797">
        <ele>77.199996948242</ele>
        <time>2020-02-16T09:11:48.000Z</time>
      </trkpt>
      <trkpt lat="47.26029" lon="-2.42816">
        <ele>77.199996948242</ele>
        <time>2020-02-16T09:11:55.000Z</time>
      </trkpt>
      <trkpt lat="47.26005" lon="-2.42836">
        <ele>77.199996948242</ele>
        <time>2020-02-16T09:12:03.000Z</time>
      </trkpt>
      <trkpt lat="47.25993" lon="-2.42848">
        <ele>77.199996948242</ele>
        <time>2020-02-16T09:12:08.000Z</time>
      </trkpt>
      <trkpt lat="47.25992" lon="-2.42851">
        <ele>77.199996948242</ele>
        <time>2020-02-16T09:12:09.000Z</time>
      </trkpt>
      <trkpt lat="47.25988" lon="-2.42872">
        <ele>76.400001525879</ele>
        <time>2020-02-16T09:12:15.000Z</time>
      </trkpt>
      <trkpt lat="47.25986" lon="-2.42875">
        <ele>76</ele>
        <time>2020-02-16T09:12:16.000Z</time>
      </trkpt>
      <trkpt lat="47.25984" lon="-2.42876">
        <ele>75.599998474121</ele>
        <time>2020-02-16T09:12:17.000Z</time>
      </trkpt>
      <trkpt lat="47.25981" lon="-2.42876">
        <ele>75</ele>
        <time>2020-02-16T09:12:18.000Z</time>
      </trkpt>
      <trkpt lat="47.25978" lon="-2.42877">
        <ele>75</ele>
        <time>2020-02-16T09:12:19.000Z</time>
      </trkpt>
      <trkpt lat="47.25975" lon="-2.42888">
        <ele>75</ele>
        <time>2020-02-16T09:12:22.000Z</time>
      </trkpt>
      <trkpt lat="47.25973" lon="-2.42897">
        <ele>75.599998474121</ele>
        <time>2020-02-16T09:12:24.000Z</time>
      </trkpt>
      <trkpt lat="47.25972" lon="-2.42902">
        <ele>76</ele>
        <time>2020-02-16T09:12:25.000Z</time>
      </trkpt>
      <trkpt lat="47.2597" lon="-2.42907">
        <ele>76.400001525879</ele>
        <time>2020-02-16T09:12:26.000Z</time>
      </trkpt>
      <trkpt lat="47.25967" lon="-2.42912">
        <ele>77</ele>
        <time>2020-02-16T09:12:27.000Z</time>
      </trkpt>
      <trkpt lat="47.25965" lon="-2.42916">
        <ele>76.599998474121</ele>
        <time>2020-02-16T09:12:28.000Z</time>
      </trkpt>
      <trkpt lat="47.25962" lon="-2.42921">
        <ele>76.400001525879</ele>
        <time>2020-02-16T09:12:29.000Z</time>
      </trkpt>
      <trkpt lat="47.2596" lon="-2.42926">
        <ele>76</ele>
        <time>2020-02-16T09:12:30.000Z</time>
      </trkpt>
      <trkpt lat="47.25958" lon="-2.42931">
        <ele>75.599998474121</ele>
        <time>2020-02-16T09:12:31.000Z</time>
      </trkpt>
      <trkpt lat="47.25956" lon="-2.42936">
        <ele>75.400001525879</ele>
        <time>2020-02-16T09:12:32.000Z</time>
      </trkpt>
      <trkpt lat="47.25954" lon="-2.42941">
        <ele>75.400001525879</ele>
        <time>2020-02-16T09:12:33.000Z</time>
      </trkpt>
      <trkpt lat="47.25951" lon="-2.42952">
        <ele>75.400001525879</ele>
        <time>2020-02-16T09:12:35.000Z</time>
      </trkpt>
      <trkpt lat="47.25952" lon="-2.42971">
        <ele>75.400001525879</ele>
        <time>2020-02-16T09:12:38.000Z</time>
      </trkpt>
      <trkpt lat="47.25952" lon="-2.42976">
        <ele>75.400001525879</ele>
        <time>2020-02-16T09:12:39.000Z</time>
      </trkpt>
      <trkpt lat="47.25953" lon="-2.42982">
        <ele>77</ele>
        <time>2020-02-16T09:12:40.000Z</time>
      </trkpt>
      <trkpt lat="47.25953" lon="-2.42987">
        <ele>78</ele>
        <time>2020-02-16T09:12:41.000Z</time>
      </trkpt>
      <trkpt lat="47.25953" lon="-2.42993">
        <ele>79</ele>
        <time>2020-02-16T09:12:42.000Z</time>
      </trkpt>
      <trkpt lat="47.25953" lon="-2.42998">
        <ele>80</ele>
        <time>2020-02-16T09:12:43.000Z</time>
      </trkpt>
      <trkpt lat="47.25953" lon="-2.43003">
        <ele>80</ele>
        <time>2020-02-16T09:12:44.000Z</time>
      </trkpt>
      <trkpt lat="47.25952" lon="-2.43008">
        <ele>80</ele>
        <time>2020-02-16T09:12:45.000Z</time>
      </trkpt>
      <trkpt lat="47.2595" lon="-2.43013">
        <ele>79.400001525879</ele>
        <time>2020-02-16T09:12:46.000Z</time>
      </trkpt>
      <trkpt lat="47.25948" lon="-2.43018">
        <ele>78.599998474121</ele>
        <time>2020-02-16T09:12:47.000Z</time>
      </trkpt>
      <trkpt lat="47.25946" lon="-2.43022">
        <ele>78</ele>
        <time>2020-02-16T09:12:48.000Z</time>
      </trkpt>
      <trkpt lat="47.25943" lon="-2.43026">
        <ele>77.199996948242</ele>
        <time>2020-02-16T09:12:49.000Z</time>
      </trkpt>
      <trkpt lat="47.2594" lon="-2.43028">
        <ele>76.599998474121</ele>
        <time>2020-02-16T09:12:50.000Z</time>
      </trkpt>
      <trkpt lat="47.25934" lon="-2.43031">
        <ele>76.599998474121</ele>
        <time>2020-02-16T09:12:52.000Z</time>
      </trkpt>
      <trkpt lat="47.2593" lon="-2.43033">
        <ele>76</ele>
        <time>2020-02-16T09:12:53.000Z</time>
      </trkpt>
      <trkpt lat="47.25927" lon="-2.43036">
        <ele>75.599998474121</ele>
        <time>2020-02-16T09:12:54.000Z</time>
      </trkpt>
      <trkpt lat="47.25924" lon="-2.43038">
        <ele>75</ele>
        <time>2020-02-16T09:12:55.000Z</time>
      </trkpt>
      <trkpt lat="47.2592" lon="-2.4304">
        <ele>74.400001525879</ele>
        <time>2020-02-16T09:12:56.000Z</time>
      </trkpt>
      <trkpt lat="47.25917" lon="-2.43042">
        <ele>74</ele>
        <time>2020-02-16T09:12:57.000Z</time>
      </trkpt>
      <trkpt lat="47.2591" lon="-2.43046">
        <ele>74</ele>
        <time>2020-02-16T09:12:59.000Z</time>
      </trkpt>
      <trkpt lat="47.25901" lon="-2.43048">
        <ele>74</ele>
        <time>2020-02-16T09:13:01.000Z</time>
      </trkpt>
      <trkpt lat="47.25892" lon="-2.4305">
        <ele>74</ele>
        <time>2020-02-16T09:13:03.000Z</time>
      </trkpt>
      <trkpt lat="47.25885" lon="-2.43055">
        <ele>74.599998474121</ele>
        <time>2020-02-16T09:13:05.000Z</time>
      </trkpt>
      <trkpt lat="47.25883" lon="-2.43058">
        <ele>75.199996948242</ele>
        <time>2020-02-16T09:13:06.000Z</time>
      </trkpt>
      <trkpt lat="47.25881" lon="-2.43062">
        <ele>75.599998474121</ele>
        <time>2020-02-16T09:13:07.000Z</time>
      </trkpt>
      <trkpt lat="47.25879" lon="-2.43066">
        <ele>76.199996948242</ele>
        <time>2020-02-16T09:13:08.000Z</time>
      </trkpt>
      <trkpt lat="47.25878" lon="-2.43071">
        <ele>76.800003051758</ele>
        <time>2020-02-16T09:13:09.000Z</time>
      </trkpt>
      <trkpt lat="47.25875" lon="-2.43087">
        <ele>76.400001525879</ele>
        <time>2020-02-16T09:13:12.000Z</time>
      </trkpt>
      <trkpt lat="47.25874" lon="-2.43092">
        <ele>75.800003051758</ele>
        <time>2020-02-16T09:13:13.000Z</time>
      </trkpt>
      <trkpt lat="47.25873" lon="-2.43097">
        <ele>75.400001525879</ele>
        <time>2020-02-16T09:13:14.000Z</time>
      </trkpt>
      <trkpt lat="47.25871" lon="-2.43101">
        <ele>75.599998474121</ele>
        <time>2020-02-16T09:13:15.000Z</time>
      </trkpt>
      <trkpt lat="47.25869" lon="-2.43104">
        <ele>75.800003051758</ele>
        <time>2020-02-16T09:13:16.000Z</time>
      </trkpt>
      <trkpt lat="47.25868" lon="-2.43108">
        <ele>76.199996948242</ele>
        <time>2020-02-16T09:13:17.000Z</time>
      </trkpt>
      <trkpt lat="47.25866" lon="-2.43112">
        <ele>75.599998474121</ele>
        <time>2020-02-16T09:13:18.000Z</time>
      </trkpt>
      <trkpt lat="47.25864" lon="-2.43115">
        <ele>75.199996948242</ele>
        <time>2020-02-16T09:13:19.000Z</time>
      </trkpt>
      <trkpt lat="47.25861" lon="-2.43118">
        <ele>74.599998474121</ele>
        <time>2020-02-16T09:13:20.000Z</time>
      </trkpt>
      <trkpt lat="47.25859" lon="-2.43121">
        <ele>74.199996948242</ele>
        <time>2020-02-16T09:13:21.000Z</time>
      </trkpt>
      <trkpt lat="47.25857" lon="-2.43124">
        <ele>73.599998474121</ele>
        <time>2020-02-16T09:13:22.000Z</time>
      </trkpt>
      <trkpt lat="47.25847" lon="-2.43142">
        <ele>73.599998474121</ele>
        <time>2020-02-16T09:13:28.000Z</time>
      </trkpt>
      <trkpt lat="47.25847" lon="-2.43154">
        <ele>73.199996948242</ele>
        <time>2020-02-16T09:13:31.000Z</time>
      </trkpt>
      <trkpt lat="47.25847" lon="-2.43159">
        <ele>72.599998474121</ele>
        <time>2020-02-16T09:13:32.000Z</time>
      </trkpt>
      <trkpt lat="47.25848" lon="-2.43163">
        <ele>72.199996948242</ele>
        <time>2020-02-16T09:13:33.000Z</time>
      </trkpt>
      <trkpt lat="47.25848" lon="-2.43168">
        <ele>71.599998474121</ele>
        <time>2020-02-16T09:13:34.000Z</time>
      </trkpt>
      <trkpt lat="47.25849" lon="-2.43171">
        <ele>71</ele>
        <time>2020-02-16T09:13:35.000Z</time>
      </trkpt>
      <trkpt lat="47.25851" lon="-2.43174">
        <ele>70.199996948242</ele>
        <time>2020-02-16T09:13:36.000Z</time>
      </trkpt>
      <trkpt lat="47.25852" lon="-2.43176">
        <ele>69.599998474121</ele>
        <time>2020-02-16T09:13:37.000Z</time>
      </trkpt>
      <trkpt lat="47.25854" lon="-2.43178">
        <ele>69</ele>
        <time>2020-02-16T09:13:38.000Z</time>
      </trkpt>
      <trkpt lat="47.2586" lon="-2.4318">
        <ele>68.599998474121</ele>
        <time>2020-02-16T09:13:41.000Z</time>
      </trkpt>
      <trkpt lat="47.25862" lon="-2.4318">
        <ele>68.199996948242</ele>
        <time>2020-02-16T09:13:42.000Z</time>
      </trkpt>
      <trkpt lat="47.25862" lon="-2.43181">
        <ele>67.599998474121</ele>
        <time>2020-02-16T09:13:43.000Z</time>
      </trkpt>
      <trkpt lat="47.25874" lon="-2.4319">
        <ele>69.199996948242</ele>
        <time>2020-02-16T09:14:14.000Z</time>
      </trkpt>
      <trkpt lat="47.25879" lon="-2.43195">
        <ele>69.199996948242</ele>
        <time>2020-02-16T09:14:18.000Z</time>
      </trkpt>
      <trkpt lat="47.25881" lon="-2.43198">
        <ele>69.800003051758</ele>
        <time>2020-02-16T09:14:20.000Z</time>
      </trkpt>
      <trkpt lat="47.25881" lon="-2.43199">
        <ele>70.400001525879</ele>
        <time>2020-02-16T09:14:21.000Z</time>
      </trkpt>
      <trkpt lat="47.25883" lon="-2.43202">
        <ele>72</ele>
        <time>2020-02-16T09:14:35.000Z</time>
      </trkpt>
      <trkpt lat="47.25884" lon="-2.43203">
        <ele>72</ele>
        <time>2020-02-16T09:14:36.000Z</time>
      </trkpt>
      <trkpt lat="47.25893" lon="-2.43217">
        <ele>72</ele>
        <time>2020-02-16T09:14:42.000Z</time>
      </trkpt>
      <trkpt lat="47.25912" lon="-2.43233">
        <ele>72</ele>
        <time>2020-02-16T09:14:51.000Z</time>
      </trkpt>
      <trkpt lat="47.25921" lon="-2.43236">
        <ele>71.599998474121</ele>
        <time>2020-02-16T09:14:54.000Z</time>
      </trkpt>
      <trkpt lat="47.25925" lon="-2.43235">
        <ele>71.199996948242</ele>
        <time>2020-02-16T09:14:55.000Z</time>
      </trkpt>
      <trkpt lat="47.25929" lon="-2.43234">
        <ele>70.800003051758</ele>
        <time>2020-02-16T09:14:56.000Z</time>
      </trkpt>
      <trkpt lat="47.25933" lon="-2.43234">
        <ele>70.400001525879</ele>
        <time>2020-02-16T09:14:57.000Z</time>
      </trkpt>
      <trkpt lat="47.25937" lon="-2.43233">
        <ele>70</ele>
        <time>2020-02-16T09:14:58.000Z</time>
      </trkpt>
      <trkpt lat="47.25939" lon="-2.43234">
        <ele>70.400001525879</ele>
        <time>2020-02-16T09:14:59.000Z</time>
      </trkpt>
      <trkpt lat="47.25941" lon="-2.43235">
        <ele>71</ele>
        <time>2020-02-16T09:15:00.000Z</time>
      </trkpt>
      <trkpt lat="47.25942" lon="-2.43236">
        <ele>71.599998474121</ele>
        <time>2020-02-16T09:15:01.000Z</time>
      </trkpt>
      <trkpt lat="47.25944" lon="-2.43237">
        <ele>72.400001525879</ele>
        <time>2020-02-16T09:15:02.000Z</time>
      </trkpt>
      <trkpt lat="47.25946" lon="-2.43238">
        <ele>73.199996948242</ele>
        <time>2020-02-16T09:15:03.000Z</time>
      </trkpt>
      <trkpt lat="47.25948" lon="-2.43238">
        <ele>74</ele>
        <time>2020-02-16T09:15:04.000Z</time>
      </trkpt>
      <trkpt lat="47.25951" lon="-2.43238">
        <ele>74.800003051758</ele>
        <time>2020-02-16T09:15:05.000Z</time>
      </trkpt>
      <trkpt lat="47.25963" lon="-2.43232">
        <ele>74</ele>
        <time>2020-02-16T09:15:08.000Z</time>
      </trkpt>
      <trkpt lat="47.25967" lon="-2.4323">
        <ele>73.599998474121</ele>
        <time>2020-02-16T09:15:09.000Z</time>
      </trkpt>
      <trkpt lat="47.2597" lon="-2.43228">
        <ele>73</ele>
        <time>2020-02-16T09:15:10.000Z</time>
      </trkpt>
      <trkpt lat="47.25974" lon="-2.43227">
        <ele>72.599998474121</ele>
        <time>2020-02-16T09:15:11.000Z</time>
      </trkpt>
      <trkpt lat="47.25996" lon="-2.43218">
        <ele>72.599998474121</ele>
        <time>2020-02-16T09:15:17.000Z</time>
      </trkpt>
      <trkpt lat="47.26013" lon="-2.4321">
        <ele>72.599998474121</ele>
        <time>2020-02-16T09:15:23.000Z</time>
      </trkpt>
      <trkpt lat="47.26032" lon="-2.432">
        <ele>72.599998474121</ele>
        <time>2020-02-16T09:15:30.000Z</time>
      </trkpt>
      <trkpt lat="47.26046" lon="-2.43193">
        <ele>72.599998474121</ele>
        <time>2020-02-16T09:15:35.000Z</time>
      </trkpt>
      <trkpt lat="47.26067" lon="-2.43184">
        <ele>73.199996948242</ele>
        <time>2020-02-16T09:15:42.000Z</time>
      </trkpt>
      <trkpt lat="47.26069" lon="-2.43183">
        <ele>73.599998474121</ele>
        <time>2020-02-16T09:15:43.000Z</time>
      </trkpt>
      <trkpt lat="47.26071" lon="-2.43181">
        <ele>74</ele>
        <time>2020-02-16T09:15:44.000Z</time>
      </trkpt>
      <trkpt lat="47.26074" lon="-2.4318">
        <ele>74.400001525879</ele>
        <time>2020-02-16T09:15:45.000Z</time>
      </trkpt>
      <trkpt lat="47.26076" lon="-2.43179">
        <ele>74.800003051758</ele>
        <time>2020-02-16T09:15:46.000Z</time>
      </trkpt>
      <trkpt lat="47.26086" lon="-2.43173">
        <ele>74.800003051758</ele>
        <time>2020-02-16T09:15:50.000Z</time>
      </trkpt>
      <trkpt lat="47.26108" lon="-2.43159">
        <ele>74.800003051758</ele>
        <time>2020-02-16T09:15:58.000Z</time>
      </trkpt>
      <trkpt lat="47.26113" lon="-2.43164">
        <ele>75.400001525879</ele>
        <time>2020-02-16T09:16:01.000Z</time>
      </trkpt>
      <trkpt lat="47.26115" lon="-2.43167">
        <ele>75.800003051758</ele>
        <time>2020-02-16T09:16:02.000Z</time>
      </trkpt>
      <trkpt lat="47.26116" lon="-2.4317">
        <ele>76.199996948242</ele>
        <time>2020-02-16T09:16:03.000Z</time>
      </trkpt>
      <trkpt lat="47.26118" lon="-2.43174">
        <ele>76.800003051758</ele>
        <time>2020-02-16T09:16:04.000Z</time>
      </trkpt>
      <trkpt lat="47.26119" lon="-2.43178">
        <ele>77.199996948242</ele>
        <time>2020-02-16T09:16:05.000Z</time>
      </trkpt>
      <trkpt lat="47.26122" lon="-2.43191">
        <ele>77.199996948242</ele>
        <time>2020-02-16T09:16:08.000Z</time>
      </trkpt>
      <trkpt lat="47.2613" lon="-2.43223">
        <ele>77.199996948242</ele>
        <time>2020-02-16T09:16:15.000Z</time>
      </trkpt>
      <trkpt lat="47.26139" lon="-2.43258">
        <ele>77.199996948242</ele>
        <time>2020-02-16T09:16:22.000Z</time>
      </trkpt>
      <trkpt lat="47.26149" lon="-2.43297">
        <ele>77.199996948242</ele>
        <time>2020-02-16T09:16:30.000Z</time>
      </trkpt>
      <trkpt lat="47.26157" lon="-2.43338">
        <ele>77.199996948242</ele>
        <time>2020-02-16T09:16:38.000Z</time>
      </trkpt>
      <trkpt lat="47.26166" lon="-2.43356">
        <ele>77.199996948242</ele>
        <time>2020-02-16T09:16:44.000Z</time>
      </trkpt>
      <trkpt lat="47.26169" lon="-2.43361">
        <ele>77.199996948242</ele>
        <time>2020-02-16T09:16:47.000Z</time>
      </trkpt>
      <trkpt lat="47.26171" lon="-2.43367">
        <ele>77.199996948242</ele>
        <time>2020-02-16T09:16:50.000Z</time>
      </trkpt>
      <trkpt lat="47.26171" lon="-2.43386">
        <ele>77.199996948242</ele>
        <time>2020-02-16T09:16:57.000Z</time>
      </trkpt>
      <trkpt lat="47.26171" lon="-2.43409">
        <ele>77.199996948242</ele>
        <time>2020-02-16T09:17:04.000Z</time>
      </trkpt>
      <trkpt lat="47.26174" lon="-2.4343">
        <ele>77.199996948242</ele>
        <time>2020-02-16T09:17:10.000Z</time>
      </trkpt>
      <trkpt lat="47.26179" lon="-2.43455">
        <ele>77.199996948242</ele>
        <time>2020-02-16T09:17:17.000Z</time>
      </trkpt>
      <trkpt lat="47.26183" lon="-2.43474">
        <ele>77.199996948242</ele>
        <time>2020-02-16T09:17:24.000Z</time>
      </trkpt>
      <trkpt lat="47.26188" lon="-2.4349">
        <ele>77.199996948242</ele>
        <time>2020-02-16T09:17:30.000Z</time>
      </trkpt>
      <trkpt lat="47.26193" lon="-2.43515">
        <ele>77.199996948242</ele>
        <time>2020-02-16T09:17:38.000Z</time>
      </trkpt>
      <trkpt lat="47.26198" lon="-2.43532">
        <ele>77.199996948242</ele>
        <time>2020-02-16T09:17:43.000Z</time>
      </trkpt>
      <trkpt lat="47.26206" lon="-2.43563">
        <ele>77.199996948242</ele>
        <time>2020-02-16T09:17:49.000Z</time>
      </trkpt>
      <trkpt lat="47.2621" lon="-2.4359">
        <ele>77.199996948242</ele>
        <time>2020-02-16T09:17:55.000Z</time>
      </trkpt>
      <trkpt lat="47.2621" lon="-2.43591">
        <ele>77.199996948242</ele>
        <time>2020-02-16T09:17:56.000Z</time>
      </trkpt>
      <trkpt lat="47.26211" lon="-2.43595">
        <ele>77.199996948242</ele>
        <time>2020-02-16T09:17:59.000Z</time>
      </trkpt>
      <trkpt lat="47.26215" lon="-2.43598">
        <ele>77.199996948242</ele>
        <time>2020-02-16T09:18:36.000Z</time>
      </trkpt>
      <trkpt lat="47.26221" lon="-2.43595">
        <ele>77.199996948242</ele>
        <time>2020-02-16T09:18:39.000Z</time>
      </trkpt>
      <trkpt lat="47.26232" lon="-2.4359">
        <ele>77.199996948242</ele>
        <time>2020-02-16T09:18:44.000Z</time>
      </trkpt>
      <trkpt lat="47.26251" lon="-2.43581">
        <ele>77.199996948242</ele>
        <time>2020-02-16T09:18:52.000Z</time>
      </trkpt>
      <trkpt lat="47.26264" lon="-2.43575">
        <ele>77.199996948242</ele>
        <time>2020-02-16T09:18:58.000Z</time>
      </trkpt>
      <trkpt lat="47.26281" lon="-2.43566">
        <ele>77.199996948242</ele>
        <time>2020-02-16T09:19:05.000Z</time>
      </trkpt>
      <trkpt lat="47.26299" lon="-2.43556">
        <ele>77.199996948242</ele>
        <time>2020-02-16T09:19:12.000Z</time>
      </trkpt>
      <trkpt lat="47.26316" lon="-2.43547">
        <ele>77.199996948242</ele>
        <time>2020-02-16T09:19:18.000Z</time>
      </trkpt>
      <trkpt lat="47.26339" lon="-2.43536">
        <ele>77.199996948242</ele>
        <time>2020-02-16T09:19:26.000Z</time>
      </trkpt>
      <trkpt lat="47.26348" lon="-2.43532">
        <ele>76.800003051758</ele>
        <time>2020-02-16T09:19:29.000Z</time>
      </trkpt>
      <trkpt lat="47.26351" lon="-2.43531">
        <ele>76.400001525879</ele>
        <time>2020-02-16T09:19:30.000Z</time>
      </trkpt>
      <trkpt lat="47.26354" lon="-2.4353">
        <ele>76</ele>
        <time>2020-02-16T09:19:31.000Z</time>
      </trkpt>
      <trkpt lat="47.26356" lon="-2.4353">
        <ele>75.400001525879</ele>
        <time>2020-02-16T09:19:32.000Z</time>
      </trkpt>
      <trkpt lat="47.26359" lon="-2.43529">
        <ele>75</ele>
        <time>2020-02-16T09:19:33.000Z</time>
      </trkpt>
      <trkpt lat="47.26361" lon="-2.43529">
        <ele>75</ele>
        <time>2020-02-16T09:19:34.000Z</time>
      </trkpt>
      <trkpt lat="47.26376" lon="-2.43521">
        <ele>75</ele>
        <time>2020-02-16T09:19:41.000Z</time>
      </trkpt>
      <trkpt lat="47.26391" lon="-2.43518">
        <ele>75</ele>
        <time>2020-02-16T09:19:48.000Z</time>
      </trkpt>
      <trkpt lat="47.26403" lon="-2.43526">
        <ele>75</ele>
        <time>2020-02-16T09:19:54.000Z</time>
      </trkpt>
      <trkpt lat="47.26407" lon="-2.43544">
        <ele>75</ele>
        <time>2020-02-16T09:19:59.000Z</time>
      </trkpt>
      <trkpt lat="47.26404" lon="-2.43563">
        <ele>75.400001525879</ele>
        <time>2020-02-16T09:20:04.000Z</time>
      </trkpt>
      <trkpt lat="47.26404" lon="-2.43567">
        <ele>75.800003051758</ele>
        <time>2020-02-16T09:20:05.000Z</time>
      </trkpt>
      <trkpt lat="47.26404" lon="-2.43571">
        <ele>76.199996948242</ele>
        <time>2020-02-16T09:20:06.000Z</time>
      </trkpt>
      <trkpt lat="47.26404" lon="-2.43575">
        <ele>76.599998474121</ele>
        <time>2020-02-16T09:20:07.000Z</time>
      </trkpt>
      <trkpt lat="47.26404" lon="-2.43579">
        <ele>77.199996948242</ele>
        <time>2020-02-16T09:20:08.000Z</time>
      </trkpt>
      <trkpt lat="47.26405" lon="-2.43599">
        <ele>77.199996948242</ele>
        <time>2020-02-16T09:20:13.000Z</time>
      </trkpt>
      <trkpt lat="47.26405" lon="-2.4363">
        <ele>77.199996948242</ele>
        <time>2020-02-16T09:20:20.000Z</time>
      </trkpt>
      <trkpt lat="47.26406" lon="-2.43634">
        <ele>76.599998474121</ele>
        <time>2020-02-16T09:20:21.000Z</time>
      </trkpt>
      <trkpt lat="47.26406" lon="-2.43639">
        <ele>76.199996948242</ele>
        <time>2020-02-16T09:20:22.000Z</time>
      </trkpt>
      <trkpt lat="47.26406" lon="-2.43643">
        <ele>75.800003051758</ele>
        <time>2020-02-16T09:20:23.000Z</time>
      </trkpt>
      <trkpt lat="47.26406" lon="-2.43647">
        <ele>75.199996948242</ele>
        <time>2020-02-16T09:20:24.000Z</time>
      </trkpt>
      <trkpt lat="47.26406" lon="-2.43651">
        <ele>74.800003051758</ele>
        <time>2020-02-16T09:20:25.000Z</time>
      </trkpt>
      <trkpt lat="47.26406" lon="-2.4366">
        <ele>74.800003051758</ele>
        <time>2020-02-16T09:20:27.000Z</time>
      </trkpt>
      <trkpt lat="47.26407" lon="-2.43689">
        <ele>74.800003051758</ele>
        <time>2020-02-16T09:20:34.000Z</time>
      </trkpt>
      <trkpt lat="47.26406" lon="-2.43719">
        <ele>74.800003051758</ele>
        <time>2020-02-16T09:20:41.000Z</time>
      </trkpt>
      <trkpt lat="47.26404" lon="-2.43751">
        <ele>74.800003051758</ele>
        <time>2020-02-16T09:20:49.000Z</time>
      </trkpt>
      <trkpt lat="47.26404" lon="-2.43754">
        <ele>75.199996948242</ele>
        <time>2020-02-16T09:20:50.000Z</time>
      </trkpt>
      <trkpt lat="47.26404" lon="-2.43758">
        <ele>75.599998474121</ele>
        <time>2020-02-16T09:20:51.000Z</time>
      </trkpt>
      <trkpt lat="47.26403" lon="-2.43761">
        <ele>76.199996948242</ele>
        <time>2020-02-16T09:20:52.000Z</time>
      </trkpt>
      <trkpt lat="47.26403" lon="-2.43765">
        <ele>76.599998474121</ele>
        <time>2020-02-16T09:20:53.000Z</time>
      </trkpt>
      <trkpt lat="47.26403" lon="-2.43769">
        <ele>77</ele>
        <time>2020-02-16T09:20:54.000Z</time>
      </trkpt>
      <trkpt lat="47.26402" lon="-2.43777">
        <ele>77</ele>
        <time>2020-02-16T09:20:56.000Z</time>
      </trkpt>
      <trkpt lat="47.26401" lon="-2.43803">
        <ele>77</ele>
        <time>2020-02-16T09:21:03.000Z</time>
      </trkpt>
      <trkpt lat="47.26399" lon="-2.43829">
        <ele>77</ele>
        <time>2020-02-16T09:21:10.000Z</time>
      </trkpt>
      <trkpt lat="47.26397" lon="-2.43852">
        <ele>77.400001525879</ele>
        <time>2020-02-16T09:21:16.000Z</time>
      </trkpt>
      <trkpt lat="47.26397" lon="-2.43856">
        <ele>77.800003051758</ele>
        <time>2020-02-16T09:21:17.000Z</time>
      </trkpt>
      <trkpt lat="47.26397" lon="-2.43859">
        <ele>78.199996948242</ele>
        <time>2020-02-16T09:21:18.000Z</time>
      </trkpt>
      <trkpt lat="47.26397" lon="-2.43863">
        <ele>79</ele>
        <time>2020-02-16T09:21:19.000Z</time>
      </trkpt>
      <trkpt lat="47.26398" lon="-2.43881">
        <ele>79</ele>
        <time>2020-02-16T09:21:24.000Z</time>
      </trkpt>
      <trkpt lat="47.26398" lon="-2.43907">
        <ele>79</ele>
        <time>2020-02-16T09:21:30.000Z</time>
      </trkpt>
      <trkpt lat="47.26396" lon="-2.43926">
        <ele>79</ele>
        <time>2020-02-16T09:21:35.000Z</time>
      </trkpt>
      <trkpt lat="47.26396" lon="-2.4393">
        <ele>79.400001525879</ele>
        <time>2020-02-16T09:21:36.000Z</time>
      </trkpt>
      <trkpt lat="47.26396" lon="-2.43934">
        <ele>79.800003051758</ele>
        <time>2020-02-16T09:21:37.000Z</time>
      </trkpt>
      <trkpt lat="47.26396" lon="-2.43938">
        <ele>80.199996948242</ele>
        <time>2020-02-16T09:21:38.000Z</time>
      </trkpt>
      <trkpt lat="47.26395" lon="-2.43942">
        <ele>80.599998474121</ele>
        <time>2020-02-16T09:21:39.000Z</time>
      </trkpt>
      <trkpt lat="47.26395" lon="-2.43946">
        <ele>81</ele>
        <time>2020-02-16T09:21:40.000Z</time>
      </trkpt>
      <trkpt lat="47.26394" lon="-2.43956">
        <ele>81</ele>
        <time>2020-02-16T09:21:43.000Z</time>
      </trkpt>
      <trkpt lat="47.26394" lon="-2.43959">
        <ele>81.400001525879</ele>
        <time>2020-02-16T09:21:44.000Z</time>
      </trkpt>
      <trkpt lat="47.26394" lon="-2.43962">
        <ele>81.800003051758</ele>
        <time>2020-02-16T09:21:45.000Z</time>
      </trkpt>
      <trkpt lat="47.26394" lon="-2.43965">
        <ele>82.199996948242</ele>
        <time>2020-02-16T09:21:46.000Z</time>
      </trkpt>
      <trkpt lat="47.26394" lon="-2.43969">
        <ele>82.599998474121</ele>
        <time>2020-02-16T09:21:47.000Z</time>
      </trkpt>
      <trkpt lat="47.26394" lon="-2.43972">
        <ele>83</ele>
        <time>2020-02-16T09:21:48.000Z</time>
      </trkpt>
      <trkpt lat="47.26393" lon="-2.43975">
        <ele>83</ele>
        <time>2020-02-16T09:21:49.000Z</time>
      </trkpt>
      <trkpt lat="47.26392" lon="-2.4398">
        <ele>83</ele>
        <time>2020-02-16T09:21:51.000Z</time>
      </trkpt>
      <trkpt lat="47.26391" lon="-2.4399">
        <ele>83</ele>
        <time>2020-02-16T09:21:54.000Z</time>
      </trkpt>
      <trkpt lat="47.2639" lon="-2.44002">
        <ele>83</ele>
        <time>2020-02-16T09:21:57.000Z</time>
      </trkpt>
      <trkpt lat="47.26389" lon="-2.44023">
        <ele>83.599998474121</ele>
        <time>2020-02-16T09:22:02.000Z</time>
      </trkpt>
      <trkpt lat="47.26389" lon="-2.44027">
        <ele>84</ele>
        <time>2020-02-16T09:22:03.000Z</time>
      </trkpt>
      <trkpt lat="47.26389" lon="-2.44031">
        <ele>84.400001525879</ele>
        <time>2020-02-16T09:22:04.000Z</time>
      </trkpt>
      <trkpt lat="47.26389" lon="-2.44035">
        <ele>85</ele>
        <time>2020-02-16T09:22:05.000Z</time>
      </trkpt>
      <trkpt lat="47.26388" lon="-2.44039">
        <ele>85.400001525879</ele>
        <time>2020-02-16T09:22:06.000Z</time>
      </trkpt>
      <trkpt lat="47.26388" lon="-2.44043">
        <ele>85.400001525879</ele>
        <time>2020-02-16T09:22:07.000Z</time>
      </trkpt>
      <trkpt lat="47.26386" lon="-2.44066">
        <ele>85.400001525879</ele>
        <time>2020-02-16T09:22:13.000Z</time>
      </trkpt>
      <trkpt lat="47.26381" lon="-2.44081">
        <ele>85.400001525879</ele>
        <time>2020-02-16T09:22:19.000Z</time>
      </trkpt>
      <trkpt lat="47.26382" lon="-2.44084">
        <ele>85.400001525879</ele>
        <time>2020-02-16T09:22:21.000Z</time>
      </trkpt>
      <trkpt lat="47.26382" lon="-2.44088">
        <ele>85.400001525879</ele>
        <time>2020-02-16T09:22:25.000Z</time>
      </trkpt>
      <trkpt lat="47.26385" lon="-2.44085">
        <ele>85.400001525879</ele>
        <time>2020-02-16T09:22:32.000Z</time>
      </trkpt>
      <trkpt lat="47.26389" lon="-2.44084">
        <ele>86</ele>
        <time>2020-02-16T09:22:34.000Z</time>
      </trkpt>
      <trkpt lat="47.26391" lon="-2.44083">
        <ele>86.599998474121</ele>
        <time>2020-02-16T09:22:35.000Z</time>
      </trkpt>
      <trkpt lat="47.26393" lon="-2.44083">
        <ele>87.199996948242</ele>
        <time>2020-02-16T09:22:36.000Z</time>
      </trkpt>
      <trkpt lat="47.26395" lon="-2.44083">
        <ele>87.800003051758</ele>
        <time>2020-02-16T09:22:37.000Z</time>
      </trkpt>
      <trkpt lat="47.26397" lon="-2.44083">
        <ele>87.400001525879</ele>
        <time>2020-02-16T09:22:38.000Z</time>
      </trkpt>
      <trkpt lat="47.26399" lon="-2.44082">
        <ele>87.199996948242</ele>
        <time>2020-02-16T09:22:39.000Z</time>
      </trkpt>
      <trkpt lat="47.26401" lon="-2.44082">
        <ele>86.800003051758</ele>
        <time>2020-02-16T09:22:40.000Z</time>
      </trkpt>
      <trkpt lat="47.26403" lon="-2.44083">
        <ele>86.599998474121</ele>
        <time>2020-02-16T09:22:41.000Z</time>
      </trkpt>
      <trkpt lat="47.26405" lon="-2.44083">
        <ele>86.199996948242</ele>
        <time>2020-02-16T09:22:42.000Z</time>
      </trkpt>
      <trkpt lat="47.26407" lon="-2.44083">
        <ele>86.199996948242</ele>
        <time>2020-02-16T09:22:43.000Z</time>
      </trkpt>
      <trkpt lat="47.26413" lon="-2.44085">
        <ele>85.800003051758</ele>
        <time>2020-02-16T09:22:45.000Z</time>
      </trkpt>
      <trkpt lat="47.26417" lon="-2.44085">
        <ele>85.400001525879</ele>
        <time>2020-02-16T09:22:46.000Z</time>
      </trkpt>
      <trkpt lat="47.2642" lon="-2.44085">
        <ele>85</ele>
        <time>2020-02-16T09:22:47.000Z</time>
      </trkpt>
      <trkpt lat="47.26424" lon="-2.44084">
        <ele>84.599998474121</ele>
        <time>2020-02-16T09:22:48.000Z</time>
      </trkpt>
      <trkpt lat="47.26428" lon="-2.44084">
        <ele>84.199996948242</ele>
        <time>2020-02-16T09:22:49.000Z</time>
      </trkpt>
      <trkpt lat="47.26432" lon="-2.44085">
        <ele>84.199996948242</ele>
        <time>2020-02-16T09:22:50.000Z</time>
      </trkpt>
      <trkpt lat="47.26452" lon="-2.44094">
        <ele>84.199996948242</ele>
        <time>2020-02-16T09:22:55.000Z</time>
      </trkpt>
      <trkpt lat="47.26486" lon="-2.44102">
        <ele>84.199996948242</ele>
        <time>2020-02-16T09:23:03.000Z</time>
      </trkpt>
      <trkpt lat="47.26496" lon="-2.44106">
        <ele>84.199996948242</ele>
        <time>2020-02-16T09:23:05.000Z</time>
      </trkpt>
      <trkpt lat="47.2651" lon="-2.44116">
        <ele>84.199996948242</ele>
        <time>2020-02-16T09:23:08.000Z</time>
      </trkpt>
      <trkpt lat="47.26515" lon="-2.44121">
        <ele>84.199996948242</ele>
        <time>2020-02-16T09:23:09.000Z</time>
      </trkpt>
      <trkpt lat="47.26529" lon="-2.44135">
        <ele>84.199996948242</ele>
        <time>2020-02-16T09:23:12.000Z</time>
      </trkpt>
      <trkpt lat="47.26539" lon="-2.44145">
        <ele>83.800003051758</ele>
        <time>2020-02-16T09:23:15.000Z</time>
      </trkpt>
      <trkpt lat="47.26543" lon="-2.44149">
        <ele>83.400001525879</ele>
        <time>2020-02-16T09:23:16.000Z</time>
      </trkpt>
      <trkpt lat="47.26548" lon="-2.44153">
        <ele>83</ele>
        <time>2020-02-16T09:23:17.000Z</time>
      </trkpt>
      <trkpt lat="47.26552" lon="-2.44156">
        <ele>82.599998474121</ele>
        <time>2020-02-16T09:23:18.000Z</time>
      </trkpt>
      <trkpt lat="47.26556" lon="-2.4416">
        <ele>82</ele>
        <time>2020-02-16T09:23:19.000Z</time>
      </trkpt>
      <trkpt lat="47.26571" lon="-2.44172">
        <ele>82</ele>
        <time>2020-02-16T09:23:23.000Z</time>
      </trkpt>
      <trkpt lat="47.26576" lon="-2.44175">
        <ele>82</ele>
        <time>2020-02-16T09:23:26.000Z</time>
      </trkpt>
      <trkpt lat="47.26577" lon="-2.44176">
        <ele>82</ele>
        <time>2020-02-16T09:23:27.000Z</time>
      </trkpt>
      <trkpt lat="47.26578" lon="-2.44176">
        <ele>81.599998474121</ele>
        <time>2020-02-16T09:23:28.000Z</time>
      </trkpt>
      <trkpt lat="47.26579" lon="-2.44177">
        <ele>81.199996948242</ele>
        <time>2020-02-16T09:23:29.000Z</time>
      </trkpt>
      <trkpt lat="47.2658" lon="-2.44177">
        <ele>80.800003051758</ele>
        <time>2020-02-16T09:23:30.000Z</time>
      </trkpt>
      <trkpt lat="47.26581" lon="-2.44177">
        <ele>80.400001525879</ele>
        <time>2020-02-16T09:23:31.000Z</time>
      </trkpt>
      <trkpt lat="47.26582" lon="-2.44176">
        <ele>80</ele>
        <time>2020-02-16T09:23:32.000Z</time>
      </trkpt>
      <trkpt lat="47.26583" lon="-2.44176">
        <ele>80</ele>
        <time>2020-02-16T09:23:33.000Z</time>
      </trkpt>
      <trkpt lat="47.26585" lon="-2.44177">
        <ele>80</ele>
        <time>2020-02-16T09:23:34.000Z</time>
      </trkpt>
      <trkpt lat="47.26592" lon="-2.44181">
        <ele>80</ele>
        <time>2020-02-16T09:23:37.000Z</time>
      </trkpt>
      <trkpt lat="47.26601" lon="-2.44181">
        <ele>80</ele>
        <time>2020-02-16T09:23:42.000Z</time>
      </trkpt>
      <trkpt lat="47.26601" lon="-2.44181">
        <ele>80</ele>
        <time>2020-02-16T09:23:43.000Z</time>
      </trkpt>
      <trkpt lat="47.26604" lon="-2.44186">
        <ele>80</ele>
        <time>2020-02-16T09:23:48.000Z</time>
      </trkpt>
      <trkpt lat="47.26605" lon="-2.44187">
        <ele>80</ele>
        <time>2020-02-16T09:23:50.000Z</time>
      </trkpt>
      <trkpt lat="47.26609" lon="-2.44193">
        <ele>80</ele>
        <time>2020-02-16T09:24:09.000Z</time>
      </trkpt>
      <trkpt lat="47.26611" lon="-2.44195">
        <ele>80</ele>
        <time>2020-02-16T09:24:10.000Z</time>
      </trkpt>
      <trkpt lat="47.26626" lon="-2.44213">
        <ele>80</ele>
        <time>2020-02-16T09:24:17.000Z</time>
      </trkpt>
      <trkpt lat="47.26644" lon="-2.44233">
        <ele>80</ele>
        <time>2020-02-16T09:24:22.000Z</time>
      </trkpt>
      <trkpt lat="47.26647" lon="-2.44238">
        <ele>80</ele>
        <time>2020-02-16T09:24:23.000Z</time>
      </trkpt>
      <trkpt lat="47.26665" lon="-2.44252">
        <ele>80</ele>
        <time>2020-02-16T09:24:27.000Z</time>
      </trkpt>
      <trkpt lat="47.26674" lon="-2.44257">
        <ele>79.599998474121</ele>
        <time>2020-02-16T09:24:29.000Z</time>
      </trkpt>
      <trkpt lat="47.26679" lon="-2.4426">
        <ele>79.199996948242</ele>
        <time>2020-02-16T09:24:30.000Z</time>
      </trkpt>
      <trkpt lat="47.26683" lon="-2.44263">
        <ele>78.599998474121</ele>
        <time>2020-02-16T09:24:31.000Z</time>
      </trkpt>
      <trkpt lat="47.26686" lon="-2.44267">
        <ele>78.199996948242</ele>
        <time>2020-02-16T09:24:32.000Z</time>
      </trkpt>
      <trkpt lat="47.26688" lon="-2.44272">
        <ele>77.599998474121</ele>
        <time>2020-02-16T09:24:33.000Z</time>
      </trkpt>
      <trkpt lat="47.2669" lon="-2.44283">
        <ele>77.599998474121</ele>
        <time>2020-02-16T09:24:36.000Z</time>
      </trkpt>
      <trkpt lat="47.26687" lon="-2.44293">
        <ele>77.599998474121</ele>
        <time>2020-02-16T09:24:40.000Z</time>
      </trkpt>
      <trkpt lat="47.2668" lon="-2.44309">
        <ele>77.599998474121</ele>
        <time>2020-02-16T09:24:46.000Z</time>
      </trkpt>
      <trkpt lat="47.26679" lon="-2.44315">
        <ele>78.199996948242</ele>
        <time>2020-02-16T09:24:48.000Z</time>
      </trkpt>
      <trkpt lat="47.26678" lon="-2.44318">
        <ele>78.599998474121</ele>
        <time>2020-02-16T09:24:49.000Z</time>
      </trkpt>
      <trkpt lat="47.26677" lon="-2.44322">
        <ele>79</ele>
        <time>2020-02-16T09:24:50.000Z</time>
      </trkpt>
      <trkpt lat="47.26676" lon="-2.44325">
        <ele>79.400001525879</ele>
        <time>2020-02-16T09:24:51.000Z</time>
      </trkpt>
      <trkpt lat="47.26674" lon="-2.44329">
        <ele>80</ele>
        <time>2020-02-16T09:24:52.000Z</time>
      </trkpt>
      <trkpt lat="47.2667" lon="-2.44341">
        <ele>80</ele>
        <time>2020-02-16T09:24:55.000Z</time>
      </trkpt>
      <trkpt lat="47.26662" lon="-2.44363">
        <ele>80</ele>
        <time>2020-02-16T09:25:00.000Z</time>
      </trkpt>
      <trkpt lat="47.26654" lon="-2.44392">
        <ele>80</ele>
        <time>2020-02-16T09:25:05.000Z</time>
      </trkpt>
      <trkpt lat="47.26652" lon="-2.44397">
        <ele>80</ele>
        <time>2020-02-16T09:25:06.000Z</time>
      </trkpt>
      <trkpt lat="47.26649" lon="-2.44414">
        <ele>80</ele>
        <time>2020-02-16T09:25:10.000Z</time>
      </trkpt>
      <trkpt lat="47.26658" lon="-2.44418">
        <ele>79.400001525879</ele>
        <time>2020-02-16T09:25:13.000Z</time>
      </trkpt>
      <trkpt lat="47.26662" lon="-2.44419">
        <ele>79</ele>
        <time>2020-02-16T09:25:14.000Z</time>
      </trkpt>
      <trkpt lat="47.26665" lon="-2.4442">
        <ele>78.599998474121</ele>
        <time>2020-02-16T09:25:15.000Z</time>
      </trkpt>
      <trkpt lat="47.26668" lon="-2.44421">
        <ele>78.199996948242</ele>
        <time>2020-02-16T09:25:16.000Z</time>
      </trkpt>
      <trkpt lat="47.26672" lon="-2.44422">
        <ele>77.800003051758</ele>
        <time>2020-02-16T09:25:17.000Z</time>
      </trkpt>
      <trkpt lat="47.26684" lon="-2.44424">
        <ele>77.800003051758</ele>
        <time>2020-02-16T09:25:20.000Z</time>
      </trkpt>
      <trkpt lat="47.26693" lon="-2.44426">
        <ele>77.800003051758</ele>
        <time>2020-02-16T09:25:25.000Z</time>
      </trkpt>
      <trkpt lat="47.26692" lon="-2.44426">
        <ele>77.800003051758</ele>
        <time>2020-02-16T09:25:26.000Z</time>
      </trkpt>
      <trkpt lat="47.26701" lon="-2.4444">
        <ele>77.800003051758</ele>
        <time>2020-02-16T09:26:03.000Z</time>
      </trkpt>
      <trkpt lat="47.26702" lon="-2.44445">
        <ele>77.800003051758</ele>
        <time>2020-02-16T09:26:05.000Z</time>
      </trkpt>
      <trkpt lat="47.26698" lon="-2.44455">
        <ele>77.800003051758</ele>
        <time>2020-02-16T09:26:08.000Z</time>
      </trkpt>
      <trkpt lat="47.26697" lon="-2.44459">
        <ele>77.800003051758</ele>
        <time>2020-02-16T09:26:09.000Z</time>
      </trkpt>
      <trkpt lat="47.26694" lon="-2.44484">
        <ele>77.800003051758</ele>
        <time>2020-02-16T09:26:14.000Z</time>
      </trkpt>
      <trkpt lat="47.26697" lon="-2.44486">
        <ele>77.800003051758</ele>
        <time>2020-02-16T09:26:15.000Z</time>
      </trkpt>
      <trkpt lat="47.26702" lon="-2.44485">
        <ele>77.800003051758</ele>
        <time>2020-02-16T09:26:17.000Z</time>
      </trkpt>
      <trkpt lat="47.2672" lon="-2.44488">
        <ele>77.800003051758</ele>
        <time>2020-02-16T09:26:21.000Z</time>
      </trkpt>
      <trkpt lat="47.26724" lon="-2.44491">
        <ele>77.800003051758</ele>
        <time>2020-02-16T09:26:22.000Z</time>
      </trkpt>
      <trkpt lat="47.26728" lon="-2.44496">
        <ele>77.800003051758</ele>
        <time>2020-02-16T09:26:23.000Z</time>
      </trkpt>
      <trkpt lat="47.26732" lon="-2.44506">
        <ele>77.800003051758</ele>
        <time>2020-02-16T09:26:25.000Z</time>
      </trkpt>
      <trkpt lat="47.2674" lon="-2.4451">
        <ele>77.800003051758</ele>
        <time>2020-02-16T09:26:27.000Z</time>
      </trkpt>
      <trkpt lat="47.26745" lon="-2.44507">
        <ele>77.800003051758</ele>
        <time>2020-02-16T09:26:28.000Z</time>
      </trkpt>
      <trkpt lat="47.26758" lon="-2.4449">
        <ele>77.800003051758</ele>
        <time>2020-02-16T09:26:32.000Z</time>
      </trkpt>
      <trkpt lat="47.2677" lon="-2.44495">
        <ele>77.800003051758</ele>
        <time>2020-02-16T09:26:35.000Z</time>
      </trkpt>
      <trkpt lat="47.26782" lon="-2.44504">
        <ele>77.400001525879</ele>
        <time>2020-02-16T09:26:38.000Z</time>
      </trkpt>
      <trkpt lat="47.26786" lon="-2.44507">
        <ele>76.800003051758</ele>
        <time>2020-02-16T09:26:39.000Z</time>
      </trkpt>
      <trkpt lat="47.26789" lon="-2.44508">
        <ele>76</ele>
        <time>2020-02-16T09:26:40.000Z</time>
      </trkpt>
      <trkpt lat="47.26793" lon="-2.44511">
        <ele>75.599998474121</ele>
        <time>2020-02-16T09:26:41.000Z</time>
      </trkpt>
      <trkpt lat="47.26804" lon="-2.44519">
        <ele>75.599998474121</ele>
        <time>2020-02-16T09:26:44.000Z</time>
      </trkpt>
      <trkpt lat="47.26808" lon="-2.44523">
        <ele>75.599998474121</ele>
        <time>2020-02-16T09:26:45.000Z</time>
      </trkpt>
      <trkpt lat="47.26811" lon="-2.44527">
        <ele>75.599998474121</ele>
        <time>2020-02-16T09:26:46.000Z</time>
      </trkpt>
      <trkpt lat="47.26822" lon="-2.44546">
        <ele>75.599998474121</ele>
        <time>2020-02-16T09:26:50.000Z</time>
      </trkpt>
      <trkpt lat="47.26834" lon="-2.44544">
        <ele>75.599998474121</ele>
        <time>2020-02-16T09:26:53.000Z</time>
      </trkpt>
      <trkpt lat="47.26837" lon="-2.44541">
        <ele>76</ele>
        <time>2020-02-16T09:26:54.000Z</time>
      </trkpt>
      <trkpt lat="47.2684" lon="-2.44538">
        <ele>76.400001525879</ele>
        <time>2020-02-16T09:26:55.000Z</time>
      </trkpt>
      <trkpt lat="47.26842" lon="-2.44533">
        <ele>76.800003051758</ele>
        <time>2020-02-16T09:26:56.000Z</time>
      </trkpt>
      <trkpt lat="47.26844" lon="-2.44528">
        <ele>77.199996948242</ele>
        <time>2020-02-16T09:26:57.000Z</time>
      </trkpt>
      <trkpt lat="47.26846" lon="-2.44524">
        <ele>77.599998474121</ele>
        <time>2020-02-16T09:26:58.000Z</time>
      </trkpt>
      <trkpt lat="47.26848" lon="-2.44522">
        <ele>77.599998474121</ele>
        <time>2020-02-16T09:26:59.000Z</time>
      </trkpt>
      <trkpt lat="47.26854" lon="-2.44522">
        <ele>77.599998474121</ele>
        <time>2020-02-16T09:27:01.000Z</time>
      </trkpt>
      <trkpt lat="47.26861" lon="-2.44519">
        <ele>77.599998474121</ele>
        <time>2020-02-16T09:27:03.000Z</time>
      </trkpt>
      <trkpt lat="47.26863" lon="-2.44516">
        <ele>77.599998474121</ele>
        <time>2020-02-16T09:27:04.000Z</time>
      </trkpt>
      <trkpt lat="47.26865" lon="-2.44509">
        <ele>77.599998474121</ele>
        <time>2020-02-16T09:27:06.000Z</time>
      </trkpt>
      <trkpt lat="47.26868" lon="-2.44503">
        <ele>77.599998474121</ele>
        <time>2020-02-16T09:27:08.000Z</time>
      </trkpt>
      <trkpt lat="47.26869" lon="-2.445">
        <ele>77.199996948242</ele>
        <time>2020-02-16T09:27:09.000Z</time>
      </trkpt>
      <trkpt lat="47.26871" lon="-2.44498">
        <ele>76.800003051758</ele>
        <time>2020-02-16T09:27:10.000Z</time>
      </trkpt>
      <trkpt lat="47.26872" lon="-2.44496">
        <ele>76.400001525879</ele>
        <time>2020-02-16T09:27:11.000Z</time>
      </trkpt>
      <trkpt lat="47.26873" lon="-2.44495">
        <ele>76</ele>
        <time>2020-02-16T09:27:12.000Z</time>
      </trkpt>
      <trkpt lat="47.26874" lon="-2.44494">
        <ele>75.599998474121</ele>
        <time>2020-02-16T09:27:13.000Z</time>
      </trkpt>
      <trkpt lat="47.26873" lon="-2.44493">
        <ele>75.599998474121</ele>
        <time>2020-02-16T09:27:15.000Z</time>
      </trkpt>
      <trkpt lat="47.26875" lon="-2.44485">
        <ele>75.599998474121</ele>
        <time>2020-02-16T09:27:38.000Z</time>
      </trkpt>
      <trkpt lat="47.2688" lon="-2.4446">
        <ele>75.599998474121</ele>
        <time>2020-02-16T09:27:44.000Z</time>
      </trkpt>
      <trkpt lat="47.26879" lon="-2.44435">
        <ele>75.599998474121</ele>
        <time>2020-02-16T09:27:50.000Z</time>
      </trkpt>
      <trkpt lat="47.26874" lon="-2.44405">
        <ele>75.599998474121</ele>
        <time>2020-02-16T09:27:55.000Z</time>
      </trkpt>
      <trkpt lat="47.26865" lon="-2.44352">
        <ele>75.599998474121</ele>
        <time>2020-02-16T09:28:04.000Z</time>
      </trkpt>
      <trkpt lat="47.26859" lon="-2.4433">
        <ele>76</ele>
        <time>2020-02-16T09:28:08.000Z</time>
      </trkpt>
      <trkpt lat="47.26858" lon="-2.44324">
        <ele>76.400001525879</ele>
        <time>2020-02-16T09:28:09.000Z</time>
      </trkpt>
      <trkpt lat="47.26856" lon="-2.44319">
        <ele>76.800003051758</ele>
        <time>2020-02-16T09:28:10.000Z</time>
      </trkpt>
      <trkpt lat="47.26854" lon="-2.44314">
        <ele>77.199996948242</ele>
        <time>2020-02-16T09:28:11.000Z</time>
      </trkpt>
      <trkpt lat="47.26853" lon="-2.44309">
        <ele>77.599998474121</ele>
        <time>2020-02-16T09:28:12.000Z</time>
      </trkpt>
      <trkpt lat="47.2685" lon="-2.44305">
        <ele>77.599998474121</ele>
        <time>2020-02-16T09:28:13.000Z</time>
      </trkpt>
      <trkpt lat="47.26836" lon="-2.44279">
        <ele>76.800003051758</ele>
        <time>2020-02-16T09:28:19.000Z</time>
      </trkpt>
      <trkpt lat="47.26834" lon="-2.44274">
        <ele>76.199996948242</ele>
        <time>2020-02-16T09:28:20.000Z</time>
      </trkpt>
      <trkpt lat="47.26833" lon="-2.4427">
        <ele>75.800003051758</ele>
        <time>2020-02-16T09:28:21.000Z</time>
      </trkpt>
      <trkpt lat="47.26832" lon="-2.44265">
        <ele>75.400001525879</ele>
        <time>2020-02-16T09:28:22.000Z</time>
      </trkpt>
      <trkpt lat="47.2683" lon="-2.44256">
        <ele>75.400001525879</ele>
        <time>2020-02-16T09:28:24.000Z</time>
      </trkpt>
      <trkpt lat="47.26828" lon="-2.44249">
        <ele>75.800003051758</ele>
        <time>2020-02-16T09:28:26.000Z</time>
      </trkpt>
      <trkpt lat="47.26828" lon="-2.44246">
        <ele>76.199996948242</ele>
        <time>2020-02-16T09:28:27.000Z</time>
      </trkpt>
      <trkpt lat="47.26827" lon="-2.44244">
        <ele>76.599998474121</ele>
        <time>2020-02-16T09:28:28.000Z</time>
      </trkpt>
      <trkpt lat="47.26826" lon="-2.44242">
        <ele>77</ele>
        <time>2020-02-16T09:28:29.000Z</time>
      </trkpt>
      <trkpt lat="47.26825" lon="-2.44239">
        <ele>77.400001525879</ele>
        <time>2020-02-16T09:28:30.000Z</time>
      </trkpt>
      <trkpt lat="47.26825" lon="-2.44236">
        <ele>77.800003051758</ele>
        <time>2020-02-16T09:28:31.000Z</time>
      </trkpt>
      <trkpt lat="47.26825" lon="-2.44231">
        <ele>78.199996948242</ele>
        <time>2020-02-16T09:28:32.000Z</time>
      </trkpt>
      <trkpt lat="47.26823" lon="-2.44226">
        <ele>78.599998474121</ele>
        <time>2020-02-16T09:28:33.000Z</time>
      </trkpt>
      <trkpt lat="47.26822" lon="-2.44223">
        <ele>79</ele>
        <time>2020-02-16T09:28:34.000Z</time>
      </trkpt>
      <trkpt lat="47.26821" lon="-2.44219">
        <ele>79.400001525879</ele>
        <time>2020-02-16T09:28:35.000Z</time>
      </trkpt>
      <trkpt lat="47.26813" lon="-2.44208">
        <ele>79.400001525879</ele>
        <time>2020-02-16T09:28:39.000Z</time>
      </trkpt>
      <trkpt lat="47.26802" lon="-2.442">
        <ele>79.400001525879</ele>
        <time>2020-02-16T09:28:45.000Z</time>
      </trkpt>
      <trkpt lat="47.26802" lon="-2.44199">
        <ele>79.400001525879</ele>
        <time>2020-02-16T09:28:47.000Z</time>
      </trkpt>
      <trkpt lat="47.268" lon="-2.44198">
        <ele>79.400001525879</ele>
        <time>2020-02-16T09:28:49.000Z</time>
      </trkpt>
      <trkpt lat="47.26799" lon="-2.44197">
        <ele>79.400001525879</ele>
        <time>2020-02-16T09:28:50.000Z</time>
      </trkpt>
      <trkpt lat="47.26795" lon="-2.44196">
        <ele>79.400001525879</ele>
        <time>2020-02-16T09:28:52.000Z</time>
      </trkpt>
      <trkpt lat="47.2679" lon="-2.44196">
        <ele>79.400001525879</ele>
        <time>2020-02-16T09:28:55.000Z</time>
      </trkpt>
      <trkpt lat="47.26791" lon="-2.44193">
        <ele>79.400001525879</ele>
        <time>2020-02-16T09:28:58.000Z</time>
      </trkpt>
      <trkpt lat="47.26792" lon="-2.44193">
        <ele>79.400001525879</ele>
        <time>2020-02-16T09:28:59.000Z</time>
      </trkpt>
      <trkpt lat="47.26794" lon="-2.44193">
        <ele>79.400001525879</ele>
        <time>2020-02-16T09:29:01.000Z</time>
      </trkpt>
      <trkpt lat="47.26795" lon="-2.44189">
        <ele>79.400001525879</ele>
        <time>2020-02-16T09:29:03.000Z</time>
      </trkpt>
      <trkpt lat="47.26794" lon="-2.44173">
        <ele>79.400001525879</ele>
        <time>2020-02-16T09:29:08.000Z</time>
      </trkpt>
      <trkpt lat="47.26793" lon="-2.44169">
        <ele>79.400001525879</ele>
        <time>2020-02-16T09:29:09.000Z</time>
      </trkpt>
      <trkpt lat="47.26792" lon="-2.44159">
        <ele>79.400001525879</ele>
        <time>2020-02-16T09:29:14.000Z</time>
      </trkpt>
      <trkpt lat="47.26788" lon="-2.4415">
        <ele>79.400001525879</ele>
        <time>2020-02-16T09:29:18.000Z</time>
      </trkpt>
      <trkpt lat="47.2679" lon="-2.44143">
        <ele>79.400001525879</ele>
        <time>2020-02-16T09:29:20.000Z</time>
      </trkpt>
      <trkpt lat="47.26793" lon="-2.44134">
        <ele>79.400001525879</ele>
        <time>2020-02-16T09:29:23.000Z</time>
      </trkpt>
      <trkpt lat="47.26796" lon="-2.44115">
        <ele>79.400001525879</ele>
        <time>2020-02-16T09:29:30.000Z</time>
      </trkpt>
      <trkpt lat="47.268" lon="-2.44106">
        <ele>79.400001525879</ele>
        <time>2020-02-16T09:29:35.000Z</time>
      </trkpt>
      <trkpt lat="47.2681" lon="-2.44095">
        <ele>79</ele>
        <time>2020-02-16T09:29:40.000Z</time>
      </trkpt>
      <trkpt lat="47.26811" lon="-2.44094">
        <ele>78.599998474121</ele>
        <time>2020-02-16T09:29:41.000Z</time>
      </trkpt>
      <trkpt lat="47.26813" lon="-2.44094">
        <ele>78.199996948242</ele>
        <time>2020-02-16T09:29:42.000Z</time>
      </trkpt>
      <trkpt lat="47.26814" lon="-2.44094">
        <ele>77.800003051758</ele>
        <time>2020-02-16T09:29:43.000Z</time>
      </trkpt>
      <trkpt lat="47.26815" lon="-2.44094">
        <ele>77.400001525879</ele>
        <time>2020-02-16T09:29:44.000Z</time>
      </trkpt>
      <trkpt lat="47.26818" lon="-2.4409">
        <ele>77.400001525879</ele>
        <time>2020-02-16T09:29:46.000Z</time>
      </trkpt>
      <trkpt lat="47.26817" lon="-2.44084">
        <ele>77.400001525879</ele>
        <time>2020-02-16T09:29:48.000Z</time>
      </trkpt>
      <trkpt lat="47.26814" lon="-2.44082">
        <ele>77.400001525879</ele>
        <time>2020-02-16T09:29:51.000Z</time>
      </trkpt>
      <trkpt lat="47.26811" lon="-2.44074">
        <ele>77.400001525879</ele>
        <time>2020-02-16T09:29:55.000Z</time>
      </trkpt>
      <trkpt lat="47.2681" lon="-2.44073">
        <ele>77.400001525879</ele>
        <time>2020-02-16T09:29:56.000Z</time>
      </trkpt>
      <trkpt lat="47.26807" lon="-2.44066">
        <ele>77.400001525879</ele>
        <time>2020-02-16T09:30:01.000Z</time>
      </trkpt>
      <trkpt lat="47.26806" lon="-2.44064">
        <ele>77.400001525879</ele>
        <time>2020-02-16T09:30:03.000Z</time>
      </trkpt>
      <trkpt lat="47.26804" lon="-2.44062">
        <ele>77.400001525879</ele>
        <time>2020-02-16T09:30:06.000Z</time>
      </trkpt>
      <trkpt lat="47.26803" lon="-2.44072">
        <ele>77.400001525879</ele>
        <time>2020-02-16T09:30:10.000Z</time>
      </trkpt>
      <trkpt lat="47.26804" lon="-2.44075">
        <ele>77.400001525879</ele>
        <time>2020-02-16T09:30:11.000Z</time>
      </trkpt>
      <trkpt lat="47.26807" lon="-2.44091">
        <ele>77.400001525879</ele>
        <time>2020-02-16T09:30:15.000Z</time>
      </trkpt>
      <trkpt lat="47.26802" lon="-2.44104">
        <ele>77.400001525879</ele>
        <time>2020-02-16T09:30:19.000Z</time>
      </trkpt>
      <trkpt lat="47.26793" lon="-2.44114">
        <ele>77.400001525879</ele>
        <time>2020-02-16T09:30:23.000Z</time>
      </trkpt>
      <trkpt lat="47.26791" lon="-2.44122">
        <ele>78</ele>
        <time>2020-02-16T09:30:25.000Z</time>
      </trkpt>
      <trkpt lat="47.2679" lon="-2.44127">
        <ele>78.599998474121</ele>
        <time>2020-02-16T09:30:26.000Z</time>
      </trkpt>
      <trkpt lat="47.26789" lon="-2.44131">
        <ele>79.400001525879</ele>
        <time>2020-02-16T09:30:27.000Z</time>
      </trkpt>
      <trkpt lat="47.26788" lon="-2.44135">
        <ele>80.199996948242</ele>
        <time>2020-02-16T09:30:28.000Z</time>
      </trkpt>
      <trkpt lat="47.26787" lon="-2.44139">
        <ele>80.800003051758</ele>
        <time>2020-02-16T09:30:29.000Z</time>
      </trkpt>
      <trkpt lat="47.26786" lon="-2.44143">
        <ele>81.599998474121</ele>
        <time>2020-02-16T09:30:30.000Z</time>
      </trkpt>
      <trkpt lat="47.26785" lon="-2.44148">
        <ele>82.400001525879</ele>
        <time>2020-02-16T09:30:31.000Z</time>
      </trkpt>
      <trkpt lat="47.26784" lon="-2.44153">
        <ele>82.400001525879</ele>
        <time>2020-02-16T09:30:32.000Z</time>
      </trkpt>
      <trkpt lat="47.26779" lon="-2.44171">
        <ele>82</ele>
        <time>2020-02-16T09:30:36.000Z</time>
      </trkpt>
      <trkpt lat="47.26778" lon="-2.44175">
        <ele>81.400001525879</ele>
        <time>2020-02-16T09:30:37.000Z</time>
      </trkpt>
      <trkpt lat="47.26777" lon="-2.44179">
        <ele>81</ele>
        <time>2020-02-16T09:30:38.000Z</time>
      </trkpt>
      <trkpt lat="47.26776" lon="-2.44183">
        <ele>80.400001525879</ele>
        <time>2020-02-16T09:30:39.000Z</time>
      </trkpt>
      <trkpt lat="47.26775" lon="-2.44188">
        <ele>80</ele>
        <time>2020-02-16T09:30:40.000Z</time>
      </trkpt>
      <trkpt lat="47.26776" lon="-2.442">
        <ele>80</ele>
        <time>2020-02-16T09:30:43.000Z</time>
      </trkpt>
      <trkpt lat="47.26779" lon="-2.44201">
        <ele>80</ele>
        <time>2020-02-16T09:30:44.000Z</time>
      </trkpt>
      <trkpt lat="47.26796" lon="-2.44197">
        <ele>80</ele>
        <time>2020-02-16T09:30:49.000Z</time>
      </trkpt>
      <trkpt lat="47.26834" lon="-2.4418">
        <ele>79.599998474121</ele>
        <time>2020-02-16T09:30:57.000Z</time>
      </trkpt>
      <trkpt lat="47.26839" lon="-2.44178">
        <ele>79.199996948242</ele>
        <time>2020-02-16T09:30:58.000Z</time>
      </trkpt>
      <trkpt lat="47.26845" lon="-2.44175">
        <ele>78.599998474121</ele>
        <time>2020-02-16T09:30:59.000Z</time>
      </trkpt>
      <trkpt lat="47.26852" lon="-2.44173">
        <ele>78.199996948242</ele>
        <time>2020-02-16T09:31:00.000Z</time>
      </trkpt>
      <trkpt lat="47.26858" lon="-2.4417">
        <ele>77.800003051758</ele>
        <time>2020-02-16T09:31:01.000Z</time>
      </trkpt>
      <trkpt lat="47.26865" lon="-2.44168">
        <ele>77.400001525879</ele>
        <time>2020-02-16T09:31:02.000Z</time>
      </trkpt>
      <trkpt lat="47.26873" lon="-2.44165">
        <ele>76.800003051758</ele>
        <time>2020-02-16T09:31:03.000Z</time>
      </trkpt>
      <trkpt lat="47.2688" lon="-2.44162">
        <ele>76.400001525879</ele>
        <time>2020-02-16T09:31:04.000Z</time>
      </trkpt>
      <trkpt lat="47.26888" lon="-2.44158">
        <ele>76</ele>
        <time>2020-02-16T09:31:05.000Z</time>
      </trkpt>
      <trkpt lat="47.26894" lon="-2.44156">
        <ele>75.599998474121</ele>
        <time>2020-02-16T09:31:06.000Z</time>
      </trkpt>
      <trkpt lat="47.269" lon="-2.44155">
        <ele>75.599998474121</ele>
        <time>2020-02-16T09:31:07.000Z</time>
      </trkpt>
      <trkpt lat="47.2691" lon="-2.44155">
        <ele>75.599998474121</ele>
        <time>2020-02-16T09:31:10.000Z</time>
      </trkpt>
      <trkpt lat="47.26916" lon="-2.4415">
        <ele>75.599998474121</ele>
        <time>2020-02-16T09:31:14.000Z</time>
      </trkpt>
      <trkpt lat="47.26914" lon="-2.44148">
        <ele>75.599998474121</ele>
        <time>2020-02-16T09:31:15.000Z</time>
      </trkpt>
      <trkpt lat="47.26911" lon="-2.44156">
        <ele>75.599998474121</ele>
        <time>2020-02-16T09:31:18.000Z</time>
      </trkpt>
      <trkpt lat="47.26914" lon="-2.44166">
        <ele>75.599998474121</ele>
        <time>2020-02-16T09:31:20.000Z</time>
      </trkpt>
      <trkpt lat="47.26919" lon="-2.44181">
        <ele>75.599998474121</ele>
        <time>2020-02-16T09:31:23.000Z</time>
      </trkpt>
      <trkpt lat="47.26931" lon="-2.44197">
        <ele>75.599998474121</ele>
        <time>2020-02-16T09:31:27.000Z</time>
      </trkpt>
      <trkpt lat="47.26933" lon="-2.44203">
        <ele>76</ele>
        <time>2020-02-16T09:31:28.000Z</time>
      </trkpt>
      <trkpt lat="47.26934" lon="-2.44209">
        <ele>76.400001525879</ele>
        <time>2020-02-16T09:31:29.000Z</time>
      </trkpt>
      <trkpt lat="47.26935" lon="-2.44215">
        <ele>76.800003051758</ele>
        <time>2020-02-16T09:31:30.000Z</time>
      </trkpt>
      <trkpt lat="47.26935" lon="-2.44222">
        <ele>77.199996948242</ele>
        <time>2020-02-16T09:31:31.000Z</time>
      </trkpt>
      <trkpt lat="47.26936" lon="-2.44229">
        <ele>77.599998474121</ele>
        <time>2020-02-16T09:31:32.000Z</time>
      </trkpt>
      <trkpt lat="47.26937" lon="-2.44235">
        <ele>77.599998474121</ele>
        <time>2020-02-16T09:31:33.000Z</time>
      </trkpt>
      <trkpt lat="47.26944" lon="-2.44278">
        <ele>77.599998474121</ele>
        <time>2020-02-16T09:31:40.000Z</time>
      </trkpt>
      <trkpt lat="47.26946" lon="-2.44291">
        <ele>77</ele>
        <time>2020-02-16T09:31:42.000Z</time>
      </trkpt>
      <trkpt lat="47.26947" lon="-2.44296">
        <ele>76.400001525879</ele>
        <time>2020-02-16T09:31:43.000Z</time>
      </trkpt>
      <trkpt lat="47.26948" lon="-2.44302">
        <ele>76</ele>
        <time>2020-02-16T09:31:44.000Z</time>
      </trkpt>
      <trkpt lat="47.2695" lon="-2.44307">
        <ele>75.400001525879</ele>
        <time>2020-02-16T09:31:45.000Z</time>
      </trkpt>
      <trkpt lat="47.26951" lon="-2.44313">
        <ele>75</ele>
        <time>2020-02-16T09:31:46.000Z</time>
      </trkpt>
      <trkpt lat="47.26953" lon="-2.44318">
        <ele>75</ele>
        <time>2020-02-16T09:31:47.000Z</time>
      </trkpt>
      <trkpt lat="47.26961" lon="-2.44345">
        <ele>75</ele>
        <time>2020-02-16T09:31:53.000Z</time>
      </trkpt>
      <trkpt lat="47.26971" lon="-2.44377">
        <ele>75</ele>
        <time>2020-02-16T09:32:01.000Z</time>
      </trkpt>
      <trkpt lat="47.26976" lon="-2.44407">
        <ele>75</ele>
        <time>2020-02-16T09:32:07.000Z</time>
      </trkpt>
      <trkpt lat="47.26984" lon="-2.44419">
        <ele>75</ele>
        <time>2020-02-16T09:32:11.000Z</time>
      </trkpt>
      <trkpt lat="47.26991" lon="-2.44439">
        <ele>75</ele>
        <time>2020-02-16T09:32:15.000Z</time>
      </trkpt>
      <trkpt lat="47.27" lon="-2.44478">
        <ele>75</ele>
        <time>2020-02-16T09:32:22.000Z</time>
      </trkpt>
      <trkpt lat="47.27002" lon="-2.4449">
        <ele>75</ele>
        <time>2020-02-16T09:32:24.000Z</time>
      </trkpt>
      <trkpt lat="47.27007" lon="-2.44512">
        <ele>75</ele>
        <time>2020-02-16T09:32:28.000Z</time>
      </trkpt>
      <trkpt lat="47.27013" lon="-2.44543">
        <ele>75</ele>
        <time>2020-02-16T09:32:33.000Z</time>
      </trkpt>
      <trkpt lat="47.27024" lon="-2.44601">
        <ele>75</ele>
        <time>2020-02-16T09:32:42.000Z</time>
      </trkpt>
      <trkpt lat="47.2703" lon="-2.44638">
        <ele>75.400001525879</ele>
        <time>2020-02-16T09:32:48.000Z</time>
      </trkpt>
      <trkpt lat="47.27031" lon="-2.44645">
        <ele>75.800003051758</ele>
        <time>2020-02-16T09:32:49.000Z</time>
      </trkpt>
      <trkpt lat="47.27033" lon="-2.44652">
        <ele>76.199996948242</ele>
        <time>2020-02-16T09:32:50.000Z</time>
      </trkpt>
      <trkpt lat="47.27034" lon="-2.44658">
        <ele>77</ele>
        <time>2020-02-16T09:32:51.000Z</time>
      </trkpt>
      <trkpt lat="47.27039" lon="-2.44685">
        <ele>77</ele>
        <time>2020-02-16T09:32:55.000Z</time>
      </trkpt>
      <trkpt lat="47.27041" lon="-2.44699">
        <ele>77</ele>
        <time>2020-02-16T09:32:57.000Z</time>
      </trkpt>
      <trkpt lat="47.27046" lon="-2.44738">
        <ele>77</ele>
        <time>2020-02-16T09:33:03.000Z</time>
      </trkpt>
      <trkpt lat="47.27052" lon="-2.44777">
        <ele>77</ele>
        <time>2020-02-16T09:33:09.000Z</time>
      </trkpt>
      <trkpt lat="47.27053" lon="-2.4479">
        <ele>77</ele>
        <time>2020-02-16T09:33:11.000Z</time>
      </trkpt>
      <trkpt lat="47.27054" lon="-2.44829">
        <ele>77</ele>
        <time>2020-02-16T09:33:16.000Z</time>
      </trkpt>
      <trkpt lat="47.27057" lon="-2.44876">
        <ele>77</ele>
        <time>2020-02-16T09:33:22.000Z</time>
      </trkpt>
      <trkpt lat="47.27057" lon="-2.44884">
        <ele>77</ele>
        <time>2020-02-16T09:33:23.000Z</time>
      </trkpt>
      <trkpt lat="47.27059" lon="-2.44942">
        <ele>77</ele>
        <time>2020-02-16T09:33:31.000Z</time>
      </trkpt>
      <trkpt lat="47.27061" lon="-2.44988">
        <ele>77</ele>
        <time>2020-02-16T09:33:38.000Z</time>
      </trkpt>
      <trkpt lat="47.2707" lon="-2.44999">
        <ele>77</ele>
        <time>2020-02-16T09:33:42.000Z</time>
      </trkpt>
      <trkpt lat="47.27079" lon="-2.44998">
        <ele>76.599998474121</ele>
        <time>2020-02-16T09:33:44.000Z</time>
      </trkpt>
      <trkpt lat="47.27084" lon="-2.44999">
        <ele>76.199996948242</ele>
        <time>2020-02-16T09:33:45.000Z</time>
      </trkpt>
      <trkpt lat="47.27089" lon="-2.44999">
        <ele>75.800003051758</ele>
        <time>2020-02-16T09:33:46.000Z</time>
      </trkpt>
      <trkpt lat="47.27095" lon="-2.45001">
        <ele>75.400001525879</ele>
        <time>2020-02-16T09:33:47.000Z</time>
      </trkpt>
      <trkpt lat="47.27101" lon="-2.45002">
        <ele>75</ele>
        <time>2020-02-16T09:33:48.000Z</time>
      </trkpt>
      <trkpt lat="47.27107" lon="-2.45002">
        <ele>75</ele>
        <time>2020-02-16T09:33:49.000Z</time>
      </trkpt>
      <trkpt lat="47.2712" lon="-2.45002">
        <ele>75</ele>
        <time>2020-02-16T09:33:51.000Z</time>
      </trkpt>
      <trkpt lat="47.27172" lon="-2.44995">
        <ele>75</ele>
        <time>2020-02-16T09:33:59.000Z</time>
      </trkpt>
      <trkpt lat="47.27208" lon="-2.44988">
        <ele>75</ele>
        <time>2020-02-16T09:34:05.000Z</time>
      </trkpt>
      <trkpt lat="47.27229" lon="-2.44983">
        <ele>74.599998474121</ele>
        <time>2020-02-16T09:34:09.000Z</time>
      </trkpt>
      <trkpt lat="47.27235" lon="-2.44981">
        <ele>74</ele>
        <time>2020-02-16T09:34:10.000Z</time>
      </trkpt>
      <trkpt lat="47.2724" lon="-2.44979">
        <ele>73.599998474121</ele>
        <time>2020-02-16T09:34:11.000Z</time>
      </trkpt>
      <trkpt lat="47.27245" lon="-2.44977">
        <ele>73.199996948242</ele>
        <time>2020-02-16T09:34:12.000Z</time>
      </trkpt>
      <trkpt lat="47.2725" lon="-2.44975">
        <ele>72.599998474121</ele>
        <time>2020-02-16T09:34:13.000Z</time>
      </trkpt>
      <trkpt lat="47.27277" lon="-2.44963">
        <ele>72.599998474121</ele>
        <time>2020-02-16T09:34:18.000Z</time>
      </trkpt>
      <trkpt lat="47.27283" lon="-2.44962">
        <ele>72.599998474121</ele>
        <time>2020-02-16T09:34:19.000Z</time>
      </trkpt>
      <trkpt lat="47.27305" lon="-2.44962">
        <ele>72.599998474121</ele>
        <time>2020-02-16T09:34:23.000Z</time>
      </trkpt>
      <trkpt lat="47.27338" lon="-2.44952">
        <ele>72.599998474121</ele>
        <time>2020-02-16T09:34:29.000Z</time>
      </trkpt>
      <trkpt lat="47.2737" lon="-2.44935">
        <ele>72.599998474121</ele>
        <time>2020-02-16T09:34:35.000Z</time>
      </trkpt>
      <trkpt lat="47.27386" lon="-2.44927">
        <ele>72.599998474121</ele>
        <time>2020-02-16T09:34:38.000Z</time>
      </trkpt>
      <trkpt lat="47.27403" lon="-2.44917">
        <ele>72.199996948242</ele>
        <time>2020-02-16T09:34:41.000Z</time>
      </trkpt>
      <trkpt lat="47.27409" lon="-2.44914">
        <ele>71.800003051758</ele>
        <time>2020-02-16T09:34:42.000Z</time>
      </trkpt>
      <trkpt lat="47.27415" lon="-2.44909">
        <ele>71.400001525879</ele>
        <time>2020-02-16T09:34:43.000Z</time>
      </trkpt>
      <trkpt lat="47.27421" lon="-2.44905">
        <ele>71</ele>
        <time>2020-02-16T09:34:44.000Z</time>
      </trkpt>
      <trkpt lat="47.27426" lon="-2.449">
        <ele>70.599998474121</ele>
        <time>2020-02-16T09:34:45.000Z</time>
      </trkpt>
      <trkpt lat="47.27431" lon="-2.44895">
        <ele>70.599998474121</ele>
        <time>2020-02-16T09:34:46.000Z</time>
      </trkpt>
      <trkpt lat="47.2745" lon="-2.4487">
        <ele>70.599998474121</ele>
        <time>2020-02-16T09:34:50.000Z</time>
      </trkpt>
      <trkpt lat="47.27459" lon="-2.44857">
        <ele>70.599998474121</ele>
        <time>2020-02-16T09:34:52.000Z</time>
      </trkpt>
      <trkpt lat="47.27463" lon="-2.44853">
        <ele>70.599998474121</ele>
        <time>2020-02-16T09:34:53.000Z</time>
      </trkpt>
      <trkpt lat="47.27474" lon="-2.4485">
        <ele>70.599998474121</ele>
        <time>2020-02-16T09:34:55.000Z</time>
      </trkpt>
      <trkpt lat="47.27484" lon="-2.44852">
        <ele>70.599998474121</ele>
        <time>2020-02-16T09:34:57.000Z</time>
      </trkpt>
      <trkpt lat="47.27498" lon="-2.44853">
        <ele>70.599998474121</ele>
        <time>2020-02-16T09:35:00.000Z</time>
      </trkpt>
      <trkpt lat="47.27508" lon="-2.44864">
        <ele>70.599998474121</ele>
        <time>2020-02-16T09:35:03.000Z</time>
      </trkpt>
      <trkpt lat="47.27511" lon="-2.44888">
        <ele>70.599998474121</ele>
        <time>2020-02-16T09:35:07.000Z</time>
      </trkpt>
      <trkpt lat="47.27515" lon="-2.44908">
        <ele>70.599998474121</ele>
        <time>2020-02-16T09:35:10.000Z</time>
      </trkpt>
      <trkpt lat="47.2752" lon="-2.44929">
        <ele>70.599998474121</ele>
        <time>2020-02-16T09:35:13.000Z</time>
      </trkpt>
      <trkpt lat="47.27524" lon="-2.44943">
        <ele>70.599998474121</ele>
        <time>2020-02-16T09:35:15.000Z</time>
      </trkpt>
      <trkpt lat="47.27529" lon="-2.44963">
        <ele>70.599998474121</ele>
        <time>2020-02-16T09:35:18.000Z</time>
      </trkpt>
      <trkpt lat="47.27541" lon="-2.45004">
        <ele>70.599998474121</ele>
        <time>2020-02-16T09:35:24.000Z</time>
      </trkpt>
      <trkpt lat="47.27559" lon="-2.45051">
        <ele>70.599998474121</ele>
        <time>2020-02-16T09:35:31.000Z</time>
      </trkpt>
      <trkpt lat="47.27579" lon="-2.45089">
        <ele>70.599998474121</ele>
        <time>2020-02-16T09:35:37.000Z</time>
      </trkpt>
      <trkpt lat="47.27585" lon="-2.45101">
        <ele>70.599998474121</ele>
        <time>2020-02-16T09:35:39.000Z</time>
      </trkpt>
      <trkpt lat="47.27594" lon="-2.45128">
        <ele>70.599998474121</ele>
        <time>2020-02-16T09:35:43.000Z</time>
      </trkpt>
      <trkpt lat="47.27596" lon="-2.45136">
        <ele>70.599998474121</ele>
        <time>2020-02-16T09:35:44.000Z</time>
      </trkpt>
      <trkpt lat="47.276" lon="-2.45166">
        <ele>70.599998474121</ele>
        <time>2020-02-16T09:35:48.000Z</time>
      </trkpt>
      <trkpt lat="47.27606" lon="-2.45214">
        <ele>70.599998474121</ele>
        <time>2020-02-16T09:35:55.000Z</time>
      </trkpt>
      <trkpt lat="47.27618" lon="-2.4523">
        <ele>70.599998474121</ele>
        <time>2020-02-16T09:35:59.000Z</time>
      </trkpt>
      <trkpt lat="47.27639" lon="-2.45258">
        <ele>70.599998474121</ele>
        <time>2020-02-16T09:36:05.000Z</time>
      </trkpt>
      <trkpt lat="47.27646" lon="-2.45268">
        <ele>70.599998474121</ele>
        <time>2020-02-16T09:36:07.000Z</time>
      </trkpt>
      <trkpt lat="47.27659" lon="-2.45273">
        <ele>70.599998474121</ele>
        <time>2020-02-16T09:36:10.000Z</time>
      </trkpt>
      <trkpt lat="47.27669" lon="-2.45275">
        <ele>70.599998474121</ele>
        <time>2020-02-16T09:36:12.000Z</time>
      </trkpt>
      <trkpt lat="47.27695" lon="-2.4528">
        <ele>70.599998474121</ele>
        <time>2020-02-16T09:36:17.000Z</time>
      </trkpt>
      <trkpt lat="47.27722" lon="-2.45294">
        <ele>70.599998474121</ele>
        <time>2020-02-16T09:36:23.000Z</time>
      </trkpt>
      <trkpt lat="47.27729" lon="-2.453">
        <ele>70.599998474121</ele>
        <time>2020-02-16T09:36:25.000Z</time>
      </trkpt>
      <trkpt lat="47.27739" lon="-2.45313">
        <ele>70.599998474121</ele>
        <time>2020-02-16T09:36:28.000Z</time>
      </trkpt>
      <trkpt lat="47.27742" lon="-2.45318">
        <ele>70.599998474121</ele>
        <time>2020-02-16T09:36:29.000Z</time>
      </trkpt>
      <trkpt lat="47.27748" lon="-2.45342">
        <ele>70.599998474121</ele>
        <time>2020-02-16T09:36:34.000Z</time>
      </trkpt>
      <trkpt lat="47.27747" lon="-2.45345">
        <ele>70.599998474121</ele>
        <time>2020-02-16T09:36:35.000Z</time>
      </trkpt>
      <trkpt lat="47.2774" lon="-2.45358">
        <ele>70.599998474121</ele>
        <time>2020-02-16T09:36:38.000Z</time>
      </trkpt>
      <trkpt lat="47.27727" lon="-2.45371">
        <ele>70.599998474121</ele>
        <time>2020-02-16T09:36:42.000Z</time>
      </trkpt>
      <trkpt lat="47.27719" lon="-2.45384">
        <ele>71.199996948242</ele>
        <time>2020-02-16T09:36:45.000Z</time>
      </trkpt>
      <trkpt lat="47.27717" lon="-2.45388">
        <ele>71.599998474121</ele>
        <time>2020-02-16T09:36:46.000Z</time>
      </trkpt>
      <trkpt lat="47.27715" lon="-2.45392">
        <ele>72</ele>
        <time>2020-02-16T09:36:47.000Z</time>
      </trkpt>
      <trkpt lat="47.27713" lon="-2.45397">
        <ele>72.599998474121</ele>
        <time>2020-02-16T09:36:48.000Z</time>
      </trkpt>
      <trkpt lat="47.2771" lon="-2.45401">
        <ele>73</ele>
        <time>2020-02-16T09:36:49.000Z</time>
      </trkpt>
      <trkpt lat="47.27699" lon="-2.45419">
        <ele>73</ele>
        <time>2020-02-16T09:36:53.000Z</time>
      </trkpt>
      <trkpt lat="47.27695" lon="-2.45422">
        <ele>73</ele>
        <time>2020-02-16T09:36:54.000Z</time>
      </trkpt>
      <trkpt lat="47.27691" lon="-2.45425">
        <ele>73</ele>
        <time>2020-02-16T09:36:55.000Z</time>
      </trkpt>
      <trkpt lat="47.27683" lon="-2.4543">
        <ele>73</ele>
        <time>2020-02-16T09:36:57.000Z</time>
      </trkpt>
      <trkpt lat="47.27675" lon="-2.45434">
        <ele>73</ele>
        <time>2020-02-16T09:36:59.000Z</time>
      </trkpt>
      <trkpt lat="47.27647" lon="-2.45444">
        <ele>73</ele>
        <time>2020-02-16T09:37:06.000Z</time>
      </trkpt>
      <trkpt lat="47.27639" lon="-2.45447">
        <ele>73.400001525879</ele>
        <time>2020-02-16T09:37:08.000Z</time>
      </trkpt>
      <trkpt lat="47.27636" lon="-2.45448">
        <ele>73.800003051758</ele>
        <time>2020-02-16T09:37:09.000Z</time>
      </trkpt>
      <trkpt lat="47.27632" lon="-2.4545">
        <ele>74.199996948242</ele>
        <time>2020-02-16T09:37:10.000Z</time>
      </trkpt>
      <trkpt lat="47.2763" lon="-2.45451">
        <ele>74.599998474121</ele>
        <time>2020-02-16T09:37:11.000Z</time>
      </trkpt>
      <trkpt lat="47.27628" lon="-2.45455">
        <ele>75</ele>
        <time>2020-02-16T09:37:12.000Z</time>
      </trkpt>
      <trkpt lat="47.27629" lon="-2.45472">
        <ele>75</ele>
        <time>2020-02-16T09:37:15.000Z</time>
      </trkpt>
      <trkpt lat="47.27631" lon="-2.45484">
        <ele>75</ele>
        <time>2020-02-16T09:37:17.000Z</time>
      </trkpt>
      <trkpt lat="47.27636" lon="-2.4551">
        <ele>75</ele>
        <time>2020-02-16T09:37:21.000Z</time>
      </trkpt>
      <trkpt lat="47.27648" lon="-2.45563">
        <ele>75</ele>
        <time>2020-02-16T09:37:30.000Z</time>
      </trkpt>
      <trkpt lat="47.27662" lon="-2.45619">
        <ele>75</ele>
        <time>2020-02-16T09:37:40.000Z</time>
      </trkpt>
      <trkpt lat="47.27673" lon="-2.4566">
        <ele>75</ele>
        <time>2020-02-16T09:37:48.000Z</time>
      </trkpt>
      <trkpt lat="47.27672" lon="-2.45674">
        <ele>75</ele>
        <time>2020-02-16T09:37:52.000Z</time>
      </trkpt>
      <trkpt lat="47.27662" lon="-2.45683">
        <ele>75</ele>
        <time>2020-02-16T09:37:56.000Z</time>
      </trkpt>
      <trkpt lat="47.27642" lon="-2.45698">
        <ele>75</ele>
        <time>2020-02-16T09:38:04.000Z</time>
      </trkpt>
      <trkpt lat="47.27629" lon="-2.45709">
        <ele>75.400001525879</ele>
        <time>2020-02-16T09:38:11.000Z</time>
      </trkpt>
      <trkpt lat="47.2763" lon="-2.45712">
        <ele>76.400001525879</ele>
        <time>2020-02-16T09:38:12.000Z</time>
      </trkpt>
      <trkpt lat="47.27631" lon="-2.45716">
        <ele>76.800003051758</ele>
        <time>2020-02-16T09:38:13.000Z</time>
      </trkpt>
      <trkpt lat="47.27633" lon="-2.45721">
        <ele>77.199996948242</ele>
        <time>2020-02-16T09:38:14.000Z</time>
      </trkpt>
      <trkpt lat="47.27636" lon="-2.45731">
        <ele>76.800003051758</ele>
        <time>2020-02-16T09:38:16.000Z</time>
      </trkpt>
      <trkpt lat="47.27636" lon="-2.45736">
        <ele>76.400001525879</ele>
        <time>2020-02-16T09:38:17.000Z</time>
      </trkpt>
      <trkpt lat="47.27637" lon="-2.45742">
        <ele>76</ele>
        <time>2020-02-16T09:38:18.000Z</time>
      </trkpt>
      <trkpt lat="47.27638" lon="-2.45748">
        <ele>75.400001525879</ele>
        <time>2020-02-16T09:38:19.000Z</time>
      </trkpt>
      <trkpt lat="47.27638" lon="-2.45755">
        <ele>75</ele>
        <time>2020-02-16T09:38:20.000Z</time>
      </trkpt>
      <trkpt lat="47.2764" lon="-2.45784">
        <ele>74.599998474121</ele>
        <time>2020-02-16T09:38:24.000Z</time>
      </trkpt>
      <trkpt lat="47.2764" lon="-2.4579">
        <ele>74</ele>
        <time>2020-02-16T09:38:25.000Z</time>
      </trkpt>
      <trkpt lat="47.27642" lon="-2.45797">
        <ele>73.599998474121</ele>
        <time>2020-02-16T09:38:26.000Z</time>
      </trkpt>
      <trkpt lat="47.27642" lon="-2.45804">
        <ele>73.199996948242</ele>
        <time>2020-02-16T09:38:27.000Z</time>
      </trkpt>
      <trkpt lat="47.27642" lon="-2.45811">
        <ele>72.599998474121</ele>
        <time>2020-02-16T09:38:28.000Z</time>
      </trkpt>
      <trkpt lat="47.27642" lon="-2.45828">
        <ele>72.599998474121</ele>
        <time>2020-02-16T09:38:31.000Z</time>
      </trkpt>
      <trkpt lat="47.27641" lon="-2.45865">
        <ele>72.599998474121</ele>
        <time>2020-02-16T09:38:37.000Z</time>
      </trkpt>
      <trkpt lat="47.27641" lon="-2.45878">
        <ele>72.599998474121</ele>
        <time>2020-02-16T09:38:41.000Z</time>
      </trkpt>
      <trkpt lat="47.27641" lon="-2.45881">
        <ele>72.199996948242</ele>
        <time>2020-02-16T09:38:42.000Z</time>
      </trkpt>
      <trkpt lat="47.27641" lon="-2.45885">
        <ele>71.800003051758</ele>
        <time>2020-02-16T09:38:43.000Z</time>
      </trkpt>
      <trkpt lat="47.2764" lon="-2.45889">
        <ele>71.199996948242</ele>
        <time>2020-02-16T09:38:44.000Z</time>
      </trkpt>
      <trkpt lat="47.2764" lon="-2.45894">
        <ele>70.800003051758</ele>
        <time>2020-02-16T09:38:45.000Z</time>
      </trkpt>
      <trkpt lat="47.2764" lon="-2.45898">
        <ele>70.400001525879</ele>
        <time>2020-02-16T09:38:46.000Z</time>
      </trkpt>
      <trkpt lat="47.27638" lon="-2.45924">
        <ele>70.400001525879</ele>
        <time>2020-02-16T09:38:52.000Z</time>
      </trkpt>
      <trkpt lat="47.27639" lon="-2.45947">
        <ele>70.400001525879</ele>
        <time>2020-02-16T09:38:58.000Z</time>
      </trkpt>
      <trkpt lat="47.27639" lon="-2.4597">
        <ele>70.400001525879</ele>
        <time>2020-02-16T09:39:04.000Z</time>
      </trkpt>
      <trkpt lat="47.27639" lon="-2.46">
        <ele>70.400001525879</ele>
        <time>2020-02-16T09:39:10.000Z</time>
      </trkpt>
      <trkpt lat="47.27644" lon="-2.46029">
        <ele>70.400001525879</ele>
        <time>2020-02-16T09:39:15.000Z</time>
      </trkpt>
      <trkpt lat="47.27648" lon="-2.46054">
        <ele>70.400001525879</ele>
        <time>2020-02-16T09:39:21.000Z</time>
      </trkpt>
      <trkpt lat="47.2765" lon="-2.46065">
        <ele>70.400001525879</ele>
        <time>2020-02-16T09:39:26.000Z</time>
      </trkpt>
      <trkpt lat="47.27654" lon="-2.46087">
        <ele>70.400001525879</ele>
        <time>2020-02-16T09:39:34.000Z</time>
      </trkpt>
      <trkpt lat="47.27656" lon="-2.46098">
        <ele>70.400001525879</ele>
        <time>2020-02-16T09:39:40.000Z</time>
      </trkpt>
      <trkpt lat="47.27659" lon="-2.46111">
        <ele>70.400001525879</ele>
        <time>2020-02-16T09:39:45.000Z</time>
      </trkpt>
      <trkpt lat="47.2766" lon="-2.46118">
        <ele>70.800003051758</ele>
        <time>2020-02-16T09:39:48.000Z</time>
      </trkpt>
      <trkpt lat="47.27661" lon="-2.46119">
        <ele>71.599998474121</ele>
        <time>2020-02-16T09:39:49.000Z</time>
      </trkpt>
      <trkpt lat="47.27661" lon="-2.46121">
        <ele>72</ele>
        <time>2020-02-16T09:39:50.000Z</time>
      </trkpt>
      <trkpt lat="47.27661" lon="-2.46124">
        <ele>72.599998474121</ele>
        <time>2020-02-16T09:39:51.000Z</time>
      </trkpt>
      <trkpt lat="47.27665" lon="-2.4614">
        <ele>72.599998474121</ele>
        <time>2020-02-16T09:39:56.000Z</time>
      </trkpt>
      <trkpt lat="47.27668" lon="-2.46169">
        <ele>72.599998474121</ele>
        <time>2020-02-16T09:40:03.000Z</time>
      </trkpt>
      <trkpt lat="47.27667" lon="-2.46199">
        <ele>72.599998474121</ele>
        <time>2020-02-16T09:40:10.000Z</time>
      </trkpt>
      <trkpt lat="47.2767" lon="-2.46218">
        <ele>72.599998474121</ele>
        <time>2020-02-16T09:40:16.000Z</time>
      </trkpt>
      <trkpt lat="47.27673" lon="-2.46247">
        <ele>72.599998474121</ele>
        <time>2020-02-16T09:40:22.000Z</time>
      </trkpt>
      <trkpt lat="47.27667" lon="-2.46269">
        <ele>72.599998474121</ele>
        <time>2020-02-16T09:40:27.000Z</time>
      </trkpt>
      <trkpt lat="47.27658" lon="-2.46286">
        <ele>72.599998474121</ele>
        <time>2020-02-16T09:40:32.000Z</time>
      </trkpt>
      <trkpt lat="47.27659" lon="-2.4629">
        <ele>72.599998474121</ele>
        <time>2020-02-16T09:40:33.000Z</time>
      </trkpt>
      <trkpt lat="47.27667" lon="-2.46306">
        <ele>72.599998474121</ele>
        <time>2020-02-16T09:40:37.000Z</time>
      </trkpt>
      <trkpt lat="47.27673" lon="-2.46327">
        <ele>72.599998474121</ele>
        <time>2020-02-16T09:40:42.000Z</time>
      </trkpt>
      <trkpt lat="47.27674" lon="-2.46332">
        <ele>73</ele>
        <time>2020-02-16T09:40:43.000Z</time>
      </trkpt>
      <trkpt lat="47.27674" lon="-2.46336">
        <ele>73.400001525879</ele>
        <time>2020-02-16T09:40:44.000Z</time>
      </trkpt>
      <trkpt lat="47.27675" lon="-2.46342">
        <ele>73.800003051758</ele>
        <time>2020-02-16T09:40:45.000Z</time>
      </trkpt>
      <trkpt lat="47.27676" lon="-2.46348">
        <ele>74.199996948242</ele>
        <time>2020-02-16T09:40:46.000Z</time>
      </trkpt>
      <trkpt lat="47.27677" lon="-2.46354">
        <ele>74.599998474121</ele>
        <time>2020-02-16T09:40:47.000Z</time>
      </trkpt>
      <trkpt lat="47.27679" lon="-2.46361">
        <ele>74.599998474121</ele>
        <time>2020-02-16T09:40:48.000Z</time>
      </trkpt>
      <trkpt lat="47.27687" lon="-2.46384">
        <ele>74.599998474121</ele>
        <time>2020-02-16T09:40:52.000Z</time>
      </trkpt>
      <trkpt lat="47.27691" lon="-2.46394">
        <ele>74.599998474121</ele>
        <time>2020-02-16T09:40:54.000Z</time>
      </trkpt>
      <trkpt lat="47.27701" lon="-2.46424">
        <ele>74.599998474121</ele>
        <time>2020-02-16T09:41:00.000Z</time>
      </trkpt>
      <trkpt lat="47.27702" lon="-2.46429">
        <ele>74.199996948242</ele>
        <time>2020-02-16T09:41:01.000Z</time>
      </trkpt>
      <trkpt lat="47.27705" lon="-2.46434">
        <ele>73.800003051758</ele>
        <time>2020-02-16T09:41:02.000Z</time>
      </trkpt>
      <trkpt lat="47.27707" lon="-2.46439">
        <ele>73</ele>
        <time>2020-02-16T09:41:03.000Z</time>
      </trkpt>
      <trkpt lat="47.2771" lon="-2.46444">
        <ele>72.599998474121</ele>
        <time>2020-02-16T09:41:04.000Z</time>
      </trkpt>
      <trkpt lat="47.27712" lon="-2.46449">
        <ele>72.599998474121</ele>
        <time>2020-02-16T09:41:05.000Z</time>
      </trkpt>
      <trkpt lat="47.27715" lon="-2.46454">
        <ele>72.599998474121</ele>
        <time>2020-02-16T09:41:06.000Z</time>
      </trkpt>
      <trkpt lat="47.27721" lon="-2.4647">
        <ele>72.599998474121</ele>
        <time>2020-02-16T09:41:09.000Z</time>
      </trkpt>
      <trkpt lat="47.27726" lon="-2.46485">
        <ele>72.599998474121</ele>
        <time>2020-02-16T09:41:12.000Z</time>
      </trkpt>
      <trkpt lat="47.27738" lon="-2.46526">
        <ele>72.599998474121</ele>
        <time>2020-02-16T09:41:19.000Z</time>
      </trkpt>
      <trkpt lat="47.27749" lon="-2.46574">
        <ele>72.599998474121</ele>
        <time>2020-02-16T09:41:27.000Z</time>
      </trkpt>
      <trkpt lat="47.27752" lon="-2.46579">
        <ele>72.599998474121</ele>
        <time>2020-02-16T09:41:28.000Z</time>
      </trkpt>
      <trkpt lat="47.27762" lon="-2.46594">
        <ele>72.599998474121</ele>
        <time>2020-02-16T09:41:32.000Z</time>
      </trkpt>
      <trkpt lat="47.27765" lon="-2.46612">
        <ele>72.599998474121</ele>
        <time>2020-02-16T09:41:37.000Z</time>
      </trkpt>
      <trkpt lat="47.27762" lon="-2.4662">
        <ele>72.599998474121</ele>
        <time>2020-02-16T09:41:40.000Z</time>
      </trkpt>
      <trkpt lat="47.2776" lon="-2.46623">
        <ele>72.599998474121</ele>
        <time>2020-02-16T09:41:41.000Z</time>
      </trkpt>
      <trkpt lat="47.2776" lon="-2.46627">
        <ele>72.599998474121</ele>
        <time>2020-02-16T09:41:42.000Z</time>
      </trkpt>
      <trkpt lat="47.27763" lon="-2.46636">
        <ele>72.599998474121</ele>
        <time>2020-02-16T09:41:44.000Z</time>
      </trkpt>
      <trkpt lat="47.27764" lon="-2.46662">
        <ele>72.599998474121</ele>
        <time>2020-02-16T09:41:49.000Z</time>
      </trkpt>
      <trkpt lat="47.27764" lon="-2.46668">
        <ele>72.599998474121</ele>
        <time>2020-02-16T09:41:50.000Z</time>
      </trkpt>
      <trkpt lat="47.27762" lon="-2.46699">
        <ele>72.599998474121</ele>
        <time>2020-02-16T09:41:55.000Z</time>
      </trkpt>
      <trkpt lat="47.27759" lon="-2.46726">
        <ele>72.599998474121</ele>
        <time>2020-02-16T09:42:00.000Z</time>
      </trkpt>
      <trkpt lat="47.27764" lon="-2.46755">
        <ele>72.599998474121</ele>
        <time>2020-02-16T09:42:06.000Z</time>
      </trkpt>
      <trkpt lat="47.27767" lon="-2.46761">
        <ele>72.199996948242</ele>
        <time>2020-02-16T09:42:07.000Z</time>
      </trkpt>
      <trkpt lat="47.27769" lon="-2.46767">
        <ele>71.800003051758</ele>
        <time>2020-02-16T09:42:08.000Z</time>
      </trkpt>
      <trkpt lat="47.27771" lon="-2.46775">
        <ele>71.400001525879</ele>
        <time>2020-02-16T09:42:09.000Z</time>
      </trkpt>
      <trkpt lat="47.27772" lon="-2.46782">
        <ele>70.800003051758</ele>
        <time>2020-02-16T09:42:10.000Z</time>
      </trkpt>
      <trkpt lat="47.27774" lon="-2.46789">
        <ele>70.400001525879</ele>
        <time>2020-02-16T09:42:11.000Z</time>
      </trkpt>
      <trkpt lat="47.27778" lon="-2.46807">
        <ele>70.400001525879</ele>
        <time>2020-02-16T09:42:14.000Z</time>
      </trkpt>
      <trkpt lat="47.27781" lon="-2.46818">
        <ele>70.400001525879</ele>
        <time>2020-02-16T09:42:16.000Z</time>
      </trkpt>
      <trkpt lat="47.27787" lon="-2.46835">
        <ele>71</ele>
        <time>2020-02-16T09:42:19.000Z</time>
      </trkpt>
      <trkpt lat="47.27786" lon="-2.4684">
        <ele>71.599998474121</ele>
        <time>2020-02-16T09:42:20.000Z</time>
      </trkpt>
      <trkpt lat="47.27785" lon="-2.46846">
        <ele>72</ele>
        <time>2020-02-16T09:42:21.000Z</time>
      </trkpt>
      <trkpt lat="47.27785" lon="-2.46852">
        <ele>72.599998474121</ele>
        <time>2020-02-16T09:42:22.000Z</time>
      </trkpt>
      <trkpt lat="47.27785" lon="-2.46858">
        <ele>73.199996948242</ele>
        <time>2020-02-16T09:42:23.000Z</time>
      </trkpt>
      <trkpt lat="47.27785" lon="-2.46863">
        <ele>73.199996948242</ele>
        <time>2020-02-16T09:42:24.000Z</time>
      </trkpt>
      <trkpt lat="47.27784" lon="-2.46874">
        <ele>73.199996948242</ele>
        <time>2020-02-16T09:42:26.000Z</time>
      </trkpt>
      <trkpt lat="47.27786" lon="-2.46884">
        <ele>73.199996948242</ele>
        <time>2020-02-16T09:42:29.000Z</time>
      </trkpt>
      <trkpt lat="47.27788" lon="-2.46885">
        <ele>73.199996948242</ele>
        <time>2020-02-16T09:42:30.000Z</time>
      </trkpt>
      <trkpt lat="47.27792" lon="-2.46886">
        <ele>72.800003051758</ele>
        <time>2020-02-16T09:42:33.000Z</time>
      </trkpt>
      <trkpt lat="47.27794" lon="-2.46886">
        <ele>72.400001525879</ele>
        <time>2020-02-16T09:42:34.000Z</time>
      </trkpt>
      <trkpt lat="47.27796" lon="-2.46889">
        <ele>72</ele>
        <time>2020-02-16T09:42:35.000Z</time>
      </trkpt>
      <trkpt lat="47.27798" lon="-2.46893">
        <ele>71.599998474121</ele>
        <time>2020-02-16T09:42:36.000Z</time>
      </trkpt>
      <trkpt lat="47.278" lon="-2.46897">
        <ele>71.199996948242</ele>
        <time>2020-02-16T09:42:37.000Z</time>
      </trkpt>
      <trkpt lat="47.27806" lon="-2.46914">
        <ele>71.199996948242</ele>
        <time>2020-02-16T09:42:40.000Z</time>
      </trkpt>
      <trkpt lat="47.27802" lon="-2.46936">
        <ele>71.599998474121</ele>
        <time>2020-02-16T09:42:43.000Z</time>
      </trkpt>
      <trkpt lat="47.27799" lon="-2.46943">
        <ele>72.199996948242</ele>
        <time>2020-02-16T09:42:44.000Z</time>
      </trkpt>
      <trkpt lat="47.27797" lon="-2.46949">
        <ele>72.599998474121</ele>
        <time>2020-02-16T09:42:45.000Z</time>
      </trkpt>
      <trkpt lat="47.27795" lon="-2.46956">
        <ele>73.199996948242</ele>
        <time>2020-02-16T09:42:46.000Z</time>
      </trkpt>
      <trkpt lat="47.27795" lon="-2.46965">
        <ele>73.599998474121</ele>
        <time>2020-02-16T09:42:47.000Z</time>
      </trkpt>
      <trkpt lat="47.27795" lon="-2.46991">
        <ele>73.599998474121</ele>
        <time>2020-02-16T09:42:50.000Z</time>
      </trkpt>
      <trkpt lat="47.27795" lon="-2.47009">
        <ele>73.599998474121</ele>
        <time>2020-02-16T09:42:52.000Z</time>
      </trkpt>
      <trkpt lat="47.27795" lon="-2.47053">
        <ele>74.199996948242</ele>
        <time>2020-02-16T09:42:57.000Z</time>
      </trkpt>
      <trkpt lat="47.27795" lon="-2.47062">
        <ele>74.599998474121</ele>
        <time>2020-02-16T09:42:58.000Z</time>
      </trkpt>
      <trkpt lat="47.27795" lon="-2.4707">
        <ele>75</ele>
        <time>2020-02-16T09:42:59.000Z</time>
      </trkpt>
      <trkpt lat="47.27794" lon="-2.47078">
        <ele>75.400001525879</ele>
        <time>2020-02-16T09:43:00.000Z</time>
      </trkpt>
      <trkpt lat="47.27794" lon="-2.47086">
        <ele>75</ele>
        <time>2020-02-16T09:43:01.000Z</time>
      </trkpt>
      <trkpt lat="47.27794" lon="-2.47094">
        <ele>74.599998474121</ele>
        <time>2020-02-16T09:43:02.000Z</time>
      </trkpt>
      <trkpt lat="47.27794" lon="-2.47103">
        <ele>74.199996948242</ele>
        <time>2020-02-16T09:43:03.000Z</time>
      </trkpt>
      <trkpt lat="47.27794" lon="-2.47112">
        <ele>73.599998474121</ele>
        <time>2020-02-16T09:43:04.000Z</time>
      </trkpt>
      <trkpt lat="47.27794" lon="-2.4712">
        <ele>73.199996948242</ele>
        <time>2020-02-16T09:43:05.000Z</time>
      </trkpt>
      <trkpt lat="47.27794" lon="-2.47136">
        <ele>73.199996948242</ele>
        <time>2020-02-16T09:43:07.000Z</time>
      </trkpt>
      <trkpt lat="47.27793" lon="-2.47193">
        <ele>73.199996948242</ele>
        <time>2020-02-16T09:43:14.000Z</time>
      </trkpt>
      <trkpt lat="47.27793" lon="-2.47242">
        <ele>73.199996948242</ele>
        <time>2020-02-16T09:43:20.000Z</time>
      </trkpt>
      <trkpt lat="47.27793" lon="-2.47303">
        <ele>73.199996948242</ele>
        <time>2020-02-16T09:43:28.000Z</time>
      </trkpt>
      <trkpt lat="47.27792" lon="-2.47372">
        <ele>73.199996948242</ele>
        <time>2020-02-16T09:43:37.000Z</time>
      </trkpt>
      <trkpt lat="47.27792" lon="-2.47439">
        <ele>73.199996948242</ele>
        <time>2020-02-16T09:43:45.000Z</time>
      </trkpt>
      <trkpt lat="47.27792" lon="-2.47455">
        <ele>73.800003051758</ele>
        <time>2020-02-16T09:43:47.000Z</time>
      </trkpt>
      <trkpt lat="47.27793" lon="-2.47462">
        <ele>74.199996948242</ele>
        <time>2020-02-16T09:43:48.000Z</time>
      </trkpt>
      <trkpt lat="47.27793" lon="-2.4747">
        <ele>74.800003051758</ele>
        <time>2020-02-16T09:43:49.000Z</time>
      </trkpt>
      <trkpt lat="47.27793" lon="-2.47477">
        <ele>75.199996948242</ele>
        <time>2020-02-16T09:43:50.000Z</time>
      </trkpt>
      <trkpt lat="47.27792" lon="-2.47484">
        <ele>75.599998474121</ele>
        <time>2020-02-16T09:43:51.000Z</time>
      </trkpt>
      <trkpt lat="47.27792" lon="-2.47491">
        <ele>75.599998474121</ele>
        <time>2020-02-16T09:43:52.000Z</time>
      </trkpt>
      <trkpt lat="47.27793" lon="-2.4752">
        <ele>75.599998474121</ele>
        <time>2020-02-16T09:43:56.000Z</time>
      </trkpt>
      <trkpt lat="47.27796" lon="-2.47542">
        <ele>75.599998474121</ele>
        <time>2020-02-16T09:43:59.000Z</time>
      </trkpt>
      <trkpt lat="47.27802" lon="-2.47572">
        <ele>75.599998474121</ele>
        <time>2020-02-16T09:44:03.000Z</time>
      </trkpt>
      <trkpt lat="47.27803" lon="-2.47579">
        <ele>76.199996948242</ele>
        <time>2020-02-16T09:44:04.000Z</time>
      </trkpt>
      <trkpt lat="47.27804" lon="-2.47585">
        <ele>76.800003051758</ele>
        <time>2020-02-16T09:44:05.000Z</time>
      </trkpt>
      <trkpt lat="47.27805" lon="-2.47592">
        <ele>77.400001525879</ele>
        <time>2020-02-16T09:44:06.000Z</time>
      </trkpt>
      <trkpt lat="47.27807" lon="-2.47599">
        <ele>78</ele>
        <time>2020-02-16T09:44:07.000Z</time>
      </trkpt>
      <trkpt lat="47.27808" lon="-2.47606">
        <ele>78.599998474121</ele>
        <time>2020-02-16T09:44:08.000Z</time>
      </trkpt>
      <trkpt lat="47.27809" lon="-2.4762">
        <ele>78.599998474121</ele>
        <time>2020-02-16T09:44:10.000Z</time>
      </trkpt>
      <trkpt lat="47.2781" lon="-2.47633">
        <ele>78.599998474121</ele>
        <time>2020-02-16T09:44:12.000Z</time>
      </trkpt>
      <trkpt lat="47.2781" lon="-2.47663">
        <ele>78.599998474121</ele>
        <time>2020-02-16T09:44:16.000Z</time>
      </trkpt>
      <trkpt lat="47.27813" lon="-2.47687">
        <ele>78.599998474121</ele>
        <time>2020-02-16T09:44:19.000Z</time>
      </trkpt>
      <trkpt lat="47.27816" lon="-2.477">
        <ele>79</ele>
        <time>2020-02-16T09:44:21.000Z</time>
      </trkpt>
      <trkpt lat="47.27817" lon="-2.47707">
        <ele>79.400001525879</ele>
        <time>2020-02-16T09:44:22.000Z</time>
      </trkpt>
      <trkpt lat="47.27819" lon="-2.47714">
        <ele>79.800003051758</ele>
        <time>2020-02-16T09:44:23.000Z</time>
      </trkpt>
      <trkpt lat="47.27821" lon="-2.47721">
        <ele>80.199996948242</ele>
        <time>2020-02-16T09:44:24.000Z</time>
      </trkpt>
      <trkpt lat="47.27824" lon="-2.47727">
        <ele>80.599998474121</ele>
        <time>2020-02-16T09:44:25.000Z</time>
      </trkpt>
      <trkpt lat="47.27829" lon="-2.4774">
        <ele>80.599998474121</ele>
        <time>2020-02-16T09:44:27.000Z</time>
      </trkpt>
      <trkpt lat="47.27831" lon="-2.47746">
        <ele>80.599998474121</ele>
        <time>2020-02-16T09:44:28.000Z</time>
      </trkpt>
      <trkpt lat="47.2784" lon="-2.47771">
        <ele>80.599998474121</ele>
        <time>2020-02-16T09:44:32.000Z</time>
      </trkpt>
      <trkpt lat="47.27844" lon="-2.47782">
        <ele>80.599998474121</ele>
        <time>2020-02-16T09:44:34.000Z</time>
      </trkpt>
      <trkpt lat="47.27846" lon="-2.47787">
        <ele>81.199996948242</ele>
        <time>2020-02-16T09:44:35.000Z</time>
      </trkpt>
      <trkpt lat="47.27847" lon="-2.47792">
        <ele>81.599998474121</ele>
        <time>2020-02-16T09:44:36.000Z</time>
      </trkpt>
      <trkpt lat="47.27848" lon="-2.47797">
        <ele>82.199996948242</ele>
        <time>2020-02-16T09:44:37.000Z</time>
      </trkpt>
      <trkpt lat="47.27849" lon="-2.47802">
        <ele>82.800003051758</ele>
        <time>2020-02-16T09:44:38.000Z</time>
      </trkpt>
      <trkpt lat="47.2785" lon="-2.47808">
        <ele>83.199996948242</ele>
        <time>2020-02-16T09:44:39.000Z</time>
      </trkpt>
      <trkpt lat="47.27853" lon="-2.4782">
        <ele>83.199996948242</ele>
        <time>2020-02-16T09:44:41.000Z</time>
      </trkpt>
      <trkpt lat="47.27854" lon="-2.47826">
        <ele>82.800003051758</ele>
        <time>2020-02-16T09:44:42.000Z</time>
      </trkpt>
      <trkpt lat="47.27856" lon="-2.47832">
        <ele>82.199996948242</ele>
        <time>2020-02-16T09:44:43.000Z</time>
      </trkpt>
      <trkpt lat="47.27857" lon="-2.47838">
        <ele>81.599998474121</ele>
        <time>2020-02-16T09:44:44.000Z</time>
      </trkpt>
      <trkpt lat="47.27859" lon="-2.47844">
        <ele>80.599998474121</ele>
        <time>2020-02-16T09:44:45.000Z</time>
      </trkpt>
      <trkpt lat="47.2786" lon="-2.4785">
        <ele>81</ele>
        <time>2020-02-16T09:44:46.000Z</time>
      </trkpt>
      <trkpt lat="47.27861" lon="-2.47857">
        <ele>81.599998474121</ele>
        <time>2020-02-16T09:44:47.000Z</time>
      </trkpt>
      <trkpt lat="47.27862" lon="-2.47865">
        <ele>82</ele>
        <time>2020-02-16T09:44:48.000Z</time>
      </trkpt>
      <trkpt lat="47.27863" lon="-2.47872">
        <ele>82.400001525879</ele>
        <time>2020-02-16T09:44:49.000Z</time>
      </trkpt>
      <trkpt lat="47.27864" lon="-2.47879">
        <ele>82.800003051758</ele>
        <time>2020-02-16T09:44:50.000Z</time>
      </trkpt>
      <trkpt lat="47.27869" lon="-2.47909">
        <ele>82.800003051758</ele>
        <time>2020-02-16T09:44:54.000Z</time>
      </trkpt>
      <trkpt lat="47.27878" lon="-2.47961">
        <ele>82.800003051758</ele>
        <time>2020-02-16T09:45:02.000Z</time>
      </trkpt>
      <trkpt lat="47.27882" lon="-2.47989">
        <ele>82.400001525879</ele>
        <time>2020-02-16T09:45:06.000Z</time>
      </trkpt>
      <trkpt lat="47.27883" lon="-2.47996">
        <ele>82</ele>
        <time>2020-02-16T09:45:07.000Z</time>
      </trkpt>
      <trkpt lat="47.27884" lon="-2.48003">
        <ele>81.599998474121</ele>
        <time>2020-02-16T09:45:08.000Z</time>
      </trkpt>
      <trkpt lat="47.27885" lon="-2.4801">
        <ele>81</ele>
        <time>2020-02-16T09:45:09.000Z</time>
      </trkpt>
      <trkpt lat="47.27887" lon="-2.48016">
        <ele>80.599998474121</ele>
        <time>2020-02-16T09:45:10.000Z</time>
      </trkpt>
      <trkpt lat="47.2789" lon="-2.4804">
        <ele>80.599998474121</ele>
        <time>2020-02-16T09:45:13.000Z</time>
      </trkpt>
      <trkpt lat="47.27899" lon="-2.4809">
        <ele>80.599998474121</ele>
        <time>2020-02-16T09:45:19.000Z</time>
      </trkpt>
      <trkpt lat="47.279" lon="-2.48105">
        <ele>80.199996948242</ele>
        <time>2020-02-16T09:45:21.000Z</time>
      </trkpt>
      <trkpt lat="47.27901" lon="-2.48113">
        <ele>79.800003051758</ele>
        <time>2020-02-16T09:45:22.000Z</time>
      </trkpt>
      <trkpt lat="47.27906" lon="-2.48143">
        <ele>78.400001525879</ele>
        <time>2020-02-16T09:45:23.000Z</time>
      </trkpt>
      <trkpt lat="47.27907" lon="-2.48151">
        <ele>78.400001525879</ele>
        <time>2020-02-16T09:45:27.000Z</time>
      </trkpt>
      <trkpt lat="47.27911" lon="-2.48174">
        <ele>78.400001525879</ele>
        <time>2020-02-16T09:45:30.000Z</time>
      </trkpt>
      <trkpt lat="47.27914" lon="-2.48189">
        <ele>78.400001525879</ele>
        <time>2020-02-16T09:45:32.000Z</time>
      </trkpt>
      <trkpt lat="47.27915" lon="-2.48197">
        <ele>78.400001525879</ele>
        <time>2020-02-16T09:45:33.000Z</time>
      </trkpt>
      <trkpt lat="47.27923" lon="-2.48258">
        <ele>78</ele>
        <time>2020-02-16T09:45:41.000Z</time>
      </trkpt>
      <trkpt lat="47.27923" lon="-2.48264">
        <ele>77.599998474121</ele>
        <time>2020-02-16T09:45:42.000Z</time>
      </trkpt>
      <trkpt lat="47.27924" lon="-2.4827">
        <ele>77.199996948242</ele>
        <time>2020-02-16T09:45:43.000Z</time>
      </trkpt>
      <trkpt lat="47.27925" lon="-2.48275">
        <ele>76.800003051758</ele>
        <time>2020-02-16T09:45:44.000Z</time>
      </trkpt>
      <trkpt lat="47.27926" lon="-2.4828">
        <ele>76.400001525879</ele>
        <time>2020-02-16T09:45:45.000Z</time>
      </trkpt>
      <trkpt lat="47.27927" lon="-2.48285">
        <ele>76.400001525879</ele>
        <time>2020-02-16T09:45:46.000Z</time>
      </trkpt>
      <trkpt lat="47.27939" lon="-2.48291">
        <ele>76.400001525879</ele>
        <time>2020-02-16T09:45:49.000Z</time>
      </trkpt>
      <trkpt lat="47.2797" lon="-2.48303">
        <ele>76.400001525879</ele>
        <time>2020-02-16T09:45:55.000Z</time>
      </trkpt>
      <trkpt lat="47.28006" lon="-2.48317">
        <ele>76.400001525879</ele>
        <time>2020-02-16T09:46:02.000Z</time>
      </trkpt>
      <trkpt lat="47.2804" lon="-2.48326">
        <ele>76.400001525879</ele>
        <time>2020-02-16T09:46:09.000Z</time>
      </trkpt>
      <trkpt lat="47.28071" lon="-2.48336">
        <ele>76.400001525879</ele>
        <time>2020-02-16T09:46:15.000Z</time>
      </trkpt>
      <trkpt lat="47.28105" lon="-2.48348">
        <ele>76.400001525879</ele>
        <time>2020-02-16T09:46:22.000Z</time>
      </trkpt>
      <trkpt lat="47.28128" lon="-2.48357">
        <ele>76.400001525879</ele>
        <time>2020-02-16T09:46:27.000Z</time>
      </trkpt>
      <trkpt lat="47.28132" lon="-2.48362">
        <ele>76.400001525879</ele>
        <time>2020-02-16T09:46:28.000Z</time>
      </trkpt>
      <trkpt lat="47.2814" lon="-2.48387">
        <ele>76.400001525879</ele>
        <time>2020-02-16T09:46:32.000Z</time>
      </trkpt>
      <trkpt lat="47.28141" lon="-2.48394">
        <ele>76.400001525879</ele>
        <time>2020-02-16T09:46:33.000Z</time>
      </trkpt>
      <trkpt lat="47.28143" lon="-2.48401">
        <ele>76.400001525879</ele>
        <time>2020-02-16T09:46:34.000Z</time>
      </trkpt>
      <trkpt lat="47.28146" lon="-2.48432">
        <ele>76.400001525879</ele>
        <time>2020-02-16T09:46:38.000Z</time>
      </trkpt>
      <trkpt lat="47.28151" lon="-2.48485">
        <ele>76.400001525879</ele>
        <time>2020-02-16T09:46:45.000Z</time>
      </trkpt>
      <trkpt lat="47.28159" lon="-2.48535">
        <ele>76.400001525879</ele>
        <time>2020-02-16T09:46:52.000Z</time>
      </trkpt>
      <trkpt lat="47.28165" lon="-2.4857">
        <ele>76.400001525879</ele>
        <time>2020-02-16T09:46:57.000Z</time>
      </trkpt>
      <trkpt lat="47.28166" lon="-2.48577">
        <ele>76.400001525879</ele>
        <time>2020-02-16T09:46:58.000Z</time>
      </trkpt>
      <trkpt lat="47.28168" lon="-2.48591">
        <ele>77</ele>
        <time>2020-02-16T09:47:00.000Z</time>
      </trkpt>
      <trkpt lat="47.28168" lon="-2.48597">
        <ele>77.400001525879</ele>
        <time>2020-02-16T09:47:01.000Z</time>
      </trkpt>
      <trkpt lat="47.28169" lon="-2.48604">
        <ele>77.800003051758</ele>
        <time>2020-02-16T09:47:02.000Z</time>
      </trkpt>
      <trkpt lat="47.28169" lon="-2.48611">
        <ele>78.199996948242</ele>
        <time>2020-02-16T09:47:03.000Z</time>
      </trkpt>
      <trkpt lat="47.2817" lon="-2.48618">
        <ele>78</ele>
        <time>2020-02-16T09:47:04.000Z</time>
      </trkpt>
      <trkpt lat="47.28171" lon="-2.48625">
        <ele>77.599998474121</ele>
        <time>2020-02-16T09:47:05.000Z</time>
      </trkpt>
      <trkpt lat="47.28173" lon="-2.48632">
        <ele>77.199996948242</ele>
        <time>2020-02-16T09:47:06.000Z</time>
      </trkpt>
      <trkpt lat="47.28174" lon="-2.48638">
        <ele>76.800003051758</ele>
        <time>2020-02-16T09:47:07.000Z</time>
      </trkpt>
      <trkpt lat="47.28176" lon="-2.48645">
        <ele>76.400001525879</ele>
        <time>2020-02-16T09:47:08.000Z</time>
      </trkpt>
      <trkpt lat="47.28178" lon="-2.48652">
        <ele>76.400001525879</ele>
        <time>2020-02-16T09:47:09.000Z</time>
      </trkpt>
      <trkpt lat="47.28187" lon="-2.48705">
        <ele>76</ele>
        <time>2020-02-16T09:47:16.000Z</time>
      </trkpt>
      <trkpt lat="47.28188" lon="-2.48713">
        <ele>75.599998474121</ele>
        <time>2020-02-16T09:47:17.000Z</time>
      </trkpt>
      <trkpt lat="47.28189" lon="-2.4872">
        <ele>75.199996948242</ele>
        <time>2020-02-16T09:47:18.000Z</time>
      </trkpt>
      <trkpt lat="47.2819" lon="-2.48728">
        <ele>74.599998474121</ele>
        <time>2020-02-16T09:47:19.000Z</time>
      </trkpt>
      <trkpt lat="47.28191" lon="-2.48735">
        <ele>74.199996948242</ele>
        <time>2020-02-16T09:47:20.000Z</time>
      </trkpt>
      <trkpt lat="47.28194" lon="-2.48763">
        <ele>74.199996948242</ele>
        <time>2020-02-16T09:47:24.000Z</time>
      </trkpt>
      <trkpt lat="47.28195" lon="-2.4877">
        <ele>74.599998474121</ele>
        <time>2020-02-16T09:47:25.000Z</time>
      </trkpt>
      <trkpt lat="47.28196" lon="-2.48778">
        <ele>75.199996948242</ele>
        <time>2020-02-16T09:47:26.000Z</time>
      </trkpt>
      <trkpt lat="47.28196" lon="-2.48784">
        <ele>75.599998474121</ele>
        <time>2020-02-16T09:47:27.000Z</time>
      </trkpt>
      <trkpt lat="47.28197" lon="-2.48791">
        <ele>76.199996948242</ele>
        <time>2020-02-16T09:47:28.000Z</time>
      </trkpt>
      <trkpt lat="47.28198" lon="-2.48798">
        <ele>76.599998474121</ele>
        <time>2020-02-16T09:47:29.000Z</time>
      </trkpt>
      <trkpt lat="47.28201" lon="-2.4882">
        <ele>76.599998474121</ele>
        <time>2020-02-16T09:47:32.000Z</time>
      </trkpt>
      <trkpt lat="47.28207" lon="-2.48881">
        <ele>76.599998474121</ele>
        <time>2020-02-16T09:47:40.000Z</time>
      </trkpt>
      <trkpt lat="47.28209" lon="-2.48909">
        <ele>76.599998474121</ele>
        <time>2020-02-16T09:47:44.000Z</time>
      </trkpt>
      <trkpt lat="47.2821" lon="-2.48922">
        <ele>76.599998474121</ele>
        <time>2020-02-16T09:47:46.000Z</time>
      </trkpt>
      <trkpt lat="47.28211" lon="-2.48929">
        <ele>76.599998474121</ele>
        <time>2020-02-16T09:47:47.000Z</time>
      </trkpt>
      <trkpt lat="47.28213" lon="-2.48941">
        <ele>76.199996948242</ele>
        <time>2020-02-16T09:47:49.000Z</time>
      </trkpt>
      <trkpt lat="47.28213" lon="-2.48947">
        <ele>75.800003051758</ele>
        <time>2020-02-16T09:47:50.000Z</time>
      </trkpt>
      <trkpt lat="47.28214" lon="-2.48953">
        <ele>75.400001525879</ele>
        <time>2020-02-16T09:47:51.000Z</time>
      </trkpt>
      <trkpt lat="47.28214" lon="-2.4896">
        <ele>75</ele>
        <time>2020-02-16T09:47:52.000Z</time>
      </trkpt>
      <trkpt lat="47.28215" lon="-2.48966">
        <ele>74.599998474121</ele>
        <time>2020-02-16T09:47:53.000Z</time>
      </trkpt>
      <trkpt lat="47.28217" lon="-2.48978">
        <ele>74.599998474121</ele>
        <time>2020-02-16T09:47:55.000Z</time>
      </trkpt>
      <trkpt lat="47.28221" lon="-2.49016">
        <ele>74.599998474121</ele>
        <time>2020-02-16T09:48:02.000Z</time>
      </trkpt>
      <trkpt lat="47.28223" lon="-2.49034">
        <ele>74.599998474121</ele>
        <time>2020-02-16T09:48:08.000Z</time>
      </trkpt>
      <trkpt lat="47.28225" lon="-2.49045">
        <ele>74.599998474121</ele>
        <time>2020-02-16T09:48:14.000Z</time>
      </trkpt>
      <trkpt lat="47.28225" lon="-2.49046">
        <ele>74.599998474121</ele>
        <time>2020-02-16T09:48:15.000Z</time>
      </trkpt>
      <trkpt lat="47.28225" lon="-2.49047">
        <ele>74.599998474121</ele>
        <time>2020-02-16T09:48:16.000Z</time>
      </trkpt>
      <trkpt lat="47.28226" lon="-2.49054">
        <ele>78.400001525879</ele>
        <time>2020-02-16T09:49:17.000Z</time>
      </trkpt>
      <trkpt lat="47.28226" lon="-2.49056">
        <ele>78.800003051758</ele>
        <time>2020-02-16T09:49:18.000Z</time>
      </trkpt>
      <trkpt lat="47.28225" lon="-2.49058">
        <ele>78.800003051758</ele>
        <time>2020-02-16T09:49:19.000Z</time>
      </trkpt>
      <trkpt lat="47.28224" lon="-2.4906">
        <ele>78.199996948242</ele>
        <time>2020-02-16T09:49:21.000Z</time>
      </trkpt>
      <trkpt lat="47.28225" lon="-2.49063">
        <ele>76.400001525879</ele>
        <time>2020-02-16T09:49:25.000Z</time>
      </trkpt>
      <trkpt lat="47.28226" lon="-2.49065">
        <ele>76.400001525879</ele>
        <time>2020-02-16T09:49:26.000Z</time>
      </trkpt>
      <trkpt lat="47.28235" lon="-2.49071">
        <ele>76.400001525879</ele>
        <time>2020-02-16T09:49:31.000Z</time>
      </trkpt>
      <trkpt lat="47.28238" lon="-2.4907">
        <ele>76.400001525879</ele>
        <time>2020-02-16T09:49:32.000Z</time>
      </trkpt>
      <trkpt lat="47.2825" lon="-2.49067">
        <ele>75.800003051758</ele>
        <time>2020-02-16T09:49:36.000Z</time>
      </trkpt>
      <trkpt lat="47.28254" lon="-2.49068">
        <ele>75.400001525879</ele>
        <time>2020-02-16T09:49:37.000Z</time>
      </trkpt>
      <trkpt lat="47.28258" lon="-2.49067">
        <ele>75</ele>
        <time>2020-02-16T09:49:38.000Z</time>
      </trkpt>
      <trkpt lat="47.28263" lon="-2.49066">
        <ele>74.599998474121</ele>
        <time>2020-02-16T09:49:39.000Z</time>
      </trkpt>
      <trkpt lat="47.28267" lon="-2.49065">
        <ele>74</ele>
        <time>2020-02-16T09:49:40.000Z</time>
      </trkpt>
      <trkpt lat="47.2828" lon="-2.49062">
        <ele>74</ele>
        <time>2020-02-16T09:49:43.000Z</time>
      </trkpt>
      <trkpt lat="47.28285" lon="-2.49059">
        <ele>74</ele>
        <time>2020-02-16T09:49:44.000Z</time>
      </trkpt>
      <trkpt lat="47.283" lon="-2.49054">
        <ele>74</ele>
        <time>2020-02-16T09:49:47.000Z</time>
      </trkpt>
      <trkpt lat="47.28306" lon="-2.49053">
        <ele>74</ele>
        <time>2020-02-16T09:49:49.000Z</time>
      </trkpt>
      <trkpt lat="47.2831" lon="-2.49054">
        <ele>74</ele>
        <time>2020-02-16T09:49:51.000Z</time>
      </trkpt>
      <trkpt lat="47.28311" lon="-2.4906">
        <ele>74</ele>
        <time>2020-02-16T09:49:54.000Z</time>
      </trkpt>
      <trkpt lat="47.28313" lon="-2.4908">
        <ele>74</ele>
        <time>2020-02-16T09:49:59.000Z</time>
      </trkpt>
      <trkpt lat="47.28313" lon="-2.49086">
        <ele>74</ele>
        <time>2020-02-16T09:50:00.000Z</time>
      </trkpt>
      <trkpt lat="47.28314" lon="-2.49108">
        <ele>74.599998474121</ele>
        <time>2020-02-16T09:50:04.000Z</time>
      </trkpt>
      <trkpt lat="47.28315" lon="-2.49113">
        <ele>76</ele>
        <time>2020-02-16T09:50:05.000Z</time>
      </trkpt>
      <trkpt lat="47.28315" lon="-2.49118">
        <ele>76.800003051758</ele>
        <time>2020-02-16T09:50:06.000Z</time>
      </trkpt>
      <trkpt lat="47.28315" lon="-2.49123">
        <ele>77.599998474121</ele>
        <time>2020-02-16T09:50:07.000Z</time>
      </trkpt>
      <trkpt lat="47.28315" lon="-2.49128">
        <ele>78.400001525879</ele>
        <time>2020-02-16T09:50:08.000Z</time>
      </trkpt>
      <trkpt lat="47.28315" lon="-2.49133">
        <ele>79.400001525879</ele>
        <time>2020-02-16T09:50:09.000Z</time>
      </trkpt>
      <trkpt lat="47.28316" lon="-2.49138">
        <ele>78.800003051758</ele>
        <time>2020-02-16T09:50:10.000Z</time>
      </trkpt>
      <trkpt lat="47.28316" lon="-2.49143">
        <ele>78.400001525879</ele>
        <time>2020-02-16T09:50:11.000Z</time>
      </trkpt>
      <trkpt lat="47.28317" lon="-2.49148">
        <ele>77.800003051758</ele>
        <time>2020-02-16T09:50:12.000Z</time>
      </trkpt>
      <trkpt lat="47.28317" lon="-2.49153">
        <ele>77.400001525879</ele>
        <time>2020-02-16T09:50:13.000Z</time>
      </trkpt>
      <trkpt lat="47.28317" lon="-2.49158">
        <ele>76.800003051758</ele>
        <time>2020-02-16T09:50:14.000Z</time>
      </trkpt>
      <trkpt lat="47.28318" lon="-2.49175">
        <ele>76.400001525879</ele>
        <time>2020-02-16T09:50:17.000Z</time>
      </trkpt>
      <trkpt lat="47.28318" lon="-2.4918">
        <ele>76</ele>
        <time>2020-02-16T09:50:18.000Z</time>
      </trkpt>
      <trkpt lat="47.28318" lon="-2.49185">
        <ele>75.400001525879</ele>
        <time>2020-02-16T09:50:19.000Z</time>
      </trkpt>
      <trkpt lat="47.28319" lon="-2.4919">
        <ele>75</ele>
        <time>2020-02-16T09:50:20.000Z</time>
      </trkpt>
      <trkpt lat="47.28319" lon="-2.49195">
        <ele>75.400001525879</ele>
        <time>2020-02-16T09:50:21.000Z</time>
      </trkpt>
      <trkpt lat="47.28319" lon="-2.49199">
        <ele>75.599998474121</ele>
        <time>2020-02-16T09:50:22.000Z</time>
      </trkpt>
      <trkpt lat="47.28318" lon="-2.49204">
        <ele>76</ele>
        <time>2020-02-16T09:50:23.000Z</time>
      </trkpt>
      <trkpt lat="47.28319" lon="-2.49208">
        <ele>76.599998474121</ele>
        <time>2020-02-16T09:50:24.000Z</time>
      </trkpt>
      <trkpt lat="47.28319" lon="-2.49212">
        <ele>77.400001525879</ele>
        <time>2020-02-16T09:50:25.000Z</time>
      </trkpt>
      <trkpt lat="47.28319" lon="-2.49216">
        <ele>78</ele>
        <time>2020-02-16T09:50:26.000Z</time>
      </trkpt>
      <trkpt lat="47.2832" lon="-2.4922">
        <ele>78.800003051758</ele>
        <time>2020-02-16T09:50:27.000Z</time>
      </trkpt>
      <trkpt lat="47.28321" lon="-2.49224">
        <ele>78.400001525879</ele>
        <time>2020-02-16T09:50:28.000Z</time>
      </trkpt>
      <trkpt lat="47.28322" lon="-2.49229">
        <ele>78</ele>
        <time>2020-02-16T09:50:29.000Z</time>
      </trkpt>
      <trkpt lat="47.28323" lon="-2.49234">
        <ele>77.199996948242</ele>
        <time>2020-02-16T09:50:30.000Z</time>
      </trkpt>
      <trkpt lat="47.28324" lon="-2.49239">
        <ele>77</ele>
        <time>2020-02-16T09:50:31.000Z</time>
      </trkpt>
      <trkpt lat="47.28326" lon="-2.4925">
        <ele>76.599998474121</ele>
        <time>2020-02-16T09:50:33.000Z</time>
      </trkpt>
      <trkpt lat="47.28327" lon="-2.49256">
        <ele>76</ele>
        <time>2020-02-16T09:50:34.000Z</time>
      </trkpt>
      <trkpt lat="47.28328" lon="-2.49261">
        <ele>75.599998474121</ele>
        <time>2020-02-16T09:50:35.000Z</time>
      </trkpt>
      <trkpt lat="47.28328" lon="-2.49267">
        <ele>75.199996948242</ele>
        <time>2020-02-16T09:50:36.000Z</time>
      </trkpt>
      <trkpt lat="47.28328" lon="-2.49273">
        <ele>74.800003051758</ele>
        <time>2020-02-16T09:50:37.000Z</time>
      </trkpt>
      <trkpt lat="47.28331" lon="-2.49309">
        <ele>74.800003051758</ele>
        <time>2020-02-16T09:50:43.000Z</time>
      </trkpt>
      <trkpt lat="47.28333" lon="-2.49345">
        <ele>74.800003051758</ele>
        <time>2020-02-16T09:50:49.000Z</time>
      </trkpt>
      <trkpt lat="47.28333" lon="-2.49376">
        <ele>74.800003051758</ele>
        <time>2020-02-16T09:50:55.000Z</time>
      </trkpt>
      <trkpt lat="47.28326" lon="-2.49413">
        <ele>74.800003051758</ele>
        <time>2020-02-16T09:51:02.000Z</time>
      </trkpt>
      <trkpt lat="47.28319" lon="-2.49448">
        <ele>74.800003051758</ele>
        <time>2020-02-16T09:51:09.000Z</time>
      </trkpt>
      <trkpt lat="47.28314" lon="-2.49481">
        <ele>74.800003051758</ele>
        <time>2020-02-16T09:51:15.000Z</time>
      </trkpt>
      <trkpt lat="47.28309" lon="-2.49524">
        <ele>74.800003051758</ele>
        <time>2020-02-16T09:51:23.000Z</time>
      </trkpt>
      <trkpt lat="47.2831" lon="-2.49551">
        <ele>74.800003051758</ele>
        <time>2020-02-16T09:51:28.000Z</time>
      </trkpt>
      <trkpt lat="47.28315" lon="-2.49566">
        <ele>74.800003051758</ele>
        <time>2020-02-16T09:51:32.000Z</time>
      </trkpt>
      <trkpt lat="47.28324" lon="-2.49594">
        <ele>74.800003051758</ele>
        <time>2020-02-16T09:51:38.000Z</time>
      </trkpt>
      <trkpt lat="47.2833" lon="-2.49623">
        <ele>74.800003051758</ele>
        <time>2020-02-16T09:51:44.000Z</time>
      </trkpt>
      <trkpt lat="47.28334" lon="-2.49645">
        <ele>74.400001525879</ele>
        <time>2020-02-16T09:51:48.000Z</time>
      </trkpt>
      <trkpt lat="47.28335" lon="-2.49651">
        <ele>74</ele>
        <time>2020-02-16T09:51:49.000Z</time>
      </trkpt>
      <trkpt lat="47.28336" lon="-2.49656">
        <ele>73.599998474121</ele>
        <time>2020-02-16T09:51:50.000Z</time>
      </trkpt>
      <trkpt lat="47.28337" lon="-2.49661">
        <ele>73.199996948242</ele>
        <time>2020-02-16T09:51:51.000Z</time>
      </trkpt>
      <trkpt lat="47.28338" lon="-2.49667">
        <ele>72.800003051758</ele>
        <time>2020-02-16T09:51:52.000Z</time>
      </trkpt>
      <trkpt lat="47.28339" lon="-2.49684">
        <ele>72.800003051758</ele>
        <time>2020-02-16T09:51:55.000Z</time>
      </trkpt>
      <trkpt lat="47.2834" lon="-2.49704">
        <ele>72.800003051758</ele>
        <time>2020-02-16T09:51:58.000Z</time>
      </trkpt>
      <trkpt lat="47.28338" lon="-2.49727">
        <ele>72.800003051758</ele>
        <time>2020-02-16T09:52:03.000Z</time>
      </trkpt>
      <trkpt lat="47.28338" lon="-2.49735">
        <ele>72.800003051758</ele>
        <time>2020-02-16T09:52:08.000Z</time>
      </trkpt>
      <trkpt lat="47.28339" lon="-2.49746">
        <ele>72.800003051758</ele>
        <time>2020-02-16T09:52:15.000Z</time>
      </trkpt>
      <trkpt lat="47.28339" lon="-2.49747">
        <ele>72.800003051758</ele>
        <time>2020-02-16T09:52:18.000Z</time>
      </trkpt>
      <trkpt lat="47.28337" lon="-2.49768">
        <ele>70.400001525879</ele>
        <time>2020-02-16T09:54:26.000Z</time>
      </trkpt>
      <trkpt lat="47.28336" lon="-2.49768">
        <ele>70.400001525879</ele>
        <time>2020-02-16T09:54:27.000Z</time>
      </trkpt>
      <trkpt lat="47.28328" lon="-2.49768">
        <ele>70.400001525879</ele>
        <time>2020-02-16T09:54:31.000Z</time>
      </trkpt>
      <trkpt lat="47.28323" lon="-2.49768">
        <ele>70.400001525879</ele>
        <time>2020-02-16T09:54:33.000Z</time>
      </trkpt>
      <trkpt lat="47.2831" lon="-2.49764">
        <ele>70.400001525879</ele>
        <time>2020-02-16T09:54:37.000Z</time>
      </trkpt>
      <trkpt lat="47.28287" lon="-2.4976">
        <ele>70.400001525879</ele>
        <time>2020-02-16T09:54:44.000Z</time>
      </trkpt>
      <trkpt lat="47.28264" lon="-2.49756">
        <ele>70.400001525879</ele>
        <time>2020-02-16T09:54:50.000Z</time>
      </trkpt>
      <trkpt lat="47.28256" lon="-2.49756">
        <ele>70.800003051758</ele>
        <time>2020-02-16T09:54:52.000Z</time>
      </trkpt>
      <trkpt lat="47.28252" lon="-2.49756">
        <ele>71.199996948242</ele>
        <time>2020-02-16T09:54:53.000Z</time>
      </trkpt>
      <trkpt lat="47.28248" lon="-2.49756">
        <ele>71.800003051758</ele>
        <time>2020-02-16T09:54:54.000Z</time>
      </trkpt>
      <trkpt lat="47.28244" lon="-2.49755">
        <ele>72.199996948242</ele>
        <time>2020-02-16T09:54:55.000Z</time>
      </trkpt>
      <trkpt lat="47.2824" lon="-2.49755">
        <ele>72.599998474121</ele>
        <time>2020-02-16T09:54:56.000Z</time>
      </trkpt>
      <trkpt lat="47.28236" lon="-2.49755">
        <ele>72.599998474121</ele>
        <time>2020-02-16T09:54:57.000Z</time>
      </trkpt>
      <trkpt lat="47.28216" lon="-2.49752">
        <ele>72.599998474121</ele>
        <time>2020-02-16T09:55:02.000Z</time>
      </trkpt>
      <trkpt lat="47.28206" lon="-2.49752">
        <ele>72.599998474121</ele>
        <time>2020-02-16T09:55:04.000Z</time>
      </trkpt>
      <trkpt lat="47.28197" lon="-2.49752">
        <ele>72.599998474121</ele>
        <time>2020-02-16T09:55:06.000Z</time>
      </trkpt>
      <trkpt lat="47.28184" lon="-2.4975">
        <ele>73.199996948242</ele>
        <time>2020-02-16T09:55:09.000Z</time>
      </trkpt>
      <trkpt lat="47.28181" lon="-2.4975">
        <ele>73.599998474121</ele>
        <time>2020-02-16T09:55:10.000Z</time>
      </trkpt>
      <trkpt lat="47.28177" lon="-2.49749">
        <ele>74.199996948242</ele>
        <time>2020-02-16T09:55:11.000Z</time>
      </trkpt>
      <trkpt lat="47.28173" lon="-2.49748">
        <ele>74.599998474121</ele>
        <time>2020-02-16T09:55:12.000Z</time>
      </trkpt>
      <trkpt lat="47.2817" lon="-2.49748">
        <ele>75</ele>
        <time>2020-02-16T09:55:13.000Z</time>
      </trkpt>
      <trkpt lat="47.28155" lon="-2.49747">
        <ele>75</ele>
        <time>2020-02-16T09:55:18.000Z</time>
      </trkpt>
      <trkpt lat="47.2815" lon="-2.49747">
        <ele>75</ele>
        <time>2020-02-16T09:55:22.000Z</time>
      </trkpt>
      <trkpt lat="47.28149" lon="-2.49747">
        <ele>75</ele>
        <time>2020-02-16T09:55:23.000Z</time>
      </trkpt>
      <trkpt lat="47.28147" lon="-2.4975">
        <ele>75</ele>
        <time>2020-02-16T09:55:29.000Z</time>
      </trkpt>
      <trkpt lat="47.28146" lon="-2.49754">
        <ele>75</ele>
        <time>2020-02-16T09:55:31.000Z</time>
      </trkpt>
      <trkpt lat="47.28142" lon="-2.49757">
        <ele>75</ele>
        <time>2020-02-16T09:55:33.000Z</time>
      </trkpt>
      <trkpt lat="47.28139" lon="-2.49762">
        <ele>75</ele>
        <time>2020-02-16T09:55:35.000Z</time>
      </trkpt>
      <trkpt lat="47.2814" lon="-2.49778">
        <ele>75</ele>
        <time>2020-02-16T09:55:38.000Z</time>
      </trkpt>
      <trkpt lat="47.28148" lon="-2.49827">
        <ele>75</ele>
        <time>2020-02-16T09:55:45.000Z</time>
      </trkpt>
      <trkpt lat="47.28154" lon="-2.49872">
        <ele>75</ele>
        <time>2020-02-16T09:55:51.000Z</time>
      </trkpt>
      <trkpt lat="47.28157" lon="-2.49924">
        <ele>75</ele>
        <time>2020-02-16T09:55:58.000Z</time>
      </trkpt>
      <trkpt lat="47.28159" lon="-2.49944">
        <ele>75</ele>
        <time>2020-02-16T09:56:01.000Z</time>
      </trkpt>
      <trkpt lat="47.28162" lon="-2.49957">
        <ele>75</ele>
        <time>2020-02-16T09:56:03.000Z</time>
      </trkpt>
      <trkpt lat="47.28169" lon="-2.49997">
        <ele>75</ele>
        <time>2020-02-16T09:56:09.000Z</time>
      </trkpt>
      <trkpt lat="47.28176" lon="-2.5003">
        <ele>75</ele>
        <time>2020-02-16T09:56:14.000Z</time>
      </trkpt>
      <trkpt lat="47.28179" lon="-2.50051">
        <ele>75</ele>
        <time>2020-02-16T09:56:17.000Z</time>
      </trkpt>
      <trkpt lat="47.28182" lon="-2.50066">
        <ele>75</ele>
        <time>2020-02-16T09:56:19.000Z</time>
      </trkpt>
      <trkpt lat="47.28186" lon="-2.50087">
        <ele>75</ele>
        <time>2020-02-16T09:56:22.000Z</time>
      </trkpt>
      <trkpt lat="47.28191" lon="-2.50107">
        <ele>75</ele>
        <time>2020-02-16T09:56:25.000Z</time>
      </trkpt>
      <trkpt lat="47.28199" lon="-2.50147">
        <ele>75</ele>
        <time>2020-02-16T09:56:31.000Z</time>
      </trkpt>
      <trkpt lat="47.28209" lon="-2.50187">
        <ele>75</ele>
        <time>2020-02-16T09:56:37.000Z</time>
      </trkpt>
      <trkpt lat="47.28211" lon="-2.50193">
        <ele>75</ele>
        <time>2020-02-16T09:56:38.000Z</time>
      </trkpt>
      <trkpt lat="47.28222" lon="-2.50216">
        <ele>75</ele>
        <time>2020-02-16T09:56:42.000Z</time>
      </trkpt>
      <trkpt lat="47.28233" lon="-2.50237">
        <ele>75</ele>
        <time>2020-02-16T09:56:46.000Z</time>
      </trkpt>
      <trkpt lat="47.28242" lon="-2.50251">
        <ele>75</ele>
        <time>2020-02-16T09:56:49.000Z</time>
      </trkpt>
      <trkpt lat="47.28246" lon="-2.50255">
        <ele>75</ele>
        <time>2020-02-16T09:56:50.000Z</time>
      </trkpt>
      <trkpt lat="47.2825" lon="-2.50259">
        <ele>74.599998474121</ele>
        <time>2020-02-16T09:56:51.000Z</time>
      </trkpt>
      <trkpt lat="47.28254" lon="-2.50262">
        <ele>74.199996948242</ele>
        <time>2020-02-16T09:56:52.000Z</time>
      </trkpt>
      <trkpt lat="47.28257" lon="-2.50266">
        <ele>73.800003051758</ele>
        <time>2020-02-16T09:56:53.000Z</time>
      </trkpt>
      <trkpt lat="47.2826" lon="-2.5027">
        <ele>73.400001525879</ele>
        <time>2020-02-16T09:56:54.000Z</time>
      </trkpt>
      <trkpt lat="47.28262" lon="-2.50275">
        <ele>73</ele>
        <time>2020-02-16T09:56:55.000Z</time>
      </trkpt>
      <trkpt lat="47.28269" lon="-2.50293">
        <ele>73</ele>
        <time>2020-02-16T09:56:59.000Z</time>
      </trkpt>
      <trkpt lat="47.28274" lon="-2.50307">
        <ele>73</ele>
        <time>2020-02-16T09:57:02.000Z</time>
      </trkpt>
      <trkpt lat="47.2828" lon="-2.50311">
        <ele>73</ele>
        <time>2020-02-16T09:57:04.000Z</time>
      </trkpt>
      <trkpt lat="47.28291" lon="-2.50301">
        <ele>73</ele>
        <time>2020-02-16T09:57:08.000Z</time>
      </trkpt>
      <trkpt lat="47.28299" lon="-2.50294">
        <ele>73</ele>
        <time>2020-02-16T09:57:10.000Z</time>
      </trkpt>
      <trkpt lat="47.28308" lon="-2.50291">
        <ele>73</ele>
        <time>2020-02-16T09:57:12.000Z</time>
      </trkpt>
      <trkpt lat="47.28328" lon="-2.50301">
        <ele>73</ele>
        <time>2020-02-16T09:57:16.000Z</time>
      </trkpt>
      <trkpt lat="47.28339" lon="-2.50307">
        <ele>73.400001525879</ele>
        <time>2020-02-16T09:57:18.000Z</time>
      </trkpt>
      <trkpt lat="47.28344" lon="-2.50308">
        <ele>73.800003051758</ele>
        <time>2020-02-16T09:57:19.000Z</time>
      </trkpt>
      <trkpt lat="47.2835" lon="-2.50309">
        <ele>73.599998474121</ele>
        <time>2020-02-16T09:57:20.000Z</time>
      </trkpt>
      <trkpt lat="47.28355" lon="-2.50312">
        <ele>73.400001525879</ele>
        <time>2020-02-16T09:57:21.000Z</time>
      </trkpt>
      <trkpt lat="47.2836" lon="-2.50316">
        <ele>73.199996948242</ele>
        <time>2020-02-16T09:57:22.000Z</time>
      </trkpt>
      <trkpt lat="47.28365" lon="-2.50319">
        <ele>73</ele>
        <time>2020-02-16T09:57:23.000Z</time>
      </trkpt>
      <trkpt lat="47.2837" lon="-2.50323">
        <ele>72.800003051758</ele>
        <time>2020-02-16T09:57:24.000Z</time>
      </trkpt>
      <trkpt lat="47.28375" lon="-2.50326">
        <ele>72.800003051758</ele>
        <time>2020-02-16T09:57:25.000Z</time>
      </trkpt>
      <trkpt lat="47.28395" lon="-2.50341">
        <ele>72.800003051758</ele>
        <time>2020-02-16T09:57:29.000Z</time>
      </trkpt>
      <trkpt lat="47.28429" lon="-2.50365">
        <ele>72.800003051758</ele>
        <time>2020-02-16T09:57:36.000Z</time>
      </trkpt>
      <trkpt lat="47.28434" lon="-2.50367">
        <ele>72.800003051758</ele>
        <time>2020-02-16T09:57:37.000Z</time>
      </trkpt>
      <trkpt lat="47.28454" lon="-2.50379">
        <ele>72.800003051758</ele>
        <time>2020-02-16T09:57:41.000Z</time>
      </trkpt>
      <trkpt lat="47.28458" lon="-2.50383">
        <ele>72.800003051758</ele>
        <time>2020-02-16T09:57:42.000Z</time>
      </trkpt>
      <trkpt lat="47.28473" lon="-2.50393">
        <ele>72.400001525879</ele>
        <time>2020-02-16T09:57:45.000Z</time>
      </trkpt>
      <trkpt lat="47.28479" lon="-2.50397">
        <ele>71.800003051758</ele>
        <time>2020-02-16T09:57:46.000Z</time>
      </trkpt>
      <trkpt lat="47.28484" lon="-2.50401">
        <ele>71.400001525879</ele>
        <time>2020-02-16T09:57:47.000Z</time>
      </trkpt>
      <trkpt lat="47.28489" lon="-2.50404">
        <ele>71</ele>
        <time>2020-02-16T09:57:48.000Z</time>
      </trkpt>
      <trkpt lat="47.28494" lon="-2.50408">
        <ele>70.599998474121</ele>
        <time>2020-02-16T09:57:49.000Z</time>
      </trkpt>
      <trkpt lat="47.2852" lon="-2.50426">
        <ele>71</ele>
        <time>2020-02-16T09:57:54.000Z</time>
      </trkpt>
      <trkpt lat="47.28526" lon="-2.5043">
        <ele>71.400001525879</ele>
        <time>2020-02-16T09:57:55.000Z</time>
      </trkpt>
      <trkpt lat="47.28531" lon="-2.50434">
        <ele>72</ele>
        <time>2020-02-16T09:57:56.000Z</time>
      </trkpt>
      <trkpt lat="47.28537" lon="-2.50439">
        <ele>72.400001525879</ele>
        <time>2020-02-16T09:57:57.000Z</time>
      </trkpt>
      <trkpt lat="47.28542" lon="-2.50443">
        <ele>72.800003051758</ele>
        <time>2020-02-16T09:57:58.000Z</time>
      </trkpt>
      <trkpt lat="47.28566" lon="-2.5046">
        <ele>72.800003051758</ele>
        <time>2020-02-16T09:58:02.000Z</time>
      </trkpt>
      <trkpt lat="47.28609" lon="-2.50489">
        <ele>72.800003051758</ele>
        <time>2020-02-16T09:58:09.000Z</time>
      </trkpt>
      <trkpt lat="47.28654" lon="-2.50518">
        <ele>72.800003051758</ele>
        <time>2020-02-16T09:58:17.000Z</time>
      </trkpt>
      <trkpt lat="47.28696" lon="-2.50546">
        <ele>72.800003051758</ele>
        <time>2020-02-16T09:58:25.000Z</time>
      </trkpt>
      <trkpt lat="47.28737" lon="-2.50573">
        <ele>72.800003051758</ele>
        <time>2020-02-16T09:58:33.000Z</time>
      </trkpt>
      <trkpt lat="47.28776" lon="-2.50595">
        <ele>72.800003051758</ele>
        <time>2020-02-16T09:58:40.000Z</time>
      </trkpt>
      <trkpt lat="47.28828" lon="-2.50619">
        <ele>72.800003051758</ele>
        <time>2020-02-16T09:58:49.000Z</time>
      </trkpt>
      <trkpt lat="47.28834" lon="-2.50622">
        <ele>72.800003051758</ele>
        <time>2020-02-16T09:58:50.000Z</time>
      </trkpt>
      <trkpt lat="47.28872" lon="-2.50644">
        <ele>72.800003051758</ele>
        <time>2020-02-16T09:58:57.000Z</time>
      </trkpt>
      <trkpt lat="47.28889" lon="-2.50661">
        <ele>72.800003051758</ele>
        <time>2020-02-16T09:59:00.000Z</time>
      </trkpt>
      <trkpt lat="47.28897" lon="-2.50674">
        <ele>72.800003051758</ele>
        <time>2020-02-16T09:59:02.000Z</time>
      </trkpt>
      <trkpt lat="47.28922" lon="-2.50719">
        <ele>72.800003051758</ele>
        <time>2020-02-16T09:59:09.000Z</time>
      </trkpt>
      <trkpt lat="47.28936" lon="-2.50735">
        <ele>72.400001525879</ele>
        <time>2020-02-16T09:59:12.000Z</time>
      </trkpt>
      <trkpt lat="47.28941" lon="-2.50739">
        <ele>72</ele>
        <time>2020-02-16T09:59:13.000Z</time>
      </trkpt>
      <trkpt lat="47.28946" lon="-2.50743">
        <ele>71.599998474121</ele>
        <time>2020-02-16T09:59:14.000Z</time>
      </trkpt>
      <trkpt lat="47.2895" lon="-2.50746">
        <ele>70.800003051758</ele>
        <time>2020-02-16T09:59:15.000Z</time>
      </trkpt>
      <trkpt lat="47.28955" lon="-2.50747">
        <ele>70.800003051758</ele>
        <time>2020-02-16T09:59:16.000Z</time>
      </trkpt>
      <trkpt lat="47.28971" lon="-2.50748">
        <ele>70.800003051758</ele>
        <time>2020-02-16T09:59:19.000Z</time>
      </trkpt>
      <trkpt lat="47.28976" lon="-2.50748">
        <ele>70.800003051758</ele>
        <time>2020-02-16T09:59:20.000Z</time>
      </trkpt>
      <trkpt lat="47.28998" lon="-2.50752">
        <ele>70.800003051758</ele>
        <time>2020-02-16T09:59:24.000Z</time>
      </trkpt>
      <trkpt lat="47.29008" lon="-2.50757">
        <ele>70.800003051758</ele>
        <time>2020-02-16T09:59:26.000Z</time>
      </trkpt>
      <trkpt lat="47.2904" lon="-2.50776">
        <ele>70.800003051758</ele>
        <time>2020-02-16T09:59:33.000Z</time>
      </trkpt>
      <trkpt lat="47.29067" lon="-2.50794">
        <ele>70.800003051758</ele>
        <time>2020-02-16T09:59:38.000Z</time>
      </trkpt>
      <trkpt lat="47.29099" lon="-2.50807">
        <ele>71.199996948242</ele>
        <time>2020-02-16T09:59:44.000Z</time>
      </trkpt>
      <trkpt lat="47.29105" lon="-2.50808">
        <ele>71.599998474121</ele>
        <time>2020-02-16T09:59:45.000Z</time>
      </trkpt>
      <trkpt lat="47.29111" lon="-2.5081">
        <ele>72</ele>
        <time>2020-02-16T09:59:46.000Z</time>
      </trkpt>
      <trkpt lat="47.29116" lon="-2.50811">
        <ele>72.400001525879</ele>
        <time>2020-02-16T09:59:47.000Z</time>
      </trkpt>
      <trkpt lat="47.29122" lon="-2.50812">
        <ele>72.800003051758</ele>
        <time>2020-02-16T09:59:48.000Z</time>
      </trkpt>
      <trkpt lat="47.29134" lon="-2.50817">
        <ele>72.800003051758</ele>
        <time>2020-02-16T09:59:50.000Z</time>
      </trkpt>
      <trkpt lat="47.29173" lon="-2.50839">
        <ele>72.800003051758</ele>
        <time>2020-02-16T09:59:57.000Z</time>
      </trkpt>
      <trkpt lat="47.29224" lon="-2.5086">
        <ele>72.800003051758</ele>
        <time>2020-02-16T10:00:06.000Z</time>
      </trkpt>
      <trkpt lat="47.29254" lon="-2.50873">
        <ele>72.800003051758</ele>
        <time>2020-02-16T10:00:12.000Z</time>
      </trkpt>
      <trkpt lat="47.29259" lon="-2.50876">
        <ele>72.800003051758</ele>
        <time>2020-02-16T10:00:13.000Z</time>
      </trkpt>
      <trkpt lat="47.29274" lon="-2.50894">
        <ele>72.800003051758</ele>
        <time>2020-02-16T10:00:17.000Z</time>
      </trkpt>
      <trkpt lat="47.2929" lon="-2.50904">
        <ele>72.800003051758</ele>
        <time>2020-02-16T10:00:22.000Z</time>
      </trkpt>
      <trkpt lat="47.29294" lon="-2.50904">
        <ele>72.800003051758</ele>
        <time>2020-02-16T10:00:23.000Z</time>
      </trkpt>
      <trkpt lat="47.29309" lon="-2.50908">
        <ele>72.800003051758</ele>
        <time>2020-02-16T10:00:26.000Z</time>
      </trkpt>
      <trkpt lat="47.29319" lon="-2.50913">
        <ele>72.800003051758</ele>
        <time>2020-02-16T10:00:28.000Z</time>
      </trkpt>
      <trkpt lat="47.29344" lon="-2.50929">
        <ele>72.800003051758</ele>
        <time>2020-02-16T10:00:33.000Z</time>
      </trkpt>
      <trkpt lat="47.29353" lon="-2.50934">
        <ele>72.800003051758</ele>
        <time>2020-02-16T10:00:35.000Z</time>
      </trkpt>
      <trkpt lat="47.29363" lon="-2.50936">
        <ele>72.800003051758</ele>
        <time>2020-02-16T10:00:37.000Z</time>
      </trkpt>
      <trkpt lat="47.29368" lon="-2.50937">
        <ele>72.800003051758</ele>
        <time>2020-02-16T10:00:38.000Z</time>
      </trkpt>
      <trkpt lat="47.29376" lon="-2.50945">
        <ele>72.800003051758</ele>
        <time>2020-02-16T10:00:40.000Z</time>
      </trkpt>
      <trkpt lat="47.29388" lon="-2.5097">
        <ele>72.800003051758</ele>
        <time>2020-02-16T10:00:44.000Z</time>
      </trkpt>
      <trkpt lat="47.2939" lon="-2.50978">
        <ele>72.800003051758</ele>
        <time>2020-02-16T10:00:45.000Z</time>
      </trkpt>
      <trkpt lat="47.29396" lon="-2.50999">
        <ele>72.800003051758</ele>
        <time>2020-02-16T10:00:48.000Z</time>
      </trkpt>
      <trkpt lat="47.294" lon="-2.51012">
        <ele>72.800003051758</ele>
        <time>2020-02-16T10:00:50.000Z</time>
      </trkpt>
      <trkpt lat="47.2941" lon="-2.51028">
        <ele>72.800003051758</ele>
        <time>2020-02-16T10:00:53.000Z</time>
      </trkpt>
      <trkpt lat="47.29413" lon="-2.51033">
        <ele>72.800003051758</ele>
        <time>2020-02-16T10:00:54.000Z</time>
      </trkpt>
      <trkpt lat="47.29436" lon="-2.51066">
        <ele>72.800003051758</ele>
        <time>2020-02-16T10:01:00.000Z</time>
      </trkpt>
      <trkpt lat="47.29473" lon="-2.51118">
        <ele>72.800003051758</ele>
        <time>2020-02-16T10:01:09.000Z</time>
      </trkpt>
      <trkpt lat="47.29496" lon="-2.51151">
        <ele>72.800003051758</ele>
        <time>2020-02-16T10:01:15.000Z</time>
      </trkpt>
      <trkpt lat="47.29499" lon="-2.51157">
        <ele>72.800003051758</ele>
        <time>2020-02-16T10:01:16.000Z</time>
      </trkpt>
      <trkpt lat="47.29506" lon="-2.51179">
        <ele>72.800003051758</ele>
        <time>2020-02-16T10:01:19.000Z</time>
      </trkpt>
      <trkpt lat="47.2951" lon="-2.51194">
        <ele>72.800003051758</ele>
        <time>2020-02-16T10:01:21.000Z</time>
      </trkpt>
      <trkpt lat="47.29521" lon="-2.51229">
        <ele>73.400001525879</ele>
        <time>2020-02-16T10:01:26.000Z</time>
      </trkpt>
      <trkpt lat="47.29523" lon="-2.51235">
        <ele>73.800003051758</ele>
        <time>2020-02-16T10:01:27.000Z</time>
      </trkpt>
      <trkpt lat="47.29526" lon="-2.51242">
        <ele>74.199996948242</ele>
        <time>2020-02-16T10:01:28.000Z</time>
      </trkpt>
      <trkpt lat="47.29528" lon="-2.5125">
        <ele>74.599998474121</ele>
        <time>2020-02-16T10:01:29.000Z</time>
      </trkpt>
      <trkpt lat="47.29529" lon="-2.51257">
        <ele>75</ele>
        <time>2020-02-16T10:01:30.000Z</time>
      </trkpt>
      <trkpt lat="47.29533" lon="-2.51271">
        <ele>75</ele>
        <time>2020-02-16T10:01:32.000Z</time>
      </trkpt>
      <trkpt lat="47.29534" lon="-2.51278">
        <ele>74.599998474121</ele>
        <time>2020-02-16T10:01:33.000Z</time>
      </trkpt>
      <trkpt lat="47.29537" lon="-2.51285">
        <ele>74</ele>
        <time>2020-02-16T10:01:34.000Z</time>
      </trkpt>
      <trkpt lat="47.29539" lon="-2.51292">
        <ele>73.599998474121</ele>
        <time>2020-02-16T10:01:35.000Z</time>
      </trkpt>
      <trkpt lat="47.29541" lon="-2.51299">
        <ele>73.199996948242</ele>
        <time>2020-02-16T10:01:36.000Z</time>
      </trkpt>
      <trkpt lat="47.29543" lon="-2.51306">
        <ele>72.800003051758</ele>
        <time>2020-02-16T10:01:37.000Z</time>
      </trkpt>
      <trkpt lat="47.29546" lon="-2.51312">
        <ele>72.800003051758</ele>
        <time>2020-02-16T10:01:38.000Z</time>
      </trkpt>
      <trkpt lat="47.29559" lon="-2.51323">
        <ele>72.800003051758</ele>
        <time>2020-02-16T10:01:41.000Z</time>
      </trkpt>
      <trkpt lat="47.29564" lon="-2.51326">
        <ele>72.800003051758</ele>
        <time>2020-02-16T10:01:42.000Z</time>
      </trkpt>
      <trkpt lat="47.29594" lon="-2.51342">
        <ele>72.800003051758</ele>
        <time>2020-02-16T10:01:48.000Z</time>
      </trkpt>
      <trkpt lat="47.29599" lon="-2.51345">
        <ele>72.800003051758</ele>
        <time>2020-02-16T10:01:49.000Z</time>
      </trkpt>
      <trkpt lat="47.29637" lon="-2.51378">
        <ele>72.800003051758</ele>
        <time>2020-02-16T10:01:57.000Z</time>
      </trkpt>
      <trkpt lat="47.29676" lon="-2.51411">
        <ele>72.800003051758</ele>
        <time>2020-02-16T10:02:05.000Z</time>
      </trkpt>
      <trkpt lat="47.29706" lon="-2.51434">
        <ele>72.800003051758</ele>
        <time>2020-02-16T10:02:11.000Z</time>
      </trkpt>
      <trkpt lat="47.29737" lon="-2.51455">
        <ele>72.800003051758</ele>
        <time>2020-02-16T10:02:17.000Z</time>
      </trkpt>
      <trkpt lat="47.29778" lon="-2.51478">
        <ele>72.800003051758</ele>
        <time>2020-02-16T10:02:25.000Z</time>
      </trkpt>
      <trkpt lat="47.29795" lon="-2.51485">
        <ele>72.800003051758</ele>
        <time>2020-02-16T10:02:29.000Z</time>
      </trkpt>
      <trkpt lat="47.298" lon="-2.51484">
        <ele>72.800003051758</ele>
        <time>2020-02-16T10:02:30.000Z</time>
      </trkpt>
      <trkpt lat="47.29826" lon="-2.51481">
        <ele>72.400001525879</ele>
        <time>2020-02-16T10:02:36.000Z</time>
      </trkpt>
      <trkpt lat="47.2983" lon="-2.51481">
        <ele>72</ele>
        <time>2020-02-16T10:02:37.000Z</time>
      </trkpt>
      <trkpt lat="47.29833" lon="-2.51483">
        <ele>71.400001525879</ele>
        <time>2020-02-16T10:02:38.000Z</time>
      </trkpt>
      <trkpt lat="47.29836" lon="-2.51486">
        <ele>71</ele>
        <time>2020-02-16T10:02:39.000Z</time>
      </trkpt>
      <trkpt lat="47.29838" lon="-2.5149">
        <ele>70.599998474121</ele>
        <time>2020-02-16T10:02:40.000Z</time>
      </trkpt>
      <trkpt lat="47.29844" lon="-2.51505">
        <ele>70.599998474121</ele>
        <time>2020-02-16T10:02:43.000Z</time>
      </trkpt>
      <trkpt lat="47.29849" lon="-2.51514">
        <ele>70.599998474121</ele>
        <time>2020-02-16T10:02:45.000Z</time>
      </trkpt>
      <trkpt lat="47.29869" lon="-2.51535">
        <ele>70.599998474121</ele>
        <time>2020-02-16T10:02:51.000Z</time>
      </trkpt>
      <trkpt lat="47.29872" lon="-2.5154">
        <ele>70.599998474121</ele>
        <time>2020-02-16T10:02:52.000Z</time>
      </trkpt>
      <trkpt lat="47.29885" lon="-2.5157">
        <ele>70.599998474121</ele>
        <time>2020-02-16T10:02:58.000Z</time>
      </trkpt>
      <trkpt lat="47.29898" lon="-2.51622">
        <ele>70.599998474121</ele>
        <time>2020-02-16T10:03:07.000Z</time>
      </trkpt>
      <trkpt lat="47.29907" lon="-2.51653">
        <ele>70.599998474121</ele>
        <time>2020-02-16T10:03:13.000Z</time>
      </trkpt>
      <trkpt lat="47.29911" lon="-2.51669">
        <ele>70.599998474121</ele>
        <time>2020-02-16T10:03:18.000Z</time>
      </trkpt>
      <trkpt lat="47.29912" lon="-2.51673">
        <ele>70.599998474121</ele>
        <time>2020-02-16T10:03:22.000Z</time>
      </trkpt>
      <trkpt lat="47.2991" lon="-2.51669">
        <ele>73</ele>
        <time>2020-02-16T10:16:03.000Z</time>
      </trkpt>
      <trkpt lat="47.29908" lon="-2.51668">
        <ele>73</ele>
        <time>2020-02-16T10:16:06.000Z</time>
      </trkpt>
      <trkpt lat="47.29907" lon="-2.51665">
        <ele>73</ele>
        <time>2020-02-16T10:16:25.000Z</time>
      </trkpt>
      <trkpt lat="47.29906" lon="-2.51663">
        <ele>73</ele>
        <time>2020-02-16T10:16:26.000Z</time>
      </trkpt>
      <trkpt lat="47.29905" lon="-2.51657">
        <ele>73</ele>
        <time>2020-02-16T10:16:32.000Z</time>
      </trkpt>
      <trkpt lat="47.29904" lon="-2.51651">
        <ele>73</ele>
        <time>2020-02-16T10:16:57.000Z</time>
      </trkpt>
      <trkpt lat="47.29899" lon="-2.51642">
        <ele>73</ele>
        <time>2020-02-16T10:17:01.000Z</time>
      </trkpt>
      <trkpt lat="47.29899" lon="-2.51634">
        <ele>73</ele>
        <time>2020-02-16T10:17:05.000Z</time>
      </trkpt>
      <trkpt lat="47.29903" lon="-2.51638">
        <ele>73</ele>
        <time>2020-02-16T10:17:08.000Z</time>
      </trkpt>
      <trkpt lat="47.29905" lon="-2.5165">
        <ele>73</ele>
        <time>2020-02-16T10:17:12.000Z</time>
      </trkpt>
      <trkpt lat="47.29906" lon="-2.51652">
        <ele>73</ele>
        <time>2020-02-16T10:17:13.000Z</time>
      </trkpt>
      <trkpt lat="47.2991" lon="-2.51665">
        <ele>73</ele>
        <time>2020-02-16T10:17:19.000Z</time>
      </trkpt>
      <trkpt lat="47.2991" lon="-2.51667">
        <ele>73</ele>
        <time>2020-02-16T10:17:20.000Z</time>
      </trkpt>
      <trkpt lat="47.29909" lon="-2.5167">
        <ele>73</ele>
        <time>2020-02-16T10:17:24.000Z</time>
      </trkpt>
      <trkpt lat="47.29908" lon="-2.51669">
        <ele>73</ele>
        <time>2020-02-16T10:17:25.000Z</time>
      </trkpt>
      <trkpt lat="47.29904" lon="-2.51655">
        <ele>73</ele>
        <time>2020-02-16T10:17:29.000Z</time>
      </trkpt>
      <trkpt lat="47.299" lon="-2.51633">
        <ele>73</ele>
        <time>2020-02-16T10:17:34.000Z</time>
      </trkpt>
      <trkpt lat="47.29899" lon="-2.51627">
        <ele>73</ele>
        <time>2020-02-16T10:17:35.000Z</time>
      </trkpt>
      <trkpt lat="47.29893" lon="-2.51609">
        <ele>73</ele>
        <time>2020-02-16T10:17:38.000Z</time>
      </trkpt>
      <trkpt lat="47.29885" lon="-2.51576">
        <ele>73</ele>
        <time>2020-02-16T10:17:44.000Z</time>
      </trkpt>
      <trkpt lat="47.2988" lon="-2.51561">
        <ele>72.400001525879</ele>
        <time>2020-02-16T10:17:47.000Z</time>
      </trkpt>
      <trkpt lat="47.29878" lon="-2.51556">
        <ele>72</ele>
        <time>2020-02-16T10:17:48.000Z</time>
      </trkpt>
      <trkpt lat="47.29876" lon="-2.51552">
        <ele>71.599998474121</ele>
        <time>2020-02-16T10:17:49.000Z</time>
      </trkpt>
      <trkpt lat="47.29874" lon="-2.51548">
        <ele>71.199996948242</ele>
        <time>2020-02-16T10:17:50.000Z</time>
      </trkpt>
      <trkpt lat="47.29872" lon="-2.51545">
        <ele>70.800003051758</ele>
        <time>2020-02-16T10:17:51.000Z</time>
      </trkpt>
      <trkpt lat="47.29854" lon="-2.51531">
        <ele>70.800003051758</ele>
        <time>2020-02-16T10:17:57.000Z</time>
      </trkpt>
      <trkpt lat="47.29851" lon="-2.5153">
        <ele>71.199996948242</ele>
        <time>2020-02-16T10:17:58.000Z</time>
      </trkpt>
      <trkpt lat="47.29848" lon="-2.51528">
        <ele>71.599998474121</ele>
        <time>2020-02-16T10:17:59.000Z</time>
      </trkpt>
      <trkpt lat="47.29845" lon="-2.51527">
        <ele>72</ele>
        <time>2020-02-16T10:18:00.000Z</time>
      </trkpt>
      <trkpt lat="47.29842" lon="-2.51526">
        <ele>72.400001525879</ele>
        <time>2020-02-16T10:18:01.000Z</time>
      </trkpt>
      <trkpt lat="47.29838" lon="-2.51525">
        <ele>73</ele>
        <time>2020-02-16T10:18:02.000Z</time>
      </trkpt>
      <trkpt lat="47.29831" lon="-2.51524">
        <ele>73</ele>
        <time>2020-02-16T10:18:04.000Z</time>
      </trkpt>
      <trkpt lat="47.29815" lon="-2.51521">
        <ele>73</ele>
        <time>2020-02-16T10:18:09.000Z</time>
      </trkpt>
      <trkpt lat="47.29812" lon="-2.51519">
        <ele>73</ele>
        <time>2020-02-16T10:18:10.000Z</time>
      </trkpt>
      <trkpt lat="47.29803" lon="-2.51519">
        <ele>73</ele>
        <time>2020-02-16T10:18:13.000Z</time>
      </trkpt>
      <trkpt lat="47.29797" lon="-2.51512">
        <ele>73</ele>
        <time>2020-02-16T10:18:16.000Z</time>
      </trkpt>
      <trkpt lat="47.29795" lon="-2.51508">
        <ele>73</ele>
        <time>2020-02-16T10:18:17.000Z</time>
      </trkpt>
      <trkpt lat="47.29783" lon="-2.51493">
        <ele>73</ele>
        <time>2020-02-16T10:18:21.000Z</time>
      </trkpt>
      <trkpt lat="47.29774" lon="-2.51486">
        <ele>73.400001525879</ele>
        <time>2020-02-16T10:18:24.000Z</time>
      </trkpt>
      <trkpt lat="47.2977" lon="-2.51485">
        <ele>73.800003051758</ele>
        <time>2020-02-16T10:18:25.000Z</time>
      </trkpt>
      <trkpt lat="47.29767" lon="-2.51482">
        <ele>74.400001525879</ele>
        <time>2020-02-16T10:18:26.000Z</time>
      </trkpt>
      <trkpt lat="47.29764" lon="-2.5148">
        <ele>74.800003051758</ele>
        <time>2020-02-16T10:18:27.000Z</time>
      </trkpt>
      <trkpt lat="47.29761" lon="-2.51477">
        <ele>75.400001525879</ele>
        <time>2020-02-16T10:18:28.000Z</time>
      </trkpt>
      <trkpt lat="47.29739" lon="-2.51464">
        <ele>75</ele>
        <time>2020-02-16T10:18:34.000Z</time>
      </trkpt>
      <trkpt lat="47.29735" lon="-2.51461">
        <ele>74.199996948242</ele>
        <time>2020-02-16T10:18:35.000Z</time>
      </trkpt>
      <trkpt lat="47.29731" lon="-2.51458">
        <ele>73.599998474121</ele>
        <time>2020-02-16T10:18:36.000Z</time>
      </trkpt>
      <trkpt lat="47.29726" lon="-2.51456">
        <ele>72.800003051758</ele>
        <time>2020-02-16T10:18:37.000Z</time>
      </trkpt>
      <trkpt lat="47.29722" lon="-2.51452">
        <ele>72.199996948242</ele>
        <time>2020-02-16T10:18:38.000Z</time>
      </trkpt>
      <trkpt lat="47.29717" lon="-2.51449">
        <ele>71.599998474121</ele>
        <time>2020-02-16T10:18:39.000Z</time>
      </trkpt>
      <trkpt lat="47.29713" lon="-2.51445">
        <ele>71</ele>
        <time>2020-02-16T10:18:40.000Z</time>
      </trkpt>
      <trkpt lat="47.2969" lon="-2.51426">
        <ele>71</ele>
        <time>2020-02-16T10:18:46.000Z</time>
      </trkpt>
      <trkpt lat="47.2967" lon="-2.5141">
        <ele>71</ele>
        <time>2020-02-16T10:18:53.000Z</time>
      </trkpt>
      <trkpt lat="47.29653" lon="-2.51396">
        <ele>71</ele>
        <time>2020-02-16T10:18:58.000Z</time>
      </trkpt>
      <trkpt lat="47.29624" lon="-2.51372">
        <ele>71</ele>
        <time>2020-02-16T10:19:06.000Z</time>
      </trkpt>
      <trkpt lat="47.29607" lon="-2.51358">
        <ele>71</ele>
        <time>2020-02-16T10:19:11.000Z</time>
      </trkpt>
      <trkpt lat="47.29588" lon="-2.5134">
        <ele>71</ele>
        <time>2020-02-16T10:19:17.000Z</time>
      </trkpt>
      <trkpt lat="47.29584" lon="-2.51338">
        <ele>71</ele>
        <time>2020-02-16T10:19:18.000Z</time>
      </trkpt>
      <trkpt lat="47.29566" lon="-2.51331">
        <ele>71.400001525879</ele>
        <time>2020-02-16T10:19:23.000Z</time>
      </trkpt>
      <trkpt lat="47.29563" lon="-2.5133">
        <ele>71.800003051758</ele>
        <time>2020-02-16T10:19:24.000Z</time>
      </trkpt>
      <trkpt lat="47.2956" lon="-2.51329">
        <ele>72.800003051758</ele>
        <time>2020-02-16T10:19:25.000Z</time>
      </trkpt>
      <trkpt lat="47.29558" lon="-2.51329">
        <ele>73.199996948242</ele>
        <time>2020-02-16T10:19:26.000Z</time>
      </trkpt>
      <trkpt lat="47.29547" lon="-2.51328">
        <ele>73.199996948242</ele>
        <time>2020-02-16T10:19:30.000Z</time>
      </trkpt>
      <trkpt lat="47.29539" lon="-2.51311">
        <ele>73.199996948242</ele>
        <time>2020-02-16T10:19:34.000Z</time>
      </trkpt>
      <trkpt lat="47.29529" lon="-2.51282">
        <ele>73.199996948242</ele>
        <time>2020-02-16T10:19:40.000Z</time>
      </trkpt>
      <trkpt lat="47.29516" lon="-2.51251">
        <ele>73.199996948242</ele>
        <time>2020-02-16T10:19:48.000Z</time>
      </trkpt>
      <trkpt lat="47.29503" lon="-2.51254">
        <ele>73.199996948242</ele>
        <time>2020-02-16T10:19:52.000Z</time>
      </trkpt>
      <trkpt lat="47.295" lon="-2.51251">
        <ele>73.199996948242</ele>
        <time>2020-02-16T10:19:53.000Z</time>
      </trkpt>
      <trkpt lat="47.29491" lon="-2.51239">
        <ele>73.199996948242</ele>
        <time>2020-02-16T10:19:56.000Z</time>
      </trkpt>
      <trkpt lat="47.29483" lon="-2.51224">
        <ele>73.199996948242</ele>
        <time>2020-02-16T10:19:59.000Z</time>
      </trkpt>
      <trkpt lat="47.29474" lon="-2.51199">
        <ele>73.199996948242</ele>
        <time>2020-02-16T10:20:04.000Z</time>
      </trkpt>
      <trkpt lat="47.29454" lon="-2.5117">
        <ele>73.199996948242</ele>
        <time>2020-02-16T10:20:11.000Z</time>
      </trkpt>
      <trkpt lat="47.2943" lon="-2.51137">
        <ele>73.199996948242</ele>
        <time>2020-02-16T10:20:18.000Z</time>
      </trkpt>
      <trkpt lat="47.29417" lon="-2.51124">
        <ele>73.199996948242</ele>
        <time>2020-02-16T10:20:21.000Z</time>
      </trkpt>
      <trkpt lat="47.29402" lon="-2.51109">
        <ele>73.199996948242</ele>
        <time>2020-02-16T10:20:25.000Z</time>
      </trkpt>
      <trkpt lat="47.29398" lon="-2.51106">
        <ele>73.199996948242</ele>
        <time>2020-02-16T10:20:26.000Z</time>
      </trkpt>
      <trkpt lat="47.29379" lon="-2.51088">
        <ele>73.199996948242</ele>
        <time>2020-02-16T10:20:31.000Z</time>
      </trkpt>
      <trkpt lat="47.29375" lon="-2.51083">
        <ele>72.800003051758</ele>
        <time>2020-02-16T10:20:32.000Z</time>
      </trkpt>
      <trkpt lat="47.29373" lon="-2.51077">
        <ele>72.199996948242</ele>
        <time>2020-02-16T10:20:33.000Z</time>
      </trkpt>
      <trkpt lat="47.2937" lon="-2.51072">
        <ele>71.800003051758</ele>
        <time>2020-02-16T10:20:34.000Z</time>
      </trkpt>
      <trkpt lat="47.29367" lon="-2.51066">
        <ele>71.400001525879</ele>
        <time>2020-02-16T10:20:35.000Z</time>
      </trkpt>
      <trkpt lat="47.29365" lon="-2.5106">
        <ele>71</ele>
        <time>2020-02-16T10:20:36.000Z</time>
      </trkpt>
      <trkpt lat="47.29355" lon="-2.51039">
        <ele>71</ele>
        <time>2020-02-16T10:20:40.000Z</time>
      </trkpt>
      <trkpt lat="47.29353" lon="-2.51033">
        <ele>71.400001525879</ele>
        <time>2020-02-16T10:20:41.000Z</time>
      </trkpt>
      <trkpt lat="47.2935" lon="-2.51028">
        <ele>71.800003051758</ele>
        <time>2020-02-16T10:20:42.000Z</time>
      </trkpt>
      <trkpt lat="47.29348" lon="-2.51023">
        <ele>72.199996948242</ele>
        <time>2020-02-16T10:20:43.000Z</time>
      </trkpt>
      <trkpt lat="47.29345" lon="-2.51019">
        <ele>72.599998474121</ele>
        <time>2020-02-16T10:20:44.000Z</time>
      </trkpt>
      <trkpt lat="47.29342" lon="-2.51015">
        <ele>73</ele>
        <time>2020-02-16T10:20:45.000Z</time>
      </trkpt>
      <trkpt lat="47.2934" lon="-2.5101">
        <ele>73.400001525879</ele>
        <time>2020-02-16T10:20:46.000Z</time>
      </trkpt>
      <trkpt lat="47.29337" lon="-2.51005">
        <ele>73.800003051758</ele>
        <time>2020-02-16T10:20:47.000Z</time>
      </trkpt>
      <trkpt lat="47.29335" lon="-2.51">
        <ele>74.400001525879</ele>
        <time>2020-02-16T10:20:48.000Z</time>
      </trkpt>
      <trkpt lat="47.29332" lon="-2.50996">
        <ele>74.800003051758</ele>
        <time>2020-02-16T10:20:49.000Z</time>
      </trkpt>
      <trkpt lat="47.29329" lon="-2.50992">
        <ele>74.400001525879</ele>
        <time>2020-02-16T10:20:50.000Z</time>
      </trkpt>
      <trkpt lat="47.29326" lon="-2.50989">
        <ele>74.199996948242</ele>
        <time>2020-02-16T10:20:51.000Z</time>
      </trkpt>
      <trkpt lat="47.29322" lon="-2.50984">
        <ele>73.800003051758</ele>
        <time>2020-02-16T10:20:52.000Z</time>
      </trkpt>
      <trkpt lat="47.29319" lon="-2.5098">
        <ele>73.599998474121</ele>
        <time>2020-02-16T10:20:53.000Z</time>
      </trkpt>
      <trkpt lat="47.29315" lon="-2.50975">
        <ele>73.199996948242</ele>
        <time>2020-02-16T10:20:54.000Z</time>
      </trkpt>
      <trkpt lat="47.29296" lon="-2.5095">
        <ele>73.199996948242</ele>
        <time>2020-02-16T10:21:00.000Z</time>
      </trkpt>
      <trkpt lat="47.2928" lon="-2.50921">
        <ele>73.199996948242</ele>
        <time>2020-02-16T10:21:06.000Z</time>
      </trkpt>
      <trkpt lat="47.29273" lon="-2.5091">
        <ele>73.199996948242</ele>
        <time>2020-02-16T10:21:10.000Z</time>
      </trkpt>
      <trkpt lat="47.29273" lon="-2.50906">
        <ele>73.199996948242</ele>
        <time>2020-02-16T10:21:14.000Z</time>
      </trkpt>
      <trkpt lat="47.29272" lon="-2.509">
        <ele>73.199996948242</ele>
        <time>2020-02-16T10:21:16.000Z</time>
      </trkpt>
      <trkpt lat="47.29263" lon="-2.50887">
        <ele>73.199996948242</ele>
        <time>2020-02-16T10:21:20.000Z</time>
      </trkpt>
      <trkpt lat="47.29244" lon="-2.50875">
        <ele>73.199996948242</ele>
        <time>2020-02-16T10:21:25.000Z</time>
      </trkpt>
      <trkpt lat="47.2922" lon="-2.50866">
        <ele>73.199996948242</ele>
        <time>2020-02-16T10:21:31.000Z</time>
      </trkpt>
      <trkpt lat="47.29216" lon="-2.50865">
        <ele>73.199996948242</ele>
        <time>2020-02-16T10:21:32.000Z</time>
      </trkpt>
      <trkpt lat="47.29201" lon="-2.50866">
        <ele>73.199996948242</ele>
        <time>2020-02-16T10:21:35.000Z</time>
      </trkpt>
      <trkpt lat="47.29191" lon="-2.50867">
        <ele>73.199996948242</ele>
        <time>2020-02-16T10:21:37.000Z</time>
      </trkpt>
      <trkpt lat="47.29176" lon="-2.5087">
        <ele>73.199996948242</ele>
        <time>2020-02-16T10:21:40.000Z</time>
      </trkpt>
      <trkpt lat="47.29161" lon="-2.50871">
        <ele>73.199996948242</ele>
        <time>2020-02-16T10:21:43.000Z</time>
      </trkpt>
      <trkpt lat="47.29152" lon="-2.50866">
        <ele>73.199996948242</ele>
        <time>2020-02-16T10:21:45.000Z</time>
      </trkpt>
      <trkpt lat="47.29142" lon="-2.50861">
        <ele>73.199996948242</ele>
        <time>2020-02-16T10:21:47.000Z</time>
      </trkpt>
      <trkpt lat="47.29118" lon="-2.50848">
        <ele>73.199996948242</ele>
        <time>2020-02-16T10:21:52.000Z</time>
      </trkpt>
      <trkpt lat="47.29084" lon="-2.5083">
        <ele>73.199996948242</ele>
        <time>2020-02-16T10:21:59.000Z</time>
      </trkpt>
      <trkpt lat="47.29041" lon="-2.50802">
        <ele>73.199996948242</ele>
        <time>2020-02-16T10:22:08.000Z</time>
      </trkpt>
      <trkpt lat="47.29003" lon="-2.50782">
        <ele>73.199996948242</ele>
        <time>2020-02-16T10:22:16.000Z</time>
      </trkpt>
      <trkpt lat="47.28998" lon="-2.5078">
        <ele>73.199996948242</ele>
        <time>2020-02-16T10:22:17.000Z</time>
      </trkpt>
      <trkpt lat="47.28989" lon="-2.50776">
        <ele>73.199996948242</ele>
        <time>2020-02-16T10:22:19.000Z</time>
      </trkpt>
      <trkpt lat="47.2898" lon="-2.50771">
        <ele>73.199996948242</ele>
        <time>2020-02-16T10:22:21.000Z</time>
      </trkpt>
      <trkpt lat="47.28961" lon="-2.5076">
        <ele>73.599998474121</ele>
        <time>2020-02-16T10:22:25.000Z</time>
      </trkpt>
      <trkpt lat="47.28956" lon="-2.50757">
        <ele>74.199996948242</ele>
        <time>2020-02-16T10:22:26.000Z</time>
      </trkpt>
      <trkpt lat="47.28952" lon="-2.50755">
        <ele>74.599998474121</ele>
        <time>2020-02-16T10:22:27.000Z</time>
      </trkpt>
      <trkpt lat="47.28947" lon="-2.50752">
        <ele>75.199996948242</ele>
        <time>2020-02-16T10:22:28.000Z</time>
      </trkpt>
      <trkpt lat="47.28943" lon="-2.50749">
        <ele>75.599998474121</ele>
        <time>2020-02-16T10:22:29.000Z</time>
      </trkpt>
      <trkpt lat="47.28938" lon="-2.50746">
        <ele>75.199996948242</ele>
        <time>2020-02-16T10:22:30.000Z</time>
      </trkpt>
      <trkpt lat="47.28934" lon="-2.50743">
        <ele>74.599998474121</ele>
        <time>2020-02-16T10:22:31.000Z</time>
      </trkpt>
      <trkpt lat="47.2893" lon="-2.50739">
        <ele>74</ele>
        <time>2020-02-16T10:22:32.000Z</time>
      </trkpt>
      <trkpt lat="47.28925" lon="-2.50735">
        <ele>73.599998474121</ele>
        <time>2020-02-16T10:22:33.000Z</time>
      </trkpt>
      <trkpt lat="47.28921" lon="-2.50731">
        <ele>73</ele>
        <time>2020-02-16T10:22:34.000Z</time>
      </trkpt>
      <trkpt lat="47.28916" lon="-2.50727">
        <ele>73</ele>
        <time>2020-02-16T10:22:35.000Z</time>
      </trkpt>
      <trkpt lat="47.28913" lon="-2.50722">
        <ele>73</ele>
        <time>2020-02-16T10:22:36.000Z</time>
      </trkpt>
      <trkpt lat="47.289" lon="-2.50703">
        <ele>73</ele>
        <time>2020-02-16T10:22:40.000Z</time>
      </trkpt>
      <trkpt lat="47.28877" lon="-2.50665">
        <ele>73</ele>
        <time>2020-02-16T10:22:47.000Z</time>
      </trkpt>
      <trkpt lat="47.28863" lon="-2.50646">
        <ele>73</ele>
        <time>2020-02-16T10:22:51.000Z</time>
      </trkpt>
      <trkpt lat="47.28853" lon="-2.50638">
        <ele>73</ele>
        <time>2020-02-16T10:22:53.000Z</time>
      </trkpt>
      <trkpt lat="47.2882" lon="-2.5062">
        <ele>73</ele>
        <time>2020-02-16T10:23:00.000Z</time>
      </trkpt>
      <trkpt lat="47.28784" lon="-2.50602">
        <ele>73</ele>
        <time>2020-02-16T10:23:08.000Z</time>
      </trkpt>
      <trkpt lat="47.28754" lon="-2.50586">
        <ele>73</ele>
        <time>2020-02-16T10:23:15.000Z</time>
      </trkpt>
      <trkpt lat="47.28742" lon="-2.50579">
        <ele>73.599998474121</ele>
        <time>2020-02-16T10:23:18.000Z</time>
      </trkpt>
      <trkpt lat="47.28738" lon="-2.50577">
        <ele>74</ele>
        <time>2020-02-16T10:23:19.000Z</time>
      </trkpt>
      <trkpt lat="47.28734" lon="-2.50575">
        <ele>74.400001525879</ele>
        <time>2020-02-16T10:23:20.000Z</time>
      </trkpt>
      <trkpt lat="47.2873" lon="-2.50572">
        <ele>74.800003051758</ele>
        <time>2020-02-16T10:23:21.000Z</time>
      </trkpt>
      <trkpt lat="47.28726" lon="-2.5057">
        <ele>75.400001525879</ele>
        <time>2020-02-16T10:23:22.000Z</time>
      </trkpt>
      <trkpt lat="47.28698" lon="-2.50552">
        <ele>75.400001525879</ele>
        <time>2020-02-16T10:23:29.000Z</time>
      </trkpt>
      <trkpt lat="47.28689" lon="-2.50546">
        <ele>75</ele>
        <time>2020-02-16T10:23:31.000Z</time>
      </trkpt>
      <trkpt lat="47.28685" lon="-2.50543">
        <ele>74</ele>
        <time>2020-02-16T10:23:32.000Z</time>
      </trkpt>
      <trkpt lat="47.2868" lon="-2.5054">
        <ele>73.599998474121</ele>
        <time>2020-02-16T10:23:33.000Z</time>
      </trkpt>
      <trkpt lat="47.28676" lon="-2.50537">
        <ele>73.199996948242</ele>
        <time>2020-02-16T10:23:34.000Z</time>
      </trkpt>
      <trkpt lat="47.28663" lon="-2.50528">
        <ele>73.199996948242</ele>
        <time>2020-02-16T10:23:37.000Z</time>
      </trkpt>
      <trkpt lat="47.28655" lon="-2.50522">
        <ele>73.800003051758</ele>
        <time>2020-02-16T10:23:39.000Z</time>
      </trkpt>
      <trkpt lat="47.2865" lon="-2.5052">
        <ele>74.199996948242</ele>
        <time>2020-02-16T10:23:40.000Z</time>
      </trkpt>
      <trkpt lat="47.28646" lon="-2.50517">
        <ele>74.800003051758</ele>
        <time>2020-02-16T10:23:41.000Z</time>
      </trkpt>
      <trkpt lat="47.28641" lon="-2.50514">
        <ele>75.199996948242</ele>
        <time>2020-02-16T10:23:42.000Z</time>
      </trkpt>
      <trkpt lat="47.28637" lon="-2.50511">
        <ele>74.800003051758</ele>
        <time>2020-02-16T10:23:43.000Z</time>
      </trkpt>
      <trkpt lat="47.28632" lon="-2.50508">
        <ele>74.400001525879</ele>
        <time>2020-02-16T10:23:44.000Z</time>
      </trkpt>
      <trkpt lat="47.28628" lon="-2.50505">
        <ele>74</ele>
        <time>2020-02-16T10:23:45.000Z</time>
      </trkpt>
      <trkpt lat="47.28623" lon="-2.50502">
        <ele>73.599998474121</ele>
        <time>2020-02-16T10:23:46.000Z</time>
      </trkpt>
      <trkpt lat="47.28619" lon="-2.505">
        <ele>73.199996948242</ele>
        <time>2020-02-16T10:23:47.000Z</time>
      </trkpt>
      <trkpt lat="47.28596" lon="-2.50485">
        <ele>73.199996948242</ele>
        <time>2020-02-16T10:23:52.000Z</time>
      </trkpt>
      <trkpt lat="47.28562" lon="-2.50462">
        <ele>73.199996948242</ele>
        <time>2020-02-16T10:24:00.000Z</time>
      </trkpt>
      <trkpt lat="47.28553" lon="-2.50456">
        <ele>73.199996948242</ele>
        <time>2020-02-16T10:24:02.000Z</time>
      </trkpt>
      <trkpt lat="47.28545" lon="-2.5045">
        <ele>73.599998474121</ele>
        <time>2020-02-16T10:24:04.000Z</time>
      </trkpt>
      <trkpt lat="47.2854" lon="-2.50448">
        <ele>74</ele>
        <time>2020-02-16T10:24:05.000Z</time>
      </trkpt>
      <trkpt lat="47.28536" lon="-2.50445">
        <ele>74.400001525879</ele>
        <time>2020-02-16T10:24:06.000Z</time>
      </trkpt>
      <trkpt lat="47.28532" lon="-2.50443">
        <ele>74.800003051758</ele>
        <time>2020-02-16T10:24:07.000Z</time>
      </trkpt>
      <trkpt lat="47.28528" lon="-2.5044">
        <ele>75.199996948242</ele>
        <time>2020-02-16T10:24:08.000Z</time>
      </trkpt>
      <trkpt lat="47.28515" lon="-2.50431">
        <ele>74.800003051758</ele>
        <time>2020-02-16T10:24:12.000Z</time>
      </trkpt>
      <trkpt lat="47.28512" lon="-2.50429">
        <ele>74.400001525879</ele>
        <time>2020-02-16T10:24:13.000Z</time>
      </trkpt>
      <trkpt lat="47.28508" lon="-2.50427">
        <ele>74</ele>
        <time>2020-02-16T10:24:14.000Z</time>
      </trkpt>
      <trkpt lat="47.28504" lon="-2.50424">
        <ele>73.400001525879</ele>
        <time>2020-02-16T10:24:15.000Z</time>
      </trkpt>
      <trkpt lat="47.285" lon="-2.50422">
        <ele>73</ele>
        <time>2020-02-16T10:24:16.000Z</time>
      </trkpt>
      <trkpt lat="47.28492" lon="-2.50416">
        <ele>73</ele>
        <time>2020-02-16T10:24:18.000Z</time>
      </trkpt>
      <trkpt lat="47.28454" lon="-2.50393">
        <ele>73</ele>
        <time>2020-02-16T10:24:26.000Z</time>
      </trkpt>
      <trkpt lat="47.28445" lon="-2.50388">
        <ele>72.599998474121</ele>
        <time>2020-02-16T10:24:28.000Z</time>
      </trkpt>
      <trkpt lat="47.28441" lon="-2.50385">
        <ele>72.199996948242</ele>
        <time>2020-02-16T10:24:29.000Z</time>
      </trkpt>
      <trkpt lat="47.28437" lon="-2.50383">
        <ele>71.800003051758</ele>
        <time>2020-02-16T10:24:30.000Z</time>
      </trkpt>
      <trkpt lat="47.28433" lon="-2.5038">
        <ele>71.199996948242</ele>
        <time>2020-02-16T10:24:31.000Z</time>
      </trkpt>
      <trkpt lat="47.28429" lon="-2.50378">
        <ele>70.800003051758</ele>
        <time>2020-02-16T10:24:32.000Z</time>
      </trkpt>
      <trkpt lat="47.28416" lon="-2.50371">
        <ele>70.800003051758</ele>
        <time>2020-02-16T10:24:35.000Z</time>
      </trkpt>
      <trkpt lat="47.2838" lon="-2.50347">
        <ele>70.800003051758</ele>
        <time>2020-02-16T10:24:43.000Z</time>
      </trkpt>
      <trkpt lat="47.28359" lon="-2.50335">
        <ele>70.800003051758</ele>
        <time>2020-02-16T10:24:48.000Z</time>
      </trkpt>
      <trkpt lat="47.28351" lon="-2.50329">
        <ele>70.800003051758</ele>
        <time>2020-02-16T10:24:50.000Z</time>
      </trkpt>
      <trkpt lat="47.2833" lon="-2.50314">
        <ele>70.800003051758</ele>
        <time>2020-02-16T10:24:55.000Z</time>
      </trkpt>
      <trkpt lat="47.28325" lon="-2.50315">
        <ele>70.800003051758</ele>
        <time>2020-02-16T10:24:56.000Z</time>
      </trkpt>
      <trkpt lat="47.28315" lon="-2.50324">
        <ele>71.400001525879</ele>
        <time>2020-02-16T10:24:59.000Z</time>
      </trkpt>
      <trkpt lat="47.28311" lon="-2.50328">
        <ele>71.800003051758</ele>
        <time>2020-02-16T10:25:00.000Z</time>
      </trkpt>
      <trkpt lat="47.28307" lon="-2.50331">
        <ele>72.199996948242</ele>
        <time>2020-02-16T10:25:01.000Z</time>
      </trkpt>
      <trkpt lat="47.28303" lon="-2.50333">
        <ele>72.800003051758</ele>
        <time>2020-02-16T10:25:02.000Z</time>
      </trkpt>
      <trkpt lat="47.28299" lon="-2.50331">
        <ele>73.199996948242</ele>
        <time>2020-02-16T10:25:03.000Z</time>
      </trkpt>
      <trkpt lat="47.28288" lon="-2.50318">
        <ele>73.199996948242</ele>
        <time>2020-02-16T10:25:06.000Z</time>
      </trkpt>
      <trkpt lat="47.28273" lon="-2.50308">
        <ele>73.199996948242</ele>
        <time>2020-02-16T10:25:10.000Z</time>
      </trkpt>
      <trkpt lat="47.28266" lon="-2.50292">
        <ele>73.199996948242</ele>
        <time>2020-02-16T10:25:13.000Z</time>
      </trkpt>
      <trkpt lat="47.28262" lon="-2.50278">
        <ele>73.199996948242</ele>
        <time>2020-02-16T10:25:15.000Z</time>
      </trkpt>
      <trkpt lat="47.28257" lon="-2.50267">
        <ele>73.199996948242</ele>
        <time>2020-02-16T10:25:17.000Z</time>
      </trkpt>
      <trkpt lat="47.28253" lon="-2.50263">
        <ele>73.199996948242</ele>
        <time>2020-02-16T10:25:18.000Z</time>
      </trkpt>
      <trkpt lat="47.28226" lon="-2.5023">
        <ele>73.199996948242</ele>
        <time>2020-02-16T10:25:25.000Z</time>
      </trkpt>
      <trkpt lat="47.28219" lon="-2.50217">
        <ele>73.199996948242</ele>
        <time>2020-02-16T10:25:27.000Z</time>
      </trkpt>
      <trkpt lat="47.28213" lon="-2.50202">
        <ele>73.199996948242</ele>
        <time>2020-02-16T10:25:29.000Z</time>
      </trkpt>
      <trkpt lat="47.2821" lon="-2.50194">
        <ele>73.199996948242</ele>
        <time>2020-02-16T10:25:30.000Z</time>
      </trkpt>
      <trkpt lat="47.28201" lon="-2.50164">
        <ele>73.199996948242</ele>
        <time>2020-02-16T10:25:34.000Z</time>
      </trkpt>
      <trkpt lat="47.28198" lon="-2.50148">
        <ele>73.199996948242</ele>
        <time>2020-02-16T10:25:36.000Z</time>
      </trkpt>
      <trkpt lat="47.2819" lon="-2.50102">
        <ele>73.199996948242</ele>
        <time>2020-02-16T10:25:42.000Z</time>
      </trkpt>
      <trkpt lat="47.28179" lon="-2.50052">
        <ele>73.199996948242</ele>
        <time>2020-02-16T10:25:49.000Z</time>
      </trkpt>
      <trkpt lat="47.28174" lon="-2.50024">
        <ele>73.199996948242</ele>
        <time>2020-02-16T10:25:53.000Z</time>
      </trkpt>
      <trkpt lat="47.28171" lon="-2.5001">
        <ele>73.199996948242</ele>
        <time>2020-02-16T10:25:55.000Z</time>
      </trkpt>
      <trkpt lat="47.28169" lon="-2.49995">
        <ele>73.199996948242</ele>
        <time>2020-02-16T10:25:57.000Z</time>
      </trkpt>
      <trkpt lat="47.28164" lon="-2.49965">
        <ele>73.199996948242</ele>
        <time>2020-02-16T10:26:01.000Z</time>
      </trkpt>
      <trkpt lat="47.2816" lon="-2.49952">
        <ele>73.199996948242</ele>
        <time>2020-02-16T10:26:03.000Z</time>
      </trkpt>
      <trkpt lat="47.28156" lon="-2.4993">
        <ele>73.199996948242</ele>
        <time>2020-02-16T10:26:06.000Z</time>
      </trkpt>
      <trkpt lat="47.28153" lon="-2.49889">
        <ele>73.199996948242</ele>
        <time>2020-02-16T10:26:12.000Z</time>
      </trkpt>
      <trkpt lat="47.28152" lon="-2.49881">
        <ele>73.199996948242</ele>
        <time>2020-02-16T10:26:13.000Z</time>
      </trkpt>
      <trkpt lat="47.28147" lon="-2.4985">
        <ele>73.199996948242</ele>
        <time>2020-02-16T10:26:17.000Z</time>
      </trkpt>
      <trkpt lat="47.28143" lon="-2.49802">
        <ele>73.199996948242</ele>
        <time>2020-02-16T10:26:23.000Z</time>
      </trkpt>
      <trkpt lat="47.28136" lon="-2.49742">
        <ele>73.199996948242</ele>
        <time>2020-02-16T10:26:31.000Z</time>
      </trkpt>
      <trkpt lat="47.28134" lon="-2.49713">
        <ele>73.199996948242</ele>
        <time>2020-02-16T10:26:35.000Z</time>
      </trkpt>
      <trkpt lat="47.28131" lon="-2.49694">
        <ele>73.199996948242</ele>
        <time>2020-02-16T10:26:38.000Z</time>
      </trkpt>
      <trkpt lat="47.28128" lon="-2.49675">
        <ele>73.599998474121</ele>
        <time>2020-02-16T10:26:41.000Z</time>
      </trkpt>
      <trkpt lat="47.28126" lon="-2.49668">
        <ele>74.199996948242</ele>
        <time>2020-02-16T10:26:42.000Z</time>
      </trkpt>
      <trkpt lat="47.28125" lon="-2.49664">
        <ele>74.599998474121</ele>
        <time>2020-02-16T10:26:43.000Z</time>
      </trkpt>
      <trkpt lat="47.28123" lon="-2.49658">
        <ele>75.199996948242</ele>
        <time>2020-02-16T10:26:44.000Z</time>
      </trkpt>
      <trkpt lat="47.28121" lon="-2.49653">
        <ele>75.599998474121</ele>
        <time>2020-02-16T10:26:45.000Z</time>
      </trkpt>
      <trkpt lat="47.28109" lon="-2.49632">
        <ele>75.599998474121</ele>
        <time>2020-02-16T10:26:50.000Z</time>
      </trkpt>
      <trkpt lat="47.28089" lon="-2.49605">
        <ele>75.599998474121</ele>
        <time>2020-02-16T10:26:57.000Z</time>
      </trkpt>
      <trkpt lat="47.28084" lon="-2.49596">
        <ele>75.599998474121</ele>
        <time>2020-02-16T10:26:59.000Z</time>
      </trkpt>
      <trkpt lat="47.28071" lon="-2.49578">
        <ele>75.599998474121</ele>
        <time>2020-02-16T10:27:03.000Z</time>
      </trkpt>
      <trkpt lat="47.28063" lon="-2.49569">
        <ele>75.199996948242</ele>
        <time>2020-02-16T10:27:05.000Z</time>
      </trkpt>
      <trkpt lat="47.28059" lon="-2.49564">
        <ele>74.599998474121</ele>
        <time>2020-02-16T10:27:06.000Z</time>
      </trkpt>
      <trkpt lat="47.28055" lon="-2.49559">
        <ele>74.199996948242</ele>
        <time>2020-02-16T10:27:07.000Z</time>
      </trkpt>
      <trkpt lat="47.28052" lon="-2.49554">
        <ele>73.599998474121</ele>
        <time>2020-02-16T10:27:08.000Z</time>
      </trkpt>
      <trkpt lat="47.28048" lon="-2.49549">
        <ele>73.199996948242</ele>
        <time>2020-02-16T10:27:09.000Z</time>
      </trkpt>
      <trkpt lat="47.28044" lon="-2.49543">
        <ele>73.199996948242</ele>
        <time>2020-02-16T10:27:10.000Z</time>
      </trkpt>
      <trkpt lat="47.28021" lon="-2.49513">
        <ele>73.599998474121</ele>
        <time>2020-02-16T10:27:16.000Z</time>
      </trkpt>
      <trkpt lat="47.28017" lon="-2.49508">
        <ele>74</ele>
        <time>2020-02-16T10:27:17.000Z</time>
      </trkpt>
      <trkpt lat="47.28013" lon="-2.49503">
        <ele>74.599998474121</ele>
        <time>2020-02-16T10:27:18.000Z</time>
      </trkpt>
      <trkpt lat="47.28009" lon="-2.49498">
        <ele>75</ele>
        <time>2020-02-16T10:27:19.000Z</time>
      </trkpt>
      <trkpt lat="47.28006" lon="-2.49493">
        <ele>75.400001525879</ele>
        <time>2020-02-16T10:27:20.000Z</time>
      </trkpt>
      <trkpt lat="47.27991" lon="-2.49474">
        <ele>75.400001525879</ele>
        <time>2020-02-16T10:27:24.000Z</time>
      </trkpt>
      <trkpt lat="47.27985" lon="-2.49465">
        <ele>75.800003051758</ele>
        <time>2020-02-16T10:27:26.000Z</time>
      </trkpt>
      <trkpt lat="47.27981" lon="-2.49461">
        <ele>76.199996948242</ele>
        <time>2020-02-16T10:27:27.000Z</time>
      </trkpt>
      <trkpt lat="47.27978" lon="-2.49456">
        <ele>76.599998474121</ele>
        <time>2020-02-16T10:27:28.000Z</time>
      </trkpt>
      <trkpt lat="47.27974" lon="-2.49451">
        <ele>77</ele>
        <time>2020-02-16T10:27:29.000Z</time>
      </trkpt>
      <trkpt lat="47.27971" lon="-2.49447">
        <ele>77.599998474121</ele>
        <time>2020-02-16T10:27:30.000Z</time>
      </trkpt>
      <trkpt lat="47.27968" lon="-2.49442">
        <ele>77.599998474121</ele>
        <time>2020-02-16T10:27:31.000Z</time>
      </trkpt>
      <trkpt lat="47.27932" lon="-2.49394">
        <ele>77.599998474121</ele>
        <time>2020-02-16T10:27:41.000Z</time>
      </trkpt>
      <trkpt lat="47.27902" lon="-2.49352">
        <ele>77.599998474121</ele>
        <time>2020-02-16T10:27:49.000Z</time>
      </trkpt>
      <trkpt lat="47.27872" lon="-2.49312">
        <ele>77.599998474121</ele>
        <time>2020-02-16T10:27:57.000Z</time>
      </trkpt>
      <trkpt lat="47.27837" lon="-2.49281">
        <ele>77.599998474121</ele>
        <time>2020-02-16T10:28:05.000Z</time>
      </trkpt>
      <trkpt lat="47.27828" lon="-2.49276">
        <ele>77.599998474121</ele>
        <time>2020-02-16T10:28:07.000Z</time>
      </trkpt>
      <trkpt lat="47.27808" lon="-2.49269">
        <ele>77.599998474121</ele>
        <time>2020-02-16T10:28:11.000Z</time>
      </trkpt>
      <trkpt lat="47.27772" lon="-2.49262">
        <ele>77.599998474121</ele>
        <time>2020-02-16T10:28:18.000Z</time>
      </trkpt>
      <trkpt lat="47.27743" lon="-2.4926">
        <ele>77.599998474121</ele>
        <time>2020-02-16T10:28:24.000Z</time>
      </trkpt>
      <trkpt lat="47.27718" lon="-2.4926">
        <ele>77</ele>
        <time>2020-02-16T10:28:30.000Z</time>
      </trkpt>
      <trkpt lat="47.27713" lon="-2.49259">
        <ele>76.599998474121</ele>
        <time>2020-02-16T10:28:31.000Z</time>
      </trkpt>
      <trkpt lat="47.27709" lon="-2.49259">
        <ele>76.199996948242</ele>
        <time>2020-02-16T10:28:32.000Z</time>
      </trkpt>
      <trkpt lat="47.27704" lon="-2.49259">
        <ele>75.800003051758</ele>
        <time>2020-02-16T10:28:33.000Z</time>
      </trkpt>
      <trkpt lat="47.27699" lon="-2.49258">
        <ele>75.400001525879</ele>
        <time>2020-02-16T10:28:34.000Z</time>
      </trkpt>
      <trkpt lat="47.27681" lon="-2.49254">
        <ele>75.400001525879</ele>
        <time>2020-02-16T10:28:38.000Z</time>
      </trkpt>
      <trkpt lat="47.27672" lon="-2.49251">
        <ele>75.400001525879</ele>
        <time>2020-02-16T10:28:40.000Z</time>
      </trkpt>
      <trkpt lat="47.27656" lon="-2.49244">
        <ele>75.400001525879</ele>
        <time>2020-02-16T10:28:44.000Z</time>
      </trkpt>
      <trkpt lat="47.27643" lon="-2.49245">
        <ele>75.400001525879</ele>
        <time>2020-02-16T10:28:47.000Z</time>
      </trkpt>
      <trkpt lat="47.27631" lon="-2.49234">
        <ele>75.400001525879</ele>
        <time>2020-02-16T10:28:50.000Z</time>
      </trkpt>
      <trkpt lat="47.27625" lon="-2.4922">
        <ele>75.400001525879</ele>
        <time>2020-02-16T10:28:52.000Z</time>
      </trkpt>
      <trkpt lat="47.27621" lon="-2.49214">
        <ele>75.400001525879</ele>
        <time>2020-02-16T10:28:53.000Z</time>
      </trkpt>
      <trkpt lat="47.27618" lon="-2.49209">
        <ele>75.400001525879</ele>
        <time>2020-02-16T10:28:54.000Z</time>
      </trkpt>
      <trkpt lat="47.27593" lon="-2.49154">
        <ele>75.400001525879</ele>
        <time>2020-02-16T10:29:02.000Z</time>
      </trkpt>
      <trkpt lat="47.27585" lon="-2.49111">
        <ele>75.400001525879</ele>
        <time>2020-02-16T10:29:08.000Z</time>
      </trkpt>
      <trkpt lat="47.27584" lon="-2.49077">
        <ele>75.400001525879</ele>
        <time>2020-02-16T10:29:14.000Z</time>
      </trkpt>
      <trkpt lat="47.27584" lon="-2.4907">
        <ele>75.400001525879</ele>
        <time>2020-02-16T10:29:15.000Z</time>
      </trkpt>
      <trkpt lat="47.27586" lon="-2.49016">
        <ele>75.400001525879</ele>
        <time>2020-02-16T10:29:23.000Z</time>
      </trkpt>
      <trkpt lat="47.27585" lon="-2.48995">
        <ele>75.400001525879</ele>
        <time>2020-02-16T10:29:28.000Z</time>
      </trkpt>
      <trkpt lat="47.27574" lon="-2.48996">
        <ele>75.400001525879</ele>
        <time>2020-02-16T10:29:32.000Z</time>
      </trkpt>
      <trkpt lat="47.27568" lon="-2.48998">
        <ele>76</ele>
        <time>2020-02-16T10:29:34.000Z</time>
      </trkpt>
      <trkpt lat="47.27565" lon="-2.48999">
        <ele>76.599998474121</ele>
        <time>2020-02-16T10:29:35.000Z</time>
      </trkpt>
      <trkpt lat="47.27562" lon="-2.49">
        <ele>77</ele>
        <time>2020-02-16T10:29:36.000Z</time>
      </trkpt>
      <trkpt lat="47.2756" lon="-2.49001">
        <ele>77.599998474121</ele>
        <time>2020-02-16T10:29:37.000Z</time>
      </trkpt>
      <trkpt lat="47.27557" lon="-2.49001">
        <ele>78.199996948242</ele>
        <time>2020-02-16T10:29:38.000Z</time>
      </trkpt>
      <trkpt lat="47.27555" lon="-2.49002">
        <ele>78.800003051758</ele>
        <time>2020-02-16T10:29:39.000Z</time>
      </trkpt>
      <trkpt lat="47.27553" lon="-2.49001">
        <ele>79.400001525879</ele>
        <time>2020-02-16T10:29:40.000Z</time>
      </trkpt>
      <trkpt lat="47.27552" lon="-2.49002">
        <ele>80</ele>
        <time>2020-02-16T10:29:41.000Z</time>
      </trkpt>
      <trkpt lat="47.2755" lon="-2.49003">
        <ele>80.599998474121</ele>
        <time>2020-02-16T10:29:42.000Z</time>
      </trkpt>
      <trkpt lat="47.27549" lon="-2.49005">
        <ele>80.599998474121</ele>
        <time>2020-02-16T10:29:43.000Z</time>
      </trkpt>
      <trkpt lat="47.27541" lon="-2.49009">
        <ele>80</ele>
        <time>2020-02-16T10:29:49.000Z</time>
      </trkpt>
      <trkpt lat="47.27539" lon="-2.4901">
        <ele>79.400001525879</ele>
        <time>2020-02-16T10:29:50.000Z</time>
      </trkpt>
      <trkpt lat="47.27537" lon="-2.4901">
        <ele>78.800003051758</ele>
        <time>2020-02-16T10:29:51.000Z</time>
      </trkpt>
      <trkpt lat="47.27536" lon="-2.4901">
        <ele>78</ele>
        <time>2020-02-16T10:29:52.000Z</time>
      </trkpt>
      <trkpt lat="47.27534" lon="-2.49009">
        <ele>77.199996948242</ele>
        <time>2020-02-16T10:29:53.000Z</time>
      </trkpt>
      <trkpt lat="47.27533" lon="-2.49007">
        <ele>76.400001525879</ele>
        <time>2020-02-16T10:29:54.000Z</time>
      </trkpt>
      <trkpt lat="47.27532" lon="-2.49004">
        <ele>75.599998474121</ele>
        <time>2020-02-16T10:29:55.000Z</time>
      </trkpt>
      <trkpt lat="47.27531" lon="-2.48999">
        <ele>74.800003051758</ele>
        <time>2020-02-16T10:29:56.000Z</time>
      </trkpt>
      <trkpt lat="47.2753" lon="-2.48982">
        <ele>74.800003051758</ele>
        <time>2020-02-16T10:29:59.000Z</time>
      </trkpt>
      <trkpt lat="47.27529" lon="-2.48963">
        <ele>75.400001525879</ele>
        <time>2020-02-16T10:30:02.000Z</time>
      </trkpt>
      <trkpt lat="47.27529" lon="-2.48957">
        <ele>75.800003051758</ele>
        <time>2020-02-16T10:30:03.000Z</time>
      </trkpt>
      <trkpt lat="47.27528" lon="-2.48952">
        <ele>76.400001525879</ele>
        <time>2020-02-16T10:30:04.000Z</time>
      </trkpt>
      <trkpt lat="47.27528" lon="-2.48948">
        <ele>77</ele>
        <time>2020-02-16T10:30:05.000Z</time>
      </trkpt>
      <trkpt lat="47.27528" lon="-2.48943">
        <ele>77.400001525879</ele>
        <time>2020-02-16T10:30:06.000Z</time>
      </trkpt>
      <trkpt lat="47.27523" lon="-2.48924">
        <ele>77.400001525879</ele>
        <time>2020-02-16T10:30:11.000Z</time>
      </trkpt>
      <trkpt lat="47.27518" lon="-2.48914">
        <ele>77</ele>
        <time>2020-02-16T10:30:14.000Z</time>
      </trkpt>
      <trkpt lat="47.27518" lon="-2.48908">
        <ele>76.599998474121</ele>
        <time>2020-02-16T10:30:15.000Z</time>
      </trkpt>
      <trkpt lat="47.27517" lon="-2.48904">
        <ele>76</ele>
        <time>2020-02-16T10:30:16.000Z</time>
      </trkpt>
      <trkpt lat="47.27517" lon="-2.48898">
        <ele>75.599998474121</ele>
        <time>2020-02-16T10:30:17.000Z</time>
      </trkpt>
      <trkpt lat="47.27518" lon="-2.48895">
        <ele>75.199996948242</ele>
        <time>2020-02-16T10:30:18.000Z</time>
      </trkpt>
      <trkpt lat="47.27518" lon="-2.4889">
        <ele>75.599998474121</ele>
        <time>2020-02-16T10:30:19.000Z</time>
      </trkpt>
      <trkpt lat="47.27518" lon="-2.48885">
        <ele>76</ele>
        <time>2020-02-16T10:30:20.000Z</time>
      </trkpt>
      <trkpt lat="47.27519" lon="-2.48879">
        <ele>76.599998474121</ele>
        <time>2020-02-16T10:30:21.000Z</time>
      </trkpt>
      <trkpt lat="47.27522" lon="-2.48872">
        <ele>77</ele>
        <time>2020-02-16T10:30:22.000Z</time>
      </trkpt>
      <trkpt lat="47.27523" lon="-2.48865">
        <ele>76.599998474121</ele>
        <time>2020-02-16T10:30:23.000Z</time>
      </trkpt>
      <trkpt lat="47.27525" lon="-2.48858">
        <ele>76.199996948242</ele>
        <time>2020-02-16T10:30:24.000Z</time>
      </trkpt>
      <trkpt lat="47.27526" lon="-2.4885">
        <ele>76</ele>
        <time>2020-02-16T10:30:25.000Z</time>
      </trkpt>
      <trkpt lat="47.27528" lon="-2.48844">
        <ele>75.599998474121</ele>
        <time>2020-02-16T10:30:26.000Z</time>
      </trkpt>
      <trkpt lat="47.2753" lon="-2.48837">
        <ele>75.199996948242</ele>
        <time>2020-02-16T10:30:27.000Z</time>
      </trkpt>
      <trkpt lat="47.27533" lon="-2.48824">
        <ele>75.199996948242</ele>
        <time>2020-02-16T10:30:29.000Z</time>
      </trkpt>
      <trkpt lat="47.27535" lon="-2.48818">
        <ele>75.199996948242</ele>
        <time>2020-02-16T10:30:30.000Z</time>
      </trkpt>
      <trkpt lat="47.27538" lon="-2.48805">
        <ele>74.800003051758</ele>
        <time>2020-02-16T10:30:32.000Z</time>
      </trkpt>
      <trkpt lat="47.27539" lon="-2.48797">
        <ele>74.400001525879</ele>
        <time>2020-02-16T10:30:33.000Z</time>
      </trkpt>
      <trkpt lat="47.2754" lon="-2.4879">
        <ele>73.400001525879</ele>
        <time>2020-02-16T10:30:34.000Z</time>
      </trkpt>
      <trkpt lat="47.27542" lon="-2.48783">
        <ele>73</ele>
        <time>2020-02-16T10:30:35.000Z</time>
      </trkpt>
      <trkpt lat="47.27543" lon="-2.48776">
        <ele>73</ele>
        <time>2020-02-16T10:30:36.000Z</time>
      </trkpt>
      <trkpt lat="47.27543" lon="-2.48768">
        <ele>73</ele>
        <time>2020-02-16T10:30:37.000Z</time>
      </trkpt>
      <trkpt lat="47.27542" lon="-2.48756">
        <ele>73.400001525879</ele>
        <time>2020-02-16T10:30:39.000Z</time>
      </trkpt>
      <trkpt lat="47.27541" lon="-2.48751">
        <ele>73.800003051758</ele>
        <time>2020-02-16T10:30:40.000Z</time>
      </trkpt>
      <trkpt lat="47.27541" lon="-2.48746">
        <ele>74.400001525879</ele>
        <time>2020-02-16T10:30:41.000Z</time>
      </trkpt>
      <trkpt lat="47.2754" lon="-2.48742">
        <ele>75.199996948242</ele>
        <time>2020-02-16T10:30:42.000Z</time>
      </trkpt>
      <trkpt lat="47.27538" lon="-2.48738">
        <ele>76</ele>
        <time>2020-02-16T10:30:43.000Z</time>
      </trkpt>
      <trkpt lat="47.27536" lon="-2.48733">
        <ele>76.599998474121</ele>
        <time>2020-02-16T10:30:44.000Z</time>
      </trkpt>
      <trkpt lat="47.27536" lon="-2.48728">
        <ele>77.400001525879</ele>
        <time>2020-02-16T10:30:45.000Z</time>
      </trkpt>
      <trkpt lat="47.27532" lon="-2.48705">
        <ele>77.400001525879</ele>
        <time>2020-02-16T10:30:50.000Z</time>
      </trkpt>
      <trkpt lat="47.27524" lon="-2.48687">
        <ele>77.400001525879</ele>
        <time>2020-02-16T10:30:55.000Z</time>
      </trkpt>
      <trkpt lat="47.2752" lon="-2.48671">
        <ele>77</ele>
        <time>2020-02-16T10:30:58.000Z</time>
      </trkpt>
      <trkpt lat="47.27518" lon="-2.48667">
        <ele>76.400001525879</ele>
        <time>2020-02-16T10:30:59.000Z</time>
      </trkpt>
      <trkpt lat="47.27516" lon="-2.48663">
        <ele>76</ele>
        <time>2020-02-16T10:31:00.000Z</time>
      </trkpt>
      <trkpt lat="47.27513" lon="-2.48661">
        <ele>75.599998474121</ele>
        <time>2020-02-16T10:31:01.000Z</time>
      </trkpt>
      <trkpt lat="47.2751" lon="-2.48658">
        <ele>75.199996948242</ele>
        <time>2020-02-16T10:31:02.000Z</time>
      </trkpt>
      <trkpt lat="47.27507" lon="-2.48655">
        <ele>75.199996948242</ele>
        <time>2020-02-16T10:31:03.000Z</time>
      </trkpt>
      <trkpt lat="47.27496" lon="-2.48631">
        <ele>75.199996948242</ele>
        <time>2020-02-16T10:31:08.000Z</time>
      </trkpt>
      <trkpt lat="47.27493" lon="-2.48627">
        <ele>74.599998474121</ele>
        <time>2020-02-16T10:31:09.000Z</time>
      </trkpt>
      <trkpt lat="47.27491" lon="-2.48622">
        <ele>74.199996948242</ele>
        <time>2020-02-16T10:31:10.000Z</time>
      </trkpt>
      <trkpt lat="47.2749" lon="-2.48617">
        <ele>73.800003051758</ele>
        <time>2020-02-16T10:31:11.000Z</time>
      </trkpt>
      <trkpt lat="47.27488" lon="-2.48612">
        <ele>73.400001525879</ele>
        <time>2020-02-16T10:31:12.000Z</time>
      </trkpt>
      <trkpt lat="47.27487" lon="-2.48608">
        <ele>72.800003051758</ele>
        <time>2020-02-16T10:31:13.000Z</time>
      </trkpt>
      <trkpt lat="47.27484" lon="-2.48598">
        <ele>72.800003051758</ele>
        <time>2020-02-16T10:31:15.000Z</time>
      </trkpt>
      <trkpt lat="47.27476" lon="-2.48568">
        <ele>72.800003051758</ele>
        <time>2020-02-16T10:31:22.000Z</time>
      </trkpt>
      <trkpt lat="47.27473" lon="-2.48563">
        <ele>72.800003051758</ele>
        <time>2020-02-16T10:31:24.000Z</time>
      </trkpt>
      <trkpt lat="47.27466" lon="-2.4856">
        <ele>72.800003051758</ele>
        <time>2020-02-16T10:31:27.000Z</time>
      </trkpt>
      <trkpt lat="47.2746" lon="-2.48558">
        <ele>72.800003051758</ele>
        <time>2020-02-16T10:31:31.000Z</time>
      </trkpt>
      <trkpt lat="47.27462" lon="-2.48556">
        <ele>72.800003051758</ele>
        <time>2020-02-16T10:35:23.000Z</time>
      </trkpt>
      <trkpt lat="47.27469" lon="-2.48547">
        <ele>72.800003051758</ele>
        <time>2020-02-16T10:35:28.000Z</time>
      </trkpt>
      <trkpt lat="47.27471" lon="-2.48525">
        <ele>72.800003051758</ele>
        <time>2020-02-16T10:35:32.000Z</time>
      </trkpt>
      <trkpt lat="47.27467" lon="-2.48473">
        <ele>72.800003051758</ele>
        <time>2020-02-16T10:35:39.000Z</time>
      </trkpt>
      <trkpt lat="47.2746" lon="-2.48424">
        <ele>72.199996948242</ele>
        <time>2020-02-16T10:35:46.000Z</time>
      </trkpt>
      <trkpt lat="47.27458" lon="-2.48418">
        <ele>71.800003051758</ele>
        <time>2020-02-16T10:35:47.000Z</time>
      </trkpt>
      <trkpt lat="47.27456" lon="-2.48411">
        <ele>71.199996948242</ele>
        <time>2020-02-16T10:35:48.000Z</time>
      </trkpt>
      <trkpt lat="47.27454" lon="-2.48405">
        <ele>70.800003051758</ele>
        <time>2020-02-16T10:35:49.000Z</time>
      </trkpt>
      <trkpt lat="47.27452" lon="-2.48399">
        <ele>70.199996948242</ele>
        <time>2020-02-16T10:35:50.000Z</time>
      </trkpt>
      <trkpt lat="47.27447" lon="-2.48382">
        <ele>70.199996948242</ele>
        <time>2020-02-16T10:35:53.000Z</time>
      </trkpt>
      <trkpt lat="47.27441" lon="-2.48362">
        <ele>70.800003051758</ele>
        <time>2020-02-16T10:35:57.000Z</time>
      </trkpt>
      <trkpt lat="47.27439" lon="-2.48357">
        <ele>71.400001525879</ele>
        <time>2020-02-16T10:35:58.000Z</time>
      </trkpt>
      <trkpt lat="47.27438" lon="-2.48352">
        <ele>72.199996948242</ele>
        <time>2020-02-16T10:35:59.000Z</time>
      </trkpt>
      <trkpt lat="47.27436" lon="-2.48346">
        <ele>73</ele>
        <time>2020-02-16T10:36:00.000Z</time>
      </trkpt>
      <trkpt lat="47.27434" lon="-2.4834">
        <ele>73.800003051758</ele>
        <time>2020-02-16T10:36:01.000Z</time>
      </trkpt>
      <trkpt lat="47.27433" lon="-2.48334">
        <ele>74.599998474121</ele>
        <time>2020-02-16T10:36:02.000Z</time>
      </trkpt>
      <trkpt lat="47.27432" lon="-2.48327">
        <ele>75.400001525879</ele>
        <time>2020-02-16T10:36:03.000Z</time>
      </trkpt>
      <trkpt lat="47.27431" lon="-2.4832">
        <ele>75.400001525879</ele>
        <time>2020-02-16T10:36:04.000Z</time>
      </trkpt>
      <trkpt lat="47.27429" lon="-2.48306">
        <ele>75.400001525879</ele>
        <time>2020-02-16T10:36:06.000Z</time>
      </trkpt>
      <trkpt lat="47.27421" lon="-2.48251">
        <ele>75.400001525879</ele>
        <time>2020-02-16T10:36:13.000Z</time>
      </trkpt>
      <trkpt lat="47.27418" lon="-2.48237">
        <ele>76</ele>
        <time>2020-02-16T10:36:15.000Z</time>
      </trkpt>
      <trkpt lat="47.27416" lon="-2.4823">
        <ele>76.800003051758</ele>
        <time>2020-02-16T10:36:16.000Z</time>
      </trkpt>
      <trkpt lat="47.27415" lon="-2.48223">
        <ele>77.599998474121</ele>
        <time>2020-02-16T10:36:17.000Z</time>
      </trkpt>
      <trkpt lat="47.27414" lon="-2.48218">
        <ele>78.599998474121</ele>
        <time>2020-02-16T10:36:18.000Z</time>
      </trkpt>
      <trkpt lat="47.27413" lon="-2.48214">
        <ele>78.400001525879</ele>
        <time>2020-02-16T10:36:19.000Z</time>
      </trkpt>
      <trkpt lat="47.27412" lon="-2.48212">
        <ele>78.400001525879</ele>
        <time>2020-02-16T10:36:20.000Z</time>
      </trkpt>
      <trkpt lat="47.27412" lon="-2.4821">
        <ele>78.199996948242</ele>
        <time>2020-02-16T10:36:21.000Z</time>
      </trkpt>
      <trkpt lat="47.2741" lon="-2.48197">
        <ele>76.199996948242</ele>
        <time>2020-02-16T10:38:41.000Z</time>
      </trkpt>
      <trkpt lat="47.27409" lon="-2.48194">
        <ele>76.199996948242</ele>
        <time>2020-02-16T10:38:42.000Z</time>
      </trkpt>
      <trkpt lat="47.27407" lon="-2.48176">
        <ele>76.199996948242</ele>
        <time>2020-02-16T10:38:49.000Z</time>
      </trkpt>
      <trkpt lat="47.27407" lon="-2.48146">
        <ele>76.199996948242</ele>
        <time>2020-02-16T10:38:56.000Z</time>
      </trkpt>
      <trkpt lat="47.27408" lon="-2.48143">
        <ele>76.599998474121</ele>
        <time>2020-02-16T10:38:57.000Z</time>
      </trkpt>
      <trkpt lat="47.27409" lon="-2.4814">
        <ele>77</ele>
        <time>2020-02-16T10:38:58.000Z</time>
      </trkpt>
      <trkpt lat="47.2741" lon="-2.48138">
        <ele>77.400001525879</ele>
        <time>2020-02-16T10:38:59.000Z</time>
      </trkpt>
      <trkpt lat="47.27412" lon="-2.48135">
        <ele>78</ele>
        <time>2020-02-16T10:39:00.000Z</time>
      </trkpt>
      <trkpt lat="47.27414" lon="-2.48133">
        <ele>78.400001525879</ele>
        <time>2020-02-16T10:39:01.000Z</time>
      </trkpt>
      <trkpt lat="47.27425" lon="-2.4813">
        <ele>78.400001525879</ele>
        <time>2020-02-16T10:39:04.000Z</time>
      </trkpt>
      <trkpt lat="47.27432" lon="-2.4813">
        <ele>78.800003051758</ele>
        <time>2020-02-16T10:39:06.000Z</time>
      </trkpt>
      <trkpt lat="47.27436" lon="-2.4813">
        <ele>79.400001525879</ele>
        <time>2020-02-16T10:39:07.000Z</time>
      </trkpt>
      <trkpt lat="47.2744" lon="-2.4813">
        <ele>79.800003051758</ele>
        <time>2020-02-16T10:39:08.000Z</time>
      </trkpt>
      <trkpt lat="47.27445" lon="-2.48129">
        <ele>80.199996948242</ele>
        <time>2020-02-16T10:39:09.000Z</time>
      </trkpt>
      <trkpt lat="47.27449" lon="-2.48129">
        <ele>80.599998474121</ele>
        <time>2020-02-16T10:39:10.000Z</time>
      </trkpt>
      <trkpt lat="47.27453" lon="-2.48128">
        <ele>80.199996948242</ele>
        <time>2020-02-16T10:39:11.000Z</time>
      </trkpt>
      <trkpt lat="47.27457" lon="-2.48127">
        <ele>79.199996948242</ele>
        <time>2020-02-16T10:39:12.000Z</time>
      </trkpt>
      <trkpt lat="47.27461" lon="-2.48125">
        <ele>78.800003051758</ele>
        <time>2020-02-16T10:39:13.000Z</time>
      </trkpt>
      <trkpt lat="47.27465" lon="-2.48124">
        <ele>78.400001525879</ele>
        <time>2020-02-16T10:39:14.000Z</time>
      </trkpt>
      <trkpt lat="47.27473" lon="-2.48121">
        <ele>78.400001525879</ele>
        <time>2020-02-16T10:39:16.000Z</time>
      </trkpt>
      <trkpt lat="47.27479" lon="-2.48118">
        <ele>78.800003051758</ele>
        <time>2020-02-16T10:39:18.000Z</time>
      </trkpt>
      <trkpt lat="47.27482" lon="-2.48116">
        <ele>79.199996948242</ele>
        <time>2020-02-16T10:39:19.000Z</time>
      </trkpt>
      <trkpt lat="47.27485" lon="-2.48115">
        <ele>79.599998474121</ele>
        <time>2020-02-16T10:39:20.000Z</time>
      </trkpt>
      <trkpt lat="47.27487" lon="-2.48114">
        <ele>80</ele>
        <time>2020-02-16T10:39:21.000Z</time>
      </trkpt>
      <trkpt lat="47.27489" lon="-2.48114">
        <ele>80.400001525879</ele>
        <time>2020-02-16T10:39:22.000Z</time>
      </trkpt>
      <trkpt lat="47.27491" lon="-2.48113">
        <ele>80.400001525879</ele>
        <time>2020-02-16T10:39:25.000Z</time>
      </trkpt>
      <trkpt lat="47.27491" lon="-2.48108">
        <ele>80.400001525879</ele>
        <time>2020-02-16T10:39:38.000Z</time>
      </trkpt>
      <trkpt lat="47.27489" lon="-2.48092">
        <ele>80.400001525879</ele>
        <time>2020-02-16T10:39:42.000Z</time>
      </trkpt>
      <trkpt lat="47.27487" lon="-2.48087">
        <ele>80.400001525879</ele>
        <time>2020-02-16T10:39:43.000Z</time>
      </trkpt>
      <trkpt lat="47.27472" lon="-2.4805">
        <ele>80.400001525879</ele>
        <time>2020-02-16T10:39:49.000Z</time>
      </trkpt>
      <trkpt lat="47.27442" lon="-2.4799">
        <ele>80.400001525879</ele>
        <time>2020-02-16T10:39:57.000Z</time>
      </trkpt>
      <trkpt lat="47.27411" lon="-2.47948">
        <ele>80.400001525879</ele>
        <time>2020-02-16T10:40:03.000Z</time>
      </trkpt>
      <trkpt lat="47.27389" lon="-2.47929">
        <ele>80</ele>
        <time>2020-02-16T10:40:07.000Z</time>
      </trkpt>
      <trkpt lat="47.27384" lon="-2.47924">
        <ele>79.400001525879</ele>
        <time>2020-02-16T10:40:08.000Z</time>
      </trkpt>
      <trkpt lat="47.27378" lon="-2.4792">
        <ele>79</ele>
        <time>2020-02-16T10:40:09.000Z</time>
      </trkpt>
      <trkpt lat="47.27373" lon="-2.47916">
        <ele>78.599998474121</ele>
        <time>2020-02-16T10:40:10.000Z</time>
      </trkpt>
      <trkpt lat="47.27368" lon="-2.47912">
        <ele>78.199996948242</ele>
        <time>2020-02-16T10:40:11.000Z</time>
      </trkpt>
      <trkpt lat="47.27354" lon="-2.47902">
        <ele>78.199996948242</ele>
        <time>2020-02-16T10:40:14.000Z</time>
      </trkpt>
      <trkpt lat="47.27345" lon="-2.47895">
        <ele>77.800003051758</ele>
        <time>2020-02-16T10:40:16.000Z</time>
      </trkpt>
      <trkpt lat="47.2734" lon="-2.47892">
        <ele>77.400001525879</ele>
        <time>2020-02-16T10:40:17.000Z</time>
      </trkpt>
      <trkpt lat="47.27336" lon="-2.47888">
        <ele>77</ele>
        <time>2020-02-16T10:40:18.000Z</time>
      </trkpt>
      <trkpt lat="47.27331" lon="-2.47885">
        <ele>76.400001525879</ele>
        <time>2020-02-16T10:40:19.000Z</time>
      </trkpt>
      <trkpt lat="47.27327" lon="-2.47881">
        <ele>76</ele>
        <time>2020-02-16T10:40:20.000Z</time>
      </trkpt>
      <trkpt lat="47.27315" lon="-2.47871">
        <ele>76</ele>
        <time>2020-02-16T10:40:23.000Z</time>
      </trkpt>
      <trkpt lat="47.273" lon="-2.47858">
        <ele>76</ele>
        <time>2020-02-16T10:40:27.000Z</time>
      </trkpt>
      <trkpt lat="47.27291" lon="-2.47849">
        <ele>76</ele>
        <time>2020-02-16T10:40:30.000Z</time>
      </trkpt>
      <trkpt lat="47.27271" lon="-2.4783">
        <ele>76.599998474121</ele>
        <time>2020-02-16T10:40:36.000Z</time>
      </trkpt>
      <trkpt lat="47.27268" lon="-2.47826">
        <ele>77</ele>
        <time>2020-02-16T10:40:37.000Z</time>
      </trkpt>
      <trkpt lat="47.27265" lon="-2.47823">
        <ele>77.400001525879</ele>
        <time>2020-02-16T10:40:38.000Z</time>
      </trkpt>
      <trkpt lat="47.27262" lon="-2.47819">
        <ele>78</ele>
        <time>2020-02-16T10:40:39.000Z</time>
      </trkpt>
      <trkpt lat="47.27259" lon="-2.47816">
        <ele>78.400001525879</ele>
        <time>2020-02-16T10:40:40.000Z</time>
      </trkpt>
      <trkpt lat="47.2725" lon="-2.47802">
        <ele>78.400001525879</ele>
        <time>2020-02-16T10:40:44.000Z</time>
      </trkpt>
      <trkpt lat="47.27248" lon="-2.47799">
        <ele>78.800003051758</ele>
        <time>2020-02-16T10:40:45.000Z</time>
      </trkpt>
      <trkpt lat="47.27246" lon="-2.47795">
        <ele>79.199996948242</ele>
        <time>2020-02-16T10:40:46.000Z</time>
      </trkpt>
      <trkpt lat="47.27244" lon="-2.47791">
        <ele>79.800003051758</ele>
        <time>2020-02-16T10:40:47.000Z</time>
      </trkpt>
      <trkpt lat="47.27241" lon="-2.47788">
        <ele>79.199996948242</ele>
        <time>2020-02-16T10:40:48.000Z</time>
      </trkpt>
      <trkpt lat="47.27239" lon="-2.47783">
        <ele>78.800003051758</ele>
        <time>2020-02-16T10:40:49.000Z</time>
      </trkpt>
      <trkpt lat="47.27236" lon="-2.47778">
        <ele>77.599998474121</ele>
        <time>2020-02-16T10:40:50.000Z</time>
      </trkpt>
      <trkpt lat="47.27234" lon="-2.47773">
        <ele>77.199996948242</ele>
        <time>2020-02-16T10:40:51.000Z</time>
      </trkpt>
      <trkpt lat="47.27231" lon="-2.47767">
        <ele>76.599998474121</ele>
        <time>2020-02-16T10:40:52.000Z</time>
      </trkpt>
      <trkpt lat="47.27229" lon="-2.47762">
        <ele>76</ele>
        <time>2020-02-16T10:40:53.000Z</time>
      </trkpt>
      <trkpt lat="47.27226" lon="-2.47756">
        <ele>75.599998474121</ele>
        <time>2020-02-16T10:40:54.000Z</time>
      </trkpt>
      <trkpt lat="47.27224" lon="-2.4775">
        <ele>75</ele>
        <time>2020-02-16T10:40:55.000Z</time>
      </trkpt>
      <trkpt lat="47.27221" lon="-2.47744">
        <ele>75.400001525879</ele>
        <time>2020-02-16T10:40:56.000Z</time>
      </trkpt>
      <trkpt lat="47.27219" lon="-2.47738">
        <ele>75.800003051758</ele>
        <time>2020-02-16T10:40:57.000Z</time>
      </trkpt>
      <trkpt lat="47.27217" lon="-2.47731">
        <ele>76.199996948242</ele>
        <time>2020-02-16T10:40:58.000Z</time>
      </trkpt>
      <trkpt lat="47.27216" lon="-2.47725">
        <ele>76.599998474121</ele>
        <time>2020-02-16T10:40:59.000Z</time>
      </trkpt>
      <trkpt lat="47.27214" lon="-2.47718">
        <ele>77</ele>
        <time>2020-02-16T10:41:00.000Z</time>
      </trkpt>
      <trkpt lat="47.27213" lon="-2.4771">
        <ele>77.400001525879</ele>
        <time>2020-02-16T10:41:01.000Z</time>
      </trkpt>
      <trkpt lat="47.27211" lon="-2.47703">
        <ele>77.800003051758</ele>
        <time>2020-02-16T10:41:02.000Z</time>
      </trkpt>
      <trkpt lat="47.2721" lon="-2.47695">
        <ele>78.199996948242</ele>
        <time>2020-02-16T10:41:03.000Z</time>
      </trkpt>
      <trkpt lat="47.27208" lon="-2.47688">
        <ele>78.599998474121</ele>
        <time>2020-02-16T10:41:04.000Z</time>
      </trkpt>
      <trkpt lat="47.27207" lon="-2.4768">
        <ele>79</ele>
        <time>2020-02-16T10:41:05.000Z</time>
      </trkpt>
      <trkpt lat="47.272" lon="-2.47627">
        <ele>79</ele>
        <time>2020-02-16T10:41:12.000Z</time>
      </trkpt>
      <trkpt lat="47.27195" lon="-2.47574">
        <ele>78.599998474121</ele>
        <time>2020-02-16T10:41:19.000Z</time>
      </trkpt>
      <trkpt lat="47.27194" lon="-2.47567">
        <ele>78.199996948242</ele>
        <time>2020-02-16T10:41:20.000Z</time>
      </trkpt>
      <trkpt lat="47.27194" lon="-2.47559">
        <ele>77.800003051758</ele>
        <time>2020-02-16T10:41:21.000Z</time>
      </trkpt>
      <trkpt lat="47.27193" lon="-2.47552">
        <ele>77.400001525879</ele>
        <time>2020-02-16T10:41:22.000Z</time>
      </trkpt>
      <trkpt lat="47.27193" lon="-2.47545">
        <ele>76.800003051758</ele>
        <time>2020-02-16T10:41:23.000Z</time>
      </trkpt>
      <trkpt lat="47.27191" lon="-2.47523">
        <ele>76.800003051758</ele>
        <time>2020-02-16T10:41:26.000Z</time>
      </trkpt>
      <trkpt lat="47.27187" lon="-2.47504">
        <ele>77.400001525879</ele>
        <time>2020-02-16T10:41:29.000Z</time>
      </trkpt>
      <trkpt lat="47.27185" lon="-2.47498">
        <ele>77.800003051758</ele>
        <time>2020-02-16T10:41:30.000Z</time>
      </trkpt>
      <trkpt lat="47.27184" lon="-2.47491">
        <ele>78.199996948242</ele>
        <time>2020-02-16T10:41:31.000Z</time>
      </trkpt>
      <trkpt lat="47.27182" lon="-2.47485">
        <ele>78.599998474121</ele>
        <time>2020-02-16T10:41:32.000Z</time>
      </trkpt>
      <trkpt lat="47.2718" lon="-2.47479">
        <ele>79</ele>
        <time>2020-02-16T10:41:33.000Z</time>
      </trkpt>
      <trkpt lat="47.27163" lon="-2.47433">
        <ele>79</ele>
        <time>2020-02-16T10:41:41.000Z</time>
      </trkpt>
      <trkpt lat="47.27146" lon="-2.47389">
        <ele>79</ele>
        <time>2020-02-16T10:41:49.000Z</time>
      </trkpt>
      <trkpt lat="47.27133" lon="-2.47348">
        <ele>79</ele>
        <time>2020-02-16T10:41:56.000Z</time>
      </trkpt>
      <trkpt lat="47.27128" lon="-2.47323">
        <ele>79</ele>
        <time>2020-02-16T10:42:00.000Z</time>
      </trkpt>
      <trkpt lat="47.27126" lon="-2.47296">
        <ele>79.599998474121</ele>
        <time>2020-02-16T10:42:04.000Z</time>
      </trkpt>
      <trkpt lat="47.27125" lon="-2.47289">
        <ele>80.400001525879</ele>
        <time>2020-02-16T10:42:05.000Z</time>
      </trkpt>
      <trkpt lat="47.27125" lon="-2.47282">
        <ele>81</ele>
        <time>2020-02-16T10:42:06.000Z</time>
      </trkpt>
      <trkpt lat="47.27125" lon="-2.47275">
        <ele>81.400001525879</ele>
        <time>2020-02-16T10:42:07.000Z</time>
      </trkpt>
      <trkpt lat="47.27123" lon="-2.47242">
        <ele>81.400001525879</ele>
        <time>2020-02-16T10:42:12.000Z</time>
      </trkpt>
      <trkpt lat="47.27121" lon="-2.4722">
        <ele>81.400001525879</ele>
        <time>2020-02-16T10:42:15.000Z</time>
      </trkpt>
      <trkpt lat="47.2712" lon="-2.47206">
        <ele>81.400001525879</ele>
        <time>2020-02-16T10:42:17.000Z</time>
      </trkpt>
      <trkpt lat="47.27119" lon="-2.47199">
        <ele>81.400001525879</ele>
        <time>2020-02-16T10:42:18.000Z</time>
      </trkpt>
      <trkpt lat="47.27114" lon="-2.47148">
        <ele>81.400001525879</ele>
        <time>2020-02-16T10:42:25.000Z</time>
      </trkpt>
      <trkpt lat="47.27109" lon="-2.47077">
        <ele>81.400001525879</ele>
        <time>2020-02-16T10:42:34.000Z</time>
      </trkpt>
      <trkpt lat="47.27106" lon="-2.47022">
        <ele>81.400001525879</ele>
        <time>2020-02-16T10:42:41.000Z</time>
      </trkpt>
      <trkpt lat="47.27106" lon="-2.46969">
        <ele>81.400001525879</ele>
        <time>2020-02-16T10:42:48.000Z</time>
      </trkpt>
      <trkpt lat="47.27111" lon="-2.46907">
        <ele>81.400001525879</ele>
        <time>2020-02-16T10:42:56.000Z</time>
      </trkpt>
      <trkpt lat="47.27118" lon="-2.46837">
        <ele>81.400001525879</ele>
        <time>2020-02-16T10:43:04.000Z</time>
      </trkpt>
      <trkpt lat="47.27119" lon="-2.46762">
        <ele>81.400001525879</ele>
        <time>2020-02-16T10:43:12.000Z</time>
      </trkpt>
      <trkpt lat="47.27116" lon="-2.46707">
        <ele>81.400001525879</ele>
        <time>2020-02-16T10:43:18.000Z</time>
      </trkpt>
      <trkpt lat="47.27115" lon="-2.46679">
        <ele>81</ele>
        <time>2020-02-16T10:43:21.000Z</time>
      </trkpt>
      <trkpt lat="47.27115" lon="-2.46671">
        <ele>80.599998474121</ele>
        <time>2020-02-16T10:43:22.000Z</time>
      </trkpt>
      <trkpt lat="47.27115" lon="-2.46662">
        <ele>80.199996948242</ele>
        <time>2020-02-16T10:43:23.000Z</time>
      </trkpt>
      <trkpt lat="47.27115" lon="-2.46652">
        <ele>79.800003051758</ele>
        <time>2020-02-16T10:43:24.000Z</time>
      </trkpt>
      <trkpt lat="47.27114" lon="-2.46643">
        <ele>79.400001525879</ele>
        <time>2020-02-16T10:43:25.000Z</time>
      </trkpt>
      <trkpt lat="47.27114" lon="-2.46622">
        <ele>79.400001525879</ele>
        <time>2020-02-16T10:43:27.000Z</time>
      </trkpt>
      <trkpt lat="47.27112" lon="-2.46569">
        <ele>78.800003051758</ele>
        <time>2020-02-16T10:43:32.000Z</time>
      </trkpt>
      <trkpt lat="47.27112" lon="-2.46558">
        <ele>78.400001525879</ele>
        <time>2020-02-16T10:43:33.000Z</time>
      </trkpt>
      <trkpt lat="47.27111" lon="-2.46548">
        <ele>78</ele>
        <time>2020-02-16T10:43:34.000Z</time>
      </trkpt>
      <trkpt lat="47.27111" lon="-2.46537">
        <ele>77.400001525879</ele>
        <time>2020-02-16T10:43:35.000Z</time>
      </trkpt>
      <trkpt lat="47.27111" lon="-2.46526">
        <ele>77</ele>
        <time>2020-02-16T10:43:36.000Z</time>
      </trkpt>
      <trkpt lat="47.2711" lon="-2.46516">
        <ele>77</ele>
        <time>2020-02-16T10:43:37.000Z</time>
      </trkpt>
      <trkpt lat="47.27106" lon="-2.46463">
        <ele>76.400001525879</ele>
        <time>2020-02-16T10:43:42.000Z</time>
      </trkpt>
      <trkpt lat="47.27104" lon="-2.46453">
        <ele>76</ele>
        <time>2020-02-16T10:43:43.000Z</time>
      </trkpt>
      <trkpt lat="47.27103" lon="-2.46442">
        <ele>75</ele>
        <time>2020-02-16T10:43:44.000Z</time>
      </trkpt>
      <trkpt lat="47.27101" lon="-2.46432">
        <ele>74.599998474121</ele>
        <time>2020-02-16T10:43:45.000Z</time>
      </trkpt>
      <trkpt lat="47.27087" lon="-2.46369">
        <ele>74.599998474121</ele>
        <time>2020-02-16T10:43:52.000Z</time>
      </trkpt>
      <trkpt lat="47.27071" lon="-2.46312">
        <ele>74.599998474121</ele>
        <time>2020-02-16T10:43:59.000Z</time>
      </trkpt>
      <trkpt lat="47.27052" lon="-2.4624">
        <ele>74.599998474121</ele>
        <time>2020-02-16T10:44:08.000Z</time>
      </trkpt>
      <trkpt lat="47.27042" lon="-2.46203">
        <ele>75</ele>
        <time>2020-02-16T10:44:13.000Z</time>
      </trkpt>
      <trkpt lat="47.2704" lon="-2.46196">
        <ele>75.400001525879</ele>
        <time>2020-02-16T10:44:14.000Z</time>
      </trkpt>
      <trkpt lat="47.27038" lon="-2.46188">
        <ele>76</ele>
        <time>2020-02-16T10:44:15.000Z</time>
      </trkpt>
      <trkpt lat="47.27036" lon="-2.46181">
        <ele>76.400001525879</ele>
        <time>2020-02-16T10:44:16.000Z</time>
      </trkpt>
      <trkpt lat="47.27034" lon="-2.46174">
        <ele>76.800003051758</ele>
        <time>2020-02-16T10:44:17.000Z</time>
      </trkpt>
      <trkpt lat="47.27032" lon="-2.46166">
        <ele>76.400001525879</ele>
        <time>2020-02-16T10:44:18.000Z</time>
      </trkpt>
      <trkpt lat="47.2703" lon="-2.46159">
        <ele>76</ele>
        <time>2020-02-16T10:44:19.000Z</time>
      </trkpt>
      <trkpt lat="47.27029" lon="-2.46153">
        <ele>75.599998474121</ele>
        <time>2020-02-16T10:44:20.000Z</time>
      </trkpt>
      <trkpt lat="47.27027" lon="-2.46146">
        <ele>76</ele>
        <time>2020-02-16T10:44:21.000Z</time>
      </trkpt>
      <trkpt lat="47.27026" lon="-2.4614">
        <ele>76.199996948242</ele>
        <time>2020-02-16T10:44:22.000Z</time>
      </trkpt>
      <trkpt lat="47.27024" lon="-2.46134">
        <ele>76.400001525879</ele>
        <time>2020-02-16T10:44:23.000Z</time>
      </trkpt>
      <trkpt lat="47.27022" lon="-2.46128">
        <ele>76.800003051758</ele>
        <time>2020-02-16T10:44:24.000Z</time>
      </trkpt>
      <trkpt lat="47.27021" lon="-2.46122">
        <ele>77</ele>
        <time>2020-02-16T10:44:25.000Z</time>
      </trkpt>
      <trkpt lat="47.27009" lon="-2.46078">
        <ele>77</ele>
        <time>2020-02-16T10:44:32.000Z</time>
      </trkpt>
      <trkpt lat="47.27005" lon="-2.46057">
        <ele>77.599998474121</ele>
        <time>2020-02-16T10:44:35.000Z</time>
      </trkpt>
      <trkpt lat="47.27003" lon="-2.4605">
        <ele>78</ele>
        <time>2020-02-16T10:44:36.000Z</time>
      </trkpt>
      <trkpt lat="47.27001" lon="-2.46043">
        <ele>78.400001525879</ele>
        <time>2020-02-16T10:44:37.000Z</time>
      </trkpt>
      <trkpt lat="47.27" lon="-2.46036">
        <ele>78.800003051758</ele>
        <time>2020-02-16T10:44:38.000Z</time>
      </trkpt>
      <trkpt lat="47.26998" lon="-2.46029">
        <ele>79.199996948242</ele>
        <time>2020-02-16T10:44:39.000Z</time>
      </trkpt>
      <trkpt lat="47.26995" lon="-2.46015">
        <ele>79.199996948242</ele>
        <time>2020-02-16T10:44:41.000Z</time>
      </trkpt>
      <trkpt lat="47.26993" lon="-2.46">
        <ele>79.800003051758</ele>
        <time>2020-02-16T10:44:43.000Z</time>
      </trkpt>
      <trkpt lat="47.26992" lon="-2.45993">
        <ele>80.800003051758</ele>
        <time>2020-02-16T10:44:44.000Z</time>
      </trkpt>
      <trkpt lat="47.2699" lon="-2.45985">
        <ele>82</ele>
        <time>2020-02-16T10:44:45.000Z</time>
      </trkpt>
      <trkpt lat="47.26989" lon="-2.45978">
        <ele>83</ele>
        <time>2020-02-16T10:44:46.000Z</time>
      </trkpt>
      <trkpt lat="47.26988" lon="-2.4597">
        <ele>84</ele>
        <time>2020-02-16T10:44:47.000Z</time>
      </trkpt>
      <trkpt lat="47.26986" lon="-2.45963">
        <ele>84.599998474121</ele>
        <time>2020-02-16T10:44:48.000Z</time>
      </trkpt>
      <trkpt lat="47.26985" lon="-2.45955">
        <ele>85.199996948242</ele>
        <time>2020-02-16T10:44:49.000Z</time>
      </trkpt>
      <trkpt lat="47.26983" lon="-2.45947">
        <ele>86</ele>
        <time>2020-02-16T10:44:50.000Z</time>
      </trkpt>
      <trkpt lat="47.26981" lon="-2.45939">
        <ele>86.199996948242</ele>
        <time>2020-02-16T10:44:51.000Z</time>
      </trkpt>
      <trkpt lat="47.26979" lon="-2.45932">
        <ele>85.800003051758</ele>
        <time>2020-02-16T10:44:52.000Z</time>
      </trkpt>
      <trkpt lat="47.26978" lon="-2.45924">
        <ele>84.800003051758</ele>
        <time>2020-02-16T10:44:53.000Z</time>
      </trkpt>
      <trkpt lat="47.26977" lon="-2.45917">
        <ele>83.599998474121</ele>
        <time>2020-02-16T10:44:54.000Z</time>
      </trkpt>
      <trkpt lat="47.26976" lon="-2.45909">
        <ele>82.599998474121</ele>
        <time>2020-02-16T10:44:55.000Z</time>
      </trkpt>
      <trkpt lat="47.26974" lon="-2.45902">
        <ele>81.400001525879</ele>
        <time>2020-02-16T10:44:56.000Z</time>
      </trkpt>
      <trkpt lat="47.26973" lon="-2.45894">
        <ele>80.400001525879</ele>
        <time>2020-02-16T10:44:57.000Z</time>
      </trkpt>
      <trkpt lat="47.26972" lon="-2.45886">
        <ele>78</ele>
        <time>2020-02-16T10:44:58.000Z</time>
      </trkpt>
      <trkpt lat="47.26967" lon="-2.45842">
        <ele>78</ele>
        <time>2020-02-16T10:45:04.000Z</time>
      </trkpt>
      <trkpt lat="47.26966" lon="-2.45804">
        <ele>77.599998474121</ele>
        <time>2020-02-16T10:45:09.000Z</time>
      </trkpt>
      <trkpt lat="47.26966" lon="-2.45796">
        <ele>77.199996948242</ele>
        <time>2020-02-16T10:45:10.000Z</time>
      </trkpt>
      <trkpt lat="47.26966" lon="-2.45789">
        <ele>76.800003051758</ele>
        <time>2020-02-16T10:45:11.000Z</time>
      </trkpt>
      <trkpt lat="47.26966" lon="-2.45781">
        <ele>76.400001525879</ele>
        <time>2020-02-16T10:45:12.000Z</time>
      </trkpt>
      <trkpt lat="47.26965" lon="-2.45774">
        <ele>76</ele>
        <time>2020-02-16T10:45:13.000Z</time>
      </trkpt>
      <trkpt lat="47.26965" lon="-2.45766">
        <ele>76.400001525879</ele>
        <time>2020-02-16T10:45:14.000Z</time>
      </trkpt>
      <trkpt lat="47.26965" lon="-2.45758">
        <ele>76.800003051758</ele>
        <time>2020-02-16T10:45:15.000Z</time>
      </trkpt>
      <trkpt lat="47.26965" lon="-2.45751">
        <ele>77.199996948242</ele>
        <time>2020-02-16T10:45:16.000Z</time>
      </trkpt>
      <trkpt lat="47.26964" lon="-2.45743">
        <ele>77.599998474121</ele>
        <time>2020-02-16T10:45:17.000Z</time>
      </trkpt>
      <trkpt lat="47.26963" lon="-2.45736">
        <ele>78.199996948242</ele>
        <time>2020-02-16T10:45:18.000Z</time>
      </trkpt>
      <trkpt lat="47.2696" lon="-2.45718">
        <ele>78.199996948242</ele>
        <time>2020-02-16T10:45:20.000Z</time>
      </trkpt>
      <trkpt lat="47.26958" lon="-2.45681">
        <ele>78.199996948242</ele>
        <time>2020-02-16T10:45:25.000Z</time>
      </trkpt>
      <trkpt lat="47.26957" lon="-2.45673">
        <ele>78.199996948242</ele>
        <time>2020-02-16T10:45:26.000Z</time>
      </trkpt>
      <trkpt lat="47.26954" lon="-2.45659">
        <ele>78.199996948242</ele>
        <time>2020-02-16T10:45:28.000Z</time>
      </trkpt>
      <trkpt lat="47.26952" lon="-2.45646">
        <ele>78.199996948242</ele>
        <time>2020-02-16T10:45:30.000Z</time>
      </trkpt>
      <trkpt lat="47.26953" lon="-2.4564">
        <ele>78.199996948242</ele>
        <time>2020-02-16T10:45:31.000Z</time>
      </trkpt>
      <trkpt lat="47.26961" lon="-2.45628">
        <ele>77.599998474121</ele>
        <time>2020-02-16T10:45:33.000Z</time>
      </trkpt>
      <trkpt lat="47.26964" lon="-2.45621">
        <ele>77.199996948242</ele>
        <time>2020-02-16T10:45:34.000Z</time>
      </trkpt>
      <trkpt lat="47.26965" lon="-2.45612">
        <ele>76.599998474121</ele>
        <time>2020-02-16T10:45:35.000Z</time>
      </trkpt>
      <trkpt lat="47.26965" lon="-2.45604">
        <ele>76.199996948242</ele>
        <time>2020-02-16T10:45:36.000Z</time>
      </trkpt>
      <trkpt lat="47.26965" lon="-2.45596">
        <ele>75.599998474121</ele>
        <time>2020-02-16T10:45:37.000Z</time>
      </trkpt>
      <trkpt lat="47.26966" lon="-2.45565">
        <ele>75.599998474121</ele>
        <time>2020-02-16T10:45:41.000Z</time>
      </trkpt>
      <trkpt lat="47.26966" lon="-2.45559">
        <ele>75.599998474121</ele>
        <time>2020-02-16T10:45:42.000Z</time>
      </trkpt>
      <trkpt lat="47.26967" lon="-2.45522">
        <ele>75.599998474121</ele>
        <time>2020-02-16T10:45:48.000Z</time>
      </trkpt>
      <trkpt lat="47.26966" lon="-2.45476">
        <ele>75.599998474121</ele>
        <time>2020-02-16T10:45:55.000Z</time>
      </trkpt>
      <trkpt lat="47.26966" lon="-2.45415">
        <ele>75.599998474121</ele>
        <time>2020-02-16T10:46:04.000Z</time>
      </trkpt>
      <trkpt lat="47.2697" lon="-2.45363">
        <ele>75.599998474121</ele>
        <time>2020-02-16T10:46:11.000Z</time>
      </trkpt>
      <trkpt lat="47.26977" lon="-2.45308">
        <ele>75.599998474121</ele>
        <time>2020-02-16T10:46:18.000Z</time>
      </trkpt>
      <trkpt lat="47.26979" lon="-2.45258">
        <ele>75.599998474121</ele>
        <time>2020-02-16T10:46:25.000Z</time>
      </trkpt>
      <trkpt lat="47.2698" lon="-2.4522">
        <ele>75.599998474121</ele>
        <time>2020-02-16T10:46:31.000Z</time>
      </trkpt>
      <trkpt lat="47.26979" lon="-2.45214">
        <ele>75.599998474121</ele>
        <time>2020-02-16T10:46:32.000Z</time>
      </trkpt>
      <trkpt lat="47.26978" lon="-2.45208">
        <ele>76</ele>
        <time>2020-02-16T10:46:33.000Z</time>
      </trkpt>
      <trkpt lat="47.26977" lon="-2.45201">
        <ele>76.599998474121</ele>
        <time>2020-02-16T10:46:34.000Z</time>
      </trkpt>
      <trkpt lat="47.26976" lon="-2.45194">
        <ele>77</ele>
        <time>2020-02-16T10:46:35.000Z</time>
      </trkpt>
      <trkpt lat="47.26975" lon="-2.45187">
        <ele>77.400001525879</ele>
        <time>2020-02-16T10:46:36.000Z</time>
      </trkpt>
      <trkpt lat="47.26974" lon="-2.4518">
        <ele>77.800003051758</ele>
        <time>2020-02-16T10:46:37.000Z</time>
      </trkpt>
      <trkpt lat="47.26972" lon="-2.45141">
        <ele>77.800003051758</ele>
        <time>2020-02-16T10:46:42.000Z</time>
      </trkpt>
      <trkpt lat="47.26969" lon="-2.45093">
        <ele>77.800003051758</ele>
        <time>2020-02-16T10:46:48.000Z</time>
      </trkpt>
      <trkpt lat="47.26968" lon="-2.45086">
        <ele>77.800003051758</ele>
        <time>2020-02-16T10:46:49.000Z</time>
      </trkpt>
      <trkpt lat="47.26966" lon="-2.45071">
        <ele>77.400001525879</ele>
        <time>2020-02-16T10:46:51.000Z</time>
      </trkpt>
      <trkpt lat="47.26965" lon="-2.45063">
        <ele>77</ele>
        <time>2020-02-16T10:46:52.000Z</time>
      </trkpt>
      <trkpt lat="47.26964" lon="-2.45056">
        <ele>76.599998474121</ele>
        <time>2020-02-16T10:46:53.000Z</time>
      </trkpt>
      <trkpt lat="47.26964" lon="-2.45048">
        <ele>76.199996948242</ele>
        <time>2020-02-16T10:46:54.000Z</time>
      </trkpt>
      <trkpt lat="47.26963" lon="-2.45041">
        <ele>75.599998474121</ele>
        <time>2020-02-16T10:46:55.000Z</time>
      </trkpt>
      <trkpt lat="47.26963" lon="-2.45027">
        <ele>75.599998474121</ele>
        <time>2020-02-16T10:46:57.000Z</time>
      </trkpt>
      <trkpt lat="47.26964" lon="-2.45015">
        <ele>75.599998474121</ele>
        <time>2020-02-16T10:46:59.000Z</time>
      </trkpt>
      <trkpt lat="47.26969" lon="-2.45004">
        <ele>75.599998474121</ele>
        <time>2020-02-16T10:47:02.000Z</time>
      </trkpt>
      <trkpt lat="47.26973" lon="-2.45003">
        <ele>75.599998474121</ele>
        <time>2020-02-16T10:47:03.000Z</time>
      </trkpt>
      <trkpt lat="47.26996" lon="-2.45001">
        <ele>75.599998474121</ele>
        <time>2020-02-16T10:47:08.000Z</time>
      </trkpt>
      <trkpt lat="47.27036" lon="-2.44997">
        <ele>75.599998474121</ele>
        <time>2020-02-16T10:47:15.000Z</time>
      </trkpt>
      <trkpt lat="47.27048" lon="-2.44992">
        <ele>75.599998474121</ele>
        <time>2020-02-16T10:47:17.000Z</time>
      </trkpt>
      <trkpt lat="47.27057" lon="-2.4498">
        <ele>75.599998474121</ele>
        <time>2020-02-16T10:47:19.000Z</time>
      </trkpt>
      <trkpt lat="47.2706" lon="-2.44953">
        <ele>75.599998474121</ele>
        <time>2020-02-16T10:47:22.000Z</time>
      </trkpt>
      <trkpt lat="47.2706" lon="-2.44945">
        <ele>75.599998474121</ele>
        <time>2020-02-16T10:47:23.000Z</time>
      </trkpt>
      <trkpt lat="47.27056" lon="-2.44887">
        <ele>75.599998474121</ele>
        <time>2020-02-16T10:47:30.000Z</time>
      </trkpt>
      <trkpt lat="47.27052" lon="-2.44813">
        <ele>75.599998474121</ele>
        <time>2020-02-16T10:47:39.000Z</time>
      </trkpt>
      <trkpt lat="47.27047" lon="-2.4475">
        <ele>75.599998474121</ele>
        <time>2020-02-16T10:47:47.000Z</time>
      </trkpt>
      <trkpt lat="47.27044" lon="-2.44712">
        <ele>75.599998474121</ele>
        <time>2020-02-16T10:47:52.000Z</time>
      </trkpt>
      <trkpt lat="47.27043" lon="-2.44704">
        <ele>75.599998474121</ele>
        <time>2020-02-16T10:47:53.000Z</time>
      </trkpt>
      <trkpt lat="47.2703" lon="-2.44642">
        <ele>75.599998474121</ele>
        <time>2020-02-16T10:48:01.000Z</time>
      </trkpt>
      <trkpt lat="47.2702" lon="-2.44584">
        <ele>75.599998474121</ele>
        <time>2020-02-16T10:48:08.000Z</time>
      </trkpt>
      <trkpt lat="47.27007" lon="-2.44526">
        <ele>75.599998474121</ele>
        <time>2020-02-16T10:48:15.000Z</time>
      </trkpt>
      <trkpt lat="47.26994" lon="-2.44453">
        <ele>75.599998474121</ele>
        <time>2020-02-16T10:48:24.000Z</time>
      </trkpt>
      <trkpt lat="47.2699" lon="-2.44426">
        <ele>75.599998474121</ele>
        <time>2020-02-16T10:48:27.000Z</time>
      </trkpt>
      <trkpt lat="47.26992" lon="-2.44409">
        <ele>75.599998474121</ele>
        <time>2020-02-16T10:48:29.000Z</time>
      </trkpt>
      <trkpt lat="47.27004" lon="-2.44381">
        <ele>75.599998474121</ele>
        <time>2020-02-16T10:48:33.000Z</time>
      </trkpt>
      <trkpt lat="47.27007" lon="-2.44374">
        <ele>75.599998474121</ele>
        <time>2020-02-16T10:48:34.000Z</time>
      </trkpt>
      <trkpt lat="47.27009" lon="-2.44356">
        <ele>75.599998474121</ele>
        <time>2020-02-16T10:48:36.000Z</time>
      </trkpt>
      <trkpt lat="47.26999" lon="-2.44337">
        <ele>75.599998474121</ele>
        <time>2020-02-16T10:48:40.000Z</time>
      </trkpt>
      <trkpt lat="47.26987" lon="-2.44323">
        <ele>75.599998474121</ele>
        <time>2020-02-16T10:48:43.000Z</time>
      </trkpt>
      <trkpt lat="47.2698" lon="-2.44313">
        <ele>75.599998474121</ele>
        <time>2020-02-16T10:48:45.000Z</time>
      </trkpt>
      <trkpt lat="47.2697" lon="-2.44281">
        <ele>75.599998474121</ele>
        <time>2020-02-16T10:48:50.000Z</time>
      </trkpt>
      <trkpt lat="47.26961" lon="-2.44227">
        <ele>75.599998474121</ele>
        <time>2020-02-16T10:48:56.000Z</time>
      </trkpt>
      <trkpt lat="47.26952" lon="-2.44167">
        <ele>75.599998474121</ele>
        <time>2020-02-16T10:49:03.000Z</time>
      </trkpt>
      <trkpt lat="47.26938" lon="-2.44092">
        <ele>75.599998474121</ele>
        <time>2020-02-16T10:49:13.000Z</time>
      </trkpt>
      <trkpt lat="47.26934" lon="-2.44079">
        <ele>75.599998474121</ele>
        <time>2020-02-16T10:49:17.000Z</time>
      </trkpt>
      <trkpt lat="47.26931" lon="-2.44075">
        <ele>75.599998474121</ele>
        <time>2020-02-16T10:49:22.000Z</time>
      </trkpt>
      <trkpt lat="47.26935" lon="-2.4406">
        <ele>75.599998474121</ele>
        <time>2020-02-16T10:49:26.000Z</time>
      </trkpt>
      <trkpt lat="47.26938" lon="-2.44038">
        <ele>75.599998474121</ele>
        <time>2020-02-16T10:49:29.000Z</time>
      </trkpt>
      <trkpt lat="47.26938" lon="-2.4403">
        <ele>75.599998474121</ele>
        <time>2020-02-16T10:49:30.000Z</time>
      </trkpt>
      <trkpt lat="47.26941" lon="-2.43964">
        <ele>75.599998474121</ele>
        <time>2020-02-16T10:49:38.000Z</time>
      </trkpt>
      <trkpt lat="47.26943" lon="-2.43882">
        <ele>75.599998474121</ele>
        <time>2020-02-16T10:49:48.000Z</time>
      </trkpt>
      <trkpt lat="47.26943" lon="-2.43866">
        <ele>75.599998474121</ele>
        <time>2020-02-16T10:49:50.000Z</time>
      </trkpt>
      <trkpt lat="47.26942" lon="-2.43833">
        <ele>75.599998474121</ele>
        <time>2020-02-16T10:49:54.000Z</time>
      </trkpt>
      <trkpt lat="47.26942" lon="-2.43765">
        <ele>75.599998474121</ele>
        <time>2020-02-16T10:50:02.000Z</time>
      </trkpt>
      <trkpt lat="47.26947" lon="-2.43712">
        <ele>75.199996948242</ele>
        <time>2020-02-16T10:50:08.000Z</time>
      </trkpt>
      <trkpt lat="47.26948" lon="-2.43703">
        <ele>74.800003051758</ele>
        <time>2020-02-16T10:50:09.000Z</time>
      </trkpt>
      <trkpt lat="47.26949" lon="-2.43693">
        <ele>74.400001525879</ele>
        <time>2020-02-16T10:50:10.000Z</time>
      </trkpt>
      <trkpt lat="47.2695" lon="-2.43685">
        <ele>74</ele>
        <time>2020-02-16T10:50:11.000Z</time>
      </trkpt>
      <trkpt lat="47.26951" lon="-2.43678">
        <ele>73.400001525879</ele>
        <time>2020-02-16T10:50:12.000Z</time>
      </trkpt>
      <trkpt lat="47.26954" lon="-2.43661">
        <ele>73.400001525879</ele>
        <time>2020-02-16T10:50:16.000Z</time>
      </trkpt>
      <trkpt lat="47.26958" lon="-2.43646">
        <ele>73.400001525879</ele>
        <time>2020-02-16T10:50:22.000Z</time>
      </trkpt>
      <trkpt lat="47.26963" lon="-2.43637">
        <ele>73.400001525879</ele>
        <time>2020-02-16T10:50:24.000Z</time>
      </trkpt>
      <trkpt lat="47.2697" lon="-2.43627">
        <ele>73.400001525879</ele>
        <time>2020-02-16T10:50:26.000Z</time>
      </trkpt>
      <trkpt lat="47.2698" lon="-2.43612">
        <ele>73</ele>
        <time>2020-02-16T10:50:29.000Z</time>
      </trkpt>
      <trkpt lat="47.26984" lon="-2.43606">
        <ele>72.599998474121</ele>
        <time>2020-02-16T10:50:30.000Z</time>
      </trkpt>
      <trkpt lat="47.26988" lon="-2.43601">
        <ele>72.199996948242</ele>
        <time>2020-02-16T10:50:31.000Z</time>
      </trkpt>
      <trkpt lat="47.26991" lon="-2.43594">
        <ele>71.800003051758</ele>
        <time>2020-02-16T10:50:32.000Z</time>
      </trkpt>
      <trkpt lat="47.26994" lon="-2.43586">
        <ele>71.400001525879</ele>
        <time>2020-02-16T10:50:33.000Z</time>
      </trkpt>
      <trkpt lat="47.27013" lon="-2.43564">
        <ele>71.400001525879</ele>
        <time>2020-02-16T10:50:37.000Z</time>
      </trkpt>
      <trkpt lat="47.27024" lon="-2.43549">
        <ele>71.400001525879</ele>
        <time>2020-02-16T10:50:39.000Z</time>
      </trkpt>
      <trkpt lat="47.27036" lon="-2.43533">
        <ele>71.400001525879</ele>
        <time>2020-02-16T10:50:41.000Z</time>
      </trkpt>
      <trkpt lat="47.27068" lon="-2.4349">
        <ele>71.400001525879</ele>
        <time>2020-02-16T10:50:47.000Z</time>
      </trkpt>
      <trkpt lat="47.27076" lon="-2.43479">
        <ele>70.800003051758</ele>
        <time>2020-02-16T10:50:49.000Z</time>
      </trkpt>
      <trkpt lat="47.27079" lon="-2.43474">
        <ele>70.400001525879</ele>
        <time>2020-02-16T10:50:50.000Z</time>
      </trkpt>
      <trkpt lat="47.27083" lon="-2.43469">
        <ele>70</ele>
        <time>2020-02-16T10:50:51.000Z</time>
      </trkpt>
      <trkpt lat="47.27087" lon="-2.43464">
        <ele>69.599998474121</ele>
        <time>2020-02-16T10:50:52.000Z</time>
      </trkpt>
      <trkpt lat="47.2709" lon="-2.43459">
        <ele>69.199996948242</ele>
        <time>2020-02-16T10:50:53.000Z</time>
      </trkpt>
      <trkpt lat="47.27094" lon="-2.43453">
        <ele>69.199996948242</ele>
        <time>2020-02-16T10:50:54.000Z</time>
      </trkpt>
      <trkpt lat="47.27097" lon="-2.43447">
        <ele>69.199996948242</ele>
        <time>2020-02-16T10:50:55.000Z</time>
      </trkpt>
      <trkpt lat="47.27106" lon="-2.43431">
        <ele>69.199996948242</ele>
        <time>2020-02-16T10:50:58.000Z</time>
      </trkpt>
      <trkpt lat="47.27108" lon="-2.43428">
        <ele>69.199996948242</ele>
        <time>2020-02-16T10:50:59.000Z</time>
      </trkpt>
      <trkpt lat="47.27124" lon="-2.43407">
        <ele>69.199996948242</ele>
        <time>2020-02-16T10:51:05.000Z</time>
      </trkpt>
      <trkpt lat="47.27131" lon="-2.434">
        <ele>69.199996948242</ele>
        <time>2020-02-16T10:51:07.000Z</time>
      </trkpt>
      <trkpt lat="47.27142" lon="-2.43385">
        <ele>69.199996948242</ele>
        <time>2020-02-16T10:51:10.000Z</time>
      </trkpt>
      <trkpt lat="47.27169" lon="-2.43349">
        <ele>69.199996948242</ele>
        <time>2020-02-16T10:51:16.000Z</time>
      </trkpt>
      <trkpt lat="47.27202" lon="-2.43303">
        <ele>69.199996948242</ele>
        <time>2020-02-16T10:51:23.000Z</time>
      </trkpt>
      <trkpt lat="47.27214" lon="-2.43292">
        <ele>69.199996948242</ele>
        <time>2020-02-16T10:51:25.000Z</time>
      </trkpt>
      <trkpt lat="47.27226" lon="-2.43282">
        <ele>68.599998474121</ele>
        <time>2020-02-16T10:51:27.000Z</time>
      </trkpt>
      <trkpt lat="47.27232" lon="-2.43278">
        <ele>68.199996948242</ele>
        <time>2020-02-16T10:51:28.000Z</time>
      </trkpt>
      <trkpt lat="47.27237" lon="-2.43273">
        <ele>67.800003051758</ele>
        <time>2020-02-16T10:51:29.000Z</time>
      </trkpt>
      <trkpt lat="47.27243" lon="-2.43268">
        <ele>67.400001525879</ele>
        <time>2020-02-16T10:51:30.000Z</time>
      </trkpt>
      <trkpt lat="47.27248" lon="-2.43263">
        <ele>67</ele>
        <time>2020-02-16T10:51:31.000Z</time>
      </trkpt>
      <trkpt lat="47.27259" lon="-2.43253">
        <ele>67</ele>
        <time>2020-02-16T10:51:33.000Z</time>
      </trkpt>
      <trkpt lat="47.27266" lon="-2.43249">
        <ele>67</ele>
        <time>2020-02-16T10:51:34.000Z</time>
      </trkpt>
      <trkpt lat="47.2729" lon="-2.43231">
        <ele>67</ele>
        <time>2020-02-16T10:51:38.000Z</time>
      </trkpt>
      <trkpt lat="47.27326" lon="-2.43204">
        <ele>67</ele>
        <time>2020-02-16T10:51:44.000Z</time>
      </trkpt>
      <trkpt lat="47.27332" lon="-2.432">
        <ele>67</ele>
        <time>2020-02-16T10:51:45.000Z</time>
      </trkpt>
      <trkpt lat="47.2737" lon="-2.43169">
        <ele>67</ele>
        <time>2020-02-16T10:51:52.000Z</time>
      </trkpt>
      <trkpt lat="47.2738" lon="-2.43161">
        <ele>67</ele>
        <time>2020-02-16T10:51:54.000Z</time>
      </trkpt>
      <trkpt lat="47.27398" lon="-2.43151">
        <ele>67</ele>
        <time>2020-02-16T10:51:57.000Z</time>
      </trkpt>
      <trkpt lat="47.27424" lon="-2.43135">
        <ele>67</ele>
        <time>2020-02-16T10:52:02.000Z</time>
      </trkpt>
      <trkpt lat="47.27429" lon="-2.43132">
        <ele>67</ele>
        <time>2020-02-16T10:52:03.000Z</time>
      </trkpt>
      <trkpt lat="47.27448" lon="-2.43118">
        <ele>67</ele>
        <time>2020-02-16T10:52:07.000Z</time>
      </trkpt>
      <trkpt lat="47.27456" lon="-2.4311">
        <ele>67</ele>
        <time>2020-02-16T10:52:09.000Z</time>
      </trkpt>
      <trkpt lat="47.27471" lon="-2.43092">
        <ele>67</ele>
        <time>2020-02-16T10:52:14.000Z</time>
      </trkpt>
      <trkpt lat="47.27487" lon="-2.43072">
        <ele>67</ele>
        <time>2020-02-16T10:52:19.000Z</time>
      </trkpt>
      <trkpt lat="47.27491" lon="-2.43069">
        <ele>67</ele>
        <time>2020-02-16T10:52:20.000Z</time>
      </trkpt>
      <trkpt lat="47.27516" lon="-2.43047">
        <ele>67</ele>
        <time>2020-02-16T10:52:27.000Z</time>
      </trkpt>
      <trkpt lat="47.27535" lon="-2.43034">
        <ele>67</ele>
        <time>2020-02-16T10:52:31.000Z</time>
      </trkpt>
      <trkpt lat="47.27565" lon="-2.43013">
        <ele>67</ele>
        <time>2020-02-16T10:52:37.000Z</time>
      </trkpt>
      <trkpt lat="47.27595" lon="-2.42993">
        <ele>67</ele>
        <time>2020-02-16T10:52:43.000Z</time>
      </trkpt>
      <trkpt lat="47.27599" lon="-2.42992">
        <ele>67</ele>
        <time>2020-02-16T10:52:44.000Z</time>
      </trkpt>
      <trkpt lat="47.27612" lon="-2.42988">
        <ele>67</ele>
        <time>2020-02-16T10:52:47.000Z</time>
      </trkpt>
      <trkpt lat="47.27616" lon="-2.42984">
        <ele>67</ele>
        <time>2020-02-16T10:52:48.000Z</time>
      </trkpt>
      <trkpt lat="47.27628" lon="-2.42972">
        <ele>67</ele>
        <time>2020-02-16T10:52:51.000Z</time>
      </trkpt>
      <trkpt lat="47.27635" lon="-2.42963">
        <ele>67</ele>
        <time>2020-02-16T10:52:53.000Z</time>
      </trkpt>
      <trkpt lat="47.27638" lon="-2.42958">
        <ele>67</ele>
        <time>2020-02-16T10:52:54.000Z</time>
      </trkpt>
      <trkpt lat="47.27656" lon="-2.4293">
        <ele>67</ele>
        <time>2020-02-16T10:53:00.000Z</time>
      </trkpt>
      <trkpt lat="47.27658" lon="-2.42925">
        <ele>67</ele>
        <time>2020-02-16T10:53:01.000Z</time>
      </trkpt>
      <trkpt lat="47.27669" lon="-2.42898">
        <ele>67</ele>
        <time>2020-02-16T10:53:07.000Z</time>
      </trkpt>
      <trkpt lat="47.27673" lon="-2.42871">
        <ele>67</ele>
        <time>2020-02-16T10:53:13.000Z</time>
      </trkpt>
      <trkpt lat="47.27679" lon="-2.4285">
        <ele>67</ele>
        <time>2020-02-16T10:53:19.000Z</time>
      </trkpt>
      <trkpt lat="47.27686" lon="-2.42823">
        <ele>67</ele>
        <time>2020-02-16T10:53:25.000Z</time>
      </trkpt>
      <trkpt lat="47.27689" lon="-2.42803">
        <ele>67.400001525879</ele>
        <time>2020-02-16T10:53:30.000Z</time>
      </trkpt>
      <trkpt lat="47.27691" lon="-2.428">
        <ele>67.800003051758</ele>
        <time>2020-02-16T10:53:31.000Z</time>
      </trkpt>
      <trkpt lat="47.27694" lon="-2.42798">
        <ele>68.199996948242</ele>
        <time>2020-02-16T10:53:32.000Z</time>
      </trkpt>
      <trkpt lat="47.27697" lon="-2.42797">
        <ele>68.599998474121</ele>
        <time>2020-02-16T10:53:33.000Z</time>
      </trkpt>
      <trkpt lat="47.27701" lon="-2.42797">
        <ele>69</ele>
        <time>2020-02-16T10:53:34.000Z</time>
      </trkpt>
      <trkpt lat="47.27709" lon="-2.42799">
        <ele>69</ele>
        <time>2020-02-16T10:53:36.000Z</time>
      </trkpt>
      <trkpt lat="47.27721" lon="-2.42805">
        <ele>69</ele>
        <time>2020-02-16T10:53:39.000Z</time>
      </trkpt>
      <trkpt lat="47.27742" lon="-2.4281">
        <ele>69</ele>
        <time>2020-02-16T10:53:44.000Z</time>
      </trkpt>
      <trkpt lat="47.27751" lon="-2.42811">
        <ele>69</ele>
        <time>2020-02-16T10:53:46.000Z</time>
      </trkpt>
      <trkpt lat="47.27765" lon="-2.42813">
        <ele>69</ele>
        <time>2020-02-16T10:53:49.000Z</time>
      </trkpt>
      <trkpt lat="47.27791" lon="-2.42816">
        <ele>69</ele>
        <time>2020-02-16T10:53:55.000Z</time>
      </trkpt>
      <trkpt lat="47.27815" lon="-2.42818">
        <ele>69</ele>
        <time>2020-02-16T10:54:00.000Z</time>
      </trkpt>
      <trkpt lat="47.27824" lon="-2.42804">
        <ele>69.599998474121</ele>
        <time>2020-02-16T10:54:03.000Z</time>
      </trkpt>
      <trkpt lat="47.27826" lon="-2.42798">
        <ele>70.199996948242</ele>
        <time>2020-02-16T10:54:04.000Z</time>
      </trkpt>
      <trkpt lat="47.27827" lon="-2.42793">
        <ele>70.599998474121</ele>
        <time>2020-02-16T10:54:05.000Z</time>
      </trkpt>
      <trkpt lat="47.27829" lon="-2.42786">
        <ele>71.199996948242</ele>
        <time>2020-02-16T10:54:06.000Z</time>
      </trkpt>
      <trkpt lat="47.2783" lon="-2.42779">
        <ele>71.800003051758</ele>
        <time>2020-02-16T10:54:07.000Z</time>
      </trkpt>
      <trkpt lat="47.27829" lon="-2.42772">
        <ele>71.800003051758</ele>
        <time>2020-02-16T10:54:08.000Z</time>
      </trkpt>
      <trkpt lat="47.27827" lon="-2.42746">
        <ele>71.800003051758</ele>
        <time>2020-02-16T10:54:11.000Z</time>
      </trkpt>
      <trkpt lat="47.27825" lon="-2.42722">
        <ele>71.800003051758</ele>
        <time>2020-02-16T10:54:14.000Z</time>
      </trkpt>
      <trkpt lat="47.27825" lon="-2.42714">
        <ele>72.199996948242</ele>
        <time>2020-02-16T10:54:15.000Z</time>
      </trkpt>
      <trkpt lat="47.27824" lon="-2.42707">
        <ele>72.599998474121</ele>
        <time>2020-02-16T10:54:16.000Z</time>
      </trkpt>
      <trkpt lat="47.27825" lon="-2.427">
        <ele>73</ele>
        <time>2020-02-16T10:54:17.000Z</time>
      </trkpt>
      <trkpt lat="47.27825" lon="-2.42691">
        <ele>72.599998474121</ele>
        <time>2020-02-16T10:54:18.000Z</time>
      </trkpt>
      <trkpt lat="47.27824" lon="-2.42683">
        <ele>72.199996948242</ele>
        <time>2020-02-16T10:54:19.000Z</time>
      </trkpt>
      <trkpt lat="47.27824" lon="-2.42675">
        <ele>71.800003051758</ele>
        <time>2020-02-16T10:54:20.000Z</time>
      </trkpt>
      <trkpt lat="47.27823" lon="-2.42666">
        <ele>71.400001525879</ele>
        <time>2020-02-16T10:54:21.000Z</time>
      </trkpt>
      <trkpt lat="47.27822" lon="-2.42657">
        <ele>71</ele>
        <time>2020-02-16T10:54:22.000Z</time>
      </trkpt>
      <trkpt lat="47.27819" lon="-2.42631">
        <ele>71</ele>
        <time>2020-02-16T10:54:25.000Z</time>
      </trkpt>
      <trkpt lat="47.27803" lon="-2.42565">
        <ele>70.599998474121</ele>
        <time>2020-02-16T10:54:33.000Z</time>
      </trkpt>
      <trkpt lat="47.27799" lon="-2.42557">
        <ele>70.199996948242</ele>
        <time>2020-02-16T10:54:34.000Z</time>
      </trkpt>
      <trkpt lat="47.27796" lon="-2.42549">
        <ele>69.800003051758</ele>
        <time>2020-02-16T10:54:35.000Z</time>
      </trkpt>
      <trkpt lat="47.27793" lon="-2.42541">
        <ele>69.400001525879</ele>
        <time>2020-02-16T10:54:36.000Z</time>
      </trkpt>
      <trkpt lat="47.2779" lon="-2.42533">
        <ele>69</ele>
        <time>2020-02-16T10:54:37.000Z</time>
      </trkpt>
      <trkpt lat="47.27785" lon="-2.42517">
        <ele>69</ele>
        <time>2020-02-16T10:54:39.000Z</time>
      </trkpt>
      <trkpt lat="47.27768" lon="-2.42468">
        <ele>69</ele>
        <time>2020-02-16T10:54:45.000Z</time>
      </trkpt>
      <trkpt lat="47.27759" lon="-2.42432">
        <ele>69</ele>
        <time>2020-02-16T10:54:49.000Z</time>
      </trkpt>
      <trkpt lat="47.27754" lon="-2.42406">
        <ele>69</ele>
        <time>2020-02-16T10:54:52.000Z</time>
      </trkpt>
      <trkpt lat="47.27744" lon="-2.42326">
        <ele>69</ele>
        <time>2020-02-16T10:55:01.000Z</time>
      </trkpt>
      <trkpt lat="47.27738" lon="-2.42243">
        <ele>69</ele>
        <time>2020-02-16T10:55:10.000Z</time>
      </trkpt>
      <trkpt lat="47.27736" lon="-2.42172">
        <ele>69</ele>
        <time>2020-02-16T10:55:18.000Z</time>
      </trkpt>
      <trkpt lat="47.27739" lon="-2.42118">
        <ele>69</ele>
        <time>2020-02-16T10:55:24.000Z</time>
      </trkpt>
      <trkpt lat="47.27744" lon="-2.42063">
        <ele>69</ele>
        <time>2020-02-16T10:55:30.000Z</time>
      </trkpt>
      <trkpt lat="47.27755" lon="-2.42011">
        <ele>69</ele>
        <time>2020-02-16T10:55:36.000Z</time>
      </trkpt>
      <trkpt lat="47.27772" lon="-2.41952">
        <ele>69</ele>
        <time>2020-02-16T10:55:43.000Z</time>
      </trkpt>
      <trkpt lat="47.27789" lon="-2.41896">
        <ele>69</ele>
        <time>2020-02-16T10:55:50.000Z</time>
      </trkpt>
      <trkpt lat="47.27809" lon="-2.41843">
        <ele>69</ele>
        <time>2020-02-16T10:55:57.000Z</time>
      </trkpt>
      <trkpt lat="47.2782" lon="-2.41814">
        <ele>69</ele>
        <time>2020-02-16T10:56:02.000Z</time>
      </trkpt>
      <trkpt lat="47.27828" lon="-2.41791">
        <ele>69</ele>
        <time>2020-02-16T10:56:07.000Z</time>
      </trkpt>
      <trkpt lat="47.27839" lon="-2.4176">
        <ele>69</ele>
        <time>2020-02-16T10:56:13.000Z</time>
      </trkpt>
      <trkpt lat="47.27852" lon="-2.41741">
        <ele>69</ele>
        <time>2020-02-16T10:56:18.000Z</time>
      </trkpt>
      <trkpt lat="47.27863" lon="-2.41713">
        <ele>69</ele>
        <time>2020-02-16T10:56:23.000Z</time>
      </trkpt>
      <trkpt lat="47.27885" lon="-2.41668">
        <ele>69</ele>
        <time>2020-02-16T10:56:29.000Z</time>
      </trkpt>
      <trkpt lat="47.27907" lon="-2.41617">
        <ele>69</ele>
        <time>2020-02-16T10:56:36.000Z</time>
      </trkpt>
      <trkpt lat="47.2793" lon="-2.41576">
        <ele>69</ele>
        <time>2020-02-16T10:56:42.000Z</time>
      </trkpt>
      <trkpt lat="47.2795" lon="-2.41535">
        <ele>69</ele>
        <time>2020-02-16T10:56:48.000Z</time>
      </trkpt>
      <trkpt lat="47.27955" lon="-2.41521">
        <ele>69.400001525879</ele>
        <time>2020-02-16T10:56:50.000Z</time>
      </trkpt>
      <trkpt lat="47.27958" lon="-2.41513">
        <ele>69.800003051758</ele>
        <time>2020-02-16T10:56:51.000Z</time>
      </trkpt>
      <trkpt lat="47.2796" lon="-2.41505">
        <ele>70.199996948242</ele>
        <time>2020-02-16T10:56:52.000Z</time>
      </trkpt>
      <trkpt lat="47.27962" lon="-2.41497">
        <ele>70.599998474121</ele>
        <time>2020-02-16T10:56:53.000Z</time>
      </trkpt>
      <trkpt lat="47.27965" lon="-2.41489">
        <ele>71</ele>
        <time>2020-02-16T10:56:54.000Z</time>
      </trkpt>
      <trkpt lat="47.27984" lon="-2.41422">
        <ele>71</ele>
        <time>2020-02-16T10:57:02.000Z</time>
      </trkpt>
      <trkpt lat="47.27996" lon="-2.41346">
        <ele>71</ele>
        <time>2020-02-16T10:57:10.000Z</time>
      </trkpt>
      <trkpt lat="47.28006" lon="-2.41282">
        <ele>71</ele>
        <time>2020-02-16T10:57:17.000Z</time>
      </trkpt>
      <trkpt lat="47.2802" lon="-2.41226">
        <ele>71</ele>
        <time>2020-02-16T10:57:23.000Z</time>
      </trkpt>
      <trkpt lat="47.28031" lon="-2.41174">
        <ele>71</ele>
        <time>2020-02-16T10:57:29.000Z</time>
      </trkpt>
      <trkpt lat="47.28046" lon="-2.41096">
        <ele>71</ele>
        <time>2020-02-16T10:57:38.000Z</time>
      </trkpt>
      <trkpt lat="47.28052" lon="-2.41061">
        <ele>71</ele>
        <time>2020-02-16T10:57:42.000Z</time>
      </trkpt>
      <trkpt lat="47.28056" lon="-2.41044">
        <ele>71</ele>
        <time>2020-02-16T10:57:44.000Z</time>
      </trkpt>
      <trkpt lat="47.28063" lon="-2.40996">
        <ele>71</ele>
        <time>2020-02-16T10:57:50.000Z</time>
      </trkpt>
      <trkpt lat="47.28069" lon="-2.40964">
        <ele>71</ele>
        <time>2020-02-16T10:57:54.000Z</time>
      </trkpt>
      <trkpt lat="47.28074" lon="-2.40943">
        <ele>71.400001525879</ele>
        <time>2020-02-16T10:57:57.000Z</time>
      </trkpt>
      <trkpt lat="47.28076" lon="-2.40936">
        <ele>72</ele>
        <time>2020-02-16T10:57:58.000Z</time>
      </trkpt>
      <trkpt lat="47.28077" lon="-2.40928">
        <ele>72.400001525879</ele>
        <time>2020-02-16T10:57:59.000Z</time>
      </trkpt>
      <trkpt lat="47.28078" lon="-2.40921">
        <ele>72.800003051758</ele>
        <time>2020-02-16T10:58:00.000Z</time>
      </trkpt>
      <trkpt lat="47.28076" lon="-2.40914">
        <ele>73.199996948242</ele>
        <time>2020-02-16T10:58:01.000Z</time>
      </trkpt>
      <trkpt lat="47.28074" lon="-2.40907">
        <ele>73.199996948242</ele>
        <time>2020-02-16T10:58:02.000Z</time>
      </trkpt>
      <trkpt lat="47.28065" lon="-2.40886">
        <ele>73.199996948242</ele>
        <time>2020-02-16T10:58:05.000Z</time>
      </trkpt>
      <trkpt lat="47.28059" lon="-2.40874">
        <ele>73.199996948242</ele>
        <time>2020-02-16T10:58:07.000Z</time>
      </trkpt>
      <trkpt lat="47.28056" lon="-2.40868">
        <ele>73.800003051758</ele>
        <time>2020-02-16T10:58:08.000Z</time>
      </trkpt>
      <trkpt lat="47.28053" lon="-2.40863">
        <ele>74.400001525879</ele>
        <time>2020-02-16T10:58:09.000Z</time>
      </trkpt>
      <trkpt lat="47.2805" lon="-2.40858">
        <ele>75.599998474121</ele>
        <time>2020-02-16T10:58:10.000Z</time>
      </trkpt>
      <trkpt lat="47.28047" lon="-2.40853">
        <ele>76.199996948242</ele>
        <time>2020-02-16T10:58:11.000Z</time>
      </trkpt>
      <trkpt lat="47.28046" lon="-2.40848">
        <ele>76.199996948242</ele>
        <time>2020-02-16T10:58:12.000Z</time>
      </trkpt>
      <trkpt lat="47.28038" lon="-2.40829">
        <ele>76.199996948242</ele>
        <time>2020-02-16T10:58:17.000Z</time>
      </trkpt>
      <trkpt lat="47.28035" lon="-2.40825">
        <ele>75.400001525879</ele>
        <time>2020-02-16T10:58:18.000Z</time>
      </trkpt>
      <trkpt lat="47.28032" lon="-2.4082">
        <ele>74.400001525879</ele>
        <time>2020-02-16T10:58:19.000Z</time>
      </trkpt>
      <trkpt lat="47.28031" lon="-2.40814">
        <ele>73.400001525879</ele>
        <time>2020-02-16T10:58:20.000Z</time>
      </trkpt>
      <trkpt lat="47.28032" lon="-2.40807">
        <ele>72.400001525879</ele>
        <time>2020-02-16T10:58:21.000Z</time>
      </trkpt>
      <trkpt lat="47.28034" lon="-2.40801">
        <ele>71.400001525879</ele>
        <time>2020-02-16T10:58:22.000Z</time>
      </trkpt>
      <trkpt lat="47.28035" lon="-2.40794">
        <ele>70.400001525879</ele>
        <time>2020-02-16T10:58:23.000Z</time>
      </trkpt>
      <trkpt lat="47.28038" lon="-2.40786">
        <ele>70.400001525879</ele>
        <time>2020-02-16T10:58:24.000Z</time>
      </trkpt>
      <trkpt lat="47.2804" lon="-2.40777">
        <ele>70.400001525879</ele>
        <time>2020-02-16T10:58:25.000Z</time>
      </trkpt>
      <trkpt lat="47.28052" lon="-2.40721">
        <ele>70.400001525879</ele>
        <time>2020-02-16T10:58:32.000Z</time>
      </trkpt>
      <trkpt lat="47.28057" lon="-2.40676">
        <ele>70.400001525879</ele>
        <time>2020-02-16T10:58:38.000Z</time>
      </trkpt>
      <trkpt lat="47.28056" lon="-2.40654">
        <ele>70.400001525879</ele>
        <time>2020-02-16T10:58:41.000Z</time>
      </trkpt>
      <trkpt lat="47.28052" lon="-2.4063">
        <ele>70.400001525879</ele>
        <time>2020-02-16T10:58:44.000Z</time>
      </trkpt>
      <trkpt lat="47.2805" lon="-2.40606">
        <ele>70.400001525879</ele>
        <time>2020-02-16T10:58:47.000Z</time>
      </trkpt>
      <trkpt lat="47.28052" lon="-2.4059">
        <ele>70.400001525879</ele>
        <time>2020-02-16T10:58:49.000Z</time>
      </trkpt>
      <trkpt lat="47.28056" lon="-2.40564">
        <ele>70.400001525879</ele>
        <time>2020-02-16T10:58:52.000Z</time>
      </trkpt>
      <trkpt lat="47.2806" lon="-2.40546">
        <ele>70.400001525879</ele>
        <time>2020-02-16T10:58:54.000Z</time>
      </trkpt>
      <trkpt lat="47.28074" lon="-2.40484">
        <ele>70.400001525879</ele>
        <time>2020-02-16T10:59:01.000Z</time>
      </trkpt>
      <trkpt lat="47.28093" lon="-2.40451">
        <ele>70.400001525879</ele>
        <time>2020-02-16T10:59:06.000Z</time>
      </trkpt>
      <trkpt lat="47.28103" lon="-2.40428">
        <ele>70.400001525879</ele>
        <time>2020-02-16T10:59:09.000Z</time>
      </trkpt>
      <trkpt lat="47.28108" lon="-2.4041">
        <ele>70.400001525879</ele>
        <time>2020-02-16T10:59:11.000Z</time>
      </trkpt>
      <trkpt lat="47.2811" lon="-2.40391">
        <ele>70.400001525879</ele>
        <time>2020-02-16T10:59:13.000Z</time>
      </trkpt>
      <trkpt lat="47.28114" lon="-2.40363">
        <ele>70.400001525879</ele>
        <time>2020-02-16T10:59:16.000Z</time>
      </trkpt>
      <trkpt lat="47.28122" lon="-2.40313">
        <ele>70.400001525879</ele>
        <time>2020-02-16T10:59:22.000Z</time>
      </trkpt>
      <trkpt lat="47.28125" lon="-2.40297">
        <ele>70</ele>
        <time>2020-02-16T10:59:24.000Z</time>
      </trkpt>
      <trkpt lat="47.28126" lon="-2.40289">
        <ele>69.599998474121</ele>
        <time>2020-02-16T10:59:25.000Z</time>
      </trkpt>
      <trkpt lat="47.28127" lon="-2.4028">
        <ele>69.199996948242</ele>
        <time>2020-02-16T10:59:26.000Z</time>
      </trkpt>
      <trkpt lat="47.28127" lon="-2.40271">
        <ele>68.800003051758</ele>
        <time>2020-02-16T10:59:27.000Z</time>
      </trkpt>
      <trkpt lat="47.28128" lon="-2.40262">
        <ele>68.400001525879</ele>
        <time>2020-02-16T10:59:28.000Z</time>
      </trkpt>
      <trkpt lat="47.28129" lon="-2.40243">
        <ele>68.400001525879</ele>
        <time>2020-02-16T10:59:30.000Z</time>
      </trkpt>
      <trkpt lat="47.28138" lon="-2.40175">
        <ele>68.400001525879</ele>
        <time>2020-02-16T10:59:37.000Z</time>
      </trkpt>
      <trkpt lat="47.28146" lon="-2.40096">
        <ele>68.400001525879</ele>
        <time>2020-02-16T10:59:45.000Z</time>
      </trkpt>
      <trkpt lat="47.28149" lon="-2.40068">
        <ele>68.800003051758</ele>
        <time>2020-02-16T10:59:48.000Z</time>
      </trkpt>
      <trkpt lat="47.2815" lon="-2.40058">
        <ele>69.599998474121</ele>
        <time>2020-02-16T10:59:49.000Z</time>
      </trkpt>
      <trkpt lat="47.2815" lon="-2.40049">
        <ele>70</ele>
        <time>2020-02-16T10:59:50.000Z</time>
      </trkpt>
      <trkpt lat="47.28151" lon="-2.4004">
        <ele>70.599998474121</ele>
        <time>2020-02-16T10:59:51.000Z</time>
      </trkpt>
      <trkpt lat="47.28153" lon="-2.40022">
        <ele>70.599998474121</ele>
        <time>2020-02-16T10:59:53.000Z</time>
      </trkpt>
      <trkpt lat="47.28156" lon="-2.39974">
        <ele>70.599998474121</ele>
        <time>2020-02-16T10:59:58.000Z</time>
      </trkpt>
      <trkpt lat="47.28159" lon="-2.39919">
        <ele>70.599998474121</ele>
        <time>2020-02-16T11:00:03.000Z</time>
      </trkpt>
      <trkpt lat="47.28163" lon="-2.3985">
        <ele>70.599998474121</ele>
        <time>2020-02-16T11:00:09.000Z</time>
      </trkpt>
      <trkpt lat="47.28169" lon="-2.39764">
        <ele>70.599998474121</ele>
        <time>2020-02-16T11:00:16.000Z</time>
      </trkpt>
      <trkpt lat="47.28171" lon="-2.39752">
        <ele>70.599998474121</ele>
        <time>2020-02-16T11:00:17.000Z</time>
      </trkpt>
      <trkpt lat="47.28177" lon="-2.39665">
        <ele>70.599998474121</ele>
        <time>2020-02-16T11:00:24.000Z</time>
      </trkpt>
      <trkpt lat="47.28179" lon="-2.39578">
        <ele>70.599998474121</ele>
        <time>2020-02-16T11:00:31.000Z</time>
      </trkpt>
      <trkpt lat="47.28179" lon="-2.39553">
        <ele>70.599998474121</ele>
        <time>2020-02-16T11:00:33.000Z</time>
      </trkpt>
      <trkpt lat="47.2818" lon="-2.39478">
        <ele>70.599998474121</ele>
        <time>2020-02-16T11:00:39.000Z</time>
      </trkpt>
      <trkpt lat="47.28179" lon="-2.39389">
        <ele>70.599998474121</ele>
        <time>2020-02-16T11:00:46.000Z</time>
      </trkpt>
      <trkpt lat="47.28179" lon="-2.39366">
        <ele>70.599998474121</ele>
        <time>2020-02-16T11:00:48.000Z</time>
      </trkpt>
      <trkpt lat="47.28178" lon="-2.39284">
        <ele>70.599998474121</ele>
        <time>2020-02-16T11:00:55.000Z</time>
      </trkpt>
      <trkpt lat="47.28177" lon="-2.39272">
        <ele>70.199996948242</ele>
        <time>2020-02-16T11:00:56.000Z</time>
      </trkpt>
      <trkpt lat="47.28177" lon="-2.39259">
        <ele>69.599998474121</ele>
        <time>2020-02-16T11:00:57.000Z</time>
      </trkpt>
      <trkpt lat="47.28177" lon="-2.39247">
        <ele>69.199996948242</ele>
        <time>2020-02-16T11:00:58.000Z</time>
      </trkpt>
      <trkpt lat="47.28176" lon="-2.39234">
        <ele>68.800003051758</ele>
        <time>2020-02-16T11:00:59.000Z</time>
      </trkpt>
      <trkpt lat="47.28176" lon="-2.39221">
        <ele>68.400001525879</ele>
        <time>2020-02-16T11:01:00.000Z</time>
      </trkpt>
      <trkpt lat="47.28174" lon="-2.39195">
        <ele>68.400001525879</ele>
        <time>2020-02-16T11:01:02.000Z</time>
      </trkpt>
      <trkpt lat="47.28173" lon="-2.39169">
        <ele>69</ele>
        <time>2020-02-16T11:01:04.000Z</time>
      </trkpt>
      <trkpt lat="47.28173" lon="-2.39155">
        <ele>69.400001525879</ele>
        <time>2020-02-16T11:01:05.000Z</time>
      </trkpt>
      <trkpt lat="47.28172" lon="-2.39142">
        <ele>69.800003051758</ele>
        <time>2020-02-16T11:01:06.000Z</time>
      </trkpt>
      <trkpt lat="47.28171" lon="-2.39128">
        <ele>70.400001525879</ele>
        <time>2020-02-16T11:01:07.000Z</time>
      </trkpt>
      <trkpt lat="47.28171" lon="-2.39115">
        <ele>70.800003051758</ele>
        <time>2020-02-16T11:01:08.000Z</time>
      </trkpt>
      <trkpt lat="47.2817" lon="-2.39101">
        <ele>70.800003051758</ele>
        <time>2020-02-16T11:01:09.000Z</time>
      </trkpt>
      <trkpt lat="47.28163" lon="-2.39022">
        <ele>70.800003051758</ele>
        <time>2020-02-16T11:01:15.000Z</time>
      </trkpt>
      <trkpt lat="47.2816" lon="-2.38997">
        <ele>70.800003051758</ele>
        <time>2020-02-16T11:01:17.000Z</time>
      </trkpt>
      <trkpt lat="47.28147" lon="-2.38923">
        <ele>70.800003051758</ele>
        <time>2020-02-16T11:01:23.000Z</time>
      </trkpt>
      <trkpt lat="47.28134" lon="-2.38848">
        <ele>70.800003051758</ele>
        <time>2020-02-16T11:01:29.000Z</time>
      </trkpt>
      <trkpt lat="47.28131" lon="-2.38823">
        <ele>70.400001525879</ele>
        <time>2020-02-16T11:01:31.000Z</time>
      </trkpt>
      <trkpt lat="47.2813" lon="-2.3881">
        <ele>70</ele>
        <time>2020-02-16T11:01:32.000Z</time>
      </trkpt>
      <trkpt lat="47.28129" lon="-2.38797">
        <ele>69.400001525879</ele>
        <time>2020-02-16T11:01:33.000Z</time>
      </trkpt>
      <trkpt lat="47.28127" lon="-2.38784">
        <ele>69</ele>
        <time>2020-02-16T11:01:34.000Z</time>
      </trkpt>
      <trkpt lat="47.28126" lon="-2.38771">
        <ele>68.599998474121</ele>
        <time>2020-02-16T11:01:35.000Z</time>
      </trkpt>
      <trkpt lat="47.28124" lon="-2.38746">
        <ele>68.599998474121</ele>
        <time>2020-02-16T11:01:37.000Z</time>
      </trkpt>
      <trkpt lat="47.28116" lon="-2.38665">
        <ele>68.599998474121</ele>
        <time>2020-02-16T11:01:44.000Z</time>
      </trkpt>
      <trkpt lat="47.28112" lon="-2.38634">
        <ele>68.599998474121</ele>
        <time>2020-02-16T11:01:48.000Z</time>
      </trkpt>
      <trkpt lat="47.28109" lon="-2.38609">
        <ele>68.599998474121</ele>
        <time>2020-02-16T11:01:53.000Z</time>
      </trkpt>
      <trkpt lat="47.28105" lon="-2.38572">
        <ele>68.599998474121</ele>
        <time>2020-02-16T11:01:58.000Z</time>
      </trkpt>
      <trkpt lat="47.28097" lon="-2.38507">
        <ele>68.599998474121</ele>
        <time>2020-02-16T11:02:05.000Z</time>
      </trkpt>
      <trkpt lat="47.2809" lon="-2.38465">
        <ele>69</ele>
        <time>2020-02-16T11:02:09.000Z</time>
      </trkpt>
      <trkpt lat="47.28088" lon="-2.38455">
        <ele>69.400001525879</ele>
        <time>2020-02-16T11:02:10.000Z</time>
      </trkpt>
      <trkpt lat="47.28086" lon="-2.38444">
        <ele>69.800003051758</ele>
        <time>2020-02-16T11:02:11.000Z</time>
      </trkpt>
      <trkpt lat="47.28084" lon="-2.38433">
        <ele>70.199996948242</ele>
        <time>2020-02-16T11:02:12.000Z</time>
      </trkpt>
      <trkpt lat="47.28082" lon="-2.38421">
        <ele>70.800003051758</ele>
        <time>2020-02-16T11:02:13.000Z</time>
      </trkpt>
      <trkpt lat="47.28068" lon="-2.38341">
        <ele>70.800003051758</ele>
        <time>2020-02-16T11:02:20.000Z</time>
      </trkpt>
      <trkpt lat="47.28066" lon="-2.3833">
        <ele>70.800003051758</ele>
        <time>2020-02-16T11:02:21.000Z</time>
      </trkpt>
      <trkpt lat="47.28061" lon="-2.38308">
        <ele>71.199996948242</ele>
        <time>2020-02-16T11:02:23.000Z</time>
      </trkpt>
      <trkpt lat="47.28059" lon="-2.38297">
        <ele>71.599998474121</ele>
        <time>2020-02-16T11:02:24.000Z</time>
      </trkpt>
      <trkpt lat="47.28057" lon="-2.38287">
        <ele>72</ele>
        <time>2020-02-16T11:02:25.000Z</time>
      </trkpt>
      <trkpt lat="47.28055" lon="-2.38276">
        <ele>72.599998474121</ele>
        <time>2020-02-16T11:02:26.000Z</time>
      </trkpt>
      <trkpt lat="47.28053" lon="-2.38266">
        <ele>73</ele>
        <time>2020-02-16T11:02:27.000Z</time>
      </trkpt>
      <trkpt lat="47.28051" lon="-2.38256">
        <ele>72.599998474121</ele>
        <time>2020-02-16T11:02:28.000Z</time>
      </trkpt>
      <trkpt lat="47.28049" lon="-2.38246">
        <ele>72.199996948242</ele>
        <time>2020-02-16T11:02:29.000Z</time>
      </trkpt>
      <trkpt lat="47.28047" lon="-2.38236">
        <ele>71.800003051758</ele>
        <time>2020-02-16T11:02:30.000Z</time>
      </trkpt>
      <trkpt lat="47.28045" lon="-2.38226">
        <ele>71.400001525879</ele>
        <time>2020-02-16T11:02:31.000Z</time>
      </trkpt>
      <trkpt lat="47.28043" lon="-2.38216">
        <ele>70.800003051758</ele>
        <time>2020-02-16T11:02:32.000Z</time>
      </trkpt>
      <trkpt lat="47.28033" lon="-2.38165">
        <ele>70.800003051758</ele>
        <time>2020-02-16T11:02:37.000Z</time>
      </trkpt>
      <trkpt lat="47.28019" lon="-2.3809">
        <ele>70.800003051758</ele>
        <time>2020-02-16T11:02:44.000Z</time>
      </trkpt>
      <trkpt lat="47.28009" lon="-2.38031">
        <ele>70.800003051758</ele>
        <time>2020-02-16T11:02:50.000Z</time>
      </trkpt>
      <trkpt lat="47.27995" lon="-2.37963">
        <ele>70.800003051758</ele>
        <time>2020-02-16T11:02:57.000Z</time>
      </trkpt>
      <trkpt lat="47.27979" lon="-2.37879">
        <ele>70.800003051758</ele>
        <time>2020-02-16T11:03:05.000Z</time>
      </trkpt>
      <trkpt lat="47.27968" lon="-2.37817">
        <ele>70.800003051758</ele>
        <time>2020-02-16T11:03:11.000Z</time>
      </trkpt>
      <trkpt lat="47.27965" lon="-2.37806">
        <ele>70.800003051758</ele>
        <time>2020-02-16T11:03:12.000Z</time>
      </trkpt>
      <trkpt lat="47.27957" lon="-2.37764">
        <ele>70.800003051758</ele>
        <time>2020-02-16T11:03:16.000Z</time>
      </trkpt>
      <trkpt lat="47.27954" lon="-2.37754">
        <ele>70.800003051758</ele>
        <time>2020-02-16T11:03:17.000Z</time>
      </trkpt>
      <trkpt lat="47.27942" lon="-2.37703">
        <ele>70.800003051758</ele>
        <time>2020-02-16T11:03:22.000Z</time>
      </trkpt>
      <trkpt lat="47.27932" lon="-2.37662">
        <ele>71.400001525879</ele>
        <time>2020-02-16T11:03:26.000Z</time>
      </trkpt>
      <trkpt lat="47.2793" lon="-2.37651">
        <ele>71.800003051758</ele>
        <time>2020-02-16T11:03:27.000Z</time>
      </trkpt>
      <trkpt lat="47.27928" lon="-2.37641">
        <ele>72.400001525879</ele>
        <time>2020-02-16T11:03:28.000Z</time>
      </trkpt>
      <trkpt lat="47.27926" lon="-2.37631">
        <ele>72.800003051758</ele>
        <time>2020-02-16T11:03:29.000Z</time>
      </trkpt>
      <trkpt lat="47.27924" lon="-2.37621">
        <ele>73.400001525879</ele>
        <time>2020-02-16T11:03:30.000Z</time>
      </trkpt>
      <trkpt lat="47.27909" lon="-2.37553">
        <ele>73.400001525879</ele>
        <time>2020-02-16T11:03:37.000Z</time>
      </trkpt>
      <trkpt lat="47.27891" lon="-2.37477">
        <ele>73.400001525879</ele>
        <time>2020-02-16T11:03:44.000Z</time>
      </trkpt>
      <trkpt lat="47.27889" lon="-2.37467">
        <ele>73.400001525879</ele>
        <time>2020-02-16T11:03:45.000Z</time>
      </trkpt>
      <trkpt lat="47.2787" lon="-2.37385">
        <ele>73.400001525879</ele>
        <time>2020-02-16T11:03:53.000Z</time>
      </trkpt>
      <trkpt lat="47.27867" lon="-2.37376">
        <ele>73.400001525879</ele>
        <time>2020-02-16T11:03:54.000Z</time>
      </trkpt>
      <trkpt lat="47.2785" lon="-2.37315">
        <ele>73.400001525879</ele>
        <time>2020-02-16T11:04:00.000Z</time>
      </trkpt>
      <trkpt lat="47.27837" lon="-2.37268">
        <ele>73</ele>
        <time>2020-02-16T11:04:05.000Z</time>
      </trkpt>
      <trkpt lat="47.27834" lon="-2.37258">
        <ele>72.599998474121</ele>
        <time>2020-02-16T11:04:06.000Z</time>
      </trkpt>
      <trkpt lat="47.27832" lon="-2.37248">
        <ele>72.199996948242</ele>
        <time>2020-02-16T11:04:07.000Z</time>
      </trkpt>
      <trkpt lat="47.27829" lon="-2.3724">
        <ele>71.800003051758</ele>
        <time>2020-02-16T11:04:08.000Z</time>
      </trkpt>
      <trkpt lat="47.27828" lon="-2.37233">
        <ele>71.400001525879</ele>
        <time>2020-02-16T11:04:09.000Z</time>
      </trkpt>
      <trkpt lat="47.27826" lon="-2.37224">
        <ele>71.400001525879</ele>
        <time>2020-02-16T11:04:11.000Z</time>
      </trkpt>
      <trkpt lat="47.27824" lon="-2.37213">
        <ele>71.400001525879</ele>
        <time>2020-02-16T11:04:15.000Z</time>
      </trkpt>
      <trkpt lat="47.27817" lon="-2.37193">
        <ele>71.400001525879</ele>
        <time>2020-02-16T11:04:19.000Z</time>
      </trkpt>
      <trkpt lat="47.27815" lon="-2.37186">
        <ele>71.400001525879</ele>
        <time>2020-02-16T11:04:20.000Z</time>
      </trkpt>
      <trkpt lat="47.2781" lon="-2.37162">
        <ele>71.400001525879</ele>
        <time>2020-02-16T11:04:23.000Z</time>
      </trkpt>
      <trkpt lat="47.27803" lon="-2.37148">
        <ele>71.400001525879</ele>
        <time>2020-02-16T11:04:25.000Z</time>
      </trkpt>
      <trkpt lat="47.27801" lon="-2.3714">
        <ele>71.400001525879</ele>
        <time>2020-02-16T11:04:26.000Z</time>
      </trkpt>
      <trkpt lat="47.27799" lon="-2.37131">
        <ele>71.400001525879</ele>
        <time>2020-02-16T11:04:27.000Z</time>
      </trkpt>
      <trkpt lat="47.27781" lon="-2.37063">
        <ele>71.400001525879</ele>
        <time>2020-02-16T11:04:35.000Z</time>
      </trkpt>
      <trkpt lat="47.27763" lon="-2.36996">
        <ele>71.400001525879</ele>
        <time>2020-02-16T11:04:42.000Z</time>
      </trkpt>
      <trkpt lat="47.27744" lon="-2.36927">
        <ele>71.400001525879</ele>
        <time>2020-02-16T11:04:49.000Z</time>
      </trkpt>
      <trkpt lat="47.27721" lon="-2.36848">
        <ele>71.400001525879</ele>
        <time>2020-02-16T11:04:57.000Z</time>
      </trkpt>
      <trkpt lat="47.27715" lon="-2.36828">
        <ele>71.400001525879</ele>
        <time>2020-02-16T11:04:59.000Z</time>
      </trkpt>
      <trkpt lat="47.27703" lon="-2.36788">
        <ele>71.800003051758</ele>
        <time>2020-02-16T11:05:03.000Z</time>
      </trkpt>
      <trkpt lat="47.277" lon="-2.36778">
        <ele>72.199996948242</ele>
        <time>2020-02-16T11:05:04.000Z</time>
      </trkpt>
      <trkpt lat="47.27697" lon="-2.36768">
        <ele>72.599998474121</ele>
        <time>2020-02-16T11:05:05.000Z</time>
      </trkpt>
      <trkpt lat="47.27694" lon="-2.36758">
        <ele>73</ele>
        <time>2020-02-16T11:05:06.000Z</time>
      </trkpt>
      <trkpt lat="47.2769" lon="-2.36749">
        <ele>73.400001525879</ele>
        <time>2020-02-16T11:05:07.000Z</time>
      </trkpt>
      <trkpt lat="47.27687" lon="-2.3674">
        <ele>73.400001525879</ele>
        <time>2020-02-16T11:05:08.000Z</time>
      </trkpt>
      <trkpt lat="47.27661" lon="-2.36663">
        <ele>73.400001525879</ele>
        <time>2020-02-16T11:05:16.000Z</time>
      </trkpt>
      <trkpt lat="47.27638" lon="-2.36599">
        <ele>73.400001525879</ele>
        <time>2020-02-16T11:05:23.000Z</time>
      </trkpt>
      <trkpt lat="47.27613" lon="-2.36525">
        <ele>73.400001525879</ele>
        <time>2020-02-16T11:05:31.000Z</time>
      </trkpt>
      <trkpt lat="47.2761" lon="-2.36516">
        <ele>73.400001525879</ele>
        <time>2020-02-16T11:05:32.000Z</time>
      </trkpt>
      <trkpt lat="47.27583" lon="-2.36441">
        <ele>73.400001525879</ele>
        <time>2020-02-16T11:05:40.000Z</time>
      </trkpt>
      <trkpt lat="47.27575" lon="-2.36423">
        <ele>73.400001525879</ele>
        <time>2020-02-16T11:05:42.000Z</time>
      </trkpt>
      <trkpt lat="47.27558" lon="-2.36378">
        <ele>73.800003051758</ele>
        <time>2020-02-16T11:05:47.000Z</time>
      </trkpt>
      <trkpt lat="47.27555" lon="-2.3637">
        <ele>74.199996948242</ele>
        <time>2020-02-16T11:05:48.000Z</time>
      </trkpt>
      <trkpt lat="47.27552" lon="-2.36363">
        <ele>74.599998474121</ele>
        <time>2020-02-16T11:05:49.000Z</time>
      </trkpt>
      <trkpt lat="47.27549" lon="-2.36354">
        <ele>74.199996948242</ele>
        <time>2020-02-16T11:05:50.000Z</time>
      </trkpt>
      <trkpt lat="47.27546" lon="-2.36346">
        <ele>73.800003051758</ele>
        <time>2020-02-16T11:05:51.000Z</time>
      </trkpt>
      <trkpt lat="47.27543" lon="-2.36337">
        <ele>73.400001525879</ele>
        <time>2020-02-16T11:05:52.000Z</time>
      </trkpt>
      <trkpt lat="47.2754" lon="-2.36329">
        <ele>73.199996948242</ele>
        <time>2020-02-16T11:05:53.000Z</time>
      </trkpt>
      <trkpt lat="47.27536" lon="-2.36319">
        <ele>72.800003051758</ele>
        <time>2020-02-16T11:05:54.000Z</time>
      </trkpt>
      <trkpt lat="47.27516" lon="-2.36265">
        <ele>72.800003051758</ele>
        <time>2020-02-16T11:06:00.000Z</time>
      </trkpt>
      <trkpt lat="47.27488" lon="-2.36194">
        <ele>72.800003051758</ele>
        <time>2020-02-16T11:06:08.000Z</time>
      </trkpt>
      <trkpt lat="47.27464" lon="-2.36123">
        <ele>72.800003051758</ele>
        <time>2020-02-16T11:06:16.000Z</time>
      </trkpt>
      <trkpt lat="47.27454" lon="-2.36098">
        <ele>72.800003051758</ele>
        <time>2020-02-16T11:06:19.000Z</time>
      </trkpt>
      <trkpt lat="47.27446" lon="-2.36081">
        <ele>72.800003051758</ele>
        <time>2020-02-16T11:06:21.000Z</time>
      </trkpt>
      <trkpt lat="47.2744" lon="-2.36063">
        <ele>72.800003051758</ele>
        <time>2020-02-16T11:06:23.000Z</time>
      </trkpt>
      <trkpt lat="47.2743" lon="-2.36039">
        <ele>73.199996948242</ele>
        <time>2020-02-16T11:06:26.000Z</time>
      </trkpt>
      <trkpt lat="47.27427" lon="-2.36031">
        <ele>73.599998474121</ele>
        <time>2020-02-16T11:06:27.000Z</time>
      </trkpt>
      <trkpt lat="47.27423" lon="-2.36024">
        <ele>74</ele>
        <time>2020-02-16T11:06:28.000Z</time>
      </trkpt>
      <trkpt lat="47.2742" lon="-2.36017">
        <ele>74.400001525879</ele>
        <time>2020-02-16T11:06:29.000Z</time>
      </trkpt>
      <trkpt lat="47.27417" lon="-2.36009">
        <ele>74.800003051758</ele>
        <time>2020-02-16T11:06:30.000Z</time>
      </trkpt>
      <trkpt lat="47.27406" lon="-2.35986">
        <ele>74.800003051758</ele>
        <time>2020-02-16T11:06:33.000Z</time>
      </trkpt>
      <trkpt lat="47.27403" lon="-2.35978">
        <ele>74.400001525879</ele>
        <time>2020-02-16T11:06:34.000Z</time>
      </trkpt>
      <trkpt lat="47.274" lon="-2.3597">
        <ele>73.800003051758</ele>
        <time>2020-02-16T11:06:35.000Z</time>
      </trkpt>
      <trkpt lat="47.27396" lon="-2.35963">
        <ele>73.400001525879</ele>
        <time>2020-02-16T11:06:36.000Z</time>
      </trkpt>
      <trkpt lat="47.27393" lon="-2.35955">
        <ele>73</ele>
        <time>2020-02-16T11:06:37.000Z</time>
      </trkpt>
      <trkpt lat="47.2739" lon="-2.35947">
        <ele>72.599998474121</ele>
        <time>2020-02-16T11:06:38.000Z</time>
      </trkpt>
      <trkpt lat="47.27381" lon="-2.35924">
        <ele>72.599998474121</ele>
        <time>2020-02-16T11:06:41.000Z</time>
      </trkpt>
      <trkpt lat="47.27372" lon="-2.35901">
        <ele>72</ele>
        <time>2020-02-16T11:06:44.000Z</time>
      </trkpt>
      <trkpt lat="47.27369" lon="-2.35894">
        <ele>71.599998474121</ele>
        <time>2020-02-16T11:06:45.000Z</time>
      </trkpt>
      <trkpt lat="47.27366" lon="-2.35886">
        <ele>71</ele>
        <time>2020-02-16T11:06:46.000Z</time>
      </trkpt>
      <trkpt lat="47.27363" lon="-2.35877">
        <ele>70.599998474121</ele>
        <time>2020-02-16T11:06:47.000Z</time>
      </trkpt>
      <trkpt lat="47.27359" lon="-2.35869">
        <ele>70.199996948242</ele>
        <time>2020-02-16T11:06:48.000Z</time>
      </trkpt>
      <trkpt lat="47.27356" lon="-2.35861">
        <ele>70.199996948242</ele>
        <time>2020-02-16T11:06:49.000Z</time>
      </trkpt>
      <trkpt lat="47.2735" lon="-2.35845">
        <ele>69.199996948242</ele>
        <time>2020-02-16T11:06:51.000Z</time>
      </trkpt>
      <trkpt lat="47.27347" lon="-2.35836">
        <ele>68.800003051758</ele>
        <time>2020-02-16T11:06:52.000Z</time>
      </trkpt>
      <trkpt lat="47.27344" lon="-2.35827">
        <ele>68.400001525879</ele>
        <time>2020-02-16T11:06:53.000Z</time>
      </trkpt>
      <trkpt lat="47.2734" lon="-2.35819">
        <ele>68</ele>
        <time>2020-02-16T11:06:54.000Z</time>
      </trkpt>
      <trkpt lat="47.27333" lon="-2.358">
        <ele>68</ele>
        <time>2020-02-16T11:06:56.000Z</time>
      </trkpt>
      <trkpt lat="47.27318" lon="-2.35755">
        <ele>68</ele>
        <time>2020-02-16T11:07:01.000Z</time>
      </trkpt>
      <trkpt lat="47.27306" lon="-2.35732">
        <ele>68.400001525879</ele>
        <time>2020-02-16T11:07:04.000Z</time>
      </trkpt>
      <trkpt lat="47.27303" lon="-2.35723">
        <ele>69</ele>
        <time>2020-02-16T11:07:05.000Z</time>
      </trkpt>
      <trkpt lat="47.27301" lon="-2.35714">
        <ele>69.400001525879</ele>
        <time>2020-02-16T11:07:06.000Z</time>
      </trkpt>
      <trkpt lat="47.27298" lon="-2.35706">
        <ele>70</ele>
        <time>2020-02-16T11:07:07.000Z</time>
      </trkpt>
      <trkpt lat="47.27294" lon="-2.35698">
        <ele>70.400001525879</ele>
        <time>2020-02-16T11:07:08.000Z</time>
      </trkpt>
      <trkpt lat="47.27286" lon="-2.35685">
        <ele>70.400001525879</ele>
        <time>2020-02-16T11:07:10.000Z</time>
      </trkpt>
      <trkpt lat="47.27282" lon="-2.35678">
        <ele>70.400001525879</ele>
        <time>2020-02-16T11:07:11.000Z</time>
      </trkpt>
      <trkpt lat="47.27279" lon="-2.3567">
        <ele>70.400001525879</ele>
        <time>2020-02-16T11:07:12.000Z</time>
      </trkpt>
      <trkpt lat="47.27266" lon="-2.35639">
        <ele>70.400001525879</ele>
        <time>2020-02-16T11:07:16.000Z</time>
      </trkpt>
      <trkpt lat="47.27233" lon="-2.35567">
        <ele>70.400001525879</ele>
        <time>2020-02-16T11:07:25.000Z</time>
      </trkpt>
      <trkpt lat="47.27229" lon="-2.35559">
        <ele>70.800003051758</ele>
        <time>2020-02-16T11:07:26.000Z</time>
      </trkpt>
      <trkpt lat="47.27226" lon="-2.35551">
        <ele>71.400001525879</ele>
        <time>2020-02-16T11:07:27.000Z</time>
      </trkpt>
      <trkpt lat="47.27222" lon="-2.35543">
        <ele>71.800003051758</ele>
        <time>2020-02-16T11:07:28.000Z</time>
      </trkpt>
      <trkpt lat="47.27218" lon="-2.35534">
        <ele>72.199996948242</ele>
        <time>2020-02-16T11:07:29.000Z</time>
      </trkpt>
      <trkpt lat="47.27214" lon="-2.35526">
        <ele>72.599998474121</ele>
        <time>2020-02-16T11:07:30.000Z</time>
      </trkpt>
      <trkpt lat="47.27198" lon="-2.35492">
        <ele>72.599998474121</ele>
        <time>2020-02-16T11:07:34.000Z</time>
      </trkpt>
      <trkpt lat="47.27162" lon="-2.35422">
        <ele>72.599998474121</ele>
        <time>2020-02-16T11:07:43.000Z</time>
      </trkpt>
      <trkpt lat="47.27131" lon="-2.35367">
        <ele>72.599998474121</ele>
        <time>2020-02-16T11:07:50.000Z</time>
      </trkpt>
      <trkpt lat="47.271" lon="-2.35316">
        <ele>72.599998474121</ele>
        <time>2020-02-16T11:07:57.000Z</time>
      </trkpt>
      <trkpt lat="47.27076" lon="-2.35278">
        <ele>72.199996948242</ele>
        <time>2020-02-16T11:08:03.000Z</time>
      </trkpt>
      <trkpt lat="47.27072" lon="-2.35272">
        <ele>71.800003051758</ele>
        <time>2020-02-16T11:08:04.000Z</time>
      </trkpt>
      <trkpt lat="47.27068" lon="-2.35266">
        <ele>71</ele>
        <time>2020-02-16T11:08:05.000Z</time>
      </trkpt>
      <trkpt lat="47.27064" lon="-2.35259">
        <ele>70.599998474121</ele>
        <time>2020-02-16T11:08:06.000Z</time>
      </trkpt>
      <trkpt lat="47.27043" lon="-2.35228">
        <ele>70.599998474121</ele>
        <time>2020-02-16T11:08:11.000Z</time>
      </trkpt>
      <trkpt lat="47.27026" lon="-2.35202">
        <ele>70.199996948242</ele>
        <time>2020-02-16T11:08:15.000Z</time>
      </trkpt>
      <trkpt lat="47.27022" lon="-2.35195">
        <ele>69.800003051758</ele>
        <time>2020-02-16T11:08:16.000Z</time>
      </trkpt>
      <trkpt lat="47.27017" lon="-2.35188">
        <ele>69.400001525879</ele>
        <time>2020-02-16T11:08:17.000Z</time>
      </trkpt>
      <trkpt lat="47.27013" lon="-2.35181">
        <ele>69</ele>
        <time>2020-02-16T11:08:18.000Z</time>
      </trkpt>
      <trkpt lat="47.27009" lon="-2.35174">
        <ele>68.599998474121</ele>
        <time>2020-02-16T11:08:19.000Z</time>
      </trkpt>
      <trkpt lat="47.26973" lon="-2.35121">
        <ele>68.599998474121</ele>
        <time>2020-02-16T11:08:27.000Z</time>
      </trkpt>
      <trkpt lat="47.26942" lon="-2.35073">
        <ele>69</ele>
        <time>2020-02-16T11:08:34.000Z</time>
      </trkpt>
      <trkpt lat="47.26938" lon="-2.35066">
        <ele>69.400001525879</ele>
        <time>2020-02-16T11:08:35.000Z</time>
      </trkpt>
      <trkpt lat="47.26933" lon="-2.35059">
        <ele>69.800003051758</ele>
        <time>2020-02-16T11:08:36.000Z</time>
      </trkpt>
      <trkpt lat="47.26928" lon="-2.35051">
        <ele>70.400001525879</ele>
        <time>2020-02-16T11:08:37.000Z</time>
      </trkpt>
      <trkpt lat="47.26923" lon="-2.35044">
        <ele>71</ele>
        <time>2020-02-16T11:08:38.000Z</time>
      </trkpt>
      <trkpt lat="47.26918" lon="-2.35037">
        <ele>71.599998474121</ele>
        <time>2020-02-16T11:08:39.000Z</time>
      </trkpt>
      <trkpt lat="47.26914" lon="-2.35031">
        <ele>72.199996948242</ele>
        <time>2020-02-16T11:08:40.000Z</time>
      </trkpt>
      <trkpt lat="47.26909" lon="-2.35024">
        <ele>72.800003051758</ele>
        <time>2020-02-16T11:08:41.000Z</time>
      </trkpt>
      <trkpt lat="47.269" lon="-2.3501">
        <ele>72.800003051758</ele>
        <time>2020-02-16T11:08:43.000Z</time>
      </trkpt>
      <trkpt lat="47.26896" lon="-2.35003">
        <ele>72.400001525879</ele>
        <time>2020-02-16T11:08:44.000Z</time>
      </trkpt>
      <trkpt lat="47.26891" lon="-2.34996">
        <ele>72</ele>
        <time>2020-02-16T11:08:45.000Z</time>
      </trkpt>
      <trkpt lat="47.26887" lon="-2.3499">
        <ele>71.599998474121</ele>
        <time>2020-02-16T11:08:46.000Z</time>
      </trkpt>
      <trkpt lat="47.26882" lon="-2.34982">
        <ele>71.199996948242</ele>
        <time>2020-02-16T11:08:47.000Z</time>
      </trkpt>
      <trkpt lat="47.26877" lon="-2.34975">
        <ele>70.800003051758</ele>
        <time>2020-02-16T11:08:48.000Z</time>
      </trkpt>
      <trkpt lat="47.26864" lon="-2.34955">
        <ele>70.800003051758</ele>
        <time>2020-02-16T11:08:51.000Z</time>
      </trkpt>
      <trkpt lat="47.26832" lon="-2.34907">
        <ele>70.800003051758</ele>
        <time>2020-02-16T11:08:58.000Z</time>
      </trkpt>
      <trkpt lat="47.26819" lon="-2.34888">
        <ele>71.199996948242</ele>
        <time>2020-02-16T11:09:01.000Z</time>
      </trkpt>
      <trkpt lat="47.26815" lon="-2.34882">
        <ele>71.599998474121</ele>
        <time>2020-02-16T11:09:02.000Z</time>
      </trkpt>
      <trkpt lat="47.26811" lon="-2.34876">
        <ele>72</ele>
        <time>2020-02-16T11:09:03.000Z</time>
      </trkpt>
      <trkpt lat="47.26806" lon="-2.3487">
        <ele>72.599998474121</ele>
        <time>2020-02-16T11:09:04.000Z</time>
      </trkpt>
      <trkpt lat="47.26802" lon="-2.34863">
        <ele>73</ele>
        <time>2020-02-16T11:09:05.000Z</time>
      </trkpt>
      <trkpt lat="47.26793" lon="-2.34851">
        <ele>73</ele>
        <time>2020-02-16T11:09:07.000Z</time>
      </trkpt>
      <trkpt lat="47.26785" lon="-2.34838">
        <ele>72.400001525879</ele>
        <time>2020-02-16T11:09:09.000Z</time>
      </trkpt>
      <trkpt lat="47.2678" lon="-2.34833">
        <ele>72</ele>
        <time>2020-02-16T11:09:10.000Z</time>
      </trkpt>
      <trkpt lat="47.26777" lon="-2.34827">
        <ele>71.400001525879</ele>
        <time>2020-02-16T11:09:11.000Z</time>
      </trkpt>
      <trkpt lat="47.26773" lon="-2.34821">
        <ele>71</ele>
        <time>2020-02-16T11:09:12.000Z</time>
      </trkpt>
      <trkpt lat="47.26769" lon="-2.34816">
        <ele>70.400001525879</ele>
        <time>2020-02-16T11:09:13.000Z</time>
      </trkpt>
      <trkpt lat="47.26765" lon="-2.34811">
        <ele>70.400001525879</ele>
        <time>2020-02-16T11:09:14.000Z</time>
      </trkpt>
      <trkpt lat="47.26749" lon="-2.3479">
        <ele>71</ele>
        <time>2020-02-16T11:09:18.000Z</time>
      </trkpt>
      <trkpt lat="47.26745" lon="-2.34785">
        <ele>71.400001525879</ele>
        <time>2020-02-16T11:09:19.000Z</time>
      </trkpt>
      <trkpt lat="47.26741" lon="-2.34779">
        <ele>71.800003051758</ele>
        <time>2020-02-16T11:09:20.000Z</time>
      </trkpt>
      <trkpt lat="47.26736" lon="-2.34774">
        <ele>72.199996948242</ele>
        <time>2020-02-16T11:09:21.000Z</time>
      </trkpt>
      <trkpt lat="47.26732" lon="-2.34769">
        <ele>72.599998474121</ele>
        <time>2020-02-16T11:09:22.000Z</time>
      </trkpt>
      <trkpt lat="47.26716" lon="-2.34748">
        <ele>72.599998474121</ele>
        <time>2020-02-16T11:09:26.000Z</time>
      </trkpt>
      <trkpt lat="47.26686" lon="-2.34712">
        <ele>72.599998474121</ele>
        <time>2020-02-16T11:09:33.000Z</time>
      </trkpt>
      <trkpt lat="47.26657" lon="-2.34675">
        <ele>72.599998474121</ele>
        <time>2020-02-16T11:09:40.000Z</time>
      </trkpt>
      <trkpt lat="47.26631" lon="-2.34643">
        <ele>72.199996948242</ele>
        <time>2020-02-16T11:09:46.000Z</time>
      </trkpt>
      <trkpt lat="47.26626" lon="-2.34637">
        <ele>71.599998474121</ele>
        <time>2020-02-16T11:09:47.000Z</time>
      </trkpt>
      <trkpt lat="47.26622" lon="-2.34631">
        <ele>71.199996948242</ele>
        <time>2020-02-16T11:09:48.000Z</time>
      </trkpt>
      <trkpt lat="47.26617" lon="-2.34625">
        <ele>70.599998474121</ele>
        <time>2020-02-16T11:09:49.000Z</time>
      </trkpt>
      <trkpt lat="47.26612" lon="-2.34619">
        <ele>70.199996948242</ele>
        <time>2020-02-16T11:09:50.000Z</time>
      </trkpt>
      <trkpt lat="47.26589" lon="-2.3459">
        <ele>70.199996948242</ele>
        <time>2020-02-16T11:09:55.000Z</time>
      </trkpt>
      <trkpt lat="47.26556" lon="-2.34557">
        <ele>70.199996948242</ele>
        <time>2020-02-16T11:10:02.000Z</time>
      </trkpt>
      <trkpt lat="47.26526" lon="-2.34528">
        <ele>71</ele>
        <time>2020-02-16T11:10:08.000Z</time>
      </trkpt>
      <trkpt lat="47.26521" lon="-2.34524">
        <ele>71.400001525879</ele>
        <time>2020-02-16T11:10:09.000Z</time>
      </trkpt>
      <trkpt lat="47.26516" lon="-2.3452">
        <ele>71.800003051758</ele>
        <time>2020-02-16T11:10:10.000Z</time>
      </trkpt>
      <trkpt lat="47.26511" lon="-2.34516">
        <ele>72.199996948242</ele>
        <time>2020-02-16T11:10:11.000Z</time>
      </trkpt>
      <trkpt lat="47.26507" lon="-2.34513">
        <ele>72.599998474121</ele>
        <time>2020-02-16T11:10:12.000Z</time>
      </trkpt>
      <trkpt lat="47.26502" lon="-2.3451">
        <ele>73.199996948242</ele>
        <time>2020-02-16T11:10:13.000Z</time>
      </trkpt>
      <trkpt lat="47.26498" lon="-2.34507">
        <ele>73.599998474121</ele>
        <time>2020-02-16T11:10:14.000Z</time>
      </trkpt>
      <trkpt lat="47.26493" lon="-2.34503">
        <ele>74.199996948242</ele>
        <time>2020-02-16T11:10:15.000Z</time>
      </trkpt>
      <trkpt lat="47.26485" lon="-2.34498">
        <ele>74.199996948242</ele>
        <time>2020-02-16T11:10:17.000Z</time>
      </trkpt>
      <trkpt lat="47.26448" lon="-2.34471">
        <ele>73.599998474121</ele>
        <time>2020-02-16T11:10:25.000Z</time>
      </trkpt>
      <trkpt lat="47.26443" lon="-2.34468">
        <ele>73</ele>
        <time>2020-02-16T11:10:26.000Z</time>
      </trkpt>
      <trkpt lat="47.26437" lon="-2.34464">
        <ele>72.599998474121</ele>
        <time>2020-02-16T11:10:27.000Z</time>
      </trkpt>
      <trkpt lat="47.26432" lon="-2.3446">
        <ele>72</ele>
        <time>2020-02-16T11:10:28.000Z</time>
      </trkpt>
      <trkpt lat="47.26427" lon="-2.34457">
        <ele>71.400001525879</ele>
        <time>2020-02-16T11:10:29.000Z</time>
      </trkpt>
      <trkpt lat="47.26421" lon="-2.34452">
        <ele>71.800003051758</ele>
        <time>2020-02-16T11:10:30.000Z</time>
      </trkpt>
      <trkpt lat="47.26416" lon="-2.34449">
        <ele>72.400001525879</ele>
        <time>2020-02-16T11:10:31.000Z</time>
      </trkpt>
      <trkpt lat="47.26411" lon="-2.34445">
        <ele>72.800003051758</ele>
        <time>2020-02-16T11:10:32.000Z</time>
      </trkpt>
      <trkpt lat="47.26407" lon="-2.34441">
        <ele>73.599998474121</ele>
        <time>2020-02-16T11:10:33.000Z</time>
      </trkpt>
      <trkpt lat="47.26378" lon="-2.34418">
        <ele>73.599998474121</ele>
        <time>2020-02-16T11:10:39.000Z</time>
      </trkpt>
      <trkpt lat="47.26343" lon="-2.34387">
        <ele>73</ele>
        <time>2020-02-16T11:10:46.000Z</time>
      </trkpt>
      <trkpt lat="47.26338" lon="-2.34384">
        <ele>72.599998474121</ele>
        <time>2020-02-16T11:10:47.000Z</time>
      </trkpt>
      <trkpt lat="47.26333" lon="-2.34382">
        <ele>72.199996948242</ele>
        <time>2020-02-16T11:10:48.000Z</time>
      </trkpt>
      <trkpt lat="47.26327" lon="-2.34381">
        <ele>71.800003051758</ele>
        <time>2020-02-16T11:10:49.000Z</time>
      </trkpt>
      <trkpt lat="47.26322" lon="-2.34378">
        <ele>71.199996948242</ele>
        <time>2020-02-16T11:10:50.000Z</time>
      </trkpt>
      <trkpt lat="47.26315" lon="-2.34366">
        <ele>71.199996948242</ele>
        <time>2020-02-16T11:10:52.000Z</time>
      </trkpt>
      <trkpt lat="47.26299" lon="-2.34344">
        <ele>71.199996948242</ele>
        <time>2020-02-16T11:10:56.000Z</time>
      </trkpt>
      <trkpt lat="47.26261" lon="-2.34305">
        <ele>71.199996948242</ele>
        <time>2020-02-16T11:11:04.000Z</time>
      </trkpt>
      <trkpt lat="47.26232" lon="-2.34274">
        <ele>71.199996948242</ele>
        <time>2020-02-16T11:11:10.000Z</time>
      </trkpt>
      <trkpt lat="47.26199" lon="-2.34239">
        <ele>71.199996948242</ele>
        <time>2020-02-16T11:11:17.000Z</time>
      </trkpt>
      <trkpt lat="47.26161" lon="-2.34202">
        <ele>71.199996948242</ele>
        <time>2020-02-16T11:11:25.000Z</time>
      </trkpt>
      <trkpt lat="47.26147" lon="-2.34189">
        <ele>71.199996948242</ele>
        <time>2020-02-16T11:11:28.000Z</time>
      </trkpt>
      <trkpt lat="47.26131" lon="-2.34183">
        <ele>71.199996948242</ele>
        <time>2020-02-16T11:11:31.000Z</time>
      </trkpt>
      <trkpt lat="47.26121" lon="-2.34181">
        <ele>71.199996948242</ele>
        <time>2020-02-16T11:11:33.000Z</time>
      </trkpt>
      <trkpt lat="47.26113" lon="-2.34175">
        <ele>71.199996948242</ele>
        <time>2020-02-16T11:11:35.000Z</time>
      </trkpt>
      <trkpt lat="47.26088" lon="-2.34159">
        <ele>71.199996948242</ele>
        <time>2020-02-16T11:11:41.000Z</time>
      </trkpt>
      <trkpt lat="47.26078" lon="-2.34154">
        <ele>71.199996948242</ele>
        <time>2020-02-16T11:11:43.000Z</time>
      </trkpt>
      <trkpt lat="47.26059" lon="-2.34142">
        <ele>71.199996948242</ele>
        <time>2020-02-16T11:11:47.000Z</time>
      </trkpt>
      <trkpt lat="47.26045" lon="-2.34136">
        <ele>71.199996948242</ele>
        <time>2020-02-16T11:11:50.000Z</time>
      </trkpt>
      <trkpt lat="47.26035" lon="-2.34133">
        <ele>71.199996948242</ele>
        <time>2020-02-16T11:11:52.000Z</time>
      </trkpt>
      <trkpt lat="47.25997" lon="-2.34116">
        <ele>71.199996948242</ele>
        <time>2020-02-16T11:12:00.000Z</time>
      </trkpt>
      <trkpt lat="47.25965" lon="-2.34107">
        <ele>71.199996948242</ele>
        <time>2020-02-16T11:12:07.000Z</time>
      </trkpt>
      <trkpt lat="47.25956" lon="-2.34107">
        <ele>71.199996948242</ele>
        <time>2020-02-16T11:12:09.000Z</time>
      </trkpt>
      <trkpt lat="47.25943" lon="-2.34114">
        <ele>71.199996948242</ele>
        <time>2020-02-16T11:12:12.000Z</time>
      </trkpt>
      <trkpt lat="47.25934" lon="-2.3412">
        <ele>71.199996948242</ele>
        <time>2020-02-16T11:12:14.000Z</time>
      </trkpt>
      <trkpt lat="47.25921" lon="-2.34129">
        <ele>71.199996948242</ele>
        <time>2020-02-16T11:12:17.000Z</time>
      </trkpt>
      <trkpt lat="47.25893" lon="-2.34146">
        <ele>71.199996948242</ele>
        <time>2020-02-16T11:12:23.000Z</time>
      </trkpt>
      <trkpt lat="47.25888" lon="-2.3415">
        <ele>71.199996948242</ele>
        <time>2020-02-16T11:12:24.000Z</time>
      </trkpt>
      <trkpt lat="47.25884" lon="-2.34154">
        <ele>71.199996948242</ele>
        <time>2020-02-16T11:12:25.000Z</time>
      </trkpt>
      <trkpt lat="47.25873" lon="-2.34166">
        <ele>71.199996948242</ele>
        <time>2020-02-16T11:12:28.000Z</time>
      </trkpt>
      <trkpt lat="47.25862" lon="-2.34161">
        <ele>71.199996948242</ele>
        <time>2020-02-16T11:12:31.000Z</time>
      </trkpt>
      <trkpt lat="47.25852" lon="-2.34157">
        <ele>71.199996948242</ele>
        <time>2020-02-16T11:12:34.000Z</time>
      </trkpt>
      <trkpt lat="47.25849" lon="-2.34156">
        <ele>71.800003051758</ele>
        <time>2020-02-16T11:12:35.000Z</time>
      </trkpt>
      <trkpt lat="47.25845" lon="-2.34154">
        <ele>72.800003051758</ele>
        <time>2020-02-16T11:12:36.000Z</time>
      </trkpt>
      <trkpt lat="47.25842" lon="-2.34153">
        <ele>73.199996948242</ele>
        <time>2020-02-16T11:12:37.000Z</time>
      </trkpt>
      <trkpt lat="47.25839" lon="-2.34152">
        <ele>73.800003051758</ele>
        <time>2020-02-16T11:12:38.000Z</time>
      </trkpt>
      <trkpt lat="47.25836" lon="-2.34154">
        <ele>73.800003051758</ele>
        <time>2020-02-16T11:12:39.000Z</time>
      </trkpt>
      <trkpt lat="47.25834" lon="-2.34158">
        <ele>73.800003051758</ele>
        <time>2020-02-16T11:12:40.000Z</time>
      </trkpt>
      <trkpt lat="47.25829" lon="-2.34176">
        <ele>73.800003051758</ele>
        <time>2020-02-16T11:12:44.000Z</time>
      </trkpt>
      <trkpt lat="47.25816" lon="-2.34175">
        <ele>73.800003051758</ele>
        <time>2020-02-16T11:12:47.000Z</time>
      </trkpt>
      <trkpt lat="47.25806" lon="-2.34173">
        <ele>74.199996948242</ele>
        <time>2020-02-16T11:12:49.000Z</time>
      </trkpt>
      <trkpt lat="47.25802" lon="-2.34172">
        <ele>74.599998474121</ele>
        <time>2020-02-16T11:12:50.000Z</time>
      </trkpt>
      <trkpt lat="47.25796" lon="-2.34171">
        <ele>75</ele>
        <time>2020-02-16T11:12:51.000Z</time>
      </trkpt>
      <trkpt lat="47.25791" lon="-2.34171">
        <ele>75.400001525879</ele>
        <time>2020-02-16T11:12:52.000Z</time>
      </trkpt>
      <trkpt lat="47.25786" lon="-2.34172">
        <ele>75.800003051758</ele>
        <time>2020-02-16T11:12:53.000Z</time>
      </trkpt>
      <trkpt lat="47.25755" lon="-2.34179">
        <ele>75.800003051758</ele>
        <time>2020-02-16T11:12:59.000Z</time>
      </trkpt>
      <trkpt lat="47.25724" lon="-2.34185">
        <ele>75.800003051758</ele>
        <time>2020-02-16T11:13:05.000Z</time>
      </trkpt>
      <trkpt lat="47.25714" lon="-2.34186">
        <ele>75.800003051758</ele>
        <time>2020-02-16T11:13:07.000Z</time>
      </trkpt>
      <trkpt lat="47.25705" lon="-2.34186">
        <ele>75.800003051758</ele>
        <time>2020-02-16T11:13:09.000Z</time>
      </trkpt>
      <trkpt lat="47.25701" lon="-2.34187">
        <ele>75.800003051758</ele>
        <time>2020-02-16T11:13:10.000Z</time>
      </trkpt>
      <trkpt lat="47.25696" lon="-2.34188">
        <ele>76.400001525879</ele>
        <time>2020-02-16T11:13:11.000Z</time>
      </trkpt>
      <trkpt lat="47.25692" lon="-2.34189">
        <ele>77</ele>
        <time>2020-02-16T11:13:12.000Z</time>
      </trkpt>
      <trkpt lat="47.25689" lon="-2.3419">
        <ele>77.400001525879</ele>
        <time>2020-02-16T11:13:13.000Z</time>
      </trkpt>
      <trkpt lat="47.25686" lon="-2.34191">
        <ele>78</ele>
        <time>2020-02-16T11:13:14.000Z</time>
      </trkpt>
      <trkpt lat="47.25683" lon="-2.34191">
        <ele>78.800003051758</ele>
        <time>2020-02-16T11:13:15.000Z</time>
      </trkpt>
      <trkpt lat="47.2568" lon="-2.34191">
        <ele>80</ele>
        <time>2020-02-16T11:13:16.000Z</time>
      </trkpt>
      <trkpt lat="47.25677" lon="-2.3419">
        <ele>81.199996948242</ele>
        <time>2020-02-16T11:13:17.000Z</time>
      </trkpt>
      <trkpt lat="47.25674" lon="-2.34189">
        <ele>82.199996948242</ele>
        <time>2020-02-16T11:13:18.000Z</time>
      </trkpt>
      <trkpt lat="47.25671" lon="-2.34187">
        <ele>83.400001525879</ele>
        <time>2020-02-16T11:13:19.000Z</time>
      </trkpt>
      <trkpt lat="47.25667" lon="-2.34184">
        <ele>84.599998474121</ele>
        <time>2020-02-16T11:13:20.000Z</time>
      </trkpt>
      <trkpt lat="47.25665" lon="-2.34181">
        <ele>84.599998474121</ele>
        <time>2020-02-16T11:13:21.000Z</time>
      </trkpt>
      <trkpt lat="47.25659" lon="-2.34172">
        <ele>83.800003051758</ele>
        <time>2020-02-16T11:13:23.000Z</time>
      </trkpt>
      <trkpt lat="47.25657" lon="-2.34167">
        <ele>82.599998474121</ele>
        <time>2020-02-16T11:13:24.000Z</time>
      </trkpt>
      <trkpt lat="47.25654" lon="-2.34161">
        <ele>79.599998474121</ele>
        <time>2020-02-16T11:13:25.000Z</time>
      </trkpt>
      <trkpt lat="47.25651" lon="-2.34155">
        <ele>78.199996948242</ele>
        <time>2020-02-16T11:13:26.000Z</time>
      </trkpt>
      <trkpt lat="47.25649" lon="-2.34149">
        <ele>76.800003051758</ele>
        <time>2020-02-16T11:13:27.000Z</time>
      </trkpt>
      <trkpt lat="47.25646" lon="-2.34144">
        <ele>75.400001525879</ele>
        <time>2020-02-16T11:13:28.000Z</time>
      </trkpt>
      <trkpt lat="47.25644" lon="-2.34137">
        <ele>74</ele>
        <time>2020-02-16T11:13:29.000Z</time>
      </trkpt>
      <trkpt lat="47.25642" lon="-2.34131">
        <ele>72.599998474121</ele>
        <time>2020-02-16T11:13:30.000Z</time>
      </trkpt>
      <trkpt lat="47.25639" lon="-2.34118">
        <ele>72.599998474121</ele>
        <time>2020-02-16T11:13:32.000Z</time>
      </trkpt>
      <trkpt lat="47.25638" lon="-2.34112">
        <ele>72.599998474121</ele>
        <time>2020-02-16T11:13:33.000Z</time>
      </trkpt>
      <trkpt lat="47.25636" lon="-2.34086">
        <ele>72.599998474121</ele>
        <time>2020-02-16T11:13:37.000Z</time>
      </trkpt>
      <trkpt lat="47.25639" lon="-2.34066">
        <ele>72.599998474121</ele>
        <time>2020-02-16T11:13:40.000Z</time>
      </trkpt>
      <trkpt lat="47.2564" lon="-2.34052">
        <ele>72.599998474121</ele>
        <time>2020-02-16T11:13:42.000Z</time>
      </trkpt>
      <trkpt lat="47.25643" lon="-2.34038">
        <ele>73.199996948242</ele>
        <time>2020-02-16T11:13:44.000Z</time>
      </trkpt>
      <trkpt lat="47.25644" lon="-2.34031">
        <ele>73.800003051758</ele>
        <time>2020-02-16T11:13:45.000Z</time>
      </trkpt>
      <trkpt lat="47.25645" lon="-2.34023">
        <ele>74.199996948242</ele>
        <time>2020-02-16T11:13:46.000Z</time>
      </trkpt>
      <trkpt lat="47.25646" lon="-2.34015">
        <ele>74.800003051758</ele>
        <time>2020-02-16T11:13:47.000Z</time>
      </trkpt>
      <trkpt lat="47.25648" lon="-2.34008">
        <ele>75.400001525879</ele>
        <time>2020-02-16T11:13:48.000Z</time>
      </trkpt>
      <trkpt lat="47.25649" lon="-2.34">
        <ele>75.400001525879</ele>
        <time>2020-02-16T11:13:49.000Z</time>
      </trkpt>
      <trkpt lat="47.25656" lon="-2.33969">
        <ele>75.400001525879</ele>
        <time>2020-02-16T11:13:53.000Z</time>
      </trkpt>
      <trkpt lat="47.25659" lon="-2.33954">
        <ele>75.400001525879</ele>
        <time>2020-02-16T11:13:56.000Z</time>
      </trkpt>
      <trkpt lat="47.25658" lon="-2.33938">
        <ele>75.400001525879</ele>
        <time>2020-02-16T11:13:59.000Z</time>
      </trkpt>
      <trkpt lat="47.25657" lon="-2.33925">
        <ele>75.400001525879</ele>
        <time>2020-02-16T11:14:01.000Z</time>
      </trkpt>
      <trkpt lat="47.2565" lon="-2.33876">
        <ele>75.400001525879</ele>
        <time>2020-02-16T11:14:08.000Z</time>
      </trkpt>
      <trkpt lat="47.25648" lon="-2.33869">
        <ele>75.400001525879</ele>
        <time>2020-02-16T11:14:09.000Z</time>
      </trkpt>
      <trkpt lat="47.25642" lon="-2.33841">
        <ele>75.400001525879</ele>
        <time>2020-02-16T11:14:13.000Z</time>
      </trkpt>
      <trkpt lat="47.25637" lon="-2.33805">
        <ele>75.400001525879</ele>
        <time>2020-02-16T11:14:18.000Z</time>
      </trkpt>
      <trkpt lat="47.2563" lon="-2.33777">
        <ele>75.400001525879</ele>
        <time>2020-02-16T11:14:22.000Z</time>
      </trkpt>
      <trkpt lat="47.25624" lon="-2.33767">
        <ele>75.400001525879</ele>
        <time>2020-02-16T11:14:24.000Z</time>
      </trkpt>
      <trkpt lat="47.25611" lon="-2.33762">
        <ele>75.800003051758</ele>
        <time>2020-02-16T11:14:27.000Z</time>
      </trkpt>
      <trkpt lat="47.25606" lon="-2.33761">
        <ele>76.199996948242</ele>
        <time>2020-02-16T11:14:28.000Z</time>
      </trkpt>
      <trkpt lat="47.256" lon="-2.3376">
        <ele>76.599998474121</ele>
        <time>2020-02-16T11:14:29.000Z</time>
      </trkpt>
      <trkpt lat="47.25594" lon="-2.3376">
        <ele>77.199996948242</ele>
        <time>2020-02-16T11:14:30.000Z</time>
      </trkpt>
      <trkpt lat="47.25588" lon="-2.3376">
        <ele>77.599998474121</ele>
        <time>2020-02-16T11:14:31.000Z</time>
      </trkpt>
      <trkpt lat="47.25568" lon="-2.3376">
        <ele>77.599998474121</ele>
        <time>2020-02-16T11:14:34.000Z</time>
      </trkpt>
      <trkpt lat="47.25526" lon="-2.3376">
        <ele>77.599998474121</ele>
        <time>2020-02-16T11:14:41.000Z</time>
      </trkpt>
      <trkpt lat="47.25489" lon="-2.33758">
        <ele>77.599998474121</ele>
        <time>2020-02-16T11:14:48.000Z</time>
      </trkpt>
      <trkpt lat="47.25483" lon="-2.33756">
        <ele>77.599998474121</ele>
        <time>2020-02-16T11:14:49.000Z</time>
      </trkpt>
      <trkpt lat="47.25468" lon="-2.33748">
        <ele>77.599998474121</ele>
        <time>2020-02-16T11:14:52.000Z</time>
      </trkpt>
      <trkpt lat="47.25459" lon="-2.3374">
        <ele>77.599998474121</ele>
        <time>2020-02-16T11:14:54.000Z</time>
      </trkpt>
      <trkpt lat="47.25454" lon="-2.33725">
        <ele>77.599998474121</ele>
        <time>2020-02-16T11:14:56.000Z</time>
      </trkpt>
      <trkpt lat="47.25449" lon="-2.33685">
        <ele>77.599998474121</ele>
        <time>2020-02-16T11:15:01.000Z</time>
      </trkpt>
      <trkpt lat="47.25448" lon="-2.33678">
        <ele>77.599998474121</ele>
        <time>2020-02-16T11:15:02.000Z</time>
      </trkpt>
      <trkpt lat="47.25446" lon="-2.33648">
        <ele>77.599998474121</ele>
        <time>2020-02-16T11:15:06.000Z</time>
      </trkpt>
      <trkpt lat="47.25444" lon="-2.33641">
        <ele>77.599998474121</ele>
        <time>2020-02-16T11:15:07.000Z</time>
      </trkpt>
      <trkpt lat="47.25443" lon="-2.33627">
        <ele>77.599998474121</ele>
        <time>2020-02-16T11:15:09.000Z</time>
      </trkpt>
      <trkpt lat="47.25443" lon="-2.33606">
        <ele>77.599998474121</ele>
        <time>2020-02-16T11:15:12.000Z</time>
      </trkpt>
      <trkpt lat="47.25445" lon="-2.33581">
        <ele>77.599998474121</ele>
        <time>2020-02-16T11:15:17.000Z</time>
      </trkpt>
      <trkpt lat="47.25454" lon="-2.33568">
        <ele>77.599998474121</ele>
        <time>2020-02-16T11:15:22.000Z</time>
      </trkpt>
      <trkpt lat="47.25452" lon="-2.33548">
        <ele>77.599998474121</ele>
        <time>2020-02-16T11:15:26.000Z</time>
      </trkpt>
      <trkpt lat="47.25451" lon="-2.33542">
        <ele>77.199996948242</ele>
        <time>2020-02-16T11:15:27.000Z</time>
      </trkpt>
      <trkpt lat="47.25449" lon="-2.33536">
        <ele>76.199996948242</ele>
        <time>2020-02-16T11:15:28.000Z</time>
      </trkpt>
      <trkpt lat="47.25448" lon="-2.3353">
        <ele>75.800003051758</ele>
        <time>2020-02-16T11:15:29.000Z</time>
      </trkpt>
      <trkpt lat="47.25446" lon="-2.33523">
        <ele>75.199996948242</ele>
        <time>2020-02-16T11:15:30.000Z</time>
      </trkpt>
      <trkpt lat="47.25442" lon="-2.33504">
        <ele>75.199996948242</ele>
        <time>2020-02-16T11:15:33.000Z</time>
      </trkpt>
      <trkpt lat="47.25438" lon="-2.33477">
        <ele>75.199996948242</ele>
        <time>2020-02-16T11:15:37.000Z</time>
      </trkpt>
      <trkpt lat="47.25435" lon="-2.33465">
        <ele>75.199996948242</ele>
        <time>2020-02-16T11:15:39.000Z</time>
      </trkpt>
      <trkpt lat="47.25434" lon="-2.33443">
        <ele>75.199996948242</ele>
        <time>2020-02-16T11:15:42.000Z</time>
      </trkpt>
      <trkpt lat="47.25434" lon="-2.33428">
        <ele>75.199996948242</ele>
        <time>2020-02-16T11:15:44.000Z</time>
      </trkpt>
      <trkpt lat="47.25432" lon="-2.33372">
        <ele>75.199996948242</ele>
        <time>2020-02-16T11:15:51.000Z</time>
      </trkpt>
      <trkpt lat="47.25435" lon="-2.33341">
        <ele>75.199996948242</ele>
        <time>2020-02-16T11:15:55.000Z</time>
      </trkpt>
      <trkpt lat="47.25436" lon="-2.33334">
        <ele>75.199996948242</ele>
        <time>2020-02-16T11:15:56.000Z</time>
      </trkpt>
      <trkpt lat="47.25448" lon="-2.333">
        <ele>75.199996948242</ele>
        <time>2020-02-16T11:16:01.000Z</time>
      </trkpt>
      <trkpt lat="47.2545" lon="-2.33293">
        <ele>75.199996948242</ele>
        <time>2020-02-16T11:16:02.000Z</time>
      </trkpt>
      <trkpt lat="47.25449" lon="-2.33278">
        <ele>75.199996948242</ele>
        <time>2020-02-16T11:16:04.000Z</time>
      </trkpt>
      <trkpt lat="47.25443" lon="-2.3326">
        <ele>75.199996948242</ele>
        <time>2020-02-16T11:16:07.000Z</time>
      </trkpt>
      <trkpt lat="47.25437" lon="-2.33248">
        <ele>75.199996948242</ele>
        <time>2020-02-16T11:16:09.000Z</time>
      </trkpt>
      <trkpt lat="47.25419" lon="-2.33203">
        <ele>75.199996948242</ele>
        <time>2020-02-16T11:16:16.000Z</time>
      </trkpt>
      <trkpt lat="47.25416" lon="-2.33197">
        <ele>75.599998474121</ele>
        <time>2020-02-16T11:16:17.000Z</time>
      </trkpt>
      <trkpt lat="47.25413" lon="-2.3319">
        <ele>76</ele>
        <time>2020-02-16T11:16:18.000Z</time>
      </trkpt>
      <trkpt lat="47.25411" lon="-2.33184">
        <ele>76.199996948242</ele>
        <time>2020-02-16T11:16:19.000Z</time>
      </trkpt>
      <trkpt lat="47.25408" lon="-2.33178">
        <ele>76</ele>
        <time>2020-02-16T11:16:20.000Z</time>
      </trkpt>
      <trkpt lat="47.25406" lon="-2.33172">
        <ele>75.800003051758</ele>
        <time>2020-02-16T11:16:21.000Z</time>
      </trkpt>
      <trkpt lat="47.25403" lon="-2.33166">
        <ele>75.599998474121</ele>
        <time>2020-02-16T11:16:22.000Z</time>
      </trkpt>
      <trkpt lat="47.254" lon="-2.3316">
        <ele>75.199996948242</ele>
        <time>2020-02-16T11:16:23.000Z</time>
      </trkpt>
      <trkpt lat="47.25397" lon="-2.33155">
        <ele>75.199996948242</ele>
        <time>2020-02-16T11:16:24.000Z</time>
      </trkpt>
      <trkpt lat="47.25389" lon="-2.33145">
        <ele>75.199996948242</ele>
        <time>2020-02-16T11:16:27.000Z</time>
      </trkpt>
      <trkpt lat="47.25376" lon="-2.33124">
        <ele>75.199996948242</ele>
        <time>2020-02-16T11:16:34.000Z</time>
      </trkpt>
      <trkpt lat="47.25375" lon="-2.33121">
        <ele>75.199996948242</ele>
        <time>2020-02-16T11:16:36.000Z</time>
      </trkpt>
      <trkpt lat="47.25377" lon="-2.33117">
        <ele>78.400001525879</ele>
        <time>2020-02-16T11:34:35.000Z</time>
      </trkpt>
      <trkpt lat="47.25376" lon="-2.33115">
        <ele>78.400001525879</ele>
        <time>2020-02-16T11:34:36.000Z</time>
      </trkpt>
      <trkpt lat="47.2537" lon="-2.33099">
        <ele>78.400001525879</ele>
        <time>2020-02-16T11:34:42.000Z</time>
      </trkpt>
      <trkpt lat="47.25363" lon="-2.33083">
        <ele>78.400001525879</ele>
        <time>2020-02-16T11:34:45.000Z</time>
      </trkpt>
      <trkpt lat="47.25358" lon="-2.33071">
        <ele>78.400001525879</ele>
        <time>2020-02-16T11:34:47.000Z</time>
      </trkpt>
      <trkpt lat="47.25335" lon="-2.3301">
        <ele>78.400001525879</ele>
        <time>2020-02-16T11:34:57.000Z</time>
      </trkpt>
      <trkpt lat="47.25315" lon="-2.32958">
        <ele>78.400001525879</ele>
        <time>2020-02-16T11:35:06.000Z</time>
      </trkpt>
      <trkpt lat="47.25308" lon="-2.32934">
        <ele>78.400001525879</ele>
        <time>2020-02-16T11:35:10.000Z</time>
      </trkpt>
      <trkpt lat="47.2531" lon="-2.32921">
        <ele>78.400001525879</ele>
        <time>2020-02-16T11:35:12.000Z</time>
      </trkpt>
      <trkpt lat="47.25321" lon="-2.32909">
        <ele>78.400001525879</ele>
        <time>2020-02-16T11:35:15.000Z</time>
      </trkpt>
      <trkpt lat="47.25329" lon="-2.329">
        <ele>78.400001525879</ele>
        <time>2020-02-16T11:35:17.000Z</time>
      </trkpt>
      <trkpt lat="47.25337" lon="-2.32892">
        <ele>78.400001525879</ele>
        <time>2020-02-16T11:35:19.000Z</time>
      </trkpt>
      <trkpt lat="47.25373" lon="-2.32856">
        <ele>78.400001525879</ele>
        <time>2020-02-16T11:35:27.000Z</time>
      </trkpt>
      <trkpt lat="47.25398" lon="-2.32828">
        <ele>78.400001525879</ele>
        <time>2020-02-16T11:35:33.000Z</time>
      </trkpt>
      <trkpt lat="47.25407" lon="-2.32818">
        <ele>78.400001525879</ele>
        <time>2020-02-16T11:35:35.000Z</time>
      </trkpt>
      <trkpt lat="47.25417" lon="-2.32801">
        <ele>78.400001525879</ele>
        <time>2020-02-16T11:35:38.000Z</time>
      </trkpt>
      <trkpt lat="47.25425" lon="-2.32784">
        <ele>78.400001525879</ele>
        <time>2020-02-16T11:35:41.000Z</time>
      </trkpt>
      <trkpt lat="47.25429" lon="-2.3277">
        <ele>79</ele>
        <time>2020-02-16T11:35:43.000Z</time>
      </trkpt>
      <trkpt lat="47.25433" lon="-2.32766">
        <ele>79.400001525879</ele>
        <time>2020-02-16T11:35:44.000Z</time>
      </trkpt>
      <trkpt lat="47.25437" lon="-2.32761">
        <ele>79.800003051758</ele>
        <time>2020-02-16T11:35:45.000Z</time>
      </trkpt>
      <trkpt lat="47.25441" lon="-2.32756">
        <ele>80.199996948242</ele>
        <time>2020-02-16T11:35:46.000Z</time>
      </trkpt>
      <trkpt lat="47.25446" lon="-2.3275">
        <ele>80.800003051758</ele>
        <time>2020-02-16T11:35:47.000Z</time>
      </trkpt>
      <trkpt lat="47.25471" lon="-2.32715">
        <ele>80.800003051758</ele>
        <time>2020-02-16T11:35:53.000Z</time>
      </trkpt>
      <trkpt lat="47.25483" lon="-2.32696">
        <ele>80.800003051758</ele>
        <time>2020-02-16T11:35:56.000Z</time>
      </trkpt>
      <trkpt lat="47.25487" lon="-2.3268">
        <ele>80.800003051758</ele>
        <time>2020-02-16T11:35:58.000Z</time>
      </trkpt>
      <trkpt lat="47.25486" lon="-2.32647">
        <ele>80.800003051758</ele>
        <time>2020-02-16T11:36:02.000Z</time>
      </trkpt>
      <trkpt lat="47.25485" lon="-2.32638">
        <ele>80.800003051758</ele>
        <time>2020-02-16T11:36:03.000Z</time>
      </trkpt>
      <trkpt lat="47.25483" lon="-2.32623">
        <ele>80.800003051758</ele>
        <time>2020-02-16T11:36:05.000Z</time>
      </trkpt>
      <trkpt lat="47.2548" lon="-2.32598">
        <ele>80.800003051758</ele>
        <time>2020-02-16T11:36:08.000Z</time>
      </trkpt>
      <trkpt lat="47.25479" lon="-2.32591">
        <ele>81.199996948242</ele>
        <time>2020-02-16T11:36:09.000Z</time>
      </trkpt>
      <trkpt lat="47.25479" lon="-2.32583">
        <ele>81.599998474121</ele>
        <time>2020-02-16T11:36:10.000Z</time>
      </trkpt>
      <trkpt lat="47.25479" lon="-2.32576">
        <ele>82</ele>
        <time>2020-02-16T11:36:11.000Z</time>
      </trkpt>
      <trkpt lat="47.25481" lon="-2.32569">
        <ele>82.400001525879</ele>
        <time>2020-02-16T11:36:12.000Z</time>
      </trkpt>
      <trkpt lat="47.25483" lon="-2.32563">
        <ele>82.800003051758</ele>
        <time>2020-02-16T11:36:13.000Z</time>
      </trkpt>
      <trkpt lat="47.255" lon="-2.32543">
        <ele>82.800003051758</ele>
        <time>2020-02-16T11:36:17.000Z</time>
      </trkpt>
      <trkpt lat="47.25505" lon="-2.32538">
        <ele>82.400001525879</ele>
        <time>2020-02-16T11:36:18.000Z</time>
      </trkpt>
      <trkpt lat="47.2551" lon="-2.32533">
        <ele>82</ele>
        <time>2020-02-16T11:36:19.000Z</time>
      </trkpt>
      <trkpt lat="47.25516" lon="-2.32528">
        <ele>81.599998474121</ele>
        <time>2020-02-16T11:36:20.000Z</time>
      </trkpt>
      <trkpt lat="47.25522" lon="-2.32523">
        <ele>81.199996948242</ele>
        <time>2020-02-16T11:36:21.000Z</time>
      </trkpt>
      <trkpt lat="47.25528" lon="-2.32518">
        <ele>80.800003051758</ele>
        <time>2020-02-16T11:36:22.000Z</time>
      </trkpt>
      <trkpt lat="47.25534" lon="-2.32512">
        <ele>80.800003051758</ele>
        <time>2020-02-16T11:36:23.000Z</time>
      </trkpt>
      <trkpt lat="47.25576" lon="-2.32474">
        <ele>80.800003051758</ele>
        <time>2020-02-16T11:36:29.000Z</time>
      </trkpt>
      <trkpt lat="47.2559" lon="-2.32459">
        <ele>80.199996948242</ele>
        <time>2020-02-16T11:36:31.000Z</time>
      </trkpt>
      <trkpt lat="47.25598" lon="-2.32451">
        <ele>79.599998474121</ele>
        <time>2020-02-16T11:36:32.000Z</time>
      </trkpt>
      <trkpt lat="47.25606" lon="-2.32443">
        <ele>79</ele>
        <time>2020-02-16T11:36:33.000Z</time>
      </trkpt>
      <trkpt lat="47.25613" lon="-2.32435">
        <ele>78.400001525879</ele>
        <time>2020-02-16T11:36:34.000Z</time>
      </trkpt>
      <trkpt lat="47.25621" lon="-2.32427">
        <ele>77.800003051758</ele>
        <time>2020-02-16T11:36:35.000Z</time>
      </trkpt>
      <trkpt lat="47.25628" lon="-2.32418">
        <ele>77.199996948242</ele>
        <time>2020-02-16T11:36:36.000Z</time>
      </trkpt>
      <trkpt lat="47.25634" lon="-2.32411">
        <ele>76.800003051758</ele>
        <time>2020-02-16T11:36:37.000Z</time>
      </trkpt>
      <trkpt lat="47.2564" lon="-2.32406">
        <ele>76.400001525879</ele>
        <time>2020-02-16T11:36:38.000Z</time>
      </trkpt>
      <trkpt lat="47.25646" lon="-2.32403">
        <ele>76</ele>
        <time>2020-02-16T11:36:39.000Z</time>
      </trkpt>
      <trkpt lat="47.25652" lon="-2.32402">
        <ele>75.599998474121</ele>
        <time>2020-02-16T11:36:40.000Z</time>
      </trkpt>
      <trkpt lat="47.25658" lon="-2.32402">
        <ele>75</ele>
        <time>2020-02-16T11:36:41.000Z</time>
      </trkpt>
      <trkpt lat="47.25664" lon="-2.32403">
        <ele>74.599998474121</ele>
        <time>2020-02-16T11:36:42.000Z</time>
      </trkpt>
      <trkpt lat="47.25669" lon="-2.32407">
        <ele>74.199996948242</ele>
        <time>2020-02-16T11:36:43.000Z</time>
      </trkpt>
      <trkpt lat="47.25674" lon="-2.32414">
        <ele>73.800003051758</ele>
        <time>2020-02-16T11:36:44.000Z</time>
      </trkpt>
      <trkpt lat="47.25679" lon="-2.32418">
        <ele>73.400001525879</ele>
        <time>2020-02-16T11:36:45.000Z</time>
      </trkpt>
      <trkpt lat="47.25692" lon="-2.3242">
        <ele>73.400001525879</ele>
        <time>2020-02-16T11:36:47.000Z</time>
      </trkpt>
      <trkpt lat="47.25698" lon="-2.32421">
        <ele>73.400001525879</ele>
        <time>2020-02-16T11:36:48.000Z</time>
      </trkpt>
      <trkpt lat="47.25738" lon="-2.32426">
        <ele>73.400001525879</ele>
        <time>2020-02-16T11:36:54.000Z</time>
      </trkpt>
      <trkpt lat="47.2575" lon="-2.32426">
        <ele>73.400001525879</ele>
        <time>2020-02-16T11:36:56.000Z</time>
      </trkpt>
      <trkpt lat="47.25761" lon="-2.32421">
        <ele>73.400001525879</ele>
        <time>2020-02-16T11:36:58.000Z</time>
      </trkpt>
      <trkpt lat="47.25778" lon="-2.32412">
        <ele>73.400001525879</ele>
        <time>2020-02-16T11:37:02.000Z</time>
      </trkpt>
      <trkpt lat="47.25787" lon="-2.3242">
        <ele>74</ele>
        <time>2020-02-16T11:37:04.000Z</time>
      </trkpt>
      <trkpt lat="47.25791" lon="-2.32426">
        <ele>74.400001525879</ele>
        <time>2020-02-16T11:37:05.000Z</time>
      </trkpt>
      <trkpt lat="47.25794" lon="-2.32433">
        <ele>74.800003051758</ele>
        <time>2020-02-16T11:37:06.000Z</time>
      </trkpt>
      <trkpt lat="47.25797" lon="-2.32441">
        <ele>75.199996948242</ele>
        <time>2020-02-16T11:37:07.000Z</time>
      </trkpt>
      <trkpt lat="47.25801" lon="-2.32447">
        <ele>75.599998474121</ele>
        <time>2020-02-16T11:37:08.000Z</time>
      </trkpt>
      <trkpt lat="47.25806" lon="-2.32452">
        <ele>75.599998474121</ele>
        <time>2020-02-16T11:37:09.000Z</time>
      </trkpt>
      <trkpt lat="47.25831" lon="-2.32467">
        <ele>75.599998474121</ele>
        <time>2020-02-16T11:37:13.000Z</time>
      </trkpt>
      <trkpt lat="47.25851" lon="-2.32474">
        <ele>75.199996948242</ele>
        <time>2020-02-16T11:37:16.000Z</time>
      </trkpt>
      <trkpt lat="47.25858" lon="-2.32475">
        <ele>74.800003051758</ele>
        <time>2020-02-16T11:37:17.000Z</time>
      </trkpt>
      <trkpt lat="47.25865" lon="-2.32476">
        <ele>74</ele>
        <time>2020-02-16T11:37:18.000Z</time>
      </trkpt>
      <trkpt lat="47.25871" lon="-2.32475">
        <ele>73.599998474121</ele>
        <time>2020-02-16T11:37:19.000Z</time>
      </trkpt>
      <trkpt lat="47.25878" lon="-2.32474">
        <ele>73.599998474121</ele>
        <time>2020-02-16T11:37:20.000Z</time>
      </trkpt>
      <trkpt lat="47.25891" lon="-2.32471">
        <ele>73.599998474121</ele>
        <time>2020-02-16T11:37:22.000Z</time>
      </trkpt>
      <trkpt lat="47.25897" lon="-2.32466">
        <ele>73.599998474121</ele>
        <time>2020-02-16T11:37:23.000Z</time>
      </trkpt>
      <trkpt lat="47.25914" lon="-2.32446">
        <ele>73.599998474121</ele>
        <time>2020-02-16T11:37:26.000Z</time>
      </trkpt>
      <trkpt lat="47.25919" lon="-2.32439">
        <ele>73.599998474121</ele>
        <time>2020-02-16T11:37:27.000Z</time>
      </trkpt>
      <trkpt lat="47.25946" lon="-2.32402">
        <ele>73.599998474121</ele>
        <time>2020-02-16T11:37:32.000Z</time>
      </trkpt>
      <trkpt lat="47.25987" lon="-2.32348">
        <ele>73.599998474121</ele>
        <time>2020-02-16T11:37:40.000Z</time>
      </trkpt>
      <trkpt lat="47.25992" lon="-2.32341">
        <ele>73.599998474121</ele>
        <time>2020-02-16T11:37:41.000Z</time>
      </trkpt>
      <trkpt lat="47.26028" lon="-2.32295">
        <ele>73.599998474121</ele>
        <time>2020-02-16T11:37:48.000Z</time>
      </trkpt>
      <trkpt lat="47.26071" lon="-2.32247">
        <ele>73.599998474121</ele>
        <time>2020-02-16T11:37:56.000Z</time>
      </trkpt>
      <trkpt lat="47.26082" lon="-2.32234">
        <ele>73.199996948242</ele>
        <time>2020-02-16T11:37:58.000Z</time>
      </trkpt>
      <trkpt lat="47.26087" lon="-2.32227">
        <ele>72.599998474121</ele>
        <time>2020-02-16T11:37:59.000Z</time>
      </trkpt>
      <trkpt lat="47.26092" lon="-2.3222">
        <ele>72.199996948242</ele>
        <time>2020-02-16T11:38:00.000Z</time>
      </trkpt>
      <trkpt lat="47.26096" lon="-2.32212">
        <ele>71.800003051758</ele>
        <time>2020-02-16T11:38:01.000Z</time>
      </trkpt>
      <trkpt lat="47.26101" lon="-2.32204">
        <ele>71.400001525879</ele>
        <time>2020-02-16T11:38:02.000Z</time>
      </trkpt>
      <trkpt lat="47.26105" lon="-2.32196">
        <ele>71.400001525879</ele>
        <time>2020-02-16T11:38:03.000Z</time>
      </trkpt>
      <trkpt lat="47.26118" lon="-2.32162">
        <ele>71.400001525879</ele>
        <time>2020-02-16T11:38:07.000Z</time>
      </trkpt>
      <trkpt lat="47.26132" lon="-2.32119">
        <ele>71.400001525879</ele>
        <time>2020-02-16T11:38:12.000Z</time>
      </trkpt>
      <trkpt lat="47.26146" lon="-2.32074">
        <ele>71.800003051758</ele>
        <time>2020-02-16T11:38:17.000Z</time>
      </trkpt>
      <trkpt lat="47.26148" lon="-2.32065">
        <ele>72.400001525879</ele>
        <time>2020-02-16T11:38:18.000Z</time>
      </trkpt>
      <trkpt lat="47.2615" lon="-2.32056">
        <ele>72.800003051758</ele>
        <time>2020-02-16T11:38:19.000Z</time>
      </trkpt>
      <trkpt lat="47.26153" lon="-2.32048">
        <ele>73.199996948242</ele>
        <time>2020-02-16T11:38:20.000Z</time>
      </trkpt>
      <trkpt lat="47.26155" lon="-2.32039">
        <ele>73.599998474121</ele>
        <time>2020-02-16T11:38:21.000Z</time>
      </trkpt>
      <trkpt lat="47.2616" lon="-2.31986">
        <ele>73.599998474121</ele>
        <time>2020-02-16T11:38:27.000Z</time>
      </trkpt>
      <trkpt lat="47.26155" lon="-2.31936">
        <ele>73.599998474121</ele>
        <time>2020-02-16T11:38:33.000Z</time>
      </trkpt>
      <trkpt lat="47.26146" lon="-2.31864">
        <ele>73.599998474121</ele>
        <time>2020-02-16T11:38:41.000Z</time>
      </trkpt>
      <trkpt lat="47.26137" lon="-2.31793">
        <ele>73.599998474121</ele>
        <time>2020-02-16T11:38:49.000Z</time>
      </trkpt>
      <trkpt lat="47.26129" lon="-2.31724">
        <ele>73.599998474121</ele>
        <time>2020-02-16T11:38:57.000Z</time>
      </trkpt>
      <trkpt lat="47.26124" lon="-2.31674">
        <ele>73.599998474121</ele>
        <time>2020-02-16T11:39:03.000Z</time>
      </trkpt>
      <trkpt lat="47.26118" lon="-2.31636">
        <ele>73.599998474121</ele>
        <time>2020-02-16T11:39:08.000Z</time>
      </trkpt>
      <trkpt lat="47.26118" lon="-2.3163">
        <ele>73.599998474121</ele>
        <time>2020-02-16T11:39:09.000Z</time>
      </trkpt>
      <trkpt lat="47.26125" lon="-2.31612">
        <ele>73.599998474121</ele>
        <time>2020-02-16T11:39:13.000Z</time>
      </trkpt>
      <trkpt lat="47.26138" lon="-2.31612">
        <ele>73.599998474121</ele>
        <time>2020-02-16T11:39:16.000Z</time>
      </trkpt>
      <trkpt lat="47.26142" lon="-2.31611">
        <ele>73.599998474121</ele>
        <time>2020-02-16T11:39:17.000Z</time>
      </trkpt>
      <trkpt lat="47.26162" lon="-2.31606">
        <ele>73.599998474121</ele>
        <time>2020-02-16T11:39:21.000Z</time>
      </trkpt>
      <trkpt lat="47.26167" lon="-2.31603">
        <ele>73.599998474121</ele>
        <time>2020-02-16T11:39:22.000Z</time>
      </trkpt>
      <trkpt lat="47.26192" lon="-2.31595">
        <ele>73.599998474121</ele>
        <time>2020-02-16T11:39:27.000Z</time>
      </trkpt>
      <trkpt lat="47.2622" lon="-2.31592">
        <ele>73.599998474121</ele>
        <time>2020-02-16T11:39:32.000Z</time>
      </trkpt>
      <trkpt lat="47.26225" lon="-2.31594">
        <ele>73.599998474121</ele>
        <time>2020-02-16T11:39:33.000Z</time>
      </trkpt>
      <trkpt lat="47.26238" lon="-2.31604">
        <ele>73.599998474121</ele>
        <time>2020-02-16T11:39:36.000Z</time>
      </trkpt>
      <trkpt lat="47.26243" lon="-2.31608">
        <ele>73.599998474121</ele>
        <time>2020-02-16T11:39:37.000Z</time>
      </trkpt>
      <trkpt lat="47.26251" lon="-2.31618">
        <ele>73.599998474121</ele>
        <time>2020-02-16T11:39:39.000Z</time>
      </trkpt>
      <trkpt lat="47.26258" lon="-2.31626">
        <ele>73.599998474121</ele>
        <time>2020-02-16T11:39:41.000Z</time>
      </trkpt>
      <trkpt lat="47.26265" lon="-2.31645">
        <ele>73.599998474121</ele>
        <time>2020-02-16T11:39:44.000Z</time>
      </trkpt>
      <trkpt lat="47.26268" lon="-2.31651">
        <ele>73.599998474121</ele>
        <time>2020-02-16T11:39:45.000Z</time>
      </trkpt>
      <trkpt lat="47.26272" lon="-2.31657">
        <ele>73.599998474121</ele>
        <time>2020-02-16T11:39:46.000Z</time>
      </trkpt>
      <trkpt lat="47.26295" lon="-2.31698">
        <ele>73.599998474121</ele>
        <time>2020-02-16T11:39:53.000Z</time>
      </trkpt>
      <trkpt lat="47.26307" lon="-2.31712">
        <ele>73.599998474121</ele>
        <time>2020-02-16T11:39:57.000Z</time>
      </trkpt>
      <trkpt lat="47.2631" lon="-2.31711">
        <ele>73.599998474121</ele>
        <time>2020-02-16T11:39:58.000Z</time>
      </trkpt>
      <trkpt lat="47.26317" lon="-2.31706">
        <ele>73.599998474121</ele>
        <time>2020-02-16T11:40:00.000Z</time>
      </trkpt>
      <trkpt lat="47.2633" lon="-2.31697">
        <ele>73.599998474121</ele>
        <time>2020-02-16T11:40:04.000Z</time>
      </trkpt>
      <trkpt lat="47.26331" lon="-2.31692">
        <ele>73.599998474121</ele>
        <time>2020-02-16T11:40:05.000Z</time>
      </trkpt>
      <trkpt lat="47.26341" lon="-2.31684">
        <ele>73.599998474121</ele>
        <time>2020-02-16T11:40:08.000Z</time>
      </trkpt>
      <trkpt lat="47.26344" lon="-2.31682">
        <ele>74</ele>
        <time>2020-02-16T11:40:09.000Z</time>
      </trkpt>
      <trkpt lat="47.26348" lon="-2.31681">
        <ele>74.400001525879</ele>
        <time>2020-02-16T11:40:10.000Z</time>
      </trkpt>
      <trkpt lat="47.26351" lon="-2.31679">
        <ele>75.199996948242</ele>
        <time>2020-02-16T11:40:11.000Z</time>
      </trkpt>
      <trkpt lat="47.26355" lon="-2.31677">
        <ele>75.800003051758</ele>
        <time>2020-02-16T11:40:12.000Z</time>
      </trkpt>
      <trkpt lat="47.26367" lon="-2.31672">
        <ele>76.199996948242</ele>
        <time>2020-02-16T11:40:15.000Z</time>
      </trkpt>
      <trkpt lat="47.26372" lon="-2.31671">
        <ele>76.599998474121</ele>
        <time>2020-02-16T11:40:16.000Z</time>
      </trkpt>
      <trkpt lat="47.26376" lon="-2.3167">
        <ele>77</ele>
        <time>2020-02-16T11:40:17.000Z</time>
      </trkpt>
      <trkpt lat="47.2638" lon="-2.31668">
        <ele>77.400001525879</ele>
        <time>2020-02-16T11:40:18.000Z</time>
      </trkpt>
      <trkpt lat="47.26384" lon="-2.31665">
        <ele>77.800003051758</ele>
        <time>2020-02-16T11:40:19.000Z</time>
      </trkpt>
      <trkpt lat="47.26388" lon="-2.31662">
        <ele>77.800003051758</ele>
        <time>2020-02-16T11:40:20.000Z</time>
      </trkpt>
      <trkpt lat="47.26403" lon="-2.31655">
        <ele>77.800003051758</ele>
        <time>2020-02-16T11:40:25.000Z</time>
      </trkpt>
      <trkpt lat="47.26411" lon="-2.31645">
        <ele>77.800003051758</ele>
        <time>2020-02-16T11:40:28.000Z</time>
      </trkpt>
      <trkpt lat="47.26411" lon="-2.31643">
        <ele>77.800003051758</ele>
        <time>2020-02-16T11:40:29.000Z</time>
      </trkpt>
      <trkpt lat="47.26411" lon="-2.31626">
        <ele>77.800003051758</ele>
        <time>2020-02-16T11:40:33.000Z</time>
      </trkpt>
      <trkpt lat="47.26411" lon="-2.31616">
        <ele>77.800003051758</ele>
        <time>2020-02-16T11:40:35.000Z</time>
      </trkpt>
      <trkpt lat="47.26413" lon="-2.3159">
        <ele>77.800003051758</ele>
        <time>2020-02-16T11:40:41.000Z</time>
      </trkpt>
      <trkpt lat="47.26412" lon="-2.31562">
        <ele>77.800003051758</ele>
        <time>2020-02-16T11:40:47.000Z</time>
      </trkpt>
      <trkpt lat="47.26413" lon="-2.31555">
        <ele>77.800003051758</ele>
        <time>2020-02-16T11:40:49.000Z</time>
      </trkpt>
      <trkpt lat="47.26417" lon="-2.31556">
        <ele>77.800003051758</ele>
        <time>2020-02-16T11:40:51.000Z</time>
      </trkpt>
      <trkpt lat="47.2642" lon="-2.31557">
        <ele>77.800003051758</ele>
        <time>2020-02-16T11:40:54.000Z</time>
      </trkpt>
      <trkpt lat="47.2642" lon="-2.31557">
        <ele>77.800003051758</ele>
        <time>2020-02-16T11:40:55.000Z</time>
      </trkpt>
    </trkseg>
  </trk>
</gpx>